<?xml version="1.0" encoding="UTF-8" standalone="no" ?>
<gpx xmlns="http://www.topografix.com/GPX/1/1" xmlns:xsi="http://www.w3.org/2001/XMLSchema-instance" xsi:schemaLocation="http://www.topografix.com/GPX/1/1 http://www.topografix.com/GPX/1/1/gpx.xsd" version="1.1" creator="VisuGPX - https://www.visugpx.com">
  <metadata>
    <name>Gordes circuit à reconnaitre</name>
    <desc><![CDATA[Randonnée à reconnaitre au mois de décembre.]]></desc>
  </metadata>
  <trk>
    <name><![CDATA[20181101094101-NusMf]]></name>
    <trkseg>
      <trkpt lat="43.93074" lon="5.18907">
        <ele>333.71</ele>
        <time>2016-01-15T09:15:11Z</time>
      </trkpt>
      <trkpt lat="43.93073" lon="5.18907">
        <ele>338.04</ele>
        <time>2016-01-15T09:15:14Z</time>
      </trkpt>
      <trkpt lat="43.93073" lon="5.18907">
        <ele>338.04</ele>
        <time>2016-01-15T09:15:15Z</time>
      </trkpt>
      <trkpt lat="43.93073" lon="5.18907">
        <ele>334.2</ele>
        <time>2016-01-15T09:15:16Z</time>
      </trkpt>
      <trkpt lat="43.93073" lon="5.18907">
        <ele>334.2</ele>
        <time>2016-01-15T09:15:17Z</time>
      </trkpt>
      <trkpt lat="43.93074" lon="5.18908">
        <ele>338.04</ele>
        <time>2016-01-15T09:15:25Z</time>
      </trkpt>
      <trkpt lat="43.93074" lon="5.18908">
        <ele>338.04</ele>
        <time>2016-01-15T09:15:26Z</time>
      </trkpt>
      <trkpt lat="43.93073" lon="5.18908">
        <ele>343.81</ele>
        <time>2016-01-15T09:15:27Z</time>
      </trkpt>
      <trkpt lat="43.93071" lon="5.18906">
        <ele>346.21</ele>
        <time>2016-01-15T09:15:33Z</time>
      </trkpt>
      <trkpt lat="43.93072" lon="5.18906">
        <ele>349.58</ele>
        <time>2016-01-15T09:15:39Z</time>
      </trkpt>
      <trkpt lat="43.93072" lon="5.18907">
        <ele>353.42</ele>
        <time>2016-01-15T09:15:42Z</time>
      </trkpt>
      <trkpt lat="43.93072" lon="5.18908">
        <ele>356.31</ele>
        <time>2016-01-15T09:15:45Z</time>
      </trkpt>
      <trkpt lat="43.93072" lon="5.18906">
        <ele>360.15</ele>
        <time>2016-01-15T09:15:49Z</time>
      </trkpt>
      <trkpt lat="43.93072" lon="5.18905">
        <ele>363.52</ele>
        <time>2016-01-15T09:15:53Z</time>
      </trkpt>
      <trkpt lat="43.93073" lon="5.18904">
        <ele>366.88</ele>
        <time>2016-01-15T09:15:58Z</time>
      </trkpt>
      <trkpt lat="43.9307" lon="5.18902">
        <ele>369.76</ele>
        <time>2016-01-15T09:16:04Z</time>
      </trkpt>
      <trkpt lat="43.9307" lon="5.18902">
        <ele>373.13</ele>
        <time>2016-01-15T09:16:11Z</time>
      </trkpt>
      <trkpt lat="43.9307" lon="5.189">
        <ele>376.01</ele>
        <time>2016-01-15T09:16:24Z</time>
      </trkpt>
      <trkpt lat="43.9307" lon="5.189">
        <ele>377.94</ele>
        <time>2016-01-15T09:16:33Z</time>
      </trkpt>
      <trkpt lat="43.93071" lon="5.18896">
        <ele>379.38</ele>
        <time>2016-01-15T09:16:43Z</time>
      </trkpt>
      <trkpt lat="43.93072" lon="5.18896">
        <ele>380.34</ele>
        <time>2016-01-15T09:16:56Z</time>
      </trkpt>
      <trkpt lat="43.93072" lon="5.18896">
        <ele>380.82</ele>
        <time>2016-01-15T09:17:02Z</time>
      </trkpt>
      <trkpt lat="43.93073" lon="5.18896">
        <ele>380.34</ele>
        <time>2016-01-15T09:17:10Z</time>
      </trkpt>
      <trkpt lat="43.93073" lon="5.18897">
        <ele>380.34</ele>
        <time>2016-01-15T09:17:18Z</time>
      </trkpt>
      <trkpt lat="43.93073" lon="5.18897">
        <ele>380.34</ele>
        <time>2016-01-15T09:17:19Z</time>
      </trkpt>
      <trkpt lat="43.93072" lon="5.18894">
        <ele>380.34</ele>
        <time>2016-01-15T09:17:21Z</time>
      </trkpt>
      <trkpt lat="43.93071" lon="5.18892">
        <ele>380.34</ele>
        <time>2016-01-15T09:17:24Z</time>
      </trkpt>
      <trkpt lat="43.9307" lon="5.18885">
        <ele>380.34</ele>
        <time>2016-01-15T09:17:29Z</time>
      </trkpt>
      <trkpt lat="43.9307" lon="5.18881">
        <ele>380.34</ele>
        <time>2016-01-15T09:17:36Z</time>
      </trkpt>
      <trkpt lat="43.9307" lon="5.18883">
        <ele>379.86</ele>
        <time>2016-01-15T09:17:50Z</time>
      </trkpt>
      <trkpt lat="43.93071" lon="5.18883">
        <ele>379.86</ele>
        <time>2016-01-15T09:18:08Z</time>
      </trkpt>
      <trkpt lat="43.93071" lon="5.18884">
        <ele>379.86</ele>
        <time>2016-01-15T09:18:22Z</time>
      </trkpt>
      <trkpt lat="43.93071" lon="5.18886">
        <ele>379.86</ele>
        <time>2016-01-15T09:18:30Z</time>
      </trkpt>
      <trkpt lat="43.93073" lon="5.18887">
        <ele>379.86</ele>
        <time>2016-01-15T09:18:44Z</time>
      </trkpt>
      <trkpt lat="43.93074" lon="5.18887">
        <ele>380.34</ele>
        <time>2016-01-15T09:18:50Z</time>
      </trkpt>
      <trkpt lat="43.93073" lon="5.18888">
        <ele>379.86</ele>
        <time>2016-01-15T09:18:52Z</time>
      </trkpt>
      <trkpt lat="43.93073" lon="5.18892">
        <ele>380.34</ele>
        <time>2016-01-15T09:18:55Z</time>
      </trkpt>
      <trkpt lat="43.93069" lon="5.18903">
        <ele>380.82</ele>
        <time>2016-01-15T09:19:00Z</time>
      </trkpt>
      <trkpt lat="43.93068" lon="5.18904">
        <ele>380.34</ele>
        <time>2016-01-15T09:19:09Z</time>
      </trkpt>
      <trkpt lat="43.93069" lon="5.18907">
        <ele>379.86</ele>
        <time>2016-01-15T09:19:14Z</time>
      </trkpt>
      <trkpt lat="43.93069" lon="5.18905">
        <ele>379.86</ele>
        <time>2016-01-15T09:19:20Z</time>
      </trkpt>
      <trkpt lat="43.93069" lon="5.18906">
        <ele>380.82</ele>
        <time>2016-01-15T09:19:27Z</time>
      </trkpt>
      <trkpt lat="43.9307" lon="5.18906">
        <ele>379.86</ele>
        <time>2016-01-15T09:19:34Z</time>
      </trkpt>
      <trkpt lat="43.93071" lon="5.18906">
        <ele>379.86</ele>
        <time>2016-01-15T09:19:43Z</time>
      </trkpt>
      <trkpt lat="43.93072" lon="5.18904">
        <ele>379.86</ele>
        <time>2016-01-15T09:19:51Z</time>
      </trkpt>
      <trkpt lat="43.93075" lon="5.18905">
        <ele>380.34</ele>
        <time>2016-01-15T09:19:58Z</time>
      </trkpt>
      <trkpt lat="43.93077" lon="5.18904">
        <ele>380.34</ele>
        <time>2016-01-15T09:20:05Z</time>
      </trkpt>
      <trkpt lat="43.9308" lon="5.18904">
        <ele>380.34</ele>
        <time>2016-01-15T09:20:12Z</time>
      </trkpt>
      <trkpt lat="43.93085" lon="5.18906">
        <ele>380.34</ele>
        <time>2016-01-15T09:20:19Z</time>
      </trkpt>
      <trkpt lat="43.93087" lon="5.18907">
        <ele>380.34</ele>
        <time>2016-01-15T09:20:27Z</time>
      </trkpt>
      <trkpt lat="43.93086" lon="5.18907">
        <ele>380.34</ele>
        <time>2016-01-15T09:20:34Z</time>
      </trkpt>
      <trkpt lat="43.93086" lon="5.18908">
        <ele>380.34</ele>
        <time>2016-01-15T09:20:44Z</time>
      </trkpt>
      <trkpt lat="43.93087" lon="5.18908">
        <ele>379.86</ele>
        <time>2016-01-15T09:20:57Z</time>
      </trkpt>
      <trkpt lat="43.93086" lon="5.18907">
        <ele>379.86</ele>
        <time>2016-01-15T09:21:00Z</time>
      </trkpt>
      <trkpt lat="43.93082" lon="5.18904">
        <ele>379.86</ele>
        <time>2016-01-15T09:21:07Z</time>
      </trkpt>
      <trkpt lat="43.9308" lon="5.18903">
        <ele>379.38</ele>
        <time>2016-01-15T09:21:15Z</time>
      </trkpt>
      <trkpt lat="43.9308" lon="5.18904">
        <ele>379.86</ele>
        <time>2016-01-15T09:21:22Z</time>
      </trkpt>
      <trkpt lat="43.93081" lon="5.18904">
        <ele>380.34</ele>
        <time>2016-01-15T09:21:28Z</time>
      </trkpt>
      <trkpt lat="43.93081" lon="5.18903">
        <ele>379.38</ele>
        <time>2016-01-15T09:21:39Z</time>
      </trkpt>
      <trkpt lat="43.93089" lon="5.18902">
        <ele>379.86</ele>
        <time>2016-01-15T09:21:49Z</time>
      </trkpt>
      <trkpt lat="43.9309" lon="5.189">
        <ele>379.86</ele>
        <time>2016-01-15T09:21:52Z</time>
      </trkpt>
      <trkpt lat="43.93094" lon="5.189">
        <ele>380.34</ele>
        <time>2016-01-15T09:21:55Z</time>
      </trkpt>
      <trkpt lat="43.93101" lon="5.18899">
        <ele>379.86</ele>
        <time>2016-01-15T09:22:01Z</time>
      </trkpt>
      <trkpt lat="43.93106" lon="5.18897">
        <ele>380.34</ele>
        <time>2016-01-15T09:22:05Z</time>
      </trkpt>
      <trkpt lat="43.93111" lon="5.18899">
        <ele>380.34</ele>
        <time>2016-01-15T09:22:10Z</time>
      </trkpt>
      <trkpt lat="43.93115" lon="5.189">
        <ele>380.82</ele>
        <time>2016-01-15T09:22:14Z</time>
      </trkpt>
      <trkpt lat="43.93119" lon="5.18898">
        <ele>380.82</ele>
        <time>2016-01-15T09:22:20Z</time>
      </trkpt>
      <trkpt lat="43.93129" lon="5.18899">
        <ele>380.82</ele>
        <time>2016-01-15T09:22:27Z</time>
      </trkpt>
      <trkpt lat="43.93134" lon="5.18901">
        <ele>380.82</ele>
        <time>2016-01-15T09:22:33Z</time>
      </trkpt>
      <trkpt lat="43.93135" lon="5.18903">
        <ele>381.3</ele>
        <time>2016-01-15T09:22:39Z</time>
      </trkpt>
      <trkpt lat="43.93137" lon="5.18904">
        <ele>380.82</ele>
        <time>2016-01-15T09:22:41Z</time>
      </trkpt>
      <trkpt lat="43.93147" lon="5.18905">
        <ele>381.3</ele>
        <time>2016-01-15T09:22:48Z</time>
      </trkpt>
      <trkpt lat="43.93148" lon="5.18905">
        <ele>381.78</ele>
        <time>2016-01-15T09:22:49Z</time>
      </trkpt>
      <trkpt lat="43.93151" lon="5.18906">
        <ele>381.78</ele>
        <time>2016-01-15T09:22:51Z</time>
      </trkpt>
      <trkpt lat="43.93158" lon="5.18907">
        <ele>382.26</ele>
        <time>2016-01-15T09:22:57Z</time>
      </trkpt>
      <trkpt lat="43.9316" lon="5.18907">
        <ele>381.78</ele>
        <time>2016-01-15T09:22:59Z</time>
      </trkpt>
      <trkpt lat="43.93168" lon="5.1891">
        <ele>381.78</ele>
        <time>2016-01-15T09:23:07Z</time>
      </trkpt>
      <trkpt lat="43.93174" lon="5.18908">
        <ele>382.26</ele>
        <time>2016-01-15T09:23:12Z</time>
      </trkpt>
      <trkpt lat="43.93182" lon="5.18908">
        <ele>382.26</ele>
        <time>2016-01-15T09:23:19Z</time>
      </trkpt>
      <trkpt lat="43.93187" lon="5.1891">
        <ele>382.26</ele>
        <time>2016-01-15T09:23:23Z</time>
      </trkpt>
      <trkpt lat="43.93195" lon="5.18911">
        <ele>382.74</ele>
        <time>2016-01-15T09:23:29Z</time>
      </trkpt>
      <trkpt lat="43.93196" lon="5.18912">
        <ele>382.26</ele>
        <time>2016-01-15T09:23:30Z</time>
      </trkpt>
      <trkpt lat="43.932" lon="5.18914">
        <ele>382.74</ele>
        <time>2016-01-15T09:23:35Z</time>
      </trkpt>
      <trkpt lat="43.93204" lon="5.18914">
        <ele>382.74</ele>
        <time>2016-01-15T09:23:38Z</time>
      </trkpt>
      <trkpt lat="43.93207" lon="5.18915">
        <ele>382.74</ele>
        <time>2016-01-15T09:23:41Z</time>
      </trkpt>
      <trkpt lat="43.93212" lon="5.18916">
        <ele>382.74</ele>
        <time>2016-01-15T09:23:45Z</time>
      </trkpt>
      <trkpt lat="43.93221" lon="5.18916">
        <ele>382.26</ele>
        <time>2016-01-15T09:23:52Z</time>
      </trkpt>
      <trkpt lat="43.9323" lon="5.18915">
        <ele>381.78</ele>
        <time>2016-01-15T09:24:00Z</time>
      </trkpt>
      <trkpt lat="43.93239" lon="5.18916">
        <ele>380.82</ele>
        <time>2016-01-15T09:24:05Z</time>
      </trkpt>
      <trkpt lat="43.93244" lon="5.18917">
        <ele>380.82</ele>
        <time>2016-01-15T09:24:09Z</time>
      </trkpt>
      <trkpt lat="43.9325" lon="5.18915">
        <ele>380.34</ele>
        <time>2016-01-15T09:24:16Z</time>
      </trkpt>
      <trkpt lat="43.93253" lon="5.18914">
        <ele>380.34</ele>
        <time>2016-01-15T09:24:19Z</time>
      </trkpt>
      <trkpt lat="43.93263" lon="5.18912">
        <ele>380.34</ele>
        <time>2016-01-15T09:24:25Z</time>
      </trkpt>
      <trkpt lat="43.9327" lon="5.18909">
        <ele>380.82</ele>
        <time>2016-01-15T09:24:32Z</time>
      </trkpt>
      <trkpt lat="43.93278" lon="5.18905">
        <ele>381.78</ele>
        <time>2016-01-15T09:24:39Z</time>
      </trkpt>
      <trkpt lat="43.93287" lon="5.18903">
        <ele>383.22</ele>
        <time>2016-01-15T09:24:47Z</time>
      </trkpt>
      <trkpt lat="43.93295" lon="5.18899">
        <ele>383.7</ele>
        <time>2016-01-15T09:24:55Z</time>
      </trkpt>
      <trkpt lat="43.93305" lon="5.18897">
        <ele>383.7</ele>
        <time>2016-01-15T09:25:02Z</time>
      </trkpt>
      <trkpt lat="43.93306" lon="5.18897">
        <ele>384.66</ele>
        <time>2016-01-15T09:25:03Z</time>
      </trkpt>
      <trkpt lat="43.93316" lon="5.18893">
        <ele>384.66</ele>
        <time>2016-01-15T09:25:11Z</time>
      </trkpt>
      <trkpt lat="43.93322" lon="5.1889">
        <ele>385.63</ele>
        <time>2016-01-15T09:25:17Z</time>
      </trkpt>
      <trkpt lat="43.93328" lon="5.18887">
        <ele>386.11</ele>
        <time>2016-01-15T09:25:22Z</time>
      </trkpt>
      <trkpt lat="43.93336" lon="5.18883">
        <ele>386.59</ele>
        <time>2016-01-15T09:25:30Z</time>
      </trkpt>
      <trkpt lat="43.93345" lon="5.18877">
        <ele>387.55</ele>
        <time>2016-01-15T09:25:38Z</time>
      </trkpt>
      <trkpt lat="43.9335" lon="5.18875">
        <ele>388.03</ele>
        <time>2016-01-15T09:25:42Z</time>
      </trkpt>
      <trkpt lat="43.93354" lon="5.18873">
        <ele>388.51</ele>
        <time>2016-01-15T09:25:46Z</time>
      </trkpt>
      <trkpt lat="43.93359" lon="5.18872">
        <ele>388.99</ele>
        <time>2016-01-15T09:25:50Z</time>
      </trkpt>
      <trkpt lat="43.93369" lon="5.18872">
        <ele>389.47</ele>
        <time>2016-01-15T09:25:59Z</time>
      </trkpt>
      <trkpt lat="43.93378" lon="5.18872">
        <ele>389.95</ele>
        <time>2016-01-15T09:26:06Z</time>
      </trkpt>
      <trkpt lat="43.93381" lon="5.18872">
        <ele>390.43</ele>
        <time>2016-01-15T09:26:09Z</time>
      </trkpt>
      <trkpt lat="43.9339" lon="5.18873">
        <ele>390.91</ele>
        <time>2016-01-15T09:26:17Z</time>
      </trkpt>
      <trkpt lat="43.93392" lon="5.18873">
        <ele>391.39</ele>
        <time>2016-01-15T09:26:19Z</time>
      </trkpt>
      <trkpt lat="43.93396" lon="5.18872">
        <ele>391.39</ele>
        <time>2016-01-15T09:26:23Z</time>
      </trkpt>
      <trkpt lat="43.934" lon="5.18871">
        <ele>391.87</ele>
        <time>2016-01-15T09:26:27Z</time>
      </trkpt>
      <trkpt lat="43.93406" lon="5.1887">
        <ele>392.84</ele>
        <time>2016-01-15T09:26:33Z</time>
      </trkpt>
      <trkpt lat="43.93416" lon="5.18871">
        <ele>392.84</ele>
        <time>2016-01-15T09:26:41Z</time>
      </trkpt>
      <trkpt lat="43.93417" lon="5.18872">
        <ele>392.84</ele>
        <time>2016-01-15T09:26:42Z</time>
      </trkpt>
      <trkpt lat="43.9343" lon="5.18874">
        <ele>393.32</ele>
        <time>2016-01-15T09:26:52Z</time>
      </trkpt>
      <trkpt lat="43.93438" lon="5.18877">
        <ele>393.32</ele>
        <time>2016-01-15T09:26:59Z</time>
      </trkpt>
      <trkpt lat="43.93442" lon="5.18878">
        <ele>393.32</ele>
        <time>2016-01-15T09:27:02Z</time>
      </trkpt>
      <trkpt lat="43.93447" lon="5.18882">
        <ele>392.84</ele>
        <time>2016-01-15T09:27:06Z</time>
      </trkpt>
      <trkpt lat="43.93453" lon="5.18884">
        <ele>392.36</ele>
        <time>2016-01-15T09:27:12Z</time>
      </trkpt>
      <trkpt lat="43.93459" lon="5.18885">
        <ele>392.84</ele>
        <time>2016-01-15T09:27:19Z</time>
      </trkpt>
      <trkpt lat="43.93462" lon="5.18886">
        <ele>392.84</ele>
        <time>2016-01-15T09:27:26Z</time>
      </trkpt>
      <trkpt lat="43.93466" lon="5.18887">
        <ele>393.32</ele>
        <time>2016-01-15T09:27:31Z</time>
      </trkpt>
      <trkpt lat="43.93471" lon="5.18889">
        <ele>395.24</ele>
        <time>2016-01-15T09:27:39Z</time>
      </trkpt>
      <trkpt lat="43.93474" lon="5.18891">
        <ele>396.2</ele>
        <time>2016-01-15T09:27:45Z</time>
      </trkpt>
      <trkpt lat="43.9348" lon="5.18891">
        <ele>397.16</ele>
        <time>2016-01-15T09:27:53Z</time>
      </trkpt>
      <trkpt lat="43.93488" lon="5.18891">
        <ele>398.6</ele>
        <time>2016-01-15T09:28:02Z</time>
      </trkpt>
      <trkpt lat="43.93493" lon="5.1889">
        <ele>399.57</ele>
        <time>2016-01-15T09:28:11Z</time>
      </trkpt>
      <trkpt lat="43.93501" lon="5.1889">
        <ele>401.01</ele>
        <time>2016-01-15T09:28:22Z</time>
      </trkpt>
      <trkpt lat="43.93502" lon="5.18888">
        <ele>401.01</ele>
        <time>2016-01-15T09:28:24Z</time>
      </trkpt>
      <trkpt lat="43.93508" lon="5.18885">
        <ele>402.45</ele>
        <time>2016-01-15T09:28:32Z</time>
      </trkpt>
      <trkpt lat="43.93514" lon="5.18883">
        <ele>404.37</ele>
        <time>2016-01-15T09:28:40Z</time>
      </trkpt>
      <trkpt lat="43.93521" lon="5.18881">
        <ele>405.81</ele>
        <time>2016-01-15T09:28:50Z</time>
      </trkpt>
      <trkpt lat="43.93526" lon="5.18877">
        <ele>406.77</ele>
        <time>2016-01-15T09:28:57Z</time>
      </trkpt>
      <trkpt lat="43.9353" lon="5.18874">
        <ele>407.26</ele>
        <time>2016-01-15T09:29:02Z</time>
      </trkpt>
      <trkpt lat="43.93536" lon="5.18872">
        <ele>408.22</ele>
        <time>2016-01-15T09:29:09Z</time>
      </trkpt>
      <trkpt lat="43.93544" lon="5.18869">
        <ele>409.18</ele>
        <time>2016-01-15T09:29:19Z</time>
      </trkpt>
      <trkpt lat="43.93551" lon="5.18866">
        <ele>409.66</ele>
        <time>2016-01-15T09:29:26Z</time>
      </trkpt>
      <trkpt lat="43.93555" lon="5.18867">
        <ele>410.14</ele>
        <time>2016-01-15T09:29:32Z</time>
      </trkpt>
      <trkpt lat="43.93564" lon="5.18865">
        <ele>411.1</ele>
        <time>2016-01-15T09:29:41Z</time>
      </trkpt>
      <trkpt lat="43.93571" lon="5.18865">
        <ele>412.06</ele>
        <time>2016-01-15T09:29:50Z</time>
      </trkpt>
      <trkpt lat="43.93577" lon="5.18867">
        <ele>413.02</ele>
        <time>2016-01-15T09:29:56Z</time>
      </trkpt>
      <trkpt lat="43.93584" lon="5.18871">
        <ele>413.98</ele>
        <time>2016-01-15T09:30:03Z</time>
      </trkpt>
      <trkpt lat="43.93588" lon="5.18881">
        <ele>414.47</ele>
        <time>2016-01-15T09:30:10Z</time>
      </trkpt>
      <trkpt lat="43.93588" lon="5.18884">
        <ele>414.95</ele>
        <time>2016-01-15T09:30:12Z</time>
      </trkpt>
      <trkpt lat="43.93589" lon="5.18889">
        <ele>415.43</ele>
        <time>2016-01-15T09:30:17Z</time>
      </trkpt>
      <trkpt lat="43.9359" lon="5.18893">
        <ele>415.91</ele>
        <time>2016-01-15T09:30:20Z</time>
      </trkpt>
      <trkpt lat="43.93591" lon="5.18902">
        <ele>416.87</ele>
        <time>2016-01-15T09:30:27Z</time>
      </trkpt>
      <trkpt lat="43.93591" lon="5.18909">
        <ele>418.31</ele>
        <time>2016-01-15T09:30:34Z</time>
      </trkpt>
      <trkpt lat="43.93592" lon="5.18914">
        <ele>419.27</ele>
        <time>2016-01-15T09:30:41Z</time>
      </trkpt>
      <trkpt lat="43.93593" lon="5.18922">
        <ele>420.23</ele>
        <time>2016-01-15T09:30:49Z</time>
      </trkpt>
      <trkpt lat="43.93595" lon="5.18933">
        <ele>420.71</ele>
        <time>2016-01-15T09:30:57Z</time>
      </trkpt>
      <trkpt lat="43.93598" lon="5.18938">
        <ele>421.19</ele>
        <time>2016-01-15T09:31:03Z</time>
      </trkpt>
      <trkpt lat="43.93599" lon="5.18943">
        <ele>422.16</ele>
        <time>2016-01-15T09:31:07Z</time>
      </trkpt>
      <trkpt lat="43.93603" lon="5.18953">
        <ele>422.64</ele>
        <time>2016-01-15T09:31:14Z</time>
      </trkpt>
      <trkpt lat="43.93605" lon="5.18957">
        <ele>423.12</ele>
        <time>2016-01-15T09:31:17Z</time>
      </trkpt>
      <trkpt lat="43.93609" lon="5.18961">
        <ele>423.6</ele>
        <time>2016-01-15T09:31:21Z</time>
      </trkpt>
      <trkpt lat="43.93611" lon="5.18965">
        <ele>423.6</ele>
        <time>2016-01-15T09:31:25Z</time>
      </trkpt>
      <trkpt lat="43.9362" lon="5.18973">
        <ele>424.08</ele>
        <time>2016-01-15T09:31:33Z</time>
      </trkpt>
      <trkpt lat="43.93629" lon="5.18979">
        <ele>424.56</ele>
        <time>2016-01-15T09:31:41Z</time>
      </trkpt>
      <trkpt lat="43.93637" lon="5.18985">
        <ele>426.48</ele>
        <time>2016-01-15T09:31:49Z</time>
      </trkpt>
      <trkpt lat="43.9364" lon="5.18986">
        <ele>426.96</ele>
        <time>2016-01-15T09:31:52Z</time>
      </trkpt>
      <trkpt lat="43.93644" lon="5.1899">
        <ele>427.92</ele>
        <time>2016-01-15T09:31:58Z</time>
      </trkpt>
      <trkpt lat="43.93645" lon="5.18991">
        <ele>427.92</ele>
        <time>2016-01-15T09:31:59Z</time>
      </trkpt>
      <trkpt lat="43.93648" lon="5.18993">
        <ele>428.4</ele>
        <time>2016-01-15T09:32:02Z</time>
      </trkpt>
      <trkpt lat="43.93652" lon="5.19">
        <ele>428.4</ele>
        <time>2016-01-15T09:32:07Z</time>
      </trkpt>
      <trkpt lat="43.93661" lon="5.1901">
        <ele>428.89</ele>
        <time>2016-01-15T09:32:16Z</time>
      </trkpt>
      <trkpt lat="43.93662" lon="5.19012">
        <ele>428.89</ele>
        <time>2016-01-15T09:32:18Z</time>
      </trkpt>
      <trkpt lat="43.93669" lon="5.19018">
        <ele>429.37</ele>
        <time>2016-01-15T09:32:24Z</time>
      </trkpt>
      <trkpt lat="43.93675" lon="5.19024">
        <ele>429.85</ele>
        <time>2016-01-15T09:32:31Z</time>
      </trkpt>
      <trkpt lat="43.9368" lon="5.1903">
        <ele>429.85</ele>
        <time>2016-01-15T09:32:37Z</time>
      </trkpt>
      <trkpt lat="43.9368" lon="5.19031">
        <ele>429.85</ele>
        <time>2016-01-15T09:32:38Z</time>
      </trkpt>
      <trkpt lat="43.93688" lon="5.19041">
        <ele>430.33</ele>
        <time>2016-01-15T09:32:45Z</time>
      </trkpt>
      <trkpt lat="43.9369" lon="5.19043">
        <ele>430.33</ele>
        <time>2016-01-15T09:32:47Z</time>
      </trkpt>
      <trkpt lat="43.93695" lon="5.19048">
        <ele>430.81</ele>
        <time>2016-01-15T09:32:53Z</time>
      </trkpt>
      <trkpt lat="43.93699" lon="5.19051">
        <ele>431.29</ele>
        <time>2016-01-15T09:32:57Z</time>
      </trkpt>
      <trkpt lat="43.93708" lon="5.19061">
        <ele>431.77</ele>
        <time>2016-01-15T09:33:06Z</time>
      </trkpt>
      <trkpt lat="43.93709" lon="5.19062">
        <ele>431.77</ele>
        <time>2016-01-15T09:33:08Z</time>
      </trkpt>
      <trkpt lat="43.93716" lon="5.19069">
        <ele>432.73</ele>
        <time>2016-01-15T09:33:15Z</time>
      </trkpt>
      <trkpt lat="43.93723" lon="5.19074">
        <ele>432.73</ele>
        <time>2016-01-15T09:33:21Z</time>
      </trkpt>
      <trkpt lat="43.93728" lon="5.19078">
        <ele>433.69</ele>
        <time>2016-01-15T09:33:27Z</time>
      </trkpt>
      <trkpt lat="43.93736" lon="5.19082">
        <ele>433.69</ele>
        <time>2016-01-15T09:33:33Z</time>
      </trkpt>
      <trkpt lat="43.93742" lon="5.19083">
        <ele>434.65</ele>
        <time>2016-01-15T09:33:39Z</time>
      </trkpt>
      <trkpt lat="43.93753" lon="5.19083">
        <ele>434.65</ele>
        <time>2016-01-15T09:33:48Z</time>
      </trkpt>
      <trkpt lat="43.93763" lon="5.19085">
        <ele>434.65</ele>
        <time>2016-01-15T09:33:56Z</time>
      </trkpt>
      <trkpt lat="43.93771" lon="5.19089">
        <ele>435.61</ele>
        <time>2016-01-15T09:34:03Z</time>
      </trkpt>
      <trkpt lat="43.93773" lon="5.1909">
        <ele>435.61</ele>
        <time>2016-01-15T09:34:04Z</time>
      </trkpt>
      <trkpt lat="43.93783" lon="5.19092">
        <ele>436.1</ele>
        <time>2016-01-15T09:34:12Z</time>
      </trkpt>
      <trkpt lat="43.93785" lon="5.19092">
        <ele>436.58</ele>
        <time>2016-01-15T09:34:14Z</time>
      </trkpt>
      <trkpt lat="43.93794" lon="5.19094">
        <ele>437.54</ele>
        <time>2016-01-15T09:34:23Z</time>
      </trkpt>
      <trkpt lat="43.93803" lon="5.19093">
        <ele>438.98</ele>
        <time>2016-01-15T09:34:31Z</time>
      </trkpt>
      <trkpt lat="43.93803" lon="5.19093">
        <ele>439.46</ele>
        <time>2016-01-15T09:34:32Z</time>
      </trkpt>
      <trkpt lat="43.93806" lon="5.19092">
        <ele>439.46</ele>
        <time>2016-01-15T09:34:35Z</time>
      </trkpt>
      <trkpt lat="43.93813" lon="5.19091">
        <ele>440.42</ele>
        <time>2016-01-15T09:34:40Z</time>
      </trkpt>
      <trkpt lat="43.93821" lon="5.19093">
        <ele>441.38</ele>
        <time>2016-01-15T09:34:47Z</time>
      </trkpt>
      <trkpt lat="43.93824" lon="5.19094">
        <ele>441.86</ele>
        <time>2016-01-15T09:34:50Z</time>
      </trkpt>
      <trkpt lat="43.93829" lon="5.19097">
        <ele>442.34</ele>
        <time>2016-01-15T09:34:55Z</time>
      </trkpt>
      <trkpt lat="43.93837" lon="5.19099">
        <ele>443.31</ele>
        <time>2016-01-15T09:35:02Z</time>
      </trkpt>
      <trkpt lat="43.93841" lon="5.191">
        <ele>443.79</ele>
        <time>2016-01-15T09:35:05Z</time>
      </trkpt>
      <trkpt lat="43.93845" lon="5.19106">
        <ele>443.79</ele>
        <time>2016-01-15T09:35:10Z</time>
      </trkpt>
      <trkpt lat="43.9385" lon="5.19114">
        <ele>445.23</ele>
        <time>2016-01-15T09:35:18Z</time>
      </trkpt>
      <trkpt lat="43.93853" lon="5.19116">
        <ele>445.71</ele>
        <time>2016-01-15T09:35:22Z</time>
      </trkpt>
      <trkpt lat="43.93859" lon="5.19123">
        <ele>447.15</ele>
        <time>2016-01-15T09:35:28Z</time>
      </trkpt>
      <trkpt lat="43.93864" lon="5.19128">
        <ele>447.15</ele>
        <time>2016-01-15T09:35:33Z</time>
      </trkpt>
      <trkpt lat="43.93869" lon="5.19132">
        <ele>447.63</ele>
        <time>2016-01-15T09:35:38Z</time>
      </trkpt>
      <trkpt lat="43.93874" lon="5.19137">
        <ele>448.11</ele>
        <time>2016-01-15T09:35:45Z</time>
      </trkpt>
      <trkpt lat="43.93879" lon="5.19145">
        <ele>448.59</ele>
        <time>2016-01-15T09:35:51Z</time>
      </trkpt>
      <trkpt lat="43.93885" lon="5.19154">
        <ele>449.55</ele>
        <time>2016-01-15T09:35:59Z</time>
      </trkpt>
      <trkpt lat="43.93887" lon="5.19159">
        <ele>450.03</ele>
        <time>2016-01-15T09:36:02Z</time>
      </trkpt>
      <trkpt lat="43.93892" lon="5.19169">
        <ele>450.03</ele>
        <time>2016-01-15T09:36:09Z</time>
      </trkpt>
      <trkpt lat="43.93894" lon="5.19176">
        <ele>450.52</ele>
        <time>2016-01-15T09:36:13Z</time>
      </trkpt>
      <trkpt lat="43.93897" lon="5.19188">
        <ele>450.52</ele>
        <time>2016-01-15T09:36:20Z</time>
      </trkpt>
      <trkpt lat="43.93896" lon="5.19196">
        <ele>450.03</ele>
        <time>2016-01-15T09:36:24Z</time>
      </trkpt>
      <trkpt lat="43.93896" lon="5.192">
        <ele>450.03</ele>
        <time>2016-01-15T09:36:27Z</time>
      </trkpt>
      <trkpt lat="43.93896" lon="5.19203">
        <ele>450.03</ele>
        <time>2016-01-15T09:36:29Z</time>
      </trkpt>
      <trkpt lat="43.93897" lon="5.19208">
        <ele>450.03</ele>
        <time>2016-01-15T09:36:32Z</time>
      </trkpt>
      <trkpt lat="43.93898" lon="5.19214">
        <ele>450.03</ele>
        <time>2016-01-15T09:36:36Z</time>
      </trkpt>
      <trkpt lat="43.93901" lon="5.19223">
        <ele>450.03</ele>
        <time>2016-01-15T09:36:42Z</time>
      </trkpt>
      <trkpt lat="43.93902" lon="5.19228">
        <ele>450.03</ele>
        <time>2016-01-15T09:36:46Z</time>
      </trkpt>
      <trkpt lat="43.93902" lon="5.19236">
        <ele>449.07</ele>
        <time>2016-01-15T09:36:52Z</time>
      </trkpt>
      <trkpt lat="43.93902" lon="5.19239">
        <ele>448.59</ele>
        <time>2016-01-15T09:36:54Z</time>
      </trkpt>
      <trkpt lat="43.93907" lon="5.19249">
        <ele>447.63</ele>
        <time>2016-01-15T09:37:01Z</time>
      </trkpt>
      <trkpt lat="43.93911" lon="5.19257">
        <ele>447.15</ele>
        <time>2016-01-15T09:37:06Z</time>
      </trkpt>
      <trkpt lat="43.93913" lon="5.19262">
        <ele>447.15</ele>
        <time>2016-01-15T09:37:09Z</time>
      </trkpt>
      <trkpt lat="43.93916" lon="5.19268">
        <ele>447.15</ele>
        <time>2016-01-15T09:37:13Z</time>
      </trkpt>
      <trkpt lat="43.93919" lon="5.19273">
        <ele>447.15</ele>
        <time>2016-01-15T09:37:17Z</time>
      </trkpt>
      <trkpt lat="43.93922" lon="5.19277">
        <ele>447.63</ele>
        <time>2016-01-15T09:37:21Z</time>
      </trkpt>
      <trkpt lat="43.93923" lon="5.19282">
        <ele>447.63</ele>
        <time>2016-01-15T09:37:24Z</time>
      </trkpt>
      <trkpt lat="43.93928" lon="5.19292">
        <ele>449.07</ele>
        <time>2016-01-15T09:37:32Z</time>
      </trkpt>
      <trkpt lat="43.93932" lon="5.19298">
        <ele>449.55</ele>
        <time>2016-01-15T09:37:38Z</time>
      </trkpt>
      <trkpt lat="43.93937" lon="5.19305">
        <ele>449.55</ele>
        <time>2016-01-15T09:37:46Z</time>
      </trkpt>
      <trkpt lat="43.9394" lon="5.19309">
        <ele>450.03</ele>
        <time>2016-01-15T09:37:49Z</time>
      </trkpt>
      <trkpt lat="43.93947" lon="5.19317">
        <ele>451</ele>
        <time>2016-01-15T09:37:56Z</time>
      </trkpt>
      <trkpt lat="43.93952" lon="5.19322">
        <ele>451.48</ele>
        <time>2016-01-15T09:38:01Z</time>
      </trkpt>
      <trkpt lat="43.93955" lon="5.19326">
        <ele>452.44</ele>
        <time>2016-01-15T09:38:06Z</time>
      </trkpt>
      <trkpt lat="43.93959" lon="5.1933">
        <ele>451.96</ele>
        <time>2016-01-15T09:38:13Z</time>
      </trkpt>
      <trkpt lat="43.93959" lon="5.1933">
        <ele>451.96</ele>
        <time>2016-01-15T09:38:14Z</time>
      </trkpt>
      <trkpt lat="43.93961" lon="5.19331">
        <ele>451.96</ele>
        <time>2016-01-15T09:38:16Z</time>
      </trkpt>
      <trkpt lat="43.93968" lon="5.19337">
        <ele>452.92</ele>
        <time>2016-01-15T09:38:23Z</time>
      </trkpt>
      <trkpt lat="43.9397" lon="5.19339">
        <ele>452.92</ele>
        <time>2016-01-15T09:38:25Z</time>
      </trkpt>
      <trkpt lat="43.93973" lon="5.19342">
        <ele>452.92</ele>
        <time>2016-01-15T09:38:28Z</time>
      </trkpt>
      <trkpt lat="43.93982" lon="5.19347">
        <ele>453.4</ele>
        <time>2016-01-15T09:38:36Z</time>
      </trkpt>
      <trkpt lat="43.93983" lon="5.19347">
        <ele>453.88</ele>
        <time>2016-01-15T09:38:37Z</time>
      </trkpt>
      <trkpt lat="43.93988" lon="5.19351">
        <ele>454.36</ele>
        <time>2016-01-15T09:38:44Z</time>
      </trkpt>
      <trkpt lat="43.93994" lon="5.19354">
        <ele>454.84</ele>
        <time>2016-01-15T09:38:50Z</time>
      </trkpt>
      <trkpt lat="43.93998" lon="5.19357">
        <ele>455.32</ele>
        <time>2016-01-15T09:38:56Z</time>
      </trkpt>
      <trkpt lat="43.94006" lon="5.19361">
        <ele>455.8</ele>
        <time>2016-01-15T09:39:02Z</time>
      </trkpt>
      <trkpt lat="43.94014" lon="5.19366">
        <ele>456.76</ele>
        <time>2016-01-15T09:39:10Z</time>
      </trkpt>
      <trkpt lat="43.94019" lon="5.1937">
        <ele>457.24</ele>
        <time>2016-01-15T09:39:17Z</time>
      </trkpt>
      <trkpt lat="43.94022" lon="5.1937">
        <ele>457.24</ele>
        <time>2016-01-15T09:39:21Z</time>
      </trkpt>
      <trkpt lat="43.94026" lon="5.1937">
        <ele>457.24</ele>
        <time>2016-01-15T09:39:24Z</time>
      </trkpt>
      <trkpt lat="43.9403" lon="5.19372">
        <ele>457.72</ele>
        <time>2016-01-15T09:39:28Z</time>
      </trkpt>
      <trkpt lat="43.9404" lon="5.19374">
        <ele>457.72</ele>
        <time>2016-01-15T09:39:36Z</time>
      </trkpt>
      <trkpt lat="43.94043" lon="5.19375">
        <ele>457.72</ele>
        <time>2016-01-15T09:39:38Z</time>
      </trkpt>
      <trkpt lat="43.94048" lon="5.19377">
        <ele>458.69</ele>
        <time>2016-01-15T09:39:43Z</time>
      </trkpt>
      <trkpt lat="43.94056" lon="5.19379">
        <ele>458.69</ele>
        <time>2016-01-15T09:39:50Z</time>
      </trkpt>
      <trkpt lat="43.9406" lon="5.19379">
        <ele>458.69</ele>
        <time>2016-01-15T09:39:54Z</time>
      </trkpt>
      <trkpt lat="43.94062" lon="5.1938">
        <ele>459.17</ele>
        <time>2016-01-15T09:39:56Z</time>
      </trkpt>
      <trkpt lat="43.94067" lon="5.19382">
        <ele>459.17</ele>
        <time>2016-01-15T09:40:00Z</time>
      </trkpt>
      <trkpt lat="43.94074" lon="5.19385">
        <ele>460.61</ele>
        <time>2016-01-15T09:40:06Z</time>
      </trkpt>
      <trkpt lat="43.94075" lon="5.19386">
        <ele>459.65</ele>
        <time>2016-01-15T09:40:08Z</time>
      </trkpt>
      <trkpt lat="43.94081" lon="5.19391">
        <ele>459.65</ele>
        <time>2016-01-15T09:40:15Z</time>
      </trkpt>
      <trkpt lat="43.94081" lon="5.19392">
        <ele>460.13</ele>
        <time>2016-01-15T09:40:16Z</time>
      </trkpt>
      <trkpt lat="43.94086" lon="5.194">
        <ele>460.13</ele>
        <time>2016-01-15T09:40:22Z</time>
      </trkpt>
      <trkpt lat="43.94094" lon="5.19406">
        <ele>460.13</ele>
        <time>2016-01-15T09:40:30Z</time>
      </trkpt>
      <trkpt lat="43.94099" lon="5.19412">
        <ele>461.09</ele>
        <time>2016-01-15T09:40:37Z</time>
      </trkpt>
      <trkpt lat="43.94104" lon="5.19417">
        <ele>460.61</ele>
        <time>2016-01-15T09:40:46Z</time>
      </trkpt>
      <trkpt lat="43.94108" lon="5.19417">
        <ele>460.61</ele>
        <time>2016-01-15T09:40:52Z</time>
      </trkpt>
      <trkpt lat="43.94113" lon="5.1942">
        <ele>460.61</ele>
        <time>2016-01-15T09:40:55Z</time>
      </trkpt>
      <trkpt lat="43.94118" lon="5.19425">
        <ele>460.13</ele>
        <time>2016-01-15T09:41:00Z</time>
      </trkpt>
      <trkpt lat="43.94125" lon="5.19429">
        <ele>460.61</ele>
        <time>2016-01-15T09:41:07Z</time>
      </trkpt>
      <trkpt lat="43.9413" lon="5.19428">
        <ele>461.09</ele>
        <time>2016-01-15T09:41:14Z</time>
      </trkpt>
      <trkpt lat="43.94134" lon="5.19429">
        <ele>461.57</ele>
        <time>2016-01-15T09:41:20Z</time>
      </trkpt>
      <trkpt lat="43.94139" lon="5.19427">
        <ele>462.05</ele>
        <time>2016-01-15T09:41:26Z</time>
      </trkpt>
      <trkpt lat="43.94145" lon="5.19425">
        <ele>462.53</ele>
        <time>2016-01-15T09:41:33Z</time>
      </trkpt>
      <trkpt lat="43.94151" lon="5.19426">
        <ele>462.53</ele>
        <time>2016-01-15T09:41:39Z</time>
      </trkpt>
      <trkpt lat="43.94159" lon="5.19426">
        <ele>463.01</ele>
        <time>2016-01-15T09:41:45Z</time>
      </trkpt>
      <trkpt lat="43.94164" lon="5.19427">
        <ele>463.01</ele>
        <time>2016-01-15T09:41:49Z</time>
      </trkpt>
      <trkpt lat="43.94173" lon="5.19428">
        <ele>463.49</ele>
        <time>2016-01-15T09:41:57Z</time>
      </trkpt>
      <trkpt lat="43.94179" lon="5.19428">
        <ele>463.49</ele>
        <time>2016-01-15T09:42:03Z</time>
      </trkpt>
      <trkpt lat="43.94183" lon="5.19428">
        <ele>463.97</ele>
        <time>2016-01-15T09:42:08Z</time>
      </trkpt>
      <trkpt lat="43.94188" lon="5.19424">
        <ele>465.9</ele>
        <time>2016-01-15T09:42:17Z</time>
      </trkpt>
      <trkpt lat="43.94191" lon="5.19423">
        <ele>466.38</ele>
        <time>2016-01-15T09:42:20Z</time>
      </trkpt>
      <trkpt lat="43.94196" lon="5.19424">
        <ele>466.86</ele>
        <time>2016-01-15T09:42:25Z</time>
      </trkpt>
      <trkpt lat="43.94209" lon="5.19425">
        <ele>467.34</ele>
        <time>2016-01-15T09:42:35Z</time>
      </trkpt>
      <trkpt lat="43.94212" lon="5.19425">
        <ele>467.82</ele>
        <time>2016-01-15T09:42:39Z</time>
      </trkpt>
      <trkpt lat="43.94223" lon="5.19425">
        <ele>468.3</ele>
        <time>2016-01-15T09:42:48Z</time>
      </trkpt>
      <trkpt lat="43.94232" lon="5.19425">
        <ele>469.26</ele>
        <time>2016-01-15T09:42:57Z</time>
      </trkpt>
      <trkpt lat="43.94236" lon="5.19426">
        <ele>468.78</ele>
        <time>2016-01-15T09:43:01Z</time>
      </trkpt>
      <trkpt lat="43.94241" lon="5.19427">
        <ele>469.26</ele>
        <time>2016-01-15T09:43:06Z</time>
      </trkpt>
      <trkpt lat="43.94248" lon="5.19426">
        <ele>469.74</ele>
        <time>2016-01-15T09:43:12Z</time>
      </trkpt>
      <trkpt lat="43.9425" lon="5.19427">
        <ele>470.22</ele>
        <time>2016-01-15T09:43:14Z</time>
      </trkpt>
      <trkpt lat="43.94255" lon="5.19434">
        <ele>470.7</ele>
        <time>2016-01-15T09:43:21Z</time>
      </trkpt>
      <trkpt lat="43.94256" lon="5.19435">
        <ele>470.7</ele>
        <time>2016-01-15T09:43:22Z</time>
      </trkpt>
      <trkpt lat="43.94263" lon="5.19443">
        <ele>470.7</ele>
        <time>2016-01-15T09:43:30Z</time>
      </trkpt>
      <trkpt lat="43.94266" lon="5.19446">
        <ele>471.18</ele>
        <time>2016-01-15T09:43:34Z</time>
      </trkpt>
      <trkpt lat="43.94267" lon="5.19449">
        <ele>471.18</ele>
        <time>2016-01-15T09:43:36Z</time>
      </trkpt>
      <trkpt lat="43.94272" lon="5.19456">
        <ele>471.18</ele>
        <time>2016-01-15T09:43:43Z</time>
      </trkpt>
      <trkpt lat="43.94272" lon="5.19459">
        <ele>471.66</ele>
        <time>2016-01-15T09:43:47Z</time>
      </trkpt>
      <trkpt lat="43.94276" lon="5.19462">
        <ele>471.66</ele>
        <time>2016-01-15T09:43:50Z</time>
      </trkpt>
      <trkpt lat="43.94279" lon="5.19467">
        <ele>471.66</ele>
        <time>2016-01-15T09:43:54Z</time>
      </trkpt>
      <trkpt lat="43.94282" lon="5.19473">
        <ele>472.14</ele>
        <time>2016-01-15T09:44:00Z</time>
      </trkpt>
      <trkpt lat="43.94283" lon="5.19474">
        <ele>472.63</ele>
        <time>2016-01-15T09:44:01Z</time>
      </trkpt>
      <trkpt lat="43.9429" lon="5.19477">
        <ele>473.11</ele>
        <time>2016-01-15T09:44:08Z</time>
      </trkpt>
      <trkpt lat="43.94296" lon="5.19474">
        <ele>473.59</ele>
        <time>2016-01-15T09:44:15Z</time>
      </trkpt>
      <trkpt lat="43.94301" lon="5.19474">
        <ele>475.51</ele>
        <time>2016-01-15T09:44:23Z</time>
      </trkpt>
      <trkpt lat="43.94304" lon="5.19474">
        <ele>475.99</ele>
        <time>2016-01-15T09:44:27Z</time>
      </trkpt>
      <trkpt lat="43.94309" lon="5.19477">
        <ele>476.95</ele>
        <time>2016-01-15T09:44:34Z</time>
      </trkpt>
      <trkpt lat="43.94316" lon="5.1948">
        <ele>477.43</ele>
        <time>2016-01-15T09:44:40Z</time>
      </trkpt>
      <trkpt lat="43.94319" lon="5.19481">
        <ele>477.43</ele>
        <time>2016-01-15T09:44:42Z</time>
      </trkpt>
      <trkpt lat="43.94323" lon="5.1948">
        <ele>477.91</ele>
        <time>2016-01-15T09:44:47Z</time>
      </trkpt>
      <trkpt lat="43.94327" lon="5.19482">
        <ele>477.91</ele>
        <time>2016-01-15T09:44:51Z</time>
      </trkpt>
      <trkpt lat="43.9433" lon="5.19482">
        <ele>477.91</ele>
        <time>2016-01-15T09:44:54Z</time>
      </trkpt>
      <trkpt lat="43.94331" lon="5.19482">
        <ele>477.91</ele>
        <time>2016-01-15T09:44:56Z</time>
      </trkpt>
      <trkpt lat="43.94338" lon="5.19484">
        <ele>478.87</ele>
        <time>2016-01-15T09:45:04Z</time>
      </trkpt>
      <trkpt lat="43.94343" lon="5.19485">
        <ele>479.35</ele>
        <time>2016-01-15T09:45:12Z</time>
      </trkpt>
      <trkpt lat="43.94349" lon="5.19486">
        <ele>479.84</ele>
        <time>2016-01-15T09:45:18Z</time>
      </trkpt>
      <trkpt lat="43.94353" lon="5.19486">
        <ele>480.32</ele>
        <time>2016-01-15T09:45:23Z</time>
      </trkpt>
      <trkpt lat="43.94361" lon="5.19488">
        <ele>480.32</ele>
        <time>2016-01-15T09:45:30Z</time>
      </trkpt>
      <trkpt lat="43.94367" lon="5.19488">
        <ele>481.28</ele>
        <time>2016-01-15T09:45:38Z</time>
      </trkpt>
      <trkpt lat="43.94377" lon="5.19486">
        <ele>482.24</ele>
        <time>2016-01-15T09:45:46Z</time>
      </trkpt>
      <trkpt lat="43.94382" lon="5.1949">
        <ele>483.68</ele>
        <time>2016-01-15T09:45:54Z</time>
      </trkpt>
      <trkpt lat="43.94383" lon="5.19499">
        <ele>484.16</ele>
        <time>2016-01-15T09:46:00Z</time>
      </trkpt>
      <trkpt lat="43.94391" lon="5.19503">
        <ele>485.12</ele>
        <time>2016-01-15T09:46:08Z</time>
      </trkpt>
      <trkpt lat="43.94397" lon="5.19506">
        <ele>484.64</ele>
        <time>2016-01-15T09:46:15Z</time>
      </trkpt>
      <trkpt lat="43.94403" lon="5.19516">
        <ele>485.6</ele>
        <time>2016-01-15T09:46:23Z</time>
      </trkpt>
      <trkpt lat="43.94406" lon="5.19527">
        <ele>486.08</ele>
        <time>2016-01-15T09:46:30Z</time>
      </trkpt>
      <trkpt lat="43.94408" lon="5.19537">
        <ele>486.08</ele>
        <time>2016-01-15T09:46:37Z</time>
      </trkpt>
      <trkpt lat="43.94411" lon="5.19546">
        <ele>486.56</ele>
        <time>2016-01-15T09:46:45Z</time>
      </trkpt>
      <trkpt lat="43.94412" lon="5.19554">
        <ele>487.05</ele>
        <time>2016-01-15T09:46:51Z</time>
      </trkpt>
      <trkpt lat="43.94416" lon="5.19565">
        <ele>487.53</ele>
        <time>2016-01-15T09:46:58Z</time>
      </trkpt>
      <trkpt lat="43.94419" lon="5.19578">
        <ele>487.53</ele>
        <time>2016-01-15T09:47:06Z</time>
      </trkpt>
      <trkpt lat="43.94421" lon="5.19585">
        <ele>488.49</ele>
        <time>2016-01-15T09:47:13Z</time>
      </trkpt>
      <trkpt lat="43.94425" lon="5.19589">
        <ele>489.93</ele>
        <time>2016-01-15T09:47:19Z</time>
      </trkpt>
      <trkpt lat="43.94426" lon="5.19594">
        <ele>490.41</ele>
        <time>2016-01-15T09:47:23Z</time>
      </trkpt>
      <trkpt lat="43.94424" lon="5.19604">
        <ele>491.37</ele>
        <time>2016-01-15T09:47:31Z</time>
      </trkpt>
      <trkpt lat="43.94417" lon="5.19609">
        <ele>491.85</ele>
        <time>2016-01-15T09:47:38Z</time>
      </trkpt>
      <trkpt lat="43.94413" lon="5.19616">
        <ele>492.81</ele>
        <time>2016-01-15T09:47:46Z</time>
      </trkpt>
      <trkpt lat="43.94418" lon="5.19626">
        <ele>493.77</ele>
        <time>2016-01-15T09:47:53Z</time>
      </trkpt>
      <trkpt lat="43.9442" lon="5.19628">
        <ele>493.77</ele>
        <time>2016-01-15T09:47:57Z</time>
      </trkpt>
      <trkpt lat="43.94425" lon="5.19635">
        <ele>494.74</ele>
        <time>2016-01-15T09:48:05Z</time>
      </trkpt>
      <trkpt lat="43.94426" lon="5.19644">
        <ele>496.18</ele>
        <time>2016-01-15T09:48:12Z</time>
      </trkpt>
      <trkpt lat="43.94428" lon="5.19655">
        <ele>496.66</ele>
        <time>2016-01-15T09:48:20Z</time>
      </trkpt>
      <trkpt lat="43.94427" lon="5.19657">
        <ele>497.14</ele>
        <time>2016-01-15T09:48:23Z</time>
      </trkpt>
      <trkpt lat="43.94429" lon="5.19661">
        <ele>498.58</ele>
        <time>2016-01-15T09:48:30Z</time>
      </trkpt>
      <trkpt lat="43.94432" lon="5.19663">
        <ele>499.06</ele>
        <time>2016-01-15T09:48:36Z</time>
      </trkpt>
      <trkpt lat="43.94437" lon="5.19667">
        <ele>500.02</ele>
        <time>2016-01-15T09:48:42Z</time>
      </trkpt>
      <trkpt lat="43.9444" lon="5.19671">
        <ele>501.46</ele>
        <time>2016-01-15T09:48:50Z</time>
      </trkpt>
      <trkpt lat="43.94442" lon="5.19673">
        <ele>501.95</ele>
        <time>2016-01-15T09:48:59Z</time>
      </trkpt>
      <trkpt lat="43.94444" lon="5.19674">
        <ele>501.95</ele>
        <time>2016-01-15T09:49:04Z</time>
      </trkpt>
      <trkpt lat="43.94443" lon="5.19676">
        <ele>502.43</ele>
        <time>2016-01-15T09:49:15Z</time>
      </trkpt>
      <trkpt lat="43.94442" lon="5.19676">
        <ele>501.95</ele>
        <time>2016-01-15T09:49:24Z</time>
      </trkpt>
      <trkpt lat="43.94443" lon="5.19676">
        <ele>501.46</ele>
        <time>2016-01-15T09:49:40Z</time>
      </trkpt>
      <trkpt lat="43.94443" lon="5.19677">
        <ele>501.95</ele>
        <time>2016-01-15T09:49:53Z</time>
      </trkpt>
      <trkpt lat="43.94444" lon="5.19677">
        <ele>501.95</ele>
        <time>2016-01-15T09:50:06Z</time>
      </trkpt>
      <trkpt lat="43.94444" lon="5.19677">
        <ele>501.95</ele>
        <time>2016-01-15T09:50:19Z</time>
      </trkpt>
      <trkpt lat="43.94444" lon="5.19678">
        <ele>503.39</ele>
        <time>2016-01-15T09:50:31Z</time>
      </trkpt>
      <trkpt lat="43.94444" lon="5.19678">
        <ele>501.95</ele>
        <time>2016-01-15T09:50:42Z</time>
      </trkpt>
      <trkpt lat="43.94444" lon="5.19679">
        <ele>501.46</ele>
        <time>2016-01-15T09:50:58Z</time>
      </trkpt>
      <trkpt lat="43.94445" lon="5.19679">
        <ele>502.91</ele>
        <time>2016-01-15T09:51:12Z</time>
      </trkpt>
      <trkpt lat="43.94444" lon="5.19679">
        <ele>502.43</ele>
        <time>2016-01-15T09:51:26Z</time>
      </trkpt>
      <trkpt lat="43.94444" lon="5.1968">
        <ele>502.43</ele>
        <time>2016-01-15T09:51:36Z</time>
      </trkpt>
      <trkpt lat="43.94444" lon="5.19679">
        <ele>502.43</ele>
        <time>2016-01-15T09:51:51Z</time>
      </trkpt>
      <trkpt lat="43.94444" lon="5.19678">
        <ele>501.95</ele>
        <time>2016-01-15T09:52:09Z</time>
      </trkpt>
      <trkpt lat="43.94444" lon="5.19677">
        <ele>501.95</ele>
        <time>2016-01-15T09:52:21Z</time>
      </trkpt>
      <trkpt lat="43.94447" lon="5.19676">
        <ele>501.95</ele>
        <time>2016-01-15T09:52:27Z</time>
      </trkpt>
      <trkpt lat="43.94454" lon="5.19674">
        <ele>502.43</ele>
        <time>2016-01-15T09:52:36Z</time>
      </trkpt>
      <trkpt lat="43.94461" lon="5.19673">
        <ele>502.91</ele>
        <time>2016-01-15T09:52:43Z</time>
      </trkpt>
      <trkpt lat="43.94462" lon="5.19672">
        <ele>502.91</ele>
        <time>2016-01-15T09:52:46Z</time>
      </trkpt>
      <trkpt lat="43.94465" lon="5.19671">
        <ele>503.39</ele>
        <time>2016-01-15T09:52:49Z</time>
      </trkpt>
      <trkpt lat="43.94473" lon="5.1967">
        <ele>504.35</ele>
        <time>2016-01-15T09:52:59Z</time>
      </trkpt>
      <trkpt lat="43.94483" lon="5.19669">
        <ele>506.27</ele>
        <time>2016-01-15T09:53:09Z</time>
      </trkpt>
      <trkpt lat="43.94488" lon="5.19664">
        <ele>506.75</ele>
        <time>2016-01-15T09:53:15Z</time>
      </trkpt>
      <trkpt lat="43.94491" lon="5.19661">
        <ele>507.23</ele>
        <time>2016-01-15T09:53:19Z</time>
      </trkpt>
      <trkpt lat="43.94496" lon="5.19657">
        <ele>508.19</ele>
        <time>2016-01-15T09:53:25Z</time>
      </trkpt>
      <trkpt lat="43.945" lon="5.19656">
        <ele>508.67</ele>
        <time>2016-01-15T09:53:28Z</time>
      </trkpt>
      <trkpt lat="43.94506" lon="5.1965">
        <ele>509.16</ele>
        <time>2016-01-15T09:53:37Z</time>
      </trkpt>
      <trkpt lat="43.94512" lon="5.19647">
        <ele>510.12</ele>
        <time>2016-01-15T09:53:45Z</time>
      </trkpt>
      <trkpt lat="43.94516" lon="5.19642">
        <ele>512.04</ele>
        <time>2016-01-15T09:53:53Z</time>
      </trkpt>
      <trkpt lat="43.94518" lon="5.1964">
        <ele>512.52</ele>
        <time>2016-01-15T09:53:58Z</time>
      </trkpt>
      <trkpt lat="43.94524" lon="5.19635">
        <ele>513.96</ele>
        <time>2016-01-15T09:54:05Z</time>
      </trkpt>
      <trkpt lat="43.94528" lon="5.19632">
        <ele>514.44</ele>
        <time>2016-01-15T09:54:11Z</time>
      </trkpt>
      <trkpt lat="43.94531" lon="5.19628">
        <ele>515.4</ele>
        <time>2016-01-15T09:54:18Z</time>
      </trkpt>
      <trkpt lat="43.94536" lon="5.19625">
        <ele>516.37</ele>
        <time>2016-01-15T09:54:25Z</time>
      </trkpt>
      <trkpt lat="43.94543" lon="5.19622">
        <ele>517.81</ele>
        <time>2016-01-15T09:54:34Z</time>
      </trkpt>
      <trkpt lat="43.94548" lon="5.19622">
        <ele>518.29</ele>
        <time>2016-01-15T09:54:40Z</time>
      </trkpt>
      <trkpt lat="43.94553" lon="5.1962">
        <ele>519.25</ele>
        <time>2016-01-15T09:54:47Z</time>
      </trkpt>
      <trkpt lat="43.94559" lon="5.19614">
        <ele>520.21</ele>
        <time>2016-01-15T09:54:55Z</time>
      </trkpt>
      <trkpt lat="43.94563" lon="5.1961">
        <ele>520.69</ele>
        <time>2016-01-15T09:55:02Z</time>
      </trkpt>
      <trkpt lat="43.94571" lon="5.19606">
        <ele>521.65</ele>
        <time>2016-01-15T09:55:09Z</time>
      </trkpt>
      <trkpt lat="43.94574" lon="5.19603">
        <ele>522.13</ele>
        <time>2016-01-15T09:55:15Z</time>
      </trkpt>
      <trkpt lat="43.9458" lon="5.19598">
        <ele>523.09</ele>
        <time>2016-01-15T09:55:24Z</time>
      </trkpt>
      <trkpt lat="43.94583" lon="5.19594">
        <ele>523.09</ele>
        <time>2016-01-15T09:55:29Z</time>
      </trkpt>
      <trkpt lat="43.94587" lon="5.19587">
        <ele>523.58</ele>
        <time>2016-01-15T09:55:36Z</time>
      </trkpt>
      <trkpt lat="43.94589" lon="5.19581">
        <ele>524.06</ele>
        <time>2016-01-15T09:55:42Z</time>
      </trkpt>
      <trkpt lat="43.94592" lon="5.19575">
        <ele>524.54</ele>
        <time>2016-01-15T09:55:49Z</time>
      </trkpt>
      <trkpt lat="43.94595" lon="5.19569">
        <ele>525.5</ele>
        <time>2016-01-15T09:55:56Z</time>
      </trkpt>
      <trkpt lat="43.94599" lon="5.19563">
        <ele>526.46</ele>
        <time>2016-01-15T09:56:05Z</time>
      </trkpt>
      <trkpt lat="43.94602" lon="5.19558">
        <ele>526.46</ele>
        <time>2016-01-15T09:56:10Z</time>
      </trkpt>
      <trkpt lat="43.94607" lon="5.19552">
        <ele>527.9</ele>
        <time>2016-01-15T09:56:17Z</time>
      </trkpt>
      <trkpt lat="43.94612" lon="5.19546">
        <ele>527.9</ele>
        <time>2016-01-15T09:56:25Z</time>
      </trkpt>
      <trkpt lat="43.94618" lon="5.19543">
        <ele>529.82</ele>
        <time>2016-01-15T09:56:33Z</time>
      </trkpt>
      <trkpt lat="43.94622" lon="5.19542">
        <ele>530.3</ele>
        <time>2016-01-15T09:56:41Z</time>
      </trkpt>
      <trkpt lat="43.9463" lon="5.19541">
        <ele>530.79</ele>
        <time>2016-01-15T09:56:49Z</time>
      </trkpt>
      <trkpt lat="43.94637" lon="5.1954">
        <ele>531.75</ele>
        <time>2016-01-15T09:56:57Z</time>
      </trkpt>
      <trkpt lat="43.94645" lon="5.1954">
        <ele>531.75</ele>
        <time>2016-01-15T09:57:06Z</time>
      </trkpt>
      <trkpt lat="43.94651" lon="5.19542">
        <ele>533.67</ele>
        <time>2016-01-15T09:57:14Z</time>
      </trkpt>
      <trkpt lat="43.94658" lon="5.19541">
        <ele>534.15</ele>
        <time>2016-01-15T09:57:21Z</time>
      </trkpt>
      <trkpt lat="43.94664" lon="5.19541">
        <ele>535.11</ele>
        <time>2016-01-15T09:57:28Z</time>
      </trkpt>
      <trkpt lat="43.94673" lon="5.19538">
        <ele>537.03</ele>
        <time>2016-01-15T09:57:38Z</time>
      </trkpt>
      <trkpt lat="43.94675" lon="5.19538">
        <ele>537.03</ele>
        <time>2016-01-15T09:57:42Z</time>
      </trkpt>
      <trkpt lat="43.94684" lon="5.19543">
        <ele>537.99</ele>
        <time>2016-01-15T09:57:50Z</time>
      </trkpt>
      <trkpt lat="43.94687" lon="5.19546">
        <ele>538.48</ele>
        <time>2016-01-15T09:57:55Z</time>
      </trkpt>
      <trkpt lat="43.94692" lon="5.19548">
        <ele>537.99</ele>
        <time>2016-01-15T09:58:00Z</time>
      </trkpt>
      <trkpt lat="43.94699" lon="5.19549">
        <ele>540.4</ele>
        <time>2016-01-15T09:58:08Z</time>
      </trkpt>
      <trkpt lat="43.94701" lon="5.1955">
        <ele>539.44</ele>
        <time>2016-01-15T09:58:10Z</time>
      </trkpt>
      <trkpt lat="43.94706" lon="5.1955">
        <ele>540.4</ele>
        <time>2016-01-15T09:58:15Z</time>
      </trkpt>
      <trkpt lat="43.94711" lon="5.1955">
        <ele>540.88</ele>
        <time>2016-01-15T09:58:20Z</time>
      </trkpt>
      <trkpt lat="43.94717" lon="5.19551">
        <ele>541.36</ele>
        <time>2016-01-15T09:58:26Z</time>
      </trkpt>
      <trkpt lat="43.9472" lon="5.19552">
        <ele>541.36</ele>
        <time>2016-01-15T09:58:30Z</time>
      </trkpt>
      <trkpt lat="43.94724" lon="5.19553">
        <ele>541.36</ele>
        <time>2016-01-15T09:58:33Z</time>
      </trkpt>
      <trkpt lat="43.94732" lon="5.19555">
        <ele>543.28</ele>
        <time>2016-01-15T09:58:42Z</time>
      </trkpt>
      <trkpt lat="43.94734" lon="5.19556">
        <ele>543.28</ele>
        <time>2016-01-15T09:58:45Z</time>
      </trkpt>
      <trkpt lat="43.9474" lon="5.19558">
        <ele>543.76</ele>
        <time>2016-01-15T09:58:52Z</time>
      </trkpt>
      <trkpt lat="43.94746" lon="5.19559">
        <ele>543.76</ele>
        <time>2016-01-15T09:58:58Z</time>
      </trkpt>
      <trkpt lat="43.94752" lon="5.19559">
        <ele>544.72</ele>
        <time>2016-01-15T09:59:04Z</time>
      </trkpt>
      <trkpt lat="43.94755" lon="5.19562">
        <ele>544.72</ele>
        <time>2016-01-15T09:59:08Z</time>
      </trkpt>
      <trkpt lat="43.94758" lon="5.19563">
        <ele>544.72</ele>
        <time>2016-01-15T09:59:12Z</time>
      </trkpt>
      <trkpt lat="43.94766" lon="5.19564">
        <ele>546.65</ele>
        <time>2016-01-15T09:59:21Z</time>
      </trkpt>
      <trkpt lat="43.94774" lon="5.19565">
        <ele>547.13</ele>
        <time>2016-01-15T09:59:30Z</time>
      </trkpt>
      <trkpt lat="43.94777" lon="5.19565">
        <ele>547.61</ele>
        <time>2016-01-15T09:59:33Z</time>
      </trkpt>
      <trkpt lat="43.9478" lon="5.19567">
        <ele>547.61</ele>
        <time>2016-01-15T09:59:36Z</time>
      </trkpt>
      <trkpt lat="43.94789" lon="5.19567">
        <ele>548.09</ele>
        <time>2016-01-15T09:59:45Z</time>
      </trkpt>
      <trkpt lat="43.94794" lon="5.19568">
        <ele>548.09</ele>
        <time>2016-01-15T09:59:51Z</time>
      </trkpt>
      <trkpt lat="43.94801" lon="5.19568">
        <ele>549.05</ele>
        <time>2016-01-15T09:59:57Z</time>
      </trkpt>
      <trkpt lat="43.94807" lon="5.19568">
        <ele>549.53</ele>
        <time>2016-01-15T10:00:02Z</time>
      </trkpt>
      <trkpt lat="43.94815" lon="5.19567">
        <ele>550.97</ele>
        <time>2016-01-15T10:00:10Z</time>
      </trkpt>
      <trkpt lat="43.9482" lon="5.19567">
        <ele>551.93</ele>
        <time>2016-01-15T10:00:16Z</time>
      </trkpt>
      <trkpt lat="43.94828" lon="5.1957">
        <ele>551.93</ele>
        <time>2016-01-15T10:00:23Z</time>
      </trkpt>
      <trkpt lat="43.94834" lon="5.1957">
        <ele>552.9</ele>
        <time>2016-01-15T10:00:29Z</time>
      </trkpt>
      <trkpt lat="43.94842" lon="5.19571">
        <ele>553.86</ele>
        <time>2016-01-15T10:00:38Z</time>
      </trkpt>
      <trkpt lat="43.94848" lon="5.19574">
        <ele>554.34</ele>
        <time>2016-01-15T10:00:45Z</time>
      </trkpt>
      <trkpt lat="43.94853" lon="5.19577">
        <ele>555.3</ele>
        <time>2016-01-15T10:00:52Z</time>
      </trkpt>
      <trkpt lat="43.94862" lon="5.19582">
        <ele>556.26</ele>
        <time>2016-01-15T10:01:00Z</time>
      </trkpt>
      <trkpt lat="43.94863" lon="5.19582">
        <ele>556.26</ele>
        <time>2016-01-15T10:01:01Z</time>
      </trkpt>
      <trkpt lat="43.94866" lon="5.19584">
        <ele>557.22</ele>
        <time>2016-01-15T10:01:05Z</time>
      </trkpt>
      <trkpt lat="43.94868" lon="5.19586">
        <ele>557.22</ele>
        <time>2016-01-15T10:01:07Z</time>
      </trkpt>
      <trkpt lat="43.94873" lon="5.1959">
        <ele>557.22</ele>
        <time>2016-01-15T10:01:14Z</time>
      </trkpt>
      <trkpt lat="43.94875" lon="5.19591">
        <ele>557.7</ele>
        <time>2016-01-15T10:01:16Z</time>
      </trkpt>
      <trkpt lat="43.94879" lon="5.19594">
        <ele>557.7</ele>
        <time>2016-01-15T10:01:20Z</time>
      </trkpt>
      <trkpt lat="43.94885" lon="5.19599">
        <ele>558.66</ele>
        <time>2016-01-15T10:01:27Z</time>
      </trkpt>
      <trkpt lat="43.94892" lon="5.19602">
        <ele>559.62</ele>
        <time>2016-01-15T10:01:34Z</time>
      </trkpt>
      <trkpt lat="43.94895" lon="5.19602">
        <ele>559.62</ele>
        <time>2016-01-15T10:01:37Z</time>
      </trkpt>
      <trkpt lat="43.94903" lon="5.19601">
        <ele>560.11</ele>
        <time>2016-01-15T10:01:45Z</time>
      </trkpt>
      <trkpt lat="43.94908" lon="5.19601">
        <ele>561.07</ele>
        <time>2016-01-15T10:01:52Z</time>
      </trkpt>
      <trkpt lat="43.94913" lon="5.196">
        <ele>562.03</ele>
        <time>2016-01-15T10:02:00Z</time>
      </trkpt>
      <trkpt lat="43.94919" lon="5.19598">
        <ele>562.99</ele>
        <time>2016-01-15T10:02:06Z</time>
      </trkpt>
      <trkpt lat="43.94925" lon="5.196">
        <ele>563.47</ele>
        <time>2016-01-15T10:02:13Z</time>
      </trkpt>
      <trkpt lat="43.94927" lon="5.196">
        <ele>563.95</ele>
        <time>2016-01-15T10:02:15Z</time>
      </trkpt>
      <trkpt lat="43.94931" lon="5.19601">
        <ele>564.43</ele>
        <time>2016-01-15T10:02:19Z</time>
      </trkpt>
      <trkpt lat="43.94933" lon="5.19601">
        <ele>564.43</ele>
        <time>2016-01-15T10:02:22Z</time>
      </trkpt>
      <trkpt lat="43.94938" lon="5.19602">
        <ele>565.39</ele>
        <time>2016-01-15T10:02:28Z</time>
      </trkpt>
      <trkpt lat="43.94941" lon="5.19603">
        <ele>566.35</ele>
        <time>2016-01-15T10:02:31Z</time>
      </trkpt>
      <trkpt lat="43.94947" lon="5.19601">
        <ele>566.83</ele>
        <time>2016-01-15T10:02:38Z</time>
      </trkpt>
      <trkpt lat="43.94954" lon="5.196">
        <ele>567.8</ele>
        <time>2016-01-15T10:02:45Z</time>
      </trkpt>
      <trkpt lat="43.94962" lon="5.19601">
        <ele>569.24</ele>
        <time>2016-01-15T10:02:53Z</time>
      </trkpt>
      <trkpt lat="43.94963" lon="5.19601">
        <ele>569.24</ele>
        <time>2016-01-15T10:02:54Z</time>
      </trkpt>
      <trkpt lat="43.94967" lon="5.19601">
        <ele>570.2</ele>
        <time>2016-01-15T10:02:59Z</time>
      </trkpt>
      <trkpt lat="43.94973" lon="5.196">
        <ele>571.64</ele>
        <time>2016-01-15T10:03:07Z</time>
      </trkpt>
      <trkpt lat="43.94978" lon="5.19599">
        <ele>572.6</ele>
        <time>2016-01-15T10:03:13Z</time>
      </trkpt>
      <trkpt lat="43.94983" lon="5.19597">
        <ele>573.56</ele>
        <time>2016-01-15T10:03:19Z</time>
      </trkpt>
      <trkpt lat="43.94985" lon="5.19595">
        <ele>574.04</ele>
        <time>2016-01-15T10:03:23Z</time>
      </trkpt>
      <trkpt lat="43.94992" lon="5.19593">
        <ele>574.53</ele>
        <time>2016-01-15T10:03:31Z</time>
      </trkpt>
      <trkpt lat="43.94993" lon="5.19593">
        <ele>574.53</ele>
        <time>2016-01-15T10:03:32Z</time>
      </trkpt>
      <trkpt lat="43.95" lon="5.19592">
        <ele>575.01</ele>
        <time>2016-01-15T10:03:40Z</time>
      </trkpt>
      <trkpt lat="43.95004" lon="5.19593">
        <ele>575.01</ele>
        <time>2016-01-15T10:03:44Z</time>
      </trkpt>
      <trkpt lat="43.95012" lon="5.19591">
        <ele>575.97</ele>
        <time>2016-01-15T10:03:52Z</time>
      </trkpt>
      <trkpt lat="43.95015" lon="5.19589">
        <ele>575.97</ele>
        <time>2016-01-15T10:03:56Z</time>
      </trkpt>
      <trkpt lat="43.95022" lon="5.19587">
        <ele>576.45</ele>
        <time>2016-01-15T10:04:04Z</time>
      </trkpt>
      <trkpt lat="43.95022" lon="5.19586">
        <ele>576.93</ele>
        <time>2016-01-15T10:04:06Z</time>
      </trkpt>
      <trkpt lat="43.95025" lon="5.19587">
        <ele>576.93</ele>
        <time>2016-01-15T10:04:14Z</time>
      </trkpt>
      <trkpt lat="43.95024" lon="5.19588">
        <ele>576.45</ele>
        <time>2016-01-15T10:04:24Z</time>
      </trkpt>
      <trkpt lat="43.95023" lon="5.19588">
        <ele>576.45</ele>
        <time>2016-01-15T10:04:39Z</time>
      </trkpt>
      <trkpt lat="43.95023" lon="5.19588">
        <ele>576.45</ele>
        <time>2016-01-15T10:04:53Z</time>
      </trkpt>
      <trkpt lat="43.95023" lon="5.19588">
        <ele>575.97</ele>
        <time>2016-01-15T10:05:04Z</time>
      </trkpt>
      <trkpt lat="43.95023" lon="5.19588">
        <ele>575.97</ele>
        <time>2016-01-15T10:05:16Z</time>
      </trkpt>
      <trkpt lat="43.95023" lon="5.19588">
        <ele>575.97</ele>
        <time>2016-01-15T10:05:32Z</time>
      </trkpt>
      <trkpt lat="43.95024" lon="5.19589">
        <ele>575.49</ele>
        <time>2016-01-15T10:05:43Z</time>
      </trkpt>
      <trkpt lat="43.95025" lon="5.19589">
        <ele>575.97</ele>
        <time>2016-01-15T10:05:50Z</time>
      </trkpt>
      <trkpt lat="43.95028" lon="5.19589">
        <ele>576.45</ele>
        <time>2016-01-15T10:05:56Z</time>
      </trkpt>
      <trkpt lat="43.95029" lon="5.19589">
        <ele>576.45</ele>
        <time>2016-01-15T10:05:57Z</time>
      </trkpt>
      <trkpt lat="43.95036" lon="5.19586">
        <ele>576.45</ele>
        <time>2016-01-15T10:06:05Z</time>
      </trkpt>
      <trkpt lat="43.95045" lon="5.19587">
        <ele>576.45</ele>
        <time>2016-01-15T10:06:12Z</time>
      </trkpt>
      <trkpt lat="43.95046" lon="5.19587">
        <ele>576.45</ele>
        <time>2016-01-15T10:06:13Z</time>
      </trkpt>
      <trkpt lat="43.9506" lon="5.19586">
        <ele>575.01</ele>
        <time>2016-01-15T10:06:23Z</time>
      </trkpt>
      <trkpt lat="43.95062" lon="5.19585">
        <ele>575.01</ele>
        <time>2016-01-15T10:06:26Z</time>
      </trkpt>
      <trkpt lat="43.95066" lon="5.19586">
        <ele>574.53</ele>
        <time>2016-01-15T10:06:29Z</time>
      </trkpt>
      <trkpt lat="43.95074" lon="5.19583">
        <ele>574.04</ele>
        <time>2016-01-15T10:06:36Z</time>
      </trkpt>
      <trkpt lat="43.95082" lon="5.19581">
        <ele>574.04</ele>
        <time>2016-01-15T10:06:42Z</time>
      </trkpt>
      <trkpt lat="43.9509" lon="5.1958">
        <ele>573.56</ele>
        <time>2016-01-15T10:06:50Z</time>
      </trkpt>
      <trkpt lat="43.95092" lon="5.19579">
        <ele>573.08</ele>
        <time>2016-01-15T10:06:52Z</time>
      </trkpt>
      <trkpt lat="43.95105" lon="5.19577">
        <ele>572.6</ele>
        <time>2016-01-15T10:07:01Z</time>
      </trkpt>
      <trkpt lat="43.95114" lon="5.19575">
        <ele>572.12</ele>
        <time>2016-01-15T10:07:08Z</time>
      </trkpt>
      <trkpt lat="43.95119" lon="5.19574">
        <ele>572.12</ele>
        <time>2016-01-15T10:07:12Z</time>
      </trkpt>
      <trkpt lat="43.9513" lon="5.19572">
        <ele>571.16</ele>
        <time>2016-01-15T10:07:21Z</time>
      </trkpt>
      <trkpt lat="43.95144" lon="5.1957">
        <ele>570.68</ele>
        <time>2016-01-15T10:07:31Z</time>
      </trkpt>
      <trkpt lat="43.95153" lon="5.19571">
        <ele>570.68</ele>
        <time>2016-01-15T10:07:38Z</time>
      </trkpt>
      <trkpt lat="43.95153" lon="5.1957">
        <ele>570.68</ele>
        <time>2016-01-15T10:07:39Z</time>
      </trkpt>
      <trkpt lat="43.95164" lon="5.19568">
        <ele>570.68</ele>
        <time>2016-01-15T10:07:45Z</time>
      </trkpt>
      <trkpt lat="43.95167" lon="5.19567">
        <ele>570.68</ele>
        <time>2016-01-15T10:07:47Z</time>
      </trkpt>
      <trkpt lat="43.95173" lon="5.19569">
        <ele>570.2</ele>
        <time>2016-01-15T10:07:52Z</time>
      </trkpt>
      <trkpt lat="43.95181" lon="5.19566">
        <ele>569.24</ele>
        <time>2016-01-15T10:07:59Z</time>
      </trkpt>
      <trkpt lat="43.95191" lon="5.19563">
        <ele>568.28</ele>
        <time>2016-01-15T10:08:06Z</time>
      </trkpt>
      <trkpt lat="43.95195" lon="5.19563">
        <ele>569.24</ele>
        <time>2016-01-15T10:08:09Z</time>
      </trkpt>
      <trkpt lat="43.95206" lon="5.1956">
        <ele>567.8</ele>
        <time>2016-01-15T10:08:18Z</time>
      </trkpt>
      <trkpt lat="43.95207" lon="5.1956">
        <ele>568.28</ele>
        <time>2016-01-15T10:08:19Z</time>
      </trkpt>
      <trkpt lat="43.95219" lon="5.19556">
        <ele>567.8</ele>
        <time>2016-01-15T10:08:28Z</time>
      </trkpt>
      <trkpt lat="43.95228" lon="5.19554">
        <ele>566.83</ele>
        <time>2016-01-15T10:08:36Z</time>
      </trkpt>
      <trkpt lat="43.95236" lon="5.19553">
        <ele>566.83</ele>
        <time>2016-01-15T10:08:42Z</time>
      </trkpt>
      <trkpt lat="43.95242" lon="5.19551">
        <ele>566.83</ele>
        <time>2016-01-15T10:08:47Z</time>
      </trkpt>
      <trkpt lat="43.95254" lon="5.19549">
        <ele>565.87</ele>
        <time>2016-01-15T10:08:56Z</time>
      </trkpt>
      <trkpt lat="43.95256" lon="5.19549">
        <ele>565.87</ele>
        <time>2016-01-15T10:08:58Z</time>
      </trkpt>
      <trkpt lat="43.95264" lon="5.19552">
        <ele>564.91</ele>
        <time>2016-01-15T10:09:05Z</time>
      </trkpt>
      <trkpt lat="43.95267" lon="5.19559">
        <ele>564.43</ele>
        <time>2016-01-15T10:09:11Z</time>
      </trkpt>
      <trkpt lat="43.95268" lon="5.19563">
        <ele>564.91</ele>
        <time>2016-01-15T10:09:14Z</time>
      </trkpt>
      <trkpt lat="43.95269" lon="5.1957">
        <ele>565.39</ele>
        <time>2016-01-15T10:09:19Z</time>
      </trkpt>
      <trkpt lat="43.9527" lon="5.19574">
        <ele>565.39</ele>
        <time>2016-01-15T10:09:22Z</time>
      </trkpt>
      <trkpt lat="43.95272" lon="5.19577">
        <ele>566.35</ele>
        <time>2016-01-15T10:09:25Z</time>
      </trkpt>
      <trkpt lat="43.95276" lon="5.19582">
        <ele>566.83</ele>
        <time>2016-01-15T10:09:32Z</time>
      </trkpt>
      <trkpt lat="43.9528" lon="5.19588">
        <ele>567.32</ele>
        <time>2016-01-15T10:09:39Z</time>
      </trkpt>
      <trkpt lat="43.95282" lon="5.1959">
        <ele>567.32</ele>
        <time>2016-01-15T10:09:46Z</time>
      </trkpt>
      <trkpt lat="43.95287" lon="5.19595">
        <ele>568.28</ele>
        <time>2016-01-15T10:09:53Z</time>
      </trkpt>
      <trkpt lat="43.95292" lon="5.19601">
        <ele>569.24</ele>
        <time>2016-01-15T10:10:01Z</time>
      </trkpt>
      <trkpt lat="43.95296" lon="5.19604">
        <ele>570.2</ele>
        <time>2016-01-15T10:10:07Z</time>
      </trkpt>
      <trkpt lat="43.953" lon="5.19611">
        <ele>571.64</ele>
        <time>2016-01-15T10:10:14Z</time>
      </trkpt>
      <trkpt lat="43.95307" lon="5.19612">
        <ele>572.6</ele>
        <time>2016-01-15T10:10:22Z</time>
      </trkpt>
      <trkpt lat="43.9531" lon="5.19612">
        <ele>572.6</ele>
        <time>2016-01-15T10:10:27Z</time>
      </trkpt>
      <trkpt lat="43.95314" lon="5.19611">
        <ele>573.08</ele>
        <time>2016-01-15T10:10:30Z</time>
      </trkpt>
      <trkpt lat="43.9532" lon="5.19613">
        <ele>573.56</ele>
        <time>2016-01-15T10:10:37Z</time>
      </trkpt>
      <trkpt lat="43.95322" lon="5.19612">
        <ele>574.04</ele>
        <time>2016-01-15T10:10:41Z</time>
      </trkpt>
      <trkpt lat="43.95328" lon="5.19612">
        <ele>575.01</ele>
        <time>2016-01-15T10:10:48Z</time>
      </trkpt>
      <trkpt lat="43.95332" lon="5.19612">
        <ele>575.49</ele>
        <time>2016-01-15T10:10:52Z</time>
      </trkpt>
      <trkpt lat="43.95341" lon="5.19612">
        <ele>575.97</ele>
        <time>2016-01-15T10:11:01Z</time>
      </trkpt>
      <trkpt lat="43.95347" lon="5.19613">
        <ele>576.45</ele>
        <time>2016-01-15T10:11:08Z</time>
      </trkpt>
      <trkpt lat="43.95349" lon="5.19613">
        <ele>576.45</ele>
        <time>2016-01-15T10:11:10Z</time>
      </trkpt>
      <trkpt lat="43.95357" lon="5.19613">
        <ele>576.93</ele>
        <time>2016-01-15T10:11:17Z</time>
      </trkpt>
      <trkpt lat="43.95361" lon="5.19613">
        <ele>577.41</ele>
        <time>2016-01-15T10:11:21Z</time>
      </trkpt>
      <trkpt lat="43.95369" lon="5.19615">
        <ele>577.89</ele>
        <time>2016-01-15T10:11:29Z</time>
      </trkpt>
      <trkpt lat="43.95372" lon="5.19615">
        <ele>577.41</ele>
        <time>2016-01-15T10:11:32Z</time>
      </trkpt>
      <trkpt lat="43.95379" lon="5.19617">
        <ele>578.37</ele>
        <time>2016-01-15T10:11:39Z</time>
      </trkpt>
      <trkpt lat="43.95381" lon="5.19617">
        <ele>578.37</ele>
        <time>2016-01-15T10:11:42Z</time>
      </trkpt>
      <trkpt lat="43.95386" lon="5.19617">
        <ele>578.85</ele>
        <time>2016-01-15T10:11:46Z</time>
      </trkpt>
      <trkpt lat="43.95392" lon="5.1962">
        <ele>578.85</ele>
        <time>2016-01-15T10:11:54Z</time>
      </trkpt>
      <trkpt lat="43.95393" lon="5.1962">
        <ele>579.33</ele>
        <time>2016-01-15T10:11:55Z</time>
      </trkpt>
      <trkpt lat="43.95399" lon="5.19623">
        <ele>579.81</ele>
        <time>2016-01-15T10:12:02Z</time>
      </trkpt>
      <trkpt lat="43.95403" lon="5.19624">
        <ele>580.29</ele>
        <time>2016-01-15T10:12:06Z</time>
      </trkpt>
      <trkpt lat="43.9541" lon="5.19629">
        <ele>581.25</ele>
        <time>2016-01-15T10:12:13Z</time>
      </trkpt>
      <trkpt lat="43.95412" lon="5.19631">
        <ele>581.25</ele>
        <time>2016-01-15T10:12:16Z</time>
      </trkpt>
      <trkpt lat="43.95416" lon="5.19638">
        <ele>582.22</ele>
        <time>2016-01-15T10:12:22Z</time>
      </trkpt>
      <trkpt lat="43.95418" lon="5.1964">
        <ele>582.7</ele>
        <time>2016-01-15T10:12:24Z</time>
      </trkpt>
      <trkpt lat="43.95425" lon="5.19646">
        <ele>582.7</ele>
        <time>2016-01-15T10:12:32Z</time>
      </trkpt>
      <trkpt lat="43.95431" lon="5.19651">
        <ele>583.66</ele>
        <time>2016-01-15T10:12:40Z</time>
      </trkpt>
      <trkpt lat="43.95436" lon="5.19655">
        <ele>583.66</ele>
        <time>2016-01-15T10:12:46Z</time>
      </trkpt>
      <trkpt lat="43.9544" lon="5.19659">
        <ele>584.14</ele>
        <time>2016-01-15T10:12:50Z</time>
      </trkpt>
      <trkpt lat="43.95443" lon="5.19662">
        <ele>584.14</ele>
        <time>2016-01-15T10:12:54Z</time>
      </trkpt>
      <trkpt lat="43.95448" lon="5.19665">
        <ele>585.1</ele>
        <time>2016-01-15T10:12:58Z</time>
      </trkpt>
      <trkpt lat="43.95453" lon="5.19666">
        <ele>585.58</ele>
        <time>2016-01-15T10:13:02Z</time>
      </trkpt>
      <trkpt lat="43.95457" lon="5.19668">
        <ele>584.62</ele>
        <time>2016-01-15T10:13:06Z</time>
      </trkpt>
      <trkpt lat="43.95459" lon="5.19668">
        <ele>584.62</ele>
        <time>2016-01-15T10:13:08Z</time>
      </trkpt>
      <trkpt lat="43.95464" lon="5.1967">
        <ele>585.1</ele>
        <time>2016-01-15T10:13:13Z</time>
      </trkpt>
      <trkpt lat="43.95467" lon="5.19672">
        <ele>585.1</ele>
        <time>2016-01-15T10:13:16Z</time>
      </trkpt>
      <trkpt lat="43.95469" lon="5.19675">
        <ele>585.58</ele>
        <time>2016-01-15T10:13:19Z</time>
      </trkpt>
      <trkpt lat="43.95474" lon="5.19681">
        <ele>586.06</ele>
        <time>2016-01-15T10:13:25Z</time>
      </trkpt>
      <trkpt lat="43.95479" lon="5.19686">
        <ele>586.54</ele>
        <time>2016-01-15T10:13:32Z</time>
      </trkpt>
      <trkpt lat="43.95484" lon="5.19689">
        <ele>587.02</ele>
        <time>2016-01-15T10:13:38Z</time>
      </trkpt>
      <trkpt lat="43.95485" lon="5.1969">
        <ele>587.5</ele>
        <time>2016-01-15T10:13:39Z</time>
      </trkpt>
      <trkpt lat="43.95488" lon="5.19691">
        <ele>587.5</ele>
        <time>2016-01-15T10:13:42Z</time>
      </trkpt>
      <trkpt lat="43.95496" lon="5.19695">
        <ele>587.5</ele>
        <time>2016-01-15T10:13:50Z</time>
      </trkpt>
      <trkpt lat="43.95502" lon="5.19697">
        <ele>587.5</ele>
        <time>2016-01-15T10:13:56Z</time>
      </trkpt>
      <trkpt lat="43.95507" lon="5.19701">
        <ele>588.46</ele>
        <time>2016-01-15T10:14:02Z</time>
      </trkpt>
      <trkpt lat="43.95513" lon="5.19706">
        <ele>588.95</ele>
        <time>2016-01-15T10:14:09Z</time>
      </trkpt>
      <trkpt lat="43.95517" lon="5.19711">
        <ele>588.46</ele>
        <time>2016-01-15T10:14:14Z</time>
      </trkpt>
      <trkpt lat="43.9552" lon="5.19715">
        <ele>589.43</ele>
        <time>2016-01-15T10:14:18Z</time>
      </trkpt>
      <trkpt lat="43.95527" lon="5.1972">
        <ele>589.43</ele>
        <time>2016-01-15T10:14:26Z</time>
      </trkpt>
      <trkpt lat="43.95532" lon="5.19721">
        <ele>590.39</ele>
        <time>2016-01-15T10:14:32Z</time>
      </trkpt>
      <trkpt lat="43.95541" lon="5.19724">
        <ele>590.87</ele>
        <time>2016-01-15T10:14:39Z</time>
      </trkpt>
      <trkpt lat="43.95546" lon="5.19723">
        <ele>591.83</ele>
        <time>2016-01-15T10:14:45Z</time>
      </trkpt>
      <trkpt lat="43.95549" lon="5.19723">
        <ele>592.31</ele>
        <time>2016-01-15T10:14:47Z</time>
      </trkpt>
      <trkpt lat="43.95556" lon="5.19722">
        <ele>593.75</ele>
        <time>2016-01-15T10:14:55Z</time>
      </trkpt>
      <trkpt lat="43.95561" lon="5.19721">
        <ele>595.19</ele>
        <time>2016-01-15T10:15:00Z</time>
      </trkpt>
      <trkpt lat="43.95563" lon="5.19721">
        <ele>594.71</ele>
        <time>2016-01-15T10:15:01Z</time>
      </trkpt>
      <trkpt lat="43.95568" lon="5.1972">
        <ele>595.19</ele>
        <time>2016-01-15T10:15:07Z</time>
      </trkpt>
      <trkpt lat="43.95572" lon="5.1972">
        <ele>596.15</ele>
        <time>2016-01-15T10:15:14Z</time>
      </trkpt>
      <trkpt lat="43.95577" lon="5.19719">
        <ele>596.64</ele>
        <time>2016-01-15T10:15:20Z</time>
      </trkpt>
      <trkpt lat="43.95581" lon="5.19717">
        <ele>597.6</ele>
        <time>2016-01-15T10:15:25Z</time>
      </trkpt>
      <trkpt lat="43.95586" lon="5.19715">
        <ele>598.08</ele>
        <time>2016-01-15T10:15:29Z</time>
      </trkpt>
      <trkpt lat="43.95591" lon="5.19715">
        <ele>599.04</ele>
        <time>2016-01-15T10:15:34Z</time>
      </trkpt>
      <trkpt lat="43.95598" lon="5.19715">
        <ele>599.04</ele>
        <time>2016-01-15T10:15:41Z</time>
      </trkpt>
      <trkpt lat="43.956" lon="5.19716">
        <ele>599.52</ele>
        <time>2016-01-15T10:15:43Z</time>
      </trkpt>
      <trkpt lat="43.95605" lon="5.19715">
        <ele>600</ele>
        <time>2016-01-15T10:15:51Z</time>
      </trkpt>
      <trkpt lat="43.95612" lon="5.19716">
        <ele>600.96</ele>
        <time>2016-01-15T10:16:00Z</time>
      </trkpt>
      <trkpt lat="43.95619" lon="5.1972">
        <ele>601.92</ele>
        <time>2016-01-15T10:16:08Z</time>
      </trkpt>
      <trkpt lat="43.95623" lon="5.19723">
        <ele>602.4</ele>
        <time>2016-01-15T10:16:13Z</time>
      </trkpt>
      <trkpt lat="43.95631" lon="5.19726">
        <ele>603.36</ele>
        <time>2016-01-15T10:16:21Z</time>
      </trkpt>
      <trkpt lat="43.95634" lon="5.19727">
        <ele>603.36</ele>
        <time>2016-01-15T10:16:23Z</time>
      </trkpt>
      <trkpt lat="43.95641" lon="5.19727">
        <ele>603.85</ele>
        <time>2016-01-15T10:16:31Z</time>
      </trkpt>
      <trkpt lat="43.95644" lon="5.19729">
        <ele>604.81</ele>
        <time>2016-01-15T10:16:35Z</time>
      </trkpt>
      <trkpt lat="43.9565" lon="5.19732">
        <ele>605.29</ele>
        <time>2016-01-15T10:16:42Z</time>
      </trkpt>
      <trkpt lat="43.95654" lon="5.19738">
        <ele>605.77</ele>
        <time>2016-01-15T10:16:48Z</time>
      </trkpt>
      <trkpt lat="43.9566" lon="5.19742">
        <ele>605.77</ele>
        <time>2016-01-15T10:16:56Z</time>
      </trkpt>
      <trkpt lat="43.9566" lon="5.19742">
        <ele>606.25</ele>
        <time>2016-01-15T10:16:57Z</time>
      </trkpt>
      <trkpt lat="43.95667" lon="5.19747">
        <ele>607.21</ele>
        <time>2016-01-15T10:17:03Z</time>
      </trkpt>
      <trkpt lat="43.9567" lon="5.19751">
        <ele>606.73</ele>
        <time>2016-01-15T10:17:08Z</time>
      </trkpt>
      <trkpt lat="43.95675" lon="5.19755">
        <ele>607.21</ele>
        <time>2016-01-15T10:17:13Z</time>
      </trkpt>
      <trkpt lat="43.95679" lon="5.19757">
        <ele>607.69</ele>
        <time>2016-01-15T10:17:18Z</time>
      </trkpt>
      <trkpt lat="43.95681" lon="5.19758">
        <ele>607.69</ele>
        <time>2016-01-15T10:17:20Z</time>
      </trkpt>
      <trkpt lat="43.95688" lon="5.19762">
        <ele>608.17</ele>
        <time>2016-01-15T10:17:29Z</time>
      </trkpt>
      <trkpt lat="43.95691" lon="5.19763">
        <ele>608.65</ele>
        <time>2016-01-15T10:17:32Z</time>
      </trkpt>
      <trkpt lat="43.95698" lon="5.19769">
        <ele>609.13</ele>
        <time>2016-01-15T10:17:40Z</time>
      </trkpt>
      <trkpt lat="43.95701" lon="5.19771">
        <ele>608.65</ele>
        <time>2016-01-15T10:17:45Z</time>
      </trkpt>
      <trkpt lat="43.95704" lon="5.19772">
        <ele>608.65</ele>
        <time>2016-01-15T10:17:48Z</time>
      </trkpt>
      <trkpt lat="43.9571" lon="5.19781">
        <ele>609.61</ele>
        <time>2016-01-15T10:17:56Z</time>
      </trkpt>
      <trkpt lat="43.95712" lon="5.19785">
        <ele>610.57</ele>
        <time>2016-01-15T10:18:00Z</time>
      </trkpt>
      <trkpt lat="43.95716" lon="5.19786">
        <ele>611.06</ele>
        <time>2016-01-15T10:18:03Z</time>
      </trkpt>
      <trkpt lat="43.95719" lon="5.19788">
        <ele>610.57</ele>
        <time>2016-01-15T10:18:06Z</time>
      </trkpt>
      <trkpt lat="43.95723" lon="5.19791">
        <ele>611.06</ele>
        <time>2016-01-15T10:18:11Z</time>
      </trkpt>
      <trkpt lat="43.95726" lon="5.19795">
        <ele>611.06</ele>
        <time>2016-01-15T10:18:15Z</time>
      </trkpt>
      <trkpt lat="43.95731" lon="5.19799">
        <ele>611.06</ele>
        <time>2016-01-15T10:18:21Z</time>
      </trkpt>
      <trkpt lat="43.95738" lon="5.19804">
        <ele>612.02</ele>
        <time>2016-01-15T10:18:28Z</time>
      </trkpt>
      <trkpt lat="43.95744" lon="5.1981">
        <ele>612.02</ele>
        <time>2016-01-15T10:18:36Z</time>
      </trkpt>
      <trkpt lat="43.95746" lon="5.19814">
        <ele>612.02</ele>
        <time>2016-01-15T10:18:39Z</time>
      </trkpt>
      <trkpt lat="43.95753" lon="5.19817">
        <ele>612.5</ele>
        <time>2016-01-15T10:18:46Z</time>
      </trkpt>
      <trkpt lat="43.95754" lon="5.19818">
        <ele>612.5</ele>
        <time>2016-01-15T10:18:47Z</time>
      </trkpt>
      <trkpt lat="43.9576" lon="5.19826">
        <ele>613.46</ele>
        <time>2016-01-15T10:18:55Z</time>
      </trkpt>
      <trkpt lat="43.95765" lon="5.19832">
        <ele>613.46</ele>
        <time>2016-01-15T10:19:01Z</time>
      </trkpt>
      <trkpt lat="43.95767" lon="5.19834">
        <ele>613.46</ele>
        <time>2016-01-15T10:19:03Z</time>
      </trkpt>
      <trkpt lat="43.95769" lon="5.19838">
        <ele>613.46</ele>
        <time>2016-01-15T10:19:06Z</time>
      </trkpt>
      <trkpt lat="43.95771" lon="5.1984">
        <ele>614.42</ele>
        <time>2016-01-15T10:19:08Z</time>
      </trkpt>
      <trkpt lat="43.95776" lon="5.19847">
        <ele>613.94</ele>
        <time>2016-01-15T10:19:14Z</time>
      </trkpt>
      <trkpt lat="43.95781" lon="5.19854">
        <ele>614.42</ele>
        <time>2016-01-15T10:19:20Z</time>
      </trkpt>
      <trkpt lat="43.95788" lon="5.19859">
        <ele>614.42</ele>
        <time>2016-01-15T10:19:27Z</time>
      </trkpt>
      <trkpt lat="43.95789" lon="5.19861">
        <ele>613.94</ele>
        <time>2016-01-15T10:19:29Z</time>
      </trkpt>
      <trkpt lat="43.95792" lon="5.19862">
        <ele>614.42</ele>
        <time>2016-01-15T10:19:32Z</time>
      </trkpt>
      <trkpt lat="43.95796" lon="5.19864">
        <ele>613.46</ele>
        <time>2016-01-15T10:19:35Z</time>
      </trkpt>
      <trkpt lat="43.95801" lon="5.19872">
        <ele>613.94</ele>
        <time>2016-01-15T10:19:42Z</time>
      </trkpt>
      <trkpt lat="43.95805" lon="5.19879">
        <ele>613.94</ele>
        <time>2016-01-15T10:19:49Z</time>
      </trkpt>
      <trkpt lat="43.95807" lon="5.1988">
        <ele>613.94</ele>
        <time>2016-01-15T10:19:51Z</time>
      </trkpt>
      <trkpt lat="43.9581" lon="5.19884">
        <ele>613.46</ele>
        <time>2016-01-15T10:19:55Z</time>
      </trkpt>
      <trkpt lat="43.95817" lon="5.19888">
        <ele>613.94</ele>
        <time>2016-01-15T10:20:01Z</time>
      </trkpt>
      <trkpt lat="43.9582" lon="5.19892">
        <ele>613.46</ele>
        <time>2016-01-15T10:20:05Z</time>
      </trkpt>
      <trkpt lat="43.95825" lon="5.19893">
        <ele>613.46</ele>
        <time>2016-01-15T10:20:09Z</time>
      </trkpt>
      <trkpt lat="43.95831" lon="5.19887">
        <ele>612.98</ele>
        <time>2016-01-15T10:20:17Z</time>
      </trkpt>
      <trkpt lat="43.95836" lon="5.19878">
        <ele>612.02</ele>
        <time>2016-01-15T10:20:25Z</time>
      </trkpt>
      <trkpt lat="43.95839" lon="5.19875">
        <ele>611.54</ele>
        <time>2016-01-15T10:20:30Z</time>
      </trkpt>
      <trkpt lat="43.95843" lon="5.19868">
        <ele>611.06</ele>
        <time>2016-01-15T10:20:37Z</time>
      </trkpt>
      <trkpt lat="43.95845" lon="5.19864">
        <ele>610.09</ele>
        <time>2016-01-15T10:20:43Z</time>
      </trkpt>
      <trkpt lat="43.95847" lon="5.19858">
        <ele>609.61</ele>
        <time>2016-01-15T10:20:49Z</time>
      </trkpt>
      <trkpt lat="43.9585" lon="5.19849">
        <ele>608.65</ele>
        <time>2016-01-15T10:20:56Z</time>
      </trkpt>
      <trkpt lat="43.95855" lon="5.19839">
        <ele>607.69</ele>
        <time>2016-01-15T10:21:04Z</time>
      </trkpt>
      <trkpt lat="43.95857" lon="5.19832">
        <ele>606.73</ele>
        <time>2016-01-15T10:21:10Z</time>
      </trkpt>
      <trkpt lat="43.95859" lon="5.19823">
        <ele>605.77</ele>
        <time>2016-01-15T10:21:17Z</time>
      </trkpt>
      <trkpt lat="43.95861" lon="5.19815">
        <ele>604.81</ele>
        <time>2016-01-15T10:21:23Z</time>
      </trkpt>
      <trkpt lat="43.95861" lon="5.19809">
        <ele>603.85</ele>
        <time>2016-01-15T10:21:31Z</time>
      </trkpt>
      <trkpt lat="43.95862" lon="5.19804">
        <ele>603.36</ele>
        <time>2016-01-15T10:21:37Z</time>
      </trkpt>
      <trkpt lat="43.95865" lon="5.19795">
        <ele>601.92</ele>
        <time>2016-01-15T10:21:44Z</time>
      </trkpt>
      <trkpt lat="43.95865" lon="5.19793">
        <ele>601.92</ele>
        <time>2016-01-15T10:21:45Z</time>
      </trkpt>
      <trkpt lat="43.95869" lon="5.19781">
        <ele>600.48</ele>
        <time>2016-01-15T10:21:51Z</time>
      </trkpt>
      <trkpt lat="43.95868" lon="5.19776">
        <ele>600</ele>
        <time>2016-01-15T10:21:54Z</time>
      </trkpt>
      <trkpt lat="43.95869" lon="5.1977">
        <ele>599.52</ele>
        <time>2016-01-15T10:21:59Z</time>
      </trkpt>
      <trkpt lat="43.95868" lon="5.19766">
        <ele>599.04</ele>
        <time>2016-01-15T10:22:02Z</time>
      </trkpt>
      <trkpt lat="43.95867" lon="5.19759">
        <ele>598.56</ele>
        <time>2016-01-15T10:22:08Z</time>
      </trkpt>
      <trkpt lat="43.95866" lon="5.19755">
        <ele>598.56</ele>
        <time>2016-01-15T10:22:11Z</time>
      </trkpt>
      <trkpt lat="43.95866" lon="5.19746">
        <ele>597.12</ele>
        <time>2016-01-15T10:22:19Z</time>
      </trkpt>
      <trkpt lat="43.95864" lon="5.19741">
        <ele>596.64</ele>
        <time>2016-01-15T10:22:24Z</time>
      </trkpt>
      <trkpt lat="43.95862" lon="5.19731">
        <ele>595.19</ele>
        <time>2016-01-15T10:22:30Z</time>
      </trkpt>
      <trkpt lat="43.95862" lon="5.19725">
        <ele>595.19</ele>
        <time>2016-01-15T10:22:35Z</time>
      </trkpt>
      <trkpt lat="43.95861" lon="5.19716">
        <ele>594.23</ele>
        <time>2016-01-15T10:22:41Z</time>
      </trkpt>
      <trkpt lat="43.9586" lon="5.19712">
        <ele>593.75</ele>
        <time>2016-01-15T10:22:45Z</time>
      </trkpt>
      <trkpt lat="43.95858" lon="5.19709">
        <ele>593.75</ele>
        <time>2016-01-15T10:22:51Z</time>
      </trkpt>
      <trkpt lat="43.95855" lon="5.19703">
        <ele>592.31</ele>
        <time>2016-01-15T10:22:57Z</time>
      </trkpt>
      <trkpt lat="43.95855" lon="5.19703">
        <ele>592.31</ele>
        <time>2016-01-15T10:22:58Z</time>
      </trkpt>
      <trkpt lat="43.95852" lon="5.19697">
        <ele>591.83</ele>
        <time>2016-01-15T10:23:04Z</time>
      </trkpt>
      <trkpt lat="43.95851" lon="5.19693">
        <ele>591.35</ele>
        <time>2016-01-15T10:23:06Z</time>
      </trkpt>
      <trkpt lat="43.95849" lon="5.19688">
        <ele>590.39</ele>
        <time>2016-01-15T10:23:11Z</time>
      </trkpt>
      <trkpt lat="43.9585" lon="5.19681">
        <ele>589.91</ele>
        <time>2016-01-15T10:23:17Z</time>
      </trkpt>
      <trkpt lat="43.95849" lon="5.19678">
        <ele>589.43</ele>
        <time>2016-01-15T10:23:19Z</time>
      </trkpt>
      <trkpt lat="43.95847" lon="5.19667">
        <ele>588.46</ele>
        <time>2016-01-15T10:23:28Z</time>
      </trkpt>
      <trkpt lat="43.95845" lon="5.1966">
        <ele>587.5</ele>
        <time>2016-01-15T10:23:34Z</time>
      </trkpt>
      <trkpt lat="43.95842" lon="5.19653">
        <ele>587.5</ele>
        <time>2016-01-15T10:23:40Z</time>
      </trkpt>
      <trkpt lat="43.9584" lon="5.19648">
        <ele>586.54</ele>
        <time>2016-01-15T10:23:45Z</time>
      </trkpt>
      <trkpt lat="43.95838" lon="5.19643">
        <ele>586.06</ele>
        <time>2016-01-15T10:23:49Z</time>
      </trkpt>
      <trkpt lat="43.95838" lon="5.19632">
        <ele>584.62</ele>
        <time>2016-01-15T10:23:57Z</time>
      </trkpt>
      <trkpt lat="43.95836" lon="5.19625">
        <ele>583.66</ele>
        <time>2016-01-15T10:24:03Z</time>
      </trkpt>
      <trkpt lat="43.95834" lon="5.19623">
        <ele>583.18</ele>
        <time>2016-01-15T10:24:06Z</time>
      </trkpt>
      <trkpt lat="43.95833" lon="5.19614">
        <ele>582.7</ele>
        <time>2016-01-15T10:24:13Z</time>
      </trkpt>
      <trkpt lat="43.95833" lon="5.19612">
        <ele>582.7</ele>
        <time>2016-01-15T10:24:15Z</time>
      </trkpt>
      <trkpt lat="43.95834" lon="5.19601">
        <ele>580.77</ele>
        <time>2016-01-15T10:24:24Z</time>
      </trkpt>
      <trkpt lat="43.95835" lon="5.19598">
        <ele>580.77</ele>
        <time>2016-01-15T10:24:27Z</time>
      </trkpt>
      <trkpt lat="43.95836" lon="5.1959">
        <ele>579.81</ele>
        <time>2016-01-15T10:24:33Z</time>
      </trkpt>
      <trkpt lat="43.95836" lon="5.19586">
        <ele>578.85</ele>
        <time>2016-01-15T10:24:38Z</time>
      </trkpt>
      <trkpt lat="43.95836" lon="5.19584">
        <ele>578.85</ele>
        <time>2016-01-15T10:24:40Z</time>
      </trkpt>
      <trkpt lat="43.95834" lon="5.19576">
        <ele>577.89</ele>
        <time>2016-01-15T10:24:46Z</time>
      </trkpt>
      <trkpt lat="43.95834" lon="5.19569">
        <ele>576.93</ele>
        <time>2016-01-15T10:24:51Z</time>
      </trkpt>
      <trkpt lat="43.95833" lon="5.19563">
        <ele>575.97</ele>
        <time>2016-01-15T10:24:58Z</time>
      </trkpt>
      <trkpt lat="43.95833" lon="5.19557">
        <ele>575.01</ele>
        <time>2016-01-15T10:25:04Z</time>
      </trkpt>
      <trkpt lat="43.95833" lon="5.1955">
        <ele>575.01</ele>
        <time>2016-01-15T10:25:10Z</time>
      </trkpt>
      <trkpt lat="43.95831" lon="5.19542">
        <ele>573.56</ele>
        <time>2016-01-15T10:25:16Z</time>
      </trkpt>
      <trkpt lat="43.9583" lon="5.19536">
        <ele>572.6</ele>
        <time>2016-01-15T10:25:21Z</time>
      </trkpt>
      <trkpt lat="43.95829" lon="5.1953">
        <ele>571.64</ele>
        <time>2016-01-15T10:25:28Z</time>
      </trkpt>
      <trkpt lat="43.9583" lon="5.19522">
        <ele>571.16</ele>
        <time>2016-01-15T10:25:35Z</time>
      </trkpt>
      <trkpt lat="43.95828" lon="5.19517">
        <ele>570.2</ele>
        <time>2016-01-15T10:25:40Z</time>
      </trkpt>
      <trkpt lat="43.95828" lon="5.19515">
        <ele>569.72</ele>
        <time>2016-01-15T10:25:42Z</time>
      </trkpt>
      <trkpt lat="43.95828" lon="5.19506">
        <ele>569.24</ele>
        <time>2016-01-15T10:25:49Z</time>
      </trkpt>
      <trkpt lat="43.95832" lon="5.19501">
        <ele>568.28</ele>
        <time>2016-01-15T10:25:55Z</time>
      </trkpt>
      <trkpt lat="43.95833" lon="5.19498">
        <ele>568.28</ele>
        <time>2016-01-15T10:25:57Z</time>
      </trkpt>
      <trkpt lat="43.95835" lon="5.19488">
        <ele>566.35</ele>
        <time>2016-01-15T10:26:05Z</time>
      </trkpt>
      <trkpt lat="43.95835" lon="5.19484">
        <ele>566.35</ele>
        <time>2016-01-15T10:26:08Z</time>
      </trkpt>
      <trkpt lat="43.95838" lon="5.19475">
        <ele>564.91</ele>
        <time>2016-01-15T10:26:16Z</time>
      </trkpt>
      <trkpt lat="43.95839" lon="5.19468">
        <ele>564.43</ele>
        <time>2016-01-15T10:26:23Z</time>
      </trkpt>
      <trkpt lat="43.95842" lon="5.1946">
        <ele>563.47</ele>
        <time>2016-01-15T10:26:30Z</time>
      </trkpt>
      <trkpt lat="43.95847" lon="5.19452">
        <ele>562.03</ele>
        <time>2016-01-15T10:26:38Z</time>
      </trkpt>
      <trkpt lat="43.95848" lon="5.19449">
        <ele>562.03</ele>
        <time>2016-01-15T10:26:40Z</time>
      </trkpt>
      <trkpt lat="43.95853" lon="5.19441">
        <ele>561.07</ele>
        <time>2016-01-15T10:26:48Z</time>
      </trkpt>
      <trkpt lat="43.95858" lon="5.19431">
        <ele>560.11</ele>
        <time>2016-01-15T10:26:56Z</time>
      </trkpt>
      <trkpt lat="43.9586" lon="5.19428">
        <ele>560.11</ele>
        <time>2016-01-15T10:26:59Z</time>
      </trkpt>
      <trkpt lat="43.95865" lon="5.19422">
        <ele>558.66</ele>
        <time>2016-01-15T10:27:04Z</time>
      </trkpt>
      <trkpt lat="43.95868" lon="5.19415">
        <ele>558.18</ele>
        <time>2016-01-15T10:27:09Z</time>
      </trkpt>
      <trkpt lat="43.9587" lon="5.19409">
        <ele>557.7</ele>
        <time>2016-01-15T10:27:14Z</time>
      </trkpt>
      <trkpt lat="43.95875" lon="5.194">
        <ele>556.74</ele>
        <time>2016-01-15T10:27:21Z</time>
      </trkpt>
      <trkpt lat="43.95885" lon="5.19397">
        <ele>555.78</ele>
        <time>2016-01-15T10:27:29Z</time>
      </trkpt>
      <trkpt lat="43.95891" lon="5.19392">
        <ele>554.82</ele>
        <time>2016-01-15T10:27:34Z</time>
      </trkpt>
      <trkpt lat="43.95899" lon="5.19386">
        <ele>553.38</ele>
        <time>2016-01-15T10:27:42Z</time>
      </trkpt>
      <trkpt lat="43.959" lon="5.19384">
        <ele>553.38</ele>
        <time>2016-01-15T10:27:45Z</time>
      </trkpt>
      <trkpt lat="43.95906" lon="5.1938">
        <ele>552.41</ele>
        <time>2016-01-15T10:27:50Z</time>
      </trkpt>
      <trkpt lat="43.95911" lon="5.19374">
        <ele>552.41</ele>
        <time>2016-01-15T10:27:55Z</time>
      </trkpt>
      <trkpt lat="43.95919" lon="5.19372">
        <ele>551.45</ele>
        <time>2016-01-15T10:28:02Z</time>
      </trkpt>
      <trkpt lat="43.95922" lon="5.19372">
        <ele>550.97</ele>
        <time>2016-01-15T10:28:05Z</time>
      </trkpt>
      <trkpt lat="43.95927" lon="5.1937">
        <ele>550.49</ele>
        <time>2016-01-15T10:28:09Z</time>
      </trkpt>
      <trkpt lat="43.95931" lon="5.19368">
        <ele>550.01</ele>
        <time>2016-01-15T10:28:14Z</time>
      </trkpt>
      <trkpt lat="43.95934" lon="5.19368">
        <ele>550.49</ele>
        <time>2016-01-15T10:28:16Z</time>
      </trkpt>
      <trkpt lat="43.95936" lon="5.19368">
        <ele>550.01</ele>
        <time>2016-01-15T10:28:18Z</time>
      </trkpt>
      <trkpt lat="43.95944" lon="5.19369">
        <ele>549.05</ele>
        <time>2016-01-15T10:28:25Z</time>
      </trkpt>
      <trkpt lat="43.95952" lon="5.19369">
        <ele>548.09</ele>
        <time>2016-01-15T10:28:31Z</time>
      </trkpt>
      <trkpt lat="43.9596" lon="5.19368">
        <ele>547.13</ele>
        <time>2016-01-15T10:28:38Z</time>
      </trkpt>
      <trkpt lat="43.95969" lon="5.19363">
        <ele>546.17</ele>
        <time>2016-01-15T10:28:46Z</time>
      </trkpt>
      <trkpt lat="43.95976" lon="5.1936">
        <ele>545.69</ele>
        <time>2016-01-15T10:28:52Z</time>
      </trkpt>
      <trkpt lat="43.95984" lon="5.19358">
        <ele>545.2</ele>
        <time>2016-01-15T10:28:59Z</time>
      </trkpt>
      <trkpt lat="43.95991" lon="5.19357">
        <ele>544.24</ele>
        <time>2016-01-15T10:29:06Z</time>
      </trkpt>
      <trkpt lat="43.95992" lon="5.19358">
        <ele>544.24</ele>
        <time>2016-01-15T10:29:07Z</time>
      </trkpt>
      <trkpt lat="43.95996" lon="5.19357">
        <ele>543.76</ele>
        <time>2016-01-15T10:29:11Z</time>
      </trkpt>
      <trkpt lat="43.96004" lon="5.19353">
        <ele>542.32</ele>
        <time>2016-01-15T10:29:18Z</time>
      </trkpt>
      <trkpt lat="43.9601" lon="5.19349">
        <ele>541.84</ele>
        <time>2016-01-15T10:29:25Z</time>
      </trkpt>
      <trkpt lat="43.96013" lon="5.19348">
        <ele>541.84</ele>
        <time>2016-01-15T10:29:28Z</time>
      </trkpt>
      <trkpt lat="43.96018" lon="5.19348">
        <ele>541.36</ele>
        <time>2016-01-15T10:29:32Z</time>
      </trkpt>
      <trkpt lat="43.9602" lon="5.19348">
        <ele>541.36</ele>
        <time>2016-01-15T10:29:34Z</time>
      </trkpt>
      <trkpt lat="43.96028" lon="5.19347">
        <ele>540.88</ele>
        <time>2016-01-15T10:29:41Z</time>
      </trkpt>
      <trkpt lat="43.9603" lon="5.19348">
        <ele>539.92</ele>
        <time>2016-01-15T10:29:43Z</time>
      </trkpt>
      <trkpt lat="43.96039" lon="5.19347">
        <ele>538.96</ele>
        <time>2016-01-15T10:29:50Z</time>
      </trkpt>
      <trkpt lat="43.96047" lon="5.19345">
        <ele>538.96</ele>
        <time>2016-01-15T10:29:56Z</time>
      </trkpt>
      <trkpt lat="43.96054" lon="5.1934">
        <ele>538.48</ele>
        <time>2016-01-15T10:30:02Z</time>
      </trkpt>
      <trkpt lat="43.9606" lon="5.19337">
        <ele>537.99</ele>
        <time>2016-01-15T10:30:08Z</time>
      </trkpt>
      <trkpt lat="43.96068" lon="5.19332">
        <ele>536.55</ele>
        <time>2016-01-15T10:30:15Z</time>
      </trkpt>
      <trkpt lat="43.96075" lon="5.19328">
        <ele>535.59</ele>
        <time>2016-01-15T10:30:22Z</time>
      </trkpt>
      <trkpt lat="43.96082" lon="5.19325">
        <ele>535.11</ele>
        <time>2016-01-15T10:30:27Z</time>
      </trkpt>
      <trkpt lat="43.96088" lon="5.19323">
        <ele>534.63</ele>
        <time>2016-01-15T10:30:34Z</time>
      </trkpt>
      <trkpt lat="43.96094" lon="5.19319">
        <ele>534.15</ele>
        <time>2016-01-15T10:30:40Z</time>
      </trkpt>
      <trkpt lat="43.96095" lon="5.19319">
        <ele>533.67</ele>
        <time>2016-01-15T10:30:41Z</time>
      </trkpt>
      <trkpt lat="43.96102" lon="5.19317">
        <ele>533.67</ele>
        <time>2016-01-15T10:30:47Z</time>
      </trkpt>
      <trkpt lat="43.96113" lon="5.19312">
        <ele>533.19</ele>
        <time>2016-01-15T10:30:56Z</time>
      </trkpt>
      <trkpt lat="43.96123" lon="5.19308">
        <ele>532.71</ele>
        <time>2016-01-15T10:31:03Z</time>
      </trkpt>
      <trkpt lat="43.96132" lon="5.19306">
        <ele>530.79</ele>
        <time>2016-01-15T10:31:12Z</time>
      </trkpt>
      <trkpt lat="43.96133" lon="5.19305">
        <ele>530.79</ele>
        <time>2016-01-15T10:31:13Z</time>
      </trkpt>
      <trkpt lat="43.9614" lon="5.19303">
        <ele>529.34</ele>
        <time>2016-01-15T10:31:20Z</time>
      </trkpt>
      <trkpt lat="43.96144" lon="5.19303">
        <ele>528.86</ele>
        <time>2016-01-15T10:31:23Z</time>
      </trkpt>
      <trkpt lat="43.96148" lon="5.19303">
        <ele>528.38</ele>
        <time>2016-01-15T10:31:27Z</time>
      </trkpt>
      <trkpt lat="43.96159" lon="5.19302">
        <ele>527.42</ele>
        <time>2016-01-15T10:31:36Z</time>
      </trkpt>
      <trkpt lat="43.96163" lon="5.19301">
        <ele>527.42</ele>
        <time>2016-01-15T10:31:39Z</time>
      </trkpt>
      <trkpt lat="43.96173" lon="5.19298">
        <ele>526.94</ele>
        <time>2016-01-15T10:31:47Z</time>
      </trkpt>
      <trkpt lat="43.96179" lon="5.19297">
        <ele>526.94</ele>
        <time>2016-01-15T10:31:52Z</time>
      </trkpt>
      <trkpt lat="43.96188" lon="5.19296">
        <ele>526.46</ele>
        <time>2016-01-15T10:31:59Z</time>
      </trkpt>
      <trkpt lat="43.96189" lon="5.19296">
        <ele>525.98</ele>
        <time>2016-01-15T10:32:00Z</time>
      </trkpt>
      <trkpt lat="43.96195" lon="5.19295">
        <ele>525.5</ele>
        <time>2016-01-15T10:32:05Z</time>
      </trkpt>
      <trkpt lat="43.96204" lon="5.19293">
        <ele>525.02</ele>
        <time>2016-01-15T10:32:13Z</time>
      </trkpt>
      <trkpt lat="43.96207" lon="5.19293">
        <ele>525.02</ele>
        <time>2016-01-15T10:32:16Z</time>
      </trkpt>
      <trkpt lat="43.96211" lon="5.19291">
        <ele>524.06</ele>
        <time>2016-01-15T10:32:19Z</time>
      </trkpt>
      <trkpt lat="43.96219" lon="5.19288">
        <ele>523.58</ele>
        <time>2016-01-15T10:32:26Z</time>
      </trkpt>
      <trkpt lat="43.96224" lon="5.19284">
        <ele>523.09</ele>
        <time>2016-01-15T10:32:31Z</time>
      </trkpt>
      <trkpt lat="43.96236" lon="5.19278">
        <ele>522.61</ele>
        <time>2016-01-15T10:32:40Z</time>
      </trkpt>
      <trkpt lat="43.96246" lon="5.19275">
        <ele>521.65</ele>
        <time>2016-01-15T10:32:47Z</time>
      </trkpt>
      <trkpt lat="43.96256" lon="5.1927">
        <ele>521.17</ele>
        <time>2016-01-15T10:32:56Z</time>
      </trkpt>
      <trkpt lat="43.96264" lon="5.19265">
        <ele>520.69</ele>
        <time>2016-01-15T10:33:03Z</time>
      </trkpt>
      <trkpt lat="43.96265" lon="5.19264">
        <ele>521.17</ele>
        <time>2016-01-15T10:33:04Z</time>
      </trkpt>
      <trkpt lat="43.9627" lon="5.19261">
        <ele>520.21</ele>
        <time>2016-01-15T10:33:09Z</time>
      </trkpt>
      <trkpt lat="43.96278" lon="5.19256">
        <ele>519.73</ele>
        <time>2016-01-15T10:33:16Z</time>
      </trkpt>
      <trkpt lat="43.96282" lon="5.19254">
        <ele>519.73</ele>
        <time>2016-01-15T10:33:20Z</time>
      </trkpt>
      <trkpt lat="43.96285" lon="5.19252">
        <ele>519.73</ele>
        <time>2016-01-15T10:33:23Z</time>
      </trkpt>
      <trkpt lat="43.96292" lon="5.19248">
        <ele>519.25</ele>
        <time>2016-01-15T10:33:30Z</time>
      </trkpt>
      <trkpt lat="43.963" lon="5.19246">
        <ele>518.29</ele>
        <time>2016-01-15T10:33:37Z</time>
      </trkpt>
      <trkpt lat="43.96307" lon="5.19242">
        <ele>517.81</ele>
        <time>2016-01-15T10:33:44Z</time>
      </trkpt>
      <trkpt lat="43.96312" lon="5.19242">
        <ele>517.81</ele>
        <time>2016-01-15T10:33:50Z</time>
      </trkpt>
      <trkpt lat="43.96317" lon="5.19239">
        <ele>517.33</ele>
        <time>2016-01-15T10:33:55Z</time>
      </trkpt>
      <trkpt lat="43.96328" lon="5.1923">
        <ele>516.85</ele>
        <time>2016-01-15T10:34:03Z</time>
      </trkpt>
      <trkpt lat="43.96334" lon="5.19226">
        <ele>516.85</ele>
        <time>2016-01-15T10:34:09Z</time>
      </trkpt>
      <trkpt lat="43.9634" lon="5.19219">
        <ele>516.85</ele>
        <time>2016-01-15T10:34:15Z</time>
      </trkpt>
      <trkpt lat="43.96341" lon="5.19217">
        <ele>516.85</ele>
        <time>2016-01-15T10:34:16Z</time>
      </trkpt>
      <trkpt lat="43.96346" lon="5.19213">
        <ele>516.37</ele>
        <time>2016-01-15T10:34:20Z</time>
      </trkpt>
      <trkpt lat="43.96354" lon="5.19208">
        <ele>516.37</ele>
        <time>2016-01-15T10:34:27Z</time>
      </trkpt>
      <trkpt lat="43.96361" lon="5.19205">
        <ele>515.88</ele>
        <time>2016-01-15T10:34:34Z</time>
      </trkpt>
      <trkpt lat="43.96363" lon="5.19203">
        <ele>516.37</ele>
        <time>2016-01-15T10:34:36Z</time>
      </trkpt>
      <trkpt lat="43.96372" lon="5.19196">
        <ele>515.88</ele>
        <time>2016-01-15T10:34:44Z</time>
      </trkpt>
      <trkpt lat="43.96375" lon="5.19192">
        <ele>516.37</ele>
        <time>2016-01-15T10:34:48Z</time>
      </trkpt>
      <trkpt lat="43.96382" lon="5.19187">
        <ele>515.88</ele>
        <time>2016-01-15T10:34:55Z</time>
      </trkpt>
      <trkpt lat="43.96383" lon="5.19186">
        <ele>516.37</ele>
        <time>2016-01-15T10:34:57Z</time>
      </trkpt>
      <trkpt lat="43.96392" lon="5.19181">
        <ele>516.37</ele>
        <time>2016-01-15T10:35:05Z</time>
      </trkpt>
      <trkpt lat="43.96398" lon="5.19178">
        <ele>517.33</ele>
        <time>2016-01-15T10:35:12Z</time>
      </trkpt>
      <trkpt lat="43.96406" lon="5.19177">
        <ele>517.33</ele>
        <time>2016-01-15T10:35:17Z</time>
      </trkpt>
      <trkpt lat="43.96414" lon="5.19175">
        <ele>518.29</ele>
        <time>2016-01-15T10:35:23Z</time>
      </trkpt>
      <trkpt lat="43.96421" lon="5.19171">
        <ele>517.81</ele>
        <time>2016-01-15T10:35:29Z</time>
      </trkpt>
      <trkpt lat="43.96427" lon="5.19167">
        <ele>518.77</ele>
        <time>2016-01-15T10:35:36Z</time>
      </trkpt>
      <trkpt lat="43.96432" lon="5.19167">
        <ele>518.77</ele>
        <time>2016-01-15T10:35:40Z</time>
      </trkpt>
      <trkpt lat="43.96436" lon="5.19164">
        <ele>518.77</ele>
        <time>2016-01-15T10:35:44Z</time>
      </trkpt>
      <trkpt lat="43.96444" lon="5.19159">
        <ele>518.29</ele>
        <time>2016-01-15T10:35:50Z</time>
      </trkpt>
      <trkpt lat="43.96449" lon="5.19155">
        <ele>518.77</ele>
        <time>2016-01-15T10:35:56Z</time>
      </trkpt>
      <trkpt lat="43.96459" lon="5.19149">
        <ele>518.77</ele>
        <time>2016-01-15T10:36:03Z</time>
      </trkpt>
      <trkpt lat="43.96463" lon="5.19145">
        <ele>518.29</ele>
        <time>2016-01-15T10:36:08Z</time>
      </trkpt>
      <trkpt lat="43.96467" lon="5.19142">
        <ele>518.29</ele>
        <time>2016-01-15T10:36:11Z</time>
      </trkpt>
      <trkpt lat="43.96471" lon="5.1914">
        <ele>518.29</ele>
        <time>2016-01-15T10:36:13Z</time>
      </trkpt>
      <trkpt lat="43.96475" lon="5.19137">
        <ele>517.81</ele>
        <time>2016-01-15T10:36:16Z</time>
      </trkpt>
      <trkpt lat="43.96485" lon="5.19132">
        <ele>517.81</ele>
        <time>2016-01-15T10:36:23Z</time>
      </trkpt>
      <trkpt lat="43.96492" lon="5.19128">
        <ele>517.33</ele>
        <time>2016-01-15T10:36:30Z</time>
      </trkpt>
      <trkpt lat="43.96493" lon="5.19127">
        <ele>517.33</ele>
        <time>2016-01-15T10:36:31Z</time>
      </trkpt>
      <trkpt lat="43.96497" lon="5.19126">
        <ele>516.85</ele>
        <time>2016-01-15T10:36:34Z</time>
      </trkpt>
      <trkpt lat="43.96504" lon="5.19126">
        <ele>515.88</ele>
        <time>2016-01-15T10:36:40Z</time>
      </trkpt>
      <trkpt lat="43.96512" lon="5.19121">
        <ele>513.96</ele>
        <time>2016-01-15T10:36:48Z</time>
      </trkpt>
      <trkpt lat="43.96519" lon="5.1912">
        <ele>512.04</ele>
        <time>2016-01-15T10:36:54Z</time>
      </trkpt>
      <trkpt lat="43.96521" lon="5.19121">
        <ele>512.04</ele>
        <time>2016-01-15T10:36:56Z</time>
      </trkpt>
      <trkpt lat="43.96525" lon="5.19123">
        <ele>511.56</ele>
        <time>2016-01-15T10:36:59Z</time>
      </trkpt>
      <trkpt lat="43.96534" lon="5.19125">
        <ele>510.6</ele>
        <time>2016-01-15T10:37:06Z</time>
      </trkpt>
      <trkpt lat="43.96535" lon="5.19126">
        <ele>510.12</ele>
        <time>2016-01-15T10:37:07Z</time>
      </trkpt>
      <trkpt lat="43.96545" lon="5.19121">
        <ele>510.12</ele>
        <time>2016-01-15T10:37:14Z</time>
      </trkpt>
      <trkpt lat="43.96554" lon="5.19118">
        <ele>511.08</ele>
        <time>2016-01-15T10:37:20Z</time>
      </trkpt>
      <trkpt lat="43.96559" lon="5.19111">
        <ele>511.56</ele>
        <time>2016-01-15T10:37:27Z</time>
      </trkpt>
      <trkpt lat="43.9657" lon="5.19107">
        <ele>511.56</ele>
        <time>2016-01-15T10:37:35Z</time>
      </trkpt>
      <trkpt lat="43.96572" lon="5.19106">
        <ele>511.56</ele>
        <time>2016-01-15T10:37:37Z</time>
      </trkpt>
      <trkpt lat="43.96577" lon="5.19104">
        <ele>511.56</ele>
        <time>2016-01-15T10:37:42Z</time>
      </trkpt>
      <trkpt lat="43.96588" lon="5.19101">
        <ele>511.56</ele>
        <time>2016-01-15T10:37:51Z</time>
      </trkpt>
      <trkpt lat="43.96593" lon="5.19098">
        <ele>511.56</ele>
        <time>2016-01-15T10:37:57Z</time>
      </trkpt>
      <trkpt lat="43.96603" lon="5.19094">
        <ele>511.56</ele>
        <time>2016-01-15T10:38:04Z</time>
      </trkpt>
      <trkpt lat="43.96608" lon="5.19091">
        <ele>511.08</ele>
        <time>2016-01-15T10:38:10Z</time>
      </trkpt>
      <trkpt lat="43.96615" lon="5.19087">
        <ele>510.6</ele>
        <time>2016-01-15T10:38:15Z</time>
      </trkpt>
      <trkpt lat="43.96624" lon="5.19079">
        <ele>510.6</ele>
        <time>2016-01-15T10:38:23Z</time>
      </trkpt>
      <trkpt lat="43.96627" lon="5.19078">
        <ele>510.6</ele>
        <time>2016-01-15T10:38:26Z</time>
      </trkpt>
      <trkpt lat="43.96634" lon="5.19071">
        <ele>510.6</ele>
        <time>2016-01-15T10:38:32Z</time>
      </trkpt>
      <trkpt lat="43.96639" lon="5.19065">
        <ele>510.12</ele>
        <time>2016-01-15T10:38:38Z</time>
      </trkpt>
      <trkpt lat="43.96644" lon="5.19058">
        <ele>509.64</ele>
        <time>2016-01-15T10:38:43Z</time>
      </trkpt>
      <trkpt lat="43.96648" lon="5.19048">
        <ele>509.16</ele>
        <time>2016-01-15T10:38:49Z</time>
      </trkpt>
      <trkpt lat="43.9665" lon="5.19045">
        <ele>509.16</ele>
        <time>2016-01-15T10:38:52Z</time>
      </trkpt>
      <trkpt lat="43.96657" lon="5.19036">
        <ele>508.67</ele>
        <time>2016-01-15T10:39:00Z</time>
      </trkpt>
      <trkpt lat="43.96659" lon="5.19034">
        <ele>508.19</ele>
        <time>2016-01-15T10:39:02Z</time>
      </trkpt>
      <trkpt lat="43.96666" lon="5.1902">
        <ele>507.23</ele>
        <time>2016-01-15T10:39:11Z</time>
      </trkpt>
      <trkpt lat="43.96671" lon="5.19009">
        <ele>505.79</ele>
        <time>2016-01-15T10:39:18Z</time>
      </trkpt>
      <trkpt lat="43.96673" lon="5.19005">
        <ele>504.83</ele>
        <time>2016-01-15T10:39:22Z</time>
      </trkpt>
      <trkpt lat="43.96675" lon="5.19004">
        <ele>505.31</ele>
        <time>2016-01-15T10:39:24Z</time>
      </trkpt>
      <trkpt lat="43.96677" lon="5.19003">
        <ele>504.35</ele>
        <time>2016-01-15T10:39:28Z</time>
      </trkpt>
      <trkpt lat="43.9668" lon="5.19">
        <ele>504.83</ele>
        <time>2016-01-15T10:39:31Z</time>
      </trkpt>
      <trkpt lat="43.96687" lon="5.18998">
        <ele>503.39</ele>
        <time>2016-01-15T10:39:37Z</time>
      </trkpt>
      <trkpt lat="43.96694" lon="5.18993">
        <ele>502.43</ele>
        <time>2016-01-15T10:39:43Z</time>
      </trkpt>
      <trkpt lat="43.967" lon="5.18983">
        <ele>502.43</ele>
        <time>2016-01-15T10:39:50Z</time>
      </trkpt>
      <trkpt lat="43.96707" lon="5.18972">
        <ele>500.98</ele>
        <time>2016-01-15T10:39:57Z</time>
      </trkpt>
      <trkpt lat="43.96709" lon="5.18968">
        <ele>500.5</ele>
        <time>2016-01-15T10:40:00Z</time>
      </trkpt>
      <trkpt lat="43.96711" lon="5.18964">
        <ele>500.5</ele>
        <time>2016-01-15T10:40:03Z</time>
      </trkpt>
      <trkpt lat="43.96715" lon="5.18956">
        <ele>499.54</ele>
        <time>2016-01-15T10:40:08Z</time>
      </trkpt>
      <trkpt lat="43.96716" lon="5.18954">
        <ele>499.54</ele>
        <time>2016-01-15T10:40:10Z</time>
      </trkpt>
      <trkpt lat="43.96717" lon="5.1895">
        <ele>500.5</ele>
        <time>2016-01-15T10:40:13Z</time>
      </trkpt>
      <trkpt lat="43.96719" lon="5.18945">
        <ele>499.54</ele>
        <time>2016-01-15T10:40:16Z</time>
      </trkpt>
      <trkpt lat="43.96721" lon="5.18935">
        <ele>498.58</ele>
        <time>2016-01-15T10:40:21Z</time>
      </trkpt>
      <trkpt lat="43.96722" lon="5.18929">
        <ele>498.58</ele>
        <time>2016-01-15T10:40:27Z</time>
      </trkpt>
      <trkpt lat="43.96723" lon="5.18919">
        <ele>499.06</ele>
        <time>2016-01-15T10:40:32Z</time>
      </trkpt>
      <trkpt lat="43.96724" lon="5.18918">
        <ele>499.06</ele>
        <time>2016-01-15T10:40:33Z</time>
      </trkpt>
      <trkpt lat="43.96727" lon="5.18907">
        <ele>499.06</ele>
        <time>2016-01-15T10:40:39Z</time>
      </trkpt>
      <trkpt lat="43.9673" lon="5.18903">
        <ele>499.06</ele>
        <time>2016-01-15T10:40:46Z</time>
      </trkpt>
      <trkpt lat="43.9673" lon="5.18902">
        <ele>498.58</ele>
        <time>2016-01-15T10:40:55Z</time>
      </trkpt>
      <trkpt lat="43.9673" lon="5.18901">
        <ele>498.58</ele>
        <time>2016-01-15T10:41:10Z</time>
      </trkpt>
      <trkpt lat="43.96731" lon="5.18898">
        <ele>498.58</ele>
        <time>2016-01-15T10:41:23Z</time>
      </trkpt>
      <trkpt lat="43.96731" lon="5.18899">
        <ele>498.58</ele>
        <time>2016-01-15T10:41:37Z</time>
      </trkpt>
      <trkpt lat="43.96731" lon="5.18899">
        <ele>498.1</ele>
        <time>2016-01-15T10:41:53Z</time>
      </trkpt>
      <trkpt lat="43.96731" lon="5.18899">
        <ele>498.58</ele>
        <time>2016-01-15T10:42:03Z</time>
      </trkpt>
      <trkpt lat="43.96731" lon="5.18899">
        <ele>498.58</ele>
        <time>2016-01-15T10:42:19Z</time>
      </trkpt>
      <trkpt lat="43.96731" lon="5.18899">
        <ele>498.58</ele>
        <time>2016-01-15T10:42:35Z</time>
      </trkpt>
      <trkpt lat="43.96731" lon="5.18899">
        <ele>498.58</ele>
        <time>2016-01-15T10:42:51Z</time>
      </trkpt>
      <trkpt lat="43.96731" lon="5.18899">
        <ele>498.58</ele>
        <time>2016-01-15T10:43:06Z</time>
      </trkpt>
      <trkpt lat="43.9673" lon="5.18899">
        <ele>499.06</ele>
        <time>2016-01-15T10:43:23Z</time>
      </trkpt>
      <trkpt lat="43.96731" lon="5.18899">
        <ele>498.58</ele>
        <time>2016-01-15T10:43:25Z</time>
      </trkpt>
      <trkpt lat="43.96733" lon="5.18896">
        <ele>498.58</ele>
        <time>2016-01-15T10:43:31Z</time>
      </trkpt>
      <trkpt lat="43.96734" lon="5.18895">
        <ele>499.06</ele>
        <time>2016-01-15T10:43:32Z</time>
      </trkpt>
      <trkpt lat="43.96738" lon="5.1889">
        <ele>498.58</ele>
        <time>2016-01-15T10:43:37Z</time>
      </trkpt>
      <trkpt lat="43.9674" lon="5.18888">
        <ele>498.58</ele>
        <time>2016-01-15T10:43:40Z</time>
      </trkpt>
      <trkpt lat="43.96744" lon="5.18884">
        <ele>499.06</ele>
        <time>2016-01-15T10:43:44Z</time>
      </trkpt>
      <trkpt lat="43.96749" lon="5.18876">
        <ele>499.06</ele>
        <time>2016-01-15T10:43:50Z</time>
      </trkpt>
      <trkpt lat="43.96753" lon="5.18868">
        <ele>499.54</ele>
        <time>2016-01-15T10:43:56Z</time>
      </trkpt>
      <trkpt lat="43.96759" lon="5.18859">
        <ele>501.46</ele>
        <time>2016-01-15T10:44:03Z</time>
      </trkpt>
      <trkpt lat="43.9676" lon="5.18856">
        <ele>501.46</ele>
        <time>2016-01-15T10:44:06Z</time>
      </trkpt>
      <trkpt lat="43.96762" lon="5.18851">
        <ele>501.95</ele>
        <time>2016-01-15T10:44:10Z</time>
      </trkpt>
      <trkpt lat="43.96764" lon="5.18844">
        <ele>503.39</ele>
        <time>2016-01-15T10:44:17Z</time>
      </trkpt>
      <trkpt lat="43.96764" lon="5.18843">
        <ele>503.39</ele>
        <time>2016-01-15T10:44:18Z</time>
      </trkpt>
      <trkpt lat="43.96766" lon="5.18832">
        <ele>505.31</ele>
        <time>2016-01-15T10:44:26Z</time>
      </trkpt>
      <trkpt lat="43.96766" lon="5.18823">
        <ele>505.79</ele>
        <time>2016-01-15T10:44:32Z</time>
      </trkpt>
      <trkpt lat="43.96766" lon="5.18819">
        <ele>505.79</ele>
        <time>2016-01-15T10:44:35Z</time>
      </trkpt>
      <trkpt lat="43.96766" lon="5.18815">
        <ele>506.27</ele>
        <time>2016-01-15T10:44:38Z</time>
      </trkpt>
      <trkpt lat="43.96767" lon="5.18805">
        <ele>506.75</ele>
        <time>2016-01-15T10:44:45Z</time>
      </trkpt>
      <trkpt lat="43.9677" lon="5.18797">
        <ele>507.23</ele>
        <time>2016-01-15T10:44:51Z</time>
      </trkpt>
      <trkpt lat="43.96771" lon="5.18792">
        <ele>507.71</ele>
        <time>2016-01-15T10:44:55Z</time>
      </trkpt>
      <trkpt lat="43.96774" lon="5.18785">
        <ele>508.67</ele>
        <time>2016-01-15T10:45:01Z</time>
      </trkpt>
      <trkpt lat="43.96774" lon="5.18783">
        <ele>509.16</ele>
        <time>2016-01-15T10:45:03Z</time>
      </trkpt>
      <trkpt lat="43.96776" lon="5.18777">
        <ele>509.64</ele>
        <time>2016-01-15T10:45:08Z</time>
      </trkpt>
      <trkpt lat="43.96778" lon="5.1877">
        <ele>511.08</ele>
        <time>2016-01-15T10:45:15Z</time>
      </trkpt>
      <trkpt lat="43.96779" lon="5.18763">
        <ele>513</ele>
        <time>2016-01-15T10:45:21Z</time>
      </trkpt>
      <trkpt lat="43.9678" lon="5.18757">
        <ele>513.48</ele>
        <time>2016-01-15T10:45:28Z</time>
      </trkpt>
      <trkpt lat="43.9678" lon="5.18752">
        <ele>514.92</ele>
        <time>2016-01-15T10:45:32Z</time>
      </trkpt>
      <trkpt lat="43.96782" lon="5.18746">
        <ele>514.92</ele>
        <time>2016-01-15T10:45:38Z</time>
      </trkpt>
      <trkpt lat="43.9678" lon="5.1874">
        <ele>515.4</ele>
        <time>2016-01-15T10:45:44Z</time>
      </trkpt>
      <trkpt lat="43.96774" lon="5.18734">
        <ele>516.85</ele>
        <time>2016-01-15T10:45:51Z</time>
      </trkpt>
      <trkpt lat="43.96771" lon="5.1873">
        <ele>517.33</ele>
        <time>2016-01-15T10:45:57Z</time>
      </trkpt>
      <trkpt lat="43.96768" lon="5.18728">
        <ele>517.33</ele>
        <time>2016-01-15T10:46:00Z</time>
      </trkpt>
      <trkpt lat="43.96761" lon="5.18722">
        <ele>518.29</ele>
        <time>2016-01-15T10:46:07Z</time>
      </trkpt>
      <trkpt lat="43.96755" lon="5.18715">
        <ele>519.25</ele>
        <time>2016-01-15T10:46:15Z</time>
      </trkpt>
      <trkpt lat="43.96752" lon="5.18711">
        <ele>520.21</ele>
        <time>2016-01-15T10:46:20Z</time>
      </trkpt>
      <trkpt lat="43.96746" lon="5.18705">
        <ele>520.69</ele>
        <time>2016-01-15T10:46:27Z</time>
      </trkpt>
      <trkpt lat="43.96744" lon="5.18702">
        <ele>521.17</ele>
        <time>2016-01-15T10:46:30Z</time>
      </trkpt>
      <trkpt lat="43.96739" lon="5.18695">
        <ele>522.61</ele>
        <time>2016-01-15T10:46:38Z</time>
      </trkpt>
      <trkpt lat="43.96738" lon="5.18695">
        <ele>522.61</ele>
        <time>2016-01-15T10:46:39Z</time>
      </trkpt>
      <trkpt lat="43.96733" lon="5.18688">
        <ele>524.06</ele>
        <time>2016-01-15T10:46:47Z</time>
      </trkpt>
      <trkpt lat="43.96731" lon="5.18685">
        <ele>524.54</ele>
        <time>2016-01-15T10:46:51Z</time>
      </trkpt>
      <trkpt lat="43.9673" lon="5.18682">
        <ele>525.02</ele>
        <time>2016-01-15T10:46:54Z</time>
      </trkpt>
      <trkpt lat="43.96724" lon="5.18673">
        <ele>525.98</ele>
        <time>2016-01-15T10:47:03Z</time>
      </trkpt>
      <trkpt lat="43.9672" lon="5.18667">
        <ele>526.94</ele>
        <time>2016-01-15T10:47:09Z</time>
      </trkpt>
      <trkpt lat="43.96713" lon="5.18658">
        <ele>527.42</ele>
        <time>2016-01-15T10:47:17Z</time>
      </trkpt>
      <trkpt lat="43.96709" lon="5.1865">
        <ele>527.9</ele>
        <time>2016-01-15T10:47:23Z</time>
      </trkpt>
      <trkpt lat="43.96708" lon="5.18648">
        <ele>528.38</ele>
        <time>2016-01-15T10:47:25Z</time>
      </trkpt>
      <trkpt lat="43.96705" lon="5.18644">
        <ele>527.9</ele>
        <time>2016-01-15T10:47:29Z</time>
      </trkpt>
      <trkpt lat="43.96699" lon="5.18636">
        <ele>528.38</ele>
        <time>2016-01-15T10:47:36Z</time>
      </trkpt>
      <trkpt lat="43.96693" lon="5.18629">
        <ele>528.86</ele>
        <time>2016-01-15T10:47:43Z</time>
      </trkpt>
      <trkpt lat="43.96692" lon="5.18628">
        <ele>528.86</ele>
        <time>2016-01-15T10:47:44Z</time>
      </trkpt>
      <trkpt lat="43.96682" lon="5.18627">
        <ele>530.3</ele>
        <time>2016-01-15T10:47:52Z</time>
      </trkpt>
      <trkpt lat="43.96675" lon="5.18627">
        <ele>530.3</ele>
        <time>2016-01-15T10:47:58Z</time>
      </trkpt>
      <trkpt lat="43.9667" lon="5.18629">
        <ele>530.79</ele>
        <time>2016-01-15T10:48:03Z</time>
      </trkpt>
      <trkpt lat="43.96667" lon="5.1863">
        <ele>531.27</ele>
        <time>2016-01-15T10:48:06Z</time>
      </trkpt>
      <trkpt lat="43.96665" lon="5.1863">
        <ele>531.27</ele>
        <time>2016-01-15T10:48:08Z</time>
      </trkpt>
      <trkpt lat="43.96662" lon="5.1863">
        <ele>531.75</ele>
        <time>2016-01-15T10:48:11Z</time>
      </trkpt>
      <trkpt lat="43.96655" lon="5.1863">
        <ele>532.23</ele>
        <time>2016-01-15T10:48:17Z</time>
      </trkpt>
      <trkpt lat="43.96653" lon="5.18631">
        <ele>532.71</ele>
        <time>2016-01-15T10:48:19Z</time>
      </trkpt>
      <trkpt lat="43.96643" lon="5.1863">
        <ele>533.19</ele>
        <time>2016-01-15T10:48:27Z</time>
      </trkpt>
      <trkpt lat="43.96636" lon="5.18631">
        <ele>533.19</ele>
        <time>2016-01-15T10:48:34Z</time>
      </trkpt>
      <trkpt lat="43.96626" lon="5.18628">
        <ele>533.67</ele>
        <time>2016-01-15T10:48:41Z</time>
      </trkpt>
      <trkpt lat="43.9662" lon="5.18626">
        <ele>533.67</ele>
        <time>2016-01-15T10:48:46Z</time>
      </trkpt>
      <trkpt lat="43.96615" lon="5.18622">
        <ele>534.63</ele>
        <time>2016-01-15T10:48:51Z</time>
      </trkpt>
      <trkpt lat="43.96612" lon="5.1862">
        <ele>534.63</ele>
        <time>2016-01-15T10:48:55Z</time>
      </trkpt>
      <trkpt lat="43.96606" lon="5.18616">
        <ele>534.15</ele>
        <time>2016-01-15T10:49:02Z</time>
      </trkpt>
      <trkpt lat="43.96599" lon="5.18612">
        <ele>534.63</ele>
        <time>2016-01-15T10:49:09Z</time>
      </trkpt>
      <trkpt lat="43.96591" lon="5.18609">
        <ele>535.11</ele>
        <time>2016-01-15T10:49:17Z</time>
      </trkpt>
      <trkpt lat="43.96584" lon="5.18606">
        <ele>535.11</ele>
        <time>2016-01-15T10:49:25Z</time>
      </trkpt>
      <trkpt lat="43.96582" lon="5.18606">
        <ele>535.59</ele>
        <time>2016-01-15T10:49:27Z</time>
      </trkpt>
      <trkpt lat="43.96575" lon="5.18605">
        <ele>535.59</ele>
        <time>2016-01-15T10:49:34Z</time>
      </trkpt>
      <trkpt lat="43.96574" lon="5.18605">
        <ele>535.11</ele>
        <time>2016-01-15T10:49:35Z</time>
      </trkpt>
      <trkpt lat="43.96564" lon="5.18604">
        <ele>535.59</ele>
        <time>2016-01-15T10:49:42Z</time>
      </trkpt>
      <trkpt lat="43.96552" lon="5.18605">
        <ele>536.07</ele>
        <time>2016-01-15T10:49:50Z</time>
      </trkpt>
      <trkpt lat="43.96549" lon="5.18605">
        <ele>536.07</ele>
        <time>2016-01-15T10:49:52Z</time>
      </trkpt>
      <trkpt lat="43.96541" lon="5.18605">
        <ele>536.55</ele>
        <time>2016-01-15T10:49:59Z</time>
      </trkpt>
      <trkpt lat="43.96532" lon="5.18605">
        <ele>537.03</ele>
        <time>2016-01-15T10:50:07Z</time>
      </trkpt>
      <trkpt lat="43.9653" lon="5.18604">
        <ele>537.51</ele>
        <time>2016-01-15T10:50:09Z</time>
      </trkpt>
      <trkpt lat="43.96521" lon="5.18605">
        <ele>537.51</ele>
        <time>2016-01-15T10:50:16Z</time>
      </trkpt>
      <trkpt lat="43.96512" lon="5.18604">
        <ele>537.99</ele>
        <time>2016-01-15T10:50:24Z</time>
      </trkpt>
      <trkpt lat="43.96505" lon="5.18603">
        <ele>537.99</ele>
        <time>2016-01-15T10:50:29Z</time>
      </trkpt>
      <trkpt lat="43.96496" lon="5.18602">
        <ele>538.48</ele>
        <time>2016-01-15T10:50:36Z</time>
      </trkpt>
      <trkpt lat="43.96491" lon="5.18602">
        <ele>538.48</ele>
        <time>2016-01-15T10:50:41Z</time>
      </trkpt>
      <trkpt lat="43.96484" lon="5.186">
        <ele>538.96</ele>
        <time>2016-01-15T10:50:48Z</time>
      </trkpt>
      <trkpt lat="43.96482" lon="5.18599">
        <ele>538.96</ele>
        <time>2016-01-15T10:50:50Z</time>
      </trkpt>
      <trkpt lat="43.96478" lon="5.18597">
        <ele>538.96</ele>
        <time>2016-01-15T10:50:54Z</time>
      </trkpt>
      <trkpt lat="43.96472" lon="5.18594">
        <ele>539.92</ele>
        <time>2016-01-15T10:50:59Z</time>
      </trkpt>
      <trkpt lat="43.96465" lon="5.18592">
        <ele>540.4</ele>
        <time>2016-01-15T10:51:04Z</time>
      </trkpt>
      <trkpt lat="43.96462" lon="5.18591">
        <ele>540.4</ele>
        <time>2016-01-15T10:51:07Z</time>
      </trkpt>
      <trkpt lat="43.96454" lon="5.18585">
        <ele>540.4</ele>
        <time>2016-01-15T10:51:13Z</time>
      </trkpt>
      <trkpt lat="43.96453" lon="5.18583">
        <ele>540.4</ele>
        <time>2016-01-15T10:51:15Z</time>
      </trkpt>
      <trkpt lat="43.96449" lon="5.18581">
        <ele>540.88</ele>
        <time>2016-01-15T10:51:18Z</time>
      </trkpt>
      <trkpt lat="43.96443" lon="5.18574">
        <ele>540.88</ele>
        <time>2016-01-15T10:51:24Z</time>
      </trkpt>
      <trkpt lat="43.96441" lon="5.18572">
        <ele>540.88</ele>
        <time>2016-01-15T10:51:26Z</time>
      </trkpt>
      <trkpt lat="43.96435" lon="5.18567">
        <ele>541.36</ele>
        <time>2016-01-15T10:51:32Z</time>
      </trkpt>
      <trkpt lat="43.96431" lon="5.18563">
        <ele>541.84</ele>
        <time>2016-01-15T10:51:36Z</time>
      </trkpt>
      <trkpt lat="43.96424" lon="5.18557">
        <ele>541.84</ele>
        <time>2016-01-15T10:51:43Z</time>
      </trkpt>
      <trkpt lat="43.96416" lon="5.18552">
        <ele>541.84</ele>
        <time>2016-01-15T10:51:50Z</time>
      </trkpt>
      <trkpt lat="43.96409" lon="5.18549">
        <ele>542.32</ele>
        <time>2016-01-15T10:51:56Z</time>
      </trkpt>
      <trkpt lat="43.96402" lon="5.18547">
        <ele>541.84</ele>
        <time>2016-01-15T10:52:01Z</time>
      </trkpt>
      <trkpt lat="43.96395" lon="5.18546">
        <ele>541.84</ele>
        <time>2016-01-15T10:52:07Z</time>
      </trkpt>
      <trkpt lat="43.96387" lon="5.18548">
        <ele>541.36</ele>
        <time>2016-01-15T10:52:13Z</time>
      </trkpt>
      <trkpt lat="43.96381" lon="5.18551">
        <ele>541.36</ele>
        <time>2016-01-15T10:52:19Z</time>
      </trkpt>
      <trkpt lat="43.96374" lon="5.18556">
        <ele>542.8</ele>
        <time>2016-01-15T10:52:25Z</time>
      </trkpt>
      <trkpt lat="43.96368" lon="5.18558">
        <ele>543.76</ele>
        <time>2016-01-15T10:52:30Z</time>
      </trkpt>
      <trkpt lat="43.9636" lon="5.18561">
        <ele>544.24</ele>
        <time>2016-01-15T10:52:37Z</time>
      </trkpt>
      <trkpt lat="43.96352" lon="5.18561">
        <ele>544.72</ele>
        <time>2016-01-15T10:52:43Z</time>
      </trkpt>
      <trkpt lat="43.96344" lon="5.18561">
        <ele>544.24</ele>
        <time>2016-01-15T10:52:50Z</time>
      </trkpt>
      <trkpt lat="43.96343" lon="5.18561">
        <ele>544.72</ele>
        <time>2016-01-15T10:52:51Z</time>
      </trkpt>
      <trkpt lat="43.96339" lon="5.18561">
        <ele>544.72</ele>
        <time>2016-01-15T10:52:54Z</time>
      </trkpt>
      <trkpt lat="43.96337" lon="5.18561">
        <ele>544.72</ele>
        <time>2016-01-15T10:52:56Z</time>
      </trkpt>
      <trkpt lat="43.9633" lon="5.18562">
        <ele>544.72</ele>
        <time>2016-01-15T10:53:02Z</time>
      </trkpt>
      <trkpt lat="43.9633" lon="5.18563">
        <ele>544.72</ele>
        <time>2016-01-15T10:53:03Z</time>
      </trkpt>
      <trkpt lat="43.96323" lon="5.18562">
        <ele>544.72</ele>
        <time>2016-01-15T10:53:08Z</time>
      </trkpt>
      <trkpt lat="43.96315" lon="5.18563">
        <ele>545.2</ele>
        <time>2016-01-15T10:53:15Z</time>
      </trkpt>
      <trkpt lat="43.96307" lon="5.18562">
        <ele>544.72</ele>
        <time>2016-01-15T10:53:21Z</time>
      </trkpt>
      <trkpt lat="43.96305" lon="5.18563">
        <ele>545.2</ele>
        <time>2016-01-15T10:53:22Z</time>
      </trkpt>
      <trkpt lat="43.96294" lon="5.18559">
        <ele>545.69</ele>
        <time>2016-01-15T10:53:30Z</time>
      </trkpt>
      <trkpt lat="43.96293" lon="5.18559">
        <ele>545.69</ele>
        <time>2016-01-15T10:53:31Z</time>
      </trkpt>
      <trkpt lat="43.96284" lon="5.18554">
        <ele>546.17</ele>
        <time>2016-01-15T10:53:39Z</time>
      </trkpt>
      <trkpt lat="43.9628" lon="5.18552">
        <ele>546.65</ele>
        <time>2016-01-15T10:53:42Z</time>
      </trkpt>
      <trkpt lat="43.96275" lon="5.1855">
        <ele>546.65</ele>
        <time>2016-01-15T10:53:46Z</time>
      </trkpt>
      <trkpt lat="43.96266" lon="5.18545">
        <ele>547.13</ele>
        <time>2016-01-15T10:53:53Z</time>
      </trkpt>
      <trkpt lat="43.96261" lon="5.18542">
        <ele>547.61</ele>
        <time>2016-01-15T10:53:58Z</time>
      </trkpt>
      <trkpt lat="43.96253" lon="5.18535">
        <ele>548.09</ele>
        <time>2016-01-15T10:54:05Z</time>
      </trkpt>
      <trkpt lat="43.96245" lon="5.18531">
        <ele>548.57</ele>
        <time>2016-01-15T10:54:11Z</time>
      </trkpt>
      <trkpt lat="43.96244" lon="5.18531">
        <ele>548.57</ele>
        <time>2016-01-15T10:54:12Z</time>
      </trkpt>
      <trkpt lat="43.96238" lon="5.18525">
        <ele>549.05</ele>
        <time>2016-01-15T10:54:19Z</time>
      </trkpt>
      <trkpt lat="43.96237" lon="5.18524">
        <ele>549.05</ele>
        <time>2016-01-15T10:54:20Z</time>
      </trkpt>
      <trkpt lat="43.96232" lon="5.18522">
        <ele>549.05</ele>
        <time>2016-01-15T10:54:24Z</time>
      </trkpt>
      <trkpt lat="43.96226" lon="5.18516">
        <ele>550.01</ele>
        <time>2016-01-15T10:54:31Z</time>
      </trkpt>
      <trkpt lat="43.96219" lon="5.18508">
        <ele>550.49</ele>
        <time>2016-01-15T10:54:38Z</time>
      </trkpt>
      <trkpt lat="43.96216" lon="5.18502">
        <ele>550.97</ele>
        <time>2016-01-15T10:54:42Z</time>
      </trkpt>
      <trkpt lat="43.96215" lon="5.185">
        <ele>550.97</ele>
        <time>2016-01-15T10:54:44Z</time>
      </trkpt>
      <trkpt lat="43.96214" lon="5.18498">
        <ele>551.45</ele>
        <time>2016-01-15T10:54:46Z</time>
      </trkpt>
      <trkpt lat="43.96212" lon="5.18496">
        <ele>551.93</ele>
        <time>2016-01-15T10:54:48Z</time>
      </trkpt>
      <trkpt lat="43.96207" lon="5.18489">
        <ele>552.9</ele>
        <time>2016-01-15T10:54:55Z</time>
      </trkpt>
      <trkpt lat="43.96205" lon="5.18485">
        <ele>553.38</ele>
        <time>2016-01-15T10:54:59Z</time>
      </trkpt>
      <trkpt lat="43.96199" lon="5.18477">
        <ele>553.86</ele>
        <time>2016-01-15T10:55:06Z</time>
      </trkpt>
      <trkpt lat="43.96196" lon="5.18471">
        <ele>554.82</ele>
        <time>2016-01-15T10:55:11Z</time>
      </trkpt>
      <trkpt lat="43.96191" lon="5.18464">
        <ele>555.78</ele>
        <time>2016-01-15T10:55:19Z</time>
      </trkpt>
      <trkpt lat="43.96191" lon="5.18464">
        <ele>555.78</ele>
        <time>2016-01-15T10:55:22Z</time>
      </trkpt>
      <trkpt lat="43.96187" lon="5.1846">
        <ele>555.3</ele>
        <time>2016-01-15T10:55:28Z</time>
      </trkpt>
      <trkpt lat="43.96186" lon="5.18458">
        <ele>555.3</ele>
        <time>2016-01-15T10:55:30Z</time>
      </trkpt>
      <trkpt lat="43.9618" lon="5.1845">
        <ele>556.26</ele>
        <time>2016-01-15T10:55:38Z</time>
      </trkpt>
      <trkpt lat="43.96179" lon="5.1845">
        <ele>556.74</ele>
        <time>2016-01-15T10:55:39Z</time>
      </trkpt>
      <trkpt lat="43.96176" lon="5.18446">
        <ele>556.74</ele>
        <time>2016-01-15T10:55:46Z</time>
      </trkpt>
      <trkpt lat="43.96176" lon="5.18446">
        <ele>557.22</ele>
        <time>2016-01-15T10:55:47Z</time>
      </trkpt>
      <trkpt lat="43.9617" lon="5.18439">
        <ele>558.66</ele>
        <time>2016-01-15T10:55:54Z</time>
      </trkpt>
      <trkpt lat="43.96163" lon="5.18433">
        <ele>557.7</ele>
        <time>2016-01-15T10:56:01Z</time>
      </trkpt>
      <trkpt lat="43.96161" lon="5.18431">
        <ele>557.7</ele>
        <time>2016-01-15T10:56:03Z</time>
      </trkpt>
      <trkpt lat="43.96157" lon="5.18427">
        <ele>558.18</ele>
        <time>2016-01-15T10:56:07Z</time>
      </trkpt>
      <trkpt lat="43.96151" lon="5.18419">
        <ele>560.11</ele>
        <time>2016-01-15T10:56:15Z</time>
      </trkpt>
      <trkpt lat="43.9615" lon="5.18418">
        <ele>560.11</ele>
        <time>2016-01-15T10:56:16Z</time>
      </trkpt>
      <trkpt lat="43.96147" lon="5.18414">
        <ele>560.11</ele>
        <time>2016-01-15T10:56:20Z</time>
      </trkpt>
      <trkpt lat="43.96144" lon="5.18411">
        <ele>560.11</ele>
        <time>2016-01-15T10:56:24Z</time>
      </trkpt>
      <trkpt lat="43.96139" lon="5.18404">
        <ele>560.59</ele>
        <time>2016-01-15T10:56:31Z</time>
      </trkpt>
      <trkpt lat="43.96138" lon="5.18404">
        <ele>560.59</ele>
        <time>2016-01-15T10:56:32Z</time>
      </trkpt>
      <trkpt lat="43.96137" lon="5.18402">
        <ele>561.07</ele>
        <time>2016-01-15T10:56:34Z</time>
      </trkpt>
      <trkpt lat="43.96128" lon="5.18396">
        <ele>561.07</ele>
        <time>2016-01-15T10:56:41Z</time>
      </trkpt>
      <trkpt lat="43.96127" lon="5.18395">
        <ele>561.07</ele>
        <time>2016-01-15T10:56:43Z</time>
      </trkpt>
      <trkpt lat="43.96124" lon="5.18393">
        <ele>561.55</ele>
        <time>2016-01-15T10:56:45Z</time>
      </trkpt>
      <trkpt lat="43.96118" lon="5.18388">
        <ele>561.55</ele>
        <time>2016-01-15T10:56:51Z</time>
      </trkpt>
      <trkpt lat="43.96113" lon="5.18384">
        <ele>562.03</ele>
        <time>2016-01-15T10:56:55Z</time>
      </trkpt>
      <trkpt lat="43.96111" lon="5.18383">
        <ele>562.03</ele>
        <time>2016-01-15T10:56:57Z</time>
      </trkpt>
      <trkpt lat="43.96109" lon="5.18381">
        <ele>562.51</ele>
        <time>2016-01-15T10:56:59Z</time>
      </trkpt>
      <trkpt lat="43.96107" lon="5.1838">
        <ele>562.99</ele>
        <time>2016-01-15T10:57:01Z</time>
      </trkpt>
      <trkpt lat="43.96105" lon="5.18377">
        <ele>562.99</ele>
        <time>2016-01-15T10:57:04Z</time>
      </trkpt>
      <trkpt lat="43.961" lon="5.18373">
        <ele>563.95</ele>
        <time>2016-01-15T10:57:09Z</time>
      </trkpt>
      <trkpt lat="43.96098" lon="5.18371">
        <ele>563.95</ele>
        <time>2016-01-15T10:57:11Z</time>
      </trkpt>
      <trkpt lat="43.96092" lon="5.18364">
        <ele>564.91</ele>
        <time>2016-01-15T10:57:18Z</time>
      </trkpt>
      <trkpt lat="43.9609" lon="5.18357">
        <ele>566.35</ele>
        <time>2016-01-15T10:57:24Z</time>
      </trkpt>
      <trkpt lat="43.96087" lon="5.18353">
        <ele>566.83</ele>
        <time>2016-01-15T10:57:29Z</time>
      </trkpt>
      <trkpt lat="43.96083" lon="5.18346">
        <ele>567.32</ele>
        <time>2016-01-15T10:57:35Z</time>
      </trkpt>
      <trkpt lat="43.96082" lon="5.18344">
        <ele>567.32</ele>
        <time>2016-01-15T10:57:37Z</time>
      </trkpt>
      <trkpt lat="43.96079" lon="5.18334">
        <ele>569.24</ele>
        <time>2016-01-15T10:57:45Z</time>
      </trkpt>
      <trkpt lat="43.96077" lon="5.18331">
        <ele>569.72</ele>
        <time>2016-01-15T10:57:47Z</time>
      </trkpt>
      <trkpt lat="43.96075" lon="5.18326">
        <ele>569.72</ele>
        <time>2016-01-15T10:57:51Z</time>
      </trkpt>
      <trkpt lat="43.96073" lon="5.18321">
        <ele>570.68</ele>
        <time>2016-01-15T10:57:57Z</time>
      </trkpt>
      <trkpt lat="43.96071" lon="5.18314">
        <ele>571.64</ele>
        <time>2016-01-15T10:58:04Z</time>
      </trkpt>
      <trkpt lat="43.9607" lon="5.18313">
        <ele>571.64</ele>
        <time>2016-01-15T10:58:05Z</time>
      </trkpt>
      <trkpt lat="43.9607" lon="5.18311">
        <ele>571.64</ele>
        <time>2016-01-15T10:58:07Z</time>
      </trkpt>
      <trkpt lat="43.96067" lon="5.18301">
        <ele>574.04</ele>
        <time>2016-01-15T10:58:15Z</time>
      </trkpt>
      <trkpt lat="43.96066" lon="5.18296">
        <ele>574.04</ele>
        <time>2016-01-15T10:58:19Z</time>
      </trkpt>
      <trkpt lat="43.96063" lon="5.18287">
        <ele>575.01</ele>
        <time>2016-01-15T10:58:26Z</time>
      </trkpt>
      <trkpt lat="43.96061" lon="5.1828">
        <ele>575.49</ele>
        <time>2016-01-15T10:58:31Z</time>
      </trkpt>
      <trkpt lat="43.96061" lon="5.18279">
        <ele>575.97</ele>
        <time>2016-01-15T10:58:32Z</time>
      </trkpt>
      <trkpt lat="43.9606" lon="5.18275">
        <ele>575.49</ele>
        <time>2016-01-15T10:58:35Z</time>
      </trkpt>
      <trkpt lat="43.96058" lon="5.18269">
        <ele>576.45</ele>
        <time>2016-01-15T10:58:40Z</time>
      </trkpt>
      <trkpt lat="43.96056" lon="5.18261">
        <ele>577.41</ele>
        <time>2016-01-15T10:58:46Z</time>
      </trkpt>
      <trkpt lat="43.96054" lon="5.18255">
        <ele>578.37</ele>
        <time>2016-01-15T10:58:50Z</time>
      </trkpt>
      <trkpt lat="43.96053" lon="5.18247">
        <ele>578.37</ele>
        <time>2016-01-15T10:58:56Z</time>
      </trkpt>
      <trkpt lat="43.96053" lon="5.18246">
        <ele>578.37</ele>
        <time>2016-01-15T10:58:57Z</time>
      </trkpt>
      <trkpt lat="43.96052" lon="5.18242">
        <ele>578.85</ele>
        <time>2016-01-15T10:59:00Z</time>
      </trkpt>
      <trkpt lat="43.9605" lon="5.18235">
        <ele>580.29</ele>
        <time>2016-01-15T10:59:05Z</time>
      </trkpt>
      <trkpt lat="43.96048" lon="5.18225">
        <ele>579.81</ele>
        <time>2016-01-15T10:59:12Z</time>
      </trkpt>
      <trkpt lat="43.96045" lon="5.18217">
        <ele>580.77</ele>
        <time>2016-01-15T10:59:18Z</time>
      </trkpt>
      <trkpt lat="43.96044" lon="5.18214">
        <ele>580.77</ele>
        <time>2016-01-15T10:59:21Z</time>
      </trkpt>
      <trkpt lat="43.96043" lon="5.18211">
        <ele>581.25</ele>
        <time>2016-01-15T10:59:23Z</time>
      </trkpt>
      <trkpt lat="43.9604" lon="5.18203">
        <ele>581.73</ele>
        <time>2016-01-15T10:59:30Z</time>
      </trkpt>
      <trkpt lat="43.9604" lon="5.18203">
        <ele>581.73</ele>
        <time>2016-01-15T10:59:35Z</time>
      </trkpt>
      <trkpt lat="43.9604" lon="5.18196">
        <ele>583.18</ele>
        <time>2016-01-15T10:59:39Z</time>
      </trkpt>
      <trkpt lat="43.9604" lon="5.18193">
        <ele>582.7</ele>
        <time>2016-01-15T10:59:41Z</time>
      </trkpt>
      <trkpt lat="43.96041" lon="5.18189">
        <ele>583.18</ele>
        <time>2016-01-15T10:59:44Z</time>
      </trkpt>
      <trkpt lat="43.96043" lon="5.18187">
        <ele>583.18</ele>
        <time>2016-01-15T10:59:47Z</time>
      </trkpt>
      <trkpt lat="43.96045" lon="5.18183">
        <ele>584.14</ele>
        <time>2016-01-15T10:59:54Z</time>
      </trkpt>
      <trkpt lat="43.96044" lon="5.18184">
        <ele>581.73</ele>
        <time>2016-01-15T11:00:08Z</time>
      </trkpt>
      <trkpt lat="43.96042" lon="5.18177">
        <ele>582.7</ele>
        <time>2016-01-15T11:00:14Z</time>
      </trkpt>
      <trkpt lat="43.9604" lon="5.18168">
        <ele>583.18</ele>
        <time>2016-01-15T11:00:21Z</time>
      </trkpt>
      <trkpt lat="43.96036" lon="5.18166">
        <ele>583.66</ele>
        <time>2016-01-15T11:00:25Z</time>
      </trkpt>
      <trkpt lat="43.96031" lon="5.18163">
        <ele>583.18</ele>
        <time>2016-01-15T11:00:29Z</time>
      </trkpt>
      <trkpt lat="43.9603" lon="5.18154">
        <ele>583.66</ele>
        <time>2016-01-15T11:00:34Z</time>
      </trkpt>
      <trkpt lat="43.96029" lon="5.18145">
        <ele>583.18</ele>
        <time>2016-01-15T11:00:39Z</time>
      </trkpt>
      <trkpt lat="43.96027" lon="5.18135">
        <ele>583.66</ele>
        <time>2016-01-15T11:00:45Z</time>
      </trkpt>
      <trkpt lat="43.96024" lon="5.18124">
        <ele>583.18</ele>
        <time>2016-01-15T11:00:51Z</time>
      </trkpt>
      <trkpt lat="43.96023" lon="5.18118">
        <ele>583.18</ele>
        <time>2016-01-15T11:00:55Z</time>
      </trkpt>
      <trkpt lat="43.96022" lon="5.18112">
        <ele>583.18</ele>
        <time>2016-01-15T11:00:59Z</time>
      </trkpt>
      <trkpt lat="43.9602" lon="5.18106">
        <ele>583.18</ele>
        <time>2016-01-15T11:01:03Z</time>
      </trkpt>
      <trkpt lat="43.96021" lon="5.18095">
        <ele>582.7</ele>
        <time>2016-01-15T11:01:09Z</time>
      </trkpt>
      <trkpt lat="43.96022" lon="5.18082">
        <ele>582.22</ele>
        <time>2016-01-15T11:01:16Z</time>
      </trkpt>
      <trkpt lat="43.96022" lon="5.18072">
        <ele>582.22</ele>
        <time>2016-01-15T11:01:22Z</time>
      </trkpt>
      <trkpt lat="43.96023" lon="5.18064">
        <ele>581.73</ele>
        <time>2016-01-15T11:01:27Z</time>
      </trkpt>
      <trkpt lat="43.96023" lon="5.18052">
        <ele>581.25</ele>
        <time>2016-01-15T11:01:34Z</time>
      </trkpt>
      <trkpt lat="43.96023" lon="5.18043">
        <ele>580.77</ele>
        <time>2016-01-15T11:01:40Z</time>
      </trkpt>
      <trkpt lat="43.96021" lon="5.18034">
        <ele>581.25</ele>
        <time>2016-01-15T11:01:45Z</time>
      </trkpt>
      <trkpt lat="43.96019" lon="5.18026">
        <ele>580.77</ele>
        <time>2016-01-15T11:01:50Z</time>
      </trkpt>
      <trkpt lat="43.96016" lon="5.18017">
        <ele>580.77</ele>
        <time>2016-01-15T11:01:56Z</time>
      </trkpt>
      <trkpt lat="43.96011" lon="5.1801">
        <ele>580.77</ele>
        <time>2016-01-15T11:02:01Z</time>
      </trkpt>
      <trkpt lat="43.96008" lon="5.18008">
        <ele>580.77</ele>
        <time>2016-01-15T11:02:04Z</time>
      </trkpt>
      <trkpt lat="43.96003" lon="5.18001">
        <ele>580.29</ele>
        <time>2016-01-15T11:02:10Z</time>
      </trkpt>
      <trkpt lat="43.95999" lon="5.17994">
        <ele>579.81</ele>
        <time>2016-01-15T11:02:15Z</time>
      </trkpt>
      <trkpt lat="43.95993" lon="5.17987">
        <ele>580.29</ele>
        <time>2016-01-15T11:02:21Z</time>
      </trkpt>
      <trkpt lat="43.95988" lon="5.17981">
        <ele>580.29</ele>
        <time>2016-01-15T11:02:26Z</time>
      </trkpt>
      <trkpt lat="43.95986" lon="5.17975">
        <ele>580.29</ele>
        <time>2016-01-15T11:02:30Z</time>
      </trkpt>
      <trkpt lat="43.95979" lon="5.17962">
        <ele>579.33</ele>
        <time>2016-01-15T11:02:39Z</time>
      </trkpt>
      <trkpt lat="43.95973" lon="5.1795">
        <ele>578.37</ele>
        <time>2016-01-15T11:02:46Z</time>
      </trkpt>
      <trkpt lat="43.95968" lon="5.17943">
        <ele>578.37</ele>
        <time>2016-01-15T11:02:52Z</time>
      </trkpt>
      <trkpt lat="43.95964" lon="5.17936">
        <ele>578.37</ele>
        <time>2016-01-15T11:02:57Z</time>
      </trkpt>
      <trkpt lat="43.95959" lon="5.17928">
        <ele>577.89</ele>
        <time>2016-01-15T11:03:03Z</time>
      </trkpt>
      <trkpt lat="43.95951" lon="5.17919">
        <ele>577.41</ele>
        <time>2016-01-15T11:03:11Z</time>
      </trkpt>
      <trkpt lat="43.95945" lon="5.17911">
        <ele>577.41</ele>
        <time>2016-01-15T11:03:17Z</time>
      </trkpt>
      <trkpt lat="43.95937" lon="5.17903">
        <ele>576.93</ele>
        <time>2016-01-15T11:03:23Z</time>
      </trkpt>
      <trkpt lat="43.95935" lon="5.17902">
        <ele>576.45</ele>
        <time>2016-01-15T11:03:25Z</time>
      </trkpt>
      <trkpt lat="43.95932" lon="5.17897">
        <ele>575.97</ele>
        <time>2016-01-15T11:03:29Z</time>
      </trkpt>
      <trkpt lat="43.95929" lon="5.17894">
        <ele>575.97</ele>
        <time>2016-01-15T11:03:32Z</time>
      </trkpt>
      <trkpt lat="43.95923" lon="5.17886">
        <ele>575.49</ele>
        <time>2016-01-15T11:03:38Z</time>
      </trkpt>
      <trkpt lat="43.95918" lon="5.17873">
        <ele>575.01</ele>
        <time>2016-01-15T11:03:45Z</time>
      </trkpt>
      <trkpt lat="43.95914" lon="5.17862">
        <ele>574.53</ele>
        <time>2016-01-15T11:03:51Z</time>
      </trkpt>
      <trkpt lat="43.95911" lon="5.17851">
        <ele>574.53</ele>
        <time>2016-01-15T11:03:57Z</time>
      </trkpt>
      <trkpt lat="43.95912" lon="5.17843">
        <ele>574.53</ele>
        <time>2016-01-15T11:04:01Z</time>
      </trkpt>
      <trkpt lat="43.95909" lon="5.1783">
        <ele>574.53</ele>
        <time>2016-01-15T11:04:08Z</time>
      </trkpt>
      <trkpt lat="43.95909" lon="5.17821">
        <ele>574.04</ele>
        <time>2016-01-15T11:04:12Z</time>
      </trkpt>
      <trkpt lat="43.95909" lon="5.17819">
        <ele>573.56</ele>
        <time>2016-01-15T11:04:13Z</time>
      </trkpt>
      <trkpt lat="43.95909" lon="5.17815">
        <ele>574.53</ele>
        <time>2016-01-15T11:04:16Z</time>
      </trkpt>
      <trkpt lat="43.9591" lon="5.1781">
        <ele>574.04</ele>
        <time>2016-01-15T11:04:19Z</time>
      </trkpt>
      <trkpt lat="43.9591" lon="5.17802">
        <ele>574.04</ele>
        <time>2016-01-15T11:04:23Z</time>
      </trkpt>
      <trkpt lat="43.95912" lon="5.17797">
        <ele>573.56</ele>
        <time>2016-01-15T11:04:26Z</time>
      </trkpt>
      <trkpt lat="43.95912" lon="5.17785">
        <ele>574.53</ele>
        <time>2016-01-15T11:04:33Z</time>
      </trkpt>
      <trkpt lat="43.95913" lon="5.17777">
        <ele>574.04</ele>
        <time>2016-01-15T11:04:37Z</time>
      </trkpt>
      <trkpt lat="43.95912" lon="5.17766">
        <ele>574.04</ele>
        <time>2016-01-15T11:04:44Z</time>
      </trkpt>
      <trkpt lat="43.95912" lon="5.17758">
        <ele>574.04</ele>
        <time>2016-01-15T11:04:49Z</time>
      </trkpt>
      <trkpt lat="43.95911" lon="5.17756">
        <ele>574.53</ele>
        <time>2016-01-15T11:04:51Z</time>
      </trkpt>
      <trkpt lat="43.9591" lon="5.17752">
        <ele>574.04</ele>
        <time>2016-01-15T11:04:54Z</time>
      </trkpt>
      <trkpt lat="43.95905" lon="5.17741">
        <ele>575.01</ele>
        <time>2016-01-15T11:05:01Z</time>
      </trkpt>
      <trkpt lat="43.95902" lon="5.17734">
        <ele>575.01</ele>
        <time>2016-01-15T11:05:05Z</time>
      </trkpt>
      <trkpt lat="43.95898" lon="5.17726">
        <ele>575.01</ele>
        <time>2016-01-15T11:05:11Z</time>
      </trkpt>
      <trkpt lat="43.95892" lon="5.17719">
        <ele>576.45</ele>
        <time>2016-01-15T11:05:18Z</time>
      </trkpt>
      <trkpt lat="43.95886" lon="5.17713">
        <ele>575.97</ele>
        <time>2016-01-15T11:05:24Z</time>
      </trkpt>
      <trkpt lat="43.95881" lon="5.1771">
        <ele>575.97</ele>
        <time>2016-01-15T11:05:29Z</time>
      </trkpt>
      <trkpt lat="43.95872" lon="5.17707">
        <ele>576.93</ele>
        <time>2016-01-15T11:05:36Z</time>
      </trkpt>
      <trkpt lat="43.95867" lon="5.17706">
        <ele>576.93</ele>
        <time>2016-01-15T11:05:40Z</time>
      </trkpt>
      <trkpt lat="43.95863" lon="5.17703">
        <ele>576.93</ele>
        <time>2016-01-15T11:05:45Z</time>
      </trkpt>
      <trkpt lat="43.95855" lon="5.17699">
        <ele>576.93</ele>
        <time>2016-01-15T11:05:51Z</time>
      </trkpt>
      <trkpt lat="43.95848" lon="5.17692">
        <ele>576.93</ele>
        <time>2016-01-15T11:05:57Z</time>
      </trkpt>
      <trkpt lat="43.95842" lon="5.17685">
        <ele>576.45</ele>
        <time>2016-01-15T11:06:03Z</time>
      </trkpt>
      <trkpt lat="43.95834" lon="5.17678">
        <ele>576.45</ele>
        <time>2016-01-15T11:06:10Z</time>
      </trkpt>
      <trkpt lat="43.95827" lon="5.17672">
        <ele>575.97</ele>
        <time>2016-01-15T11:06:16Z</time>
      </trkpt>
      <trkpt lat="43.95821" lon="5.17667">
        <ele>575.49</ele>
        <time>2016-01-15T11:06:22Z</time>
      </trkpt>
      <trkpt lat="43.95814" lon="5.17661">
        <ele>575.49</ele>
        <time>2016-01-15T11:06:28Z</time>
      </trkpt>
      <trkpt lat="43.9581" lon="5.17655">
        <ele>575.01</ele>
        <time>2016-01-15T11:06:33Z</time>
      </trkpt>
      <trkpt lat="43.95809" lon="5.17653">
        <ele>575.01</ele>
        <time>2016-01-15T11:06:34Z</time>
      </trkpt>
      <trkpt lat="43.95803" lon="5.17644">
        <ele>575.01</ele>
        <time>2016-01-15T11:06:41Z</time>
      </trkpt>
      <trkpt lat="43.95797" lon="5.17634">
        <ele>574.53</ele>
        <time>2016-01-15T11:06:48Z</time>
      </trkpt>
      <trkpt lat="43.95795" lon="5.1763">
        <ele>574.53</ele>
        <time>2016-01-15T11:06:51Z</time>
      </trkpt>
      <trkpt lat="43.9579" lon="5.17619">
        <ele>574.53</ele>
        <time>2016-01-15T11:06:57Z</time>
      </trkpt>
      <trkpt lat="43.95784" lon="5.17608">
        <ele>575.01</ele>
        <time>2016-01-15T11:07:04Z</time>
      </trkpt>
      <trkpt lat="43.95779" lon="5.17599">
        <ele>575.01</ele>
        <time>2016-01-15T11:07:10Z</time>
      </trkpt>
      <trkpt lat="43.95775" lon="5.17591">
        <ele>574.53</ele>
        <time>2016-01-15T11:07:15Z</time>
      </trkpt>
      <trkpt lat="43.95771" lon="5.17585">
        <ele>575.49</ele>
        <time>2016-01-15T11:07:21Z</time>
      </trkpt>
      <trkpt lat="43.9577" lon="5.17579">
        <ele>575.01</ele>
        <time>2016-01-15T11:07:25Z</time>
      </trkpt>
      <trkpt lat="43.95766" lon="5.17572">
        <ele>575.01</ele>
        <time>2016-01-15T11:07:31Z</time>
      </trkpt>
      <trkpt lat="43.95756" lon="5.17563">
        <ele>575.49</ele>
        <time>2016-01-15T11:07:39Z</time>
      </trkpt>
      <trkpt lat="43.95755" lon="5.1756">
        <ele>575.49</ele>
        <time>2016-01-15T11:07:41Z</time>
      </trkpt>
      <trkpt lat="43.95749" lon="5.17551">
        <ele>575.97</ele>
        <time>2016-01-15T11:07:47Z</time>
      </trkpt>
      <trkpt lat="43.95746" lon="5.17542">
        <ele>575.49</ele>
        <time>2016-01-15T11:07:53Z</time>
      </trkpt>
      <trkpt lat="43.95745" lon="5.1754">
        <ele>576.93</ele>
        <time>2016-01-15T11:07:55Z</time>
      </trkpt>
      <trkpt lat="43.95741" lon="5.17532">
        <ele>575.97</ele>
        <time>2016-01-15T11:08:01Z</time>
      </trkpt>
      <trkpt lat="43.95736" lon="5.17523">
        <ele>575.49</ele>
        <time>2016-01-15T11:08:07Z</time>
      </trkpt>
      <trkpt lat="43.95733" lon="5.17517">
        <ele>575.49</ele>
        <time>2016-01-15T11:08:11Z</time>
      </trkpt>
      <trkpt lat="43.95731" lon="5.17516">
        <ele>575.49</ele>
        <time>2016-01-15T11:08:13Z</time>
      </trkpt>
      <trkpt lat="43.95726" lon="5.17506">
        <ele>575.97</ele>
        <time>2016-01-15T11:08:19Z</time>
      </trkpt>
      <trkpt lat="43.95723" lon="5.17501">
        <ele>576.45</ele>
        <time>2016-01-15T11:08:23Z</time>
      </trkpt>
      <trkpt lat="43.95717" lon="5.17494">
        <ele>577.41</ele>
        <time>2016-01-15T11:08:31Z</time>
      </trkpt>
      <trkpt lat="43.95713" lon="5.17488">
        <ele>577.89</ele>
        <time>2016-01-15T11:08:37Z</time>
      </trkpt>
      <trkpt lat="43.95709" lon="5.17485">
        <ele>577.89</ele>
        <time>2016-01-15T11:08:43Z</time>
      </trkpt>
      <trkpt lat="43.95705" lon="5.17481">
        <ele>578.37</ele>
        <time>2016-01-15T11:08:49Z</time>
      </trkpt>
      <trkpt lat="43.95699" lon="5.17471">
        <ele>578.37</ele>
        <time>2016-01-15T11:08:55Z</time>
      </trkpt>
      <trkpt lat="43.95693" lon="5.17463">
        <ele>578.85</ele>
        <time>2016-01-15T11:09:02Z</time>
      </trkpt>
      <trkpt lat="43.95687" lon="5.17458">
        <ele>579.33</ele>
        <time>2016-01-15T11:09:09Z</time>
      </trkpt>
      <trkpt lat="43.95685" lon="5.17456">
        <ele>579.33</ele>
        <time>2016-01-15T11:09:11Z</time>
      </trkpt>
      <trkpt lat="43.95679" lon="5.17447">
        <ele>579.81</ele>
        <time>2016-01-15T11:09:18Z</time>
      </trkpt>
      <trkpt lat="43.95676" lon="5.17444">
        <ele>580.29</ele>
        <time>2016-01-15T11:09:21Z</time>
      </trkpt>
      <trkpt lat="43.95672" lon="5.17435">
        <ele>580.77</ele>
        <time>2016-01-15T11:09:28Z</time>
      </trkpt>
      <trkpt lat="43.95665" lon="5.17429">
        <ele>581.25</ele>
        <time>2016-01-15T11:09:36Z</time>
      </trkpt>
      <trkpt lat="43.95663" lon="5.17425">
        <ele>581.73</ele>
        <time>2016-01-15T11:09:39Z</time>
      </trkpt>
      <trkpt lat="43.95659" lon="5.17417">
        <ele>582.22</ele>
        <time>2016-01-15T11:09:44Z</time>
      </trkpt>
      <trkpt lat="43.95652" lon="5.17411">
        <ele>582.7</ele>
        <time>2016-01-15T11:09:52Z</time>
      </trkpt>
      <trkpt lat="43.95651" lon="5.1741">
        <ele>582.7</ele>
        <time>2016-01-15T11:09:53Z</time>
      </trkpt>
      <trkpt lat="43.95645" lon="5.17403">
        <ele>583.18</ele>
        <time>2016-01-15T11:10:00Z</time>
      </trkpt>
      <trkpt lat="43.9564" lon="5.17395">
        <ele>583.66</ele>
        <time>2016-01-15T11:10:08Z</time>
      </trkpt>
      <trkpt lat="43.95638" lon="5.17392">
        <ele>583.66</ele>
        <time>2016-01-15T11:10:10Z</time>
      </trkpt>
      <trkpt lat="43.95635" lon="5.17387">
        <ele>583.66</ele>
        <time>2016-01-15T11:10:13Z</time>
      </trkpt>
      <trkpt lat="43.95629" lon="5.1738">
        <ele>584.62</ele>
        <time>2016-01-15T11:10:19Z</time>
      </trkpt>
      <trkpt lat="43.95624" lon="5.17369">
        <ele>584.62</ele>
        <time>2016-01-15T11:10:26Z</time>
      </trkpt>
      <trkpt lat="43.95621" lon="5.17366">
        <ele>585.1</ele>
        <time>2016-01-15T11:10:30Z</time>
      </trkpt>
      <trkpt lat="43.95619" lon="5.17364">
        <ele>585.1</ele>
        <time>2016-01-15T11:10:32Z</time>
      </trkpt>
      <trkpt lat="43.95617" lon="5.17355">
        <ele>585.1</ele>
        <time>2016-01-15T11:10:39Z</time>
      </trkpt>
      <trkpt lat="43.95612" lon="5.17347">
        <ele>586.06</ele>
        <time>2016-01-15T11:10:45Z</time>
      </trkpt>
      <trkpt lat="43.95609" lon="5.17333">
        <ele>586.06</ele>
        <time>2016-01-15T11:10:51Z</time>
      </trkpt>
      <trkpt lat="43.95608" lon="5.17329">
        <ele>586.54</ele>
        <time>2016-01-15T11:10:54Z</time>
      </trkpt>
      <trkpt lat="43.95609" lon="5.17317">
        <ele>587.02</ele>
        <time>2016-01-15T11:11:00Z</time>
      </trkpt>
      <trkpt lat="43.95609" lon="5.17303">
        <ele>587.5</ele>
        <time>2016-01-15T11:11:09Z</time>
      </trkpt>
      <trkpt lat="43.95609" lon="5.17296">
        <ele>587.98</ele>
        <time>2016-01-15T11:11:14Z</time>
      </trkpt>
      <trkpt lat="43.95607" lon="5.17292">
        <ele>587.98</ele>
        <time>2016-01-15T11:11:18Z</time>
      </trkpt>
      <trkpt lat="43.95603" lon="5.17283">
        <ele>588.46</ele>
        <time>2016-01-15T11:11:25Z</time>
      </trkpt>
      <trkpt lat="43.95599" lon="5.17274">
        <ele>588.46</ele>
        <time>2016-01-15T11:11:34Z</time>
      </trkpt>
      <trkpt lat="43.95598" lon="5.17272">
        <ele>588.95</ele>
        <time>2016-01-15T11:11:38Z</time>
      </trkpt>
      <trkpt lat="43.95594" lon="5.17268">
        <ele>589.43</ele>
        <time>2016-01-15T11:11:45Z</time>
      </trkpt>
      <trkpt lat="43.95592" lon="5.17264">
        <ele>589.91</ele>
        <time>2016-01-15T11:11:52Z</time>
      </trkpt>
      <trkpt lat="43.9559" lon="5.17257">
        <ele>589.91</ele>
        <time>2016-01-15T11:11:57Z</time>
      </trkpt>
      <trkpt lat="43.95587" lon="5.17255">
        <ele>590.39</ele>
        <time>2016-01-15T11:12:05Z</time>
      </trkpt>
      <trkpt lat="43.95586" lon="5.17256">
        <ele>589.43</ele>
        <time>2016-01-15T11:12:11Z</time>
      </trkpt>
      <trkpt lat="43.95586" lon="5.17256">
        <ele>589.43</ele>
        <time>2016-01-15T11:12:15Z</time>
      </trkpt>
      <trkpt lat="43.95584" lon="5.17251">
        <ele>590.39</ele>
        <time>2016-01-15T11:12:22Z</time>
      </trkpt>
      <trkpt lat="43.95584" lon="5.17252">
        <ele>589.91</ele>
        <time>2016-01-15T11:12:30Z</time>
      </trkpt>
      <trkpt lat="43.95586" lon="5.1725">
        <ele>589.91</ele>
        <time>2016-01-15T11:12:37Z</time>
      </trkpt>
      <trkpt lat="43.95586" lon="5.17251">
        <ele>590.39</ele>
        <time>2016-01-15T11:12:46Z</time>
      </trkpt>
      <trkpt lat="43.95584" lon="5.17251">
        <ele>590.39</ele>
        <time>2016-01-15T11:12:55Z</time>
      </trkpt>
      <trkpt lat="43.95584" lon="5.17251">
        <ele>590.39</ele>
        <time>2016-01-15T11:13:03Z</time>
      </trkpt>
      <trkpt lat="43.95584" lon="5.17251">
        <ele>590.39</ele>
        <time>2016-01-15T11:13:15Z</time>
      </trkpt>
      <trkpt lat="43.95584" lon="5.17251">
        <ele>590.39</ele>
        <time>2016-01-15T11:13:26Z</time>
      </trkpt>
      <trkpt lat="43.95584" lon="5.17253">
        <ele>589.91</ele>
        <time>2016-01-15T11:13:37Z</time>
      </trkpt>
      <trkpt lat="43.95584" lon="5.17256">
        <ele>590.39</ele>
        <time>2016-01-15T11:13:42Z</time>
      </trkpt>
      <trkpt lat="43.95584" lon="5.17272">
        <ele>590.39</ele>
        <time>2016-01-15T11:13:51Z</time>
      </trkpt>
      <trkpt lat="43.95584" lon="5.17275">
        <ele>590.39</ele>
        <time>2016-01-15T11:13:53Z</time>
      </trkpt>
      <trkpt lat="43.95582" lon="5.17281">
        <ele>589.91</ele>
        <time>2016-01-15T11:13:57Z</time>
      </trkpt>
      <trkpt lat="43.95583" lon="5.17286">
        <ele>589.91</ele>
        <time>2016-01-15T11:14:00Z</time>
      </trkpt>
      <trkpt lat="43.95581" lon="5.17293">
        <ele>589.91</ele>
        <time>2016-01-15T11:14:04Z</time>
      </trkpt>
      <trkpt lat="43.95582" lon="5.17297">
        <ele>589.91</ele>
        <time>2016-01-15T11:14:06Z</time>
      </trkpt>
      <trkpt lat="43.95582" lon="5.17304">
        <ele>589.91</ele>
        <time>2016-01-15T11:14:10Z</time>
      </trkpt>
      <trkpt lat="43.95579" lon="5.17314">
        <ele>590.39</ele>
        <time>2016-01-15T11:14:16Z</time>
      </trkpt>
      <trkpt lat="43.95579" lon="5.17317">
        <ele>590.39</ele>
        <time>2016-01-15T11:14:18Z</time>
      </trkpt>
      <trkpt lat="43.95577" lon="5.17323">
        <ele>590.39</ele>
        <time>2016-01-15T11:14:23Z</time>
      </trkpt>
      <trkpt lat="43.95575" lon="5.17328">
        <ele>590.87</ele>
        <time>2016-01-15T11:14:27Z</time>
      </trkpt>
      <trkpt lat="43.95574" lon="5.17331">
        <ele>590.87</ele>
        <time>2016-01-15T11:14:29Z</time>
      </trkpt>
      <trkpt lat="43.95572" lon="5.17334">
        <ele>591.35</ele>
        <time>2016-01-15T11:14:32Z</time>
      </trkpt>
      <trkpt lat="43.95569" lon="5.1734">
        <ele>591.35</ele>
        <time>2016-01-15T11:14:36Z</time>
      </trkpt>
      <trkpt lat="43.95566" lon="5.1735">
        <ele>591.35</ele>
        <time>2016-01-15T11:14:43Z</time>
      </trkpt>
      <trkpt lat="43.95566" lon="5.17352">
        <ele>591.35</ele>
        <time>2016-01-15T11:14:44Z</time>
      </trkpt>
      <trkpt lat="43.95566" lon="5.17354">
        <ele>591.35</ele>
        <time>2016-01-15T11:14:45Z</time>
      </trkpt>
      <trkpt lat="43.95567" lon="5.17358">
        <ele>591.35</ele>
        <time>2016-01-15T11:14:47Z</time>
      </trkpt>
      <trkpt lat="43.95563" lon="5.17371">
        <ele>591.83</ele>
        <time>2016-01-15T11:14:55Z</time>
      </trkpt>
      <trkpt lat="43.9556" lon="5.17378">
        <ele>591.83</ele>
        <time>2016-01-15T11:15:00Z</time>
      </trkpt>
      <trkpt lat="43.95559" lon="5.17383">
        <ele>592.79</ele>
        <time>2016-01-15T11:15:04Z</time>
      </trkpt>
      <trkpt lat="43.95558" lon="5.17389">
        <ele>592.79</ele>
        <time>2016-01-15T11:15:08Z</time>
      </trkpt>
      <trkpt lat="43.95557" lon="5.17392">
        <ele>593.27</ele>
        <time>2016-01-15T11:15:10Z</time>
      </trkpt>
      <trkpt lat="43.95557" lon="5.17394">
        <ele>592.79</ele>
        <time>2016-01-15T11:15:12Z</time>
      </trkpt>
      <trkpt lat="43.95556" lon="5.17405">
        <ele>593.75</ele>
        <time>2016-01-15T11:15:20Z</time>
      </trkpt>
      <trkpt lat="43.95556" lon="5.17407">
        <ele>594.23</ele>
        <time>2016-01-15T11:15:22Z</time>
      </trkpt>
      <trkpt lat="43.95555" lon="5.17411">
        <ele>594.71</ele>
        <time>2016-01-15T11:15:26Z</time>
      </trkpt>
      <trkpt lat="43.95554" lon="5.17417">
        <ele>594.23</ele>
        <time>2016-01-15T11:15:29Z</time>
      </trkpt>
      <trkpt lat="43.95555" lon="5.17427">
        <ele>594.71</ele>
        <time>2016-01-15T11:15:36Z</time>
      </trkpt>
      <trkpt lat="43.95556" lon="5.17431">
        <ele>596.64</ele>
        <time>2016-01-15T11:15:39Z</time>
      </trkpt>
      <trkpt lat="43.95556" lon="5.17435">
        <ele>596.64</ele>
        <time>2016-01-15T11:15:42Z</time>
      </trkpt>
      <trkpt lat="43.95558" lon="5.17449">
        <ele>597.12</ele>
        <time>2016-01-15T11:15:49Z</time>
      </trkpt>
      <trkpt lat="43.95557" lon="5.17457">
        <ele>597.12</ele>
        <time>2016-01-15T11:15:54Z</time>
      </trkpt>
      <trkpt lat="43.95559" lon="5.17467">
        <ele>598.08</ele>
        <time>2016-01-15T11:16:01Z</time>
      </trkpt>
      <trkpt lat="43.95559" lon="5.17475">
        <ele>598.56</ele>
        <time>2016-01-15T11:16:07Z</time>
      </trkpt>
      <trkpt lat="43.95557" lon="5.1748">
        <ele>599.04</ele>
        <time>2016-01-15T11:16:11Z</time>
      </trkpt>
      <trkpt lat="43.95551" lon="5.17485">
        <ele>600.48</ele>
        <time>2016-01-15T11:16:18Z</time>
      </trkpt>
      <trkpt lat="43.95547" lon="5.17485">
        <ele>600.48</ele>
        <time>2016-01-15T11:16:21Z</time>
      </trkpt>
      <trkpt lat="43.9554" lon="5.17479">
        <ele>600.96</ele>
        <time>2016-01-15T11:16:28Z</time>
      </trkpt>
      <trkpt lat="43.95534" lon="5.17473">
        <ele>601.44</ele>
        <time>2016-01-15T11:16:35Z</time>
      </trkpt>
      <trkpt lat="43.95525" lon="5.17466">
        <ele>602.4</ele>
        <time>2016-01-15T11:16:43Z</time>
      </trkpt>
      <trkpt lat="43.95519" lon="5.17464">
        <ele>602.88</ele>
        <time>2016-01-15T11:16:49Z</time>
      </trkpt>
      <trkpt lat="43.95514" lon="5.17463">
        <ele>603.36</ele>
        <time>2016-01-15T11:16:54Z</time>
      </trkpt>
      <trkpt lat="43.95512" lon="5.17463">
        <ele>603.36</ele>
        <time>2016-01-15T11:16:57Z</time>
      </trkpt>
      <trkpt lat="43.95509" lon="5.17463">
        <ele>603.85</ele>
        <time>2016-01-15T11:17:00Z</time>
      </trkpt>
      <trkpt lat="43.95501" lon="5.17461">
        <ele>603.85</ele>
        <time>2016-01-15T11:17:08Z</time>
      </trkpt>
      <trkpt lat="43.95498" lon="5.1746">
        <ele>604.33</ele>
        <time>2016-01-15T11:17:10Z</time>
      </trkpt>
      <trkpt lat="43.95489" lon="5.17461">
        <ele>605.29</ele>
        <time>2016-01-15T11:17:18Z</time>
      </trkpt>
      <trkpt lat="43.95487" lon="5.17461">
        <ele>606.25</ele>
        <time>2016-01-15T11:17:20Z</time>
      </trkpt>
      <trkpt lat="43.95483" lon="5.17459">
        <ele>606.25</ele>
        <time>2016-01-15T11:17:24Z</time>
      </trkpt>
      <trkpt lat="43.95476" lon="5.17459">
        <ele>606.73</ele>
        <time>2016-01-15T11:17:31Z</time>
      </trkpt>
      <trkpt lat="43.95468" lon="5.1746">
        <ele>607.69</ele>
        <time>2016-01-15T11:17:37Z</time>
      </trkpt>
      <trkpt lat="43.95467" lon="5.17459">
        <ele>607.69</ele>
        <time>2016-01-15T11:17:39Z</time>
      </trkpt>
      <trkpt lat="43.95464" lon="5.1746">
        <ele>607.69</ele>
        <time>2016-01-15T11:17:42Z</time>
      </trkpt>
      <trkpt lat="43.95456" lon="5.17463">
        <ele>608.65</ele>
        <time>2016-01-15T11:17:50Z</time>
      </trkpt>
      <trkpt lat="43.95448" lon="5.17476">
        <ele>609.13</ele>
        <time>2016-01-15T11:18:00Z</time>
      </trkpt>
      <trkpt lat="43.95447" lon="5.17478">
        <ele>609.13</ele>
        <time>2016-01-15T11:18:02Z</time>
      </trkpt>
      <trkpt lat="43.95446" lon="5.17484">
        <ele>609.61</ele>
        <time>2016-01-15T11:18:06Z</time>
      </trkpt>
      <trkpt lat="43.95444" lon="5.17491">
        <ele>609.61</ele>
        <time>2016-01-15T11:18:11Z</time>
      </trkpt>
      <trkpt lat="43.95438" lon="5.17501">
        <ele>610.09</ele>
        <time>2016-01-15T11:18:18Z</time>
      </trkpt>
      <trkpt lat="43.95433" lon="5.17508">
        <ele>611.06</ele>
        <time>2016-01-15T11:18:24Z</time>
      </trkpt>
      <trkpt lat="43.95428" lon="5.17514">
        <ele>611.06</ele>
        <time>2016-01-15T11:18:30Z</time>
      </trkpt>
      <trkpt lat="43.95424" lon="5.17518">
        <ele>611.54</ele>
        <time>2016-01-15T11:18:34Z</time>
      </trkpt>
      <trkpt lat="43.95421" lon="5.17522">
        <ele>611.54</ele>
        <time>2016-01-15T11:18:38Z</time>
      </trkpt>
      <trkpt lat="43.95418" lon="5.17525">
        <ele>612.02</ele>
        <time>2016-01-15T11:18:41Z</time>
      </trkpt>
      <trkpt lat="43.95411" lon="5.17532">
        <ele>612.5</ele>
        <time>2016-01-15T11:18:47Z</time>
      </trkpt>
      <trkpt lat="43.95411" lon="5.17532">
        <ele>612.02</ele>
        <time>2016-01-15T11:18:49Z</time>
      </trkpt>
      <trkpt lat="43.95405" lon="5.17537">
        <ele>612.98</ele>
        <time>2016-01-15T11:18:54Z</time>
      </trkpt>
      <trkpt lat="43.95404" lon="5.17538">
        <ele>612.98</ele>
        <time>2016-01-15T11:18:55Z</time>
      </trkpt>
      <trkpt lat="43.95402" lon="5.17541">
        <ele>612.98</ele>
        <time>2016-01-15T11:18:57Z</time>
      </trkpt>
      <trkpt lat="43.95398" lon="5.17548">
        <ele>612.98</ele>
        <time>2016-01-15T11:19:02Z</time>
      </trkpt>
      <trkpt lat="43.9539" lon="5.17556">
        <ele>613.94</ele>
        <time>2016-01-15T11:19:10Z</time>
      </trkpt>
      <trkpt lat="43.95385" lon="5.17562">
        <ele>614.42</ele>
        <time>2016-01-15T11:19:15Z</time>
      </trkpt>
      <trkpt lat="43.95378" lon="5.17571">
        <ele>613.94</ele>
        <time>2016-01-15T11:19:22Z</time>
      </trkpt>
      <trkpt lat="43.95374" lon="5.17579">
        <ele>614.42</ele>
        <time>2016-01-15T11:19:28Z</time>
      </trkpt>
      <trkpt lat="43.95372" lon="5.17588">
        <ele>614.42</ele>
        <time>2016-01-15T11:19:33Z</time>
      </trkpt>
      <trkpt lat="43.9537" lon="5.17594">
        <ele>613.94</ele>
        <time>2016-01-15T11:19:37Z</time>
      </trkpt>
      <trkpt lat="43.95367" lon="5.17603">
        <ele>614.42</ele>
        <time>2016-01-15T11:19:44Z</time>
      </trkpt>
      <trkpt lat="43.95361" lon="5.17613">
        <ele>614.42</ele>
        <time>2016-01-15T11:19:51Z</time>
      </trkpt>
      <trkpt lat="43.95359" lon="5.17617">
        <ele>614.42</ele>
        <time>2016-01-15T11:19:54Z</time>
      </trkpt>
      <trkpt lat="43.95353" lon="5.17627">
        <ele>614.42</ele>
        <time>2016-01-15T11:20:01Z</time>
      </trkpt>
      <trkpt lat="43.95351" lon="5.17631">
        <ele>614.9</ele>
        <time>2016-01-15T11:20:04Z</time>
      </trkpt>
      <trkpt lat="43.95348" lon="5.17638">
        <ele>614.9</ele>
        <time>2016-01-15T11:20:09Z</time>
      </trkpt>
      <trkpt lat="43.95345" lon="5.17646">
        <ele>614.9</ele>
        <time>2016-01-15T11:20:15Z</time>
      </trkpt>
      <trkpt lat="43.95341" lon="5.17655">
        <ele>615.86</ele>
        <time>2016-01-15T11:20:20Z</time>
      </trkpt>
      <trkpt lat="43.95336" lon="5.17667">
        <ele>615.86</ele>
        <time>2016-01-15T11:20:27Z</time>
      </trkpt>
      <trkpt lat="43.95331" lon="5.17676">
        <ele>615.86</ele>
        <time>2016-01-15T11:20:33Z</time>
      </trkpt>
      <trkpt lat="43.95321" lon="5.17683">
        <ele>615.86</ele>
        <time>2016-01-15T11:20:41Z</time>
      </trkpt>
      <trkpt lat="43.95314" lon="5.17688">
        <ele>616.34</ele>
        <time>2016-01-15T11:20:47Z</time>
      </trkpt>
      <trkpt lat="43.95302" lon="5.17693">
        <ele>616.82</ele>
        <time>2016-01-15T11:20:55Z</time>
      </trkpt>
      <trkpt lat="43.95295" lon="5.17696">
        <ele>616.82</ele>
        <time>2016-01-15T11:21:00Z</time>
      </trkpt>
      <trkpt lat="43.95288" lon="5.177">
        <ele>616.34</ele>
        <time>2016-01-15T11:21:06Z</time>
      </trkpt>
      <trkpt lat="43.95287" lon="5.177">
        <ele>616.82</ele>
        <time>2016-01-15T11:21:07Z</time>
      </trkpt>
      <trkpt lat="43.95281" lon="5.17707">
        <ele>616.82</ele>
        <time>2016-01-15T11:21:14Z</time>
      </trkpt>
      <trkpt lat="43.95278" lon="5.17708">
        <ele>616.82</ele>
        <time>2016-01-15T11:21:16Z</time>
      </trkpt>
      <trkpt lat="43.95271" lon="5.17714">
        <ele>616.82</ele>
        <time>2016-01-15T11:21:22Z</time>
      </trkpt>
      <trkpt lat="43.95268" lon="5.17721">
        <ele>617.3</ele>
        <time>2016-01-15T11:21:28Z</time>
      </trkpt>
      <trkpt lat="43.95265" lon="5.17728">
        <ele>616.82</ele>
        <time>2016-01-15T11:21:34Z</time>
      </trkpt>
      <trkpt lat="43.95263" lon="5.17737">
        <ele>617.3</ele>
        <time>2016-01-15T11:21:41Z</time>
      </trkpt>
      <trkpt lat="43.95266" lon="5.17751">
        <ele>617.3</ele>
        <time>2016-01-15T11:21:48Z</time>
      </trkpt>
      <trkpt lat="43.95266" lon="5.17753">
        <ele>617.3</ele>
        <time>2016-01-15T11:21:49Z</time>
      </trkpt>
      <trkpt lat="43.95268" lon="5.17759">
        <ele>617.78</ele>
        <time>2016-01-15T11:21:53Z</time>
      </trkpt>
      <trkpt lat="43.95272" lon="5.17768">
        <ele>617.78</ele>
        <time>2016-01-15T11:21:58Z</time>
      </trkpt>
      <trkpt lat="43.95272" lon="5.1777">
        <ele>617.78</ele>
        <time>2016-01-15T11:22:00Z</time>
      </trkpt>
      <trkpt lat="43.95272" lon="5.17782">
        <ele>617.78</ele>
        <time>2016-01-15T11:22:07Z</time>
      </trkpt>
      <trkpt lat="43.95273" lon="5.17786">
        <ele>617.78</ele>
        <time>2016-01-15T11:22:09Z</time>
      </trkpt>
      <trkpt lat="43.95274" lon="5.17791">
        <ele>617.3</ele>
        <time>2016-01-15T11:22:13Z</time>
      </trkpt>
      <trkpt lat="43.95277" lon="5.17804">
        <ele>617.78</ele>
        <time>2016-01-15T11:22:20Z</time>
      </trkpt>
      <trkpt lat="43.95278" lon="5.17809">
        <ele>617.78</ele>
        <time>2016-01-15T11:22:25Z</time>
      </trkpt>
      <trkpt lat="43.95278" lon="5.17811">
        <ele>617.3</ele>
        <time>2016-01-15T11:22:26Z</time>
      </trkpt>
      <trkpt lat="43.95279" lon="5.17819">
        <ele>617.3</ele>
        <time>2016-01-15T11:22:30Z</time>
      </trkpt>
      <trkpt lat="43.9528" lon="5.17823">
        <ele>617.3</ele>
        <time>2016-01-15T11:22:32Z</time>
      </trkpt>
      <trkpt lat="43.9528" lon="5.17826">
        <ele>617.78</ele>
        <time>2016-01-15T11:22:34Z</time>
      </trkpt>
      <trkpt lat="43.9528" lon="5.17828">
        <ele>617.78</ele>
        <time>2016-01-15T11:22:36Z</time>
      </trkpt>
      <trkpt lat="43.9528" lon="5.17832">
        <ele>617.3</ele>
        <time>2016-01-15T11:22:39Z</time>
      </trkpt>
      <trkpt lat="43.95281" lon="5.17838">
        <ele>617.3</ele>
        <time>2016-01-15T11:22:42Z</time>
      </trkpt>
      <trkpt lat="43.95279" lon="5.17848">
        <ele>617.3</ele>
        <time>2016-01-15T11:22:48Z</time>
      </trkpt>
      <trkpt lat="43.95279" lon="5.17852">
        <ele>617.3</ele>
        <time>2016-01-15T11:22:50Z</time>
      </trkpt>
      <trkpt lat="43.95278" lon="5.17858">
        <ele>617.3</ele>
        <time>2016-01-15T11:22:53Z</time>
      </trkpt>
      <trkpt lat="43.95277" lon="5.17862">
        <ele>617.3</ele>
        <time>2016-01-15T11:22:55Z</time>
      </trkpt>
      <trkpt lat="43.95275" lon="5.17874">
        <ele>616.82</ele>
        <time>2016-01-15T11:23:01Z</time>
      </trkpt>
      <trkpt lat="43.95274" lon="5.17879">
        <ele>616.82</ele>
        <time>2016-01-15T11:23:04Z</time>
      </trkpt>
      <trkpt lat="43.95273" lon="5.17884">
        <ele>616.82</ele>
        <time>2016-01-15T11:23:07Z</time>
      </trkpt>
      <trkpt lat="43.95271" lon="5.17889">
        <ele>616.82</ele>
        <time>2016-01-15T11:23:10Z</time>
      </trkpt>
      <trkpt lat="43.95269" lon="5.17891">
        <ele>616.34</ele>
        <time>2016-01-15T11:23:12Z</time>
      </trkpt>
      <trkpt lat="43.95268" lon="5.17894">
        <ele>616.82</ele>
        <time>2016-01-15T11:23:14Z</time>
      </trkpt>
      <trkpt lat="43.95267" lon="5.17898">
        <ele>616.82</ele>
        <time>2016-01-15T11:23:17Z</time>
      </trkpt>
      <trkpt lat="43.95265" lon="5.17901">
        <ele>616.82</ele>
        <time>2016-01-15T11:23:19Z</time>
      </trkpt>
      <trkpt lat="43.95264" lon="5.17906">
        <ele>616.34</ele>
        <time>2016-01-15T11:23:22Z</time>
      </trkpt>
      <trkpt lat="43.95263" lon="5.17909">
        <ele>616.34</ele>
        <time>2016-01-15T11:23:24Z</time>
      </trkpt>
      <trkpt lat="43.95261" lon="5.17916">
        <ele>615.86</ele>
        <time>2016-01-15T11:23:28Z</time>
      </trkpt>
      <trkpt lat="43.9526" lon="5.17923">
        <ele>615.86</ele>
        <time>2016-01-15T11:23:32Z</time>
      </trkpt>
      <trkpt lat="43.9526" lon="5.17936">
        <ele>615.38</ele>
        <time>2016-01-15T11:23:38Z</time>
      </trkpt>
      <trkpt lat="43.9526" lon="5.1794">
        <ele>615.38</ele>
        <time>2016-01-15T11:23:40Z</time>
      </trkpt>
      <trkpt lat="43.95262" lon="5.17947">
        <ele>614.9</ele>
        <time>2016-01-15T11:23:45Z</time>
      </trkpt>
      <trkpt lat="43.95262" lon="5.17954">
        <ele>614.42</ele>
        <time>2016-01-15T11:23:49Z</time>
      </trkpt>
      <trkpt lat="43.95259" lon="5.17963">
        <ele>614.42</ele>
        <time>2016-01-15T11:23:54Z</time>
      </trkpt>
      <trkpt lat="43.95259" lon="5.17966">
        <ele>615.38</ele>
        <time>2016-01-15T11:23:56Z</time>
      </trkpt>
      <trkpt lat="43.95257" lon="5.17975">
        <ele>614.42</ele>
        <time>2016-01-15T11:24:01Z</time>
      </trkpt>
      <trkpt lat="43.95257" lon="5.17979">
        <ele>614.9</ele>
        <time>2016-01-15T11:24:04Z</time>
      </trkpt>
      <trkpt lat="43.95256" lon="5.17984">
        <ele>614.42</ele>
        <time>2016-01-15T11:24:07Z</time>
      </trkpt>
      <trkpt lat="43.95255" lon="5.17987">
        <ele>613.94</ele>
        <time>2016-01-15T11:24:09Z</time>
      </trkpt>
      <trkpt lat="43.9525" lon="5.17998">
        <ele>613.46</ele>
        <time>2016-01-15T11:24:16Z</time>
      </trkpt>
      <trkpt lat="43.95249" lon="5.18008">
        <ele>613.46</ele>
        <time>2016-01-15T11:24:22Z</time>
      </trkpt>
      <trkpt lat="43.95249" lon="5.18011">
        <ele>613.46</ele>
        <time>2016-01-15T11:24:24Z</time>
      </trkpt>
      <trkpt lat="43.95247" lon="5.18021">
        <ele>613.46</ele>
        <time>2016-01-15T11:24:29Z</time>
      </trkpt>
      <trkpt lat="43.95248" lon="5.18031">
        <ele>612.98</ele>
        <time>2016-01-15T11:24:34Z</time>
      </trkpt>
      <trkpt lat="43.95248" lon="5.18035">
        <ele>612.98</ele>
        <time>2016-01-15T11:24:36Z</time>
      </trkpt>
      <trkpt lat="43.95247" lon="5.18044">
        <ele>612.5</ele>
        <time>2016-01-15T11:24:41Z</time>
      </trkpt>
      <trkpt lat="43.95246" lon="5.18048">
        <ele>612.98</ele>
        <time>2016-01-15T11:24:44Z</time>
      </trkpt>
      <trkpt lat="43.95245" lon="5.18055">
        <ele>612.98</ele>
        <time>2016-01-15T11:24:48Z</time>
      </trkpt>
      <trkpt lat="43.95245" lon="5.18058">
        <ele>612.98</ele>
        <time>2016-01-15T11:24:50Z</time>
      </trkpt>
      <trkpt lat="43.95244" lon="5.18062">
        <ele>612.98</ele>
        <time>2016-01-15T11:24:52Z</time>
      </trkpt>
      <trkpt lat="43.9524" lon="5.18069">
        <ele>612.5</ele>
        <time>2016-01-15T11:24:57Z</time>
      </trkpt>
      <trkpt lat="43.95238" lon="5.18075">
        <ele>612.5</ele>
        <time>2016-01-15T11:25:00Z</time>
      </trkpt>
      <trkpt lat="43.95235" lon="5.18083">
        <ele>612.02</ele>
        <time>2016-01-15T11:25:06Z</time>
      </trkpt>
      <trkpt lat="43.95234" lon="5.18093">
        <ele>612.02</ele>
        <time>2016-01-15T11:25:12Z</time>
      </trkpt>
      <trkpt lat="43.95233" lon="5.18094">
        <ele>612.5</ele>
        <time>2016-01-15T11:25:14Z</time>
      </trkpt>
      <trkpt lat="43.95228" lon="5.18104">
        <ele>611.54</ele>
        <time>2016-01-15T11:25:21Z</time>
      </trkpt>
      <trkpt lat="43.95222" lon="5.1811">
        <ele>611.54</ele>
        <time>2016-01-15T11:25:27Z</time>
      </trkpt>
      <trkpt lat="43.95215" lon="5.18114">
        <ele>611.06</ele>
        <time>2016-01-15T11:25:35Z</time>
      </trkpt>
      <trkpt lat="43.95208" lon="5.18116">
        <ele>611.54</ele>
        <time>2016-01-15T11:25:41Z</time>
      </trkpt>
      <trkpt lat="43.95202" lon="5.18119">
        <ele>611.54</ele>
        <time>2016-01-15T11:25:47Z</time>
      </trkpt>
      <trkpt lat="43.95194" lon="5.18121">
        <ele>611.06</ele>
        <time>2016-01-15T11:25:54Z</time>
      </trkpt>
      <trkpt lat="43.95188" lon="5.18122">
        <ele>610.57</ele>
        <time>2016-01-15T11:26:01Z</time>
      </trkpt>
      <trkpt lat="43.95184" lon="5.18123">
        <ele>610.09</ele>
        <time>2016-01-15T11:26:06Z</time>
      </trkpt>
      <trkpt lat="43.9518" lon="5.18123">
        <ele>610.09</ele>
        <time>2016-01-15T11:26:10Z</time>
      </trkpt>
      <trkpt lat="43.95175" lon="5.18124">
        <ele>610.57</ele>
        <time>2016-01-15T11:26:14Z</time>
      </trkpt>
      <trkpt lat="43.95163" lon="5.18121">
        <ele>610.09</ele>
        <time>2016-01-15T11:26:23Z</time>
      </trkpt>
      <trkpt lat="43.95154" lon="5.18118">
        <ele>610.09</ele>
        <time>2016-01-15T11:26:30Z</time>
      </trkpt>
      <trkpt lat="43.95149" lon="5.18116">
        <ele>610.09</ele>
        <time>2016-01-15T11:26:34Z</time>
      </trkpt>
      <trkpt lat="43.95146" lon="5.18116">
        <ele>609.61</ele>
        <time>2016-01-15T11:26:36Z</time>
      </trkpt>
      <trkpt lat="43.95137" lon="5.18118">
        <ele>609.61</ele>
        <time>2016-01-15T11:26:42Z</time>
      </trkpt>
      <trkpt lat="43.95128" lon="5.18115">
        <ele>610.57</ele>
        <time>2016-01-15T11:26:50Z</time>
      </trkpt>
      <trkpt lat="43.95126" lon="5.18115">
        <ele>610.09</ele>
        <time>2016-01-15T11:26:53Z</time>
      </trkpt>
      <trkpt lat="43.95121" lon="5.18111">
        <ele>610.09</ele>
        <time>2016-01-15T11:26:58Z</time>
      </trkpt>
      <trkpt lat="43.95118" lon="5.18111">
        <ele>610.09</ele>
        <time>2016-01-15T11:27:00Z</time>
      </trkpt>
      <trkpt lat="43.95109" lon="5.18115">
        <ele>609.61</ele>
        <time>2016-01-15T11:27:07Z</time>
      </trkpt>
      <trkpt lat="43.95105" lon="5.18118">
        <ele>609.13</ele>
        <time>2016-01-15T11:27:10Z</time>
      </trkpt>
      <trkpt lat="43.951" lon="5.18123">
        <ele>609.61</ele>
        <time>2016-01-15T11:27:15Z</time>
      </trkpt>
      <trkpt lat="43.95097" lon="5.18123">
        <ele>610.09</ele>
        <time>2016-01-15T11:27:18Z</time>
      </trkpt>
      <trkpt lat="43.95091" lon="5.18122">
        <ele>610.09</ele>
        <time>2016-01-15T11:27:25Z</time>
      </trkpt>
      <trkpt lat="43.95087" lon="5.18122">
        <ele>609.61</ele>
        <time>2016-01-15T11:27:32Z</time>
      </trkpt>
      <trkpt lat="43.9508" lon="5.1812">
        <ele>609.61</ele>
        <time>2016-01-15T11:27:38Z</time>
      </trkpt>
      <trkpt lat="43.95078" lon="5.1812">
        <ele>609.61</ele>
        <time>2016-01-15T11:27:40Z</time>
      </trkpt>
      <trkpt lat="43.9507" lon="5.18121">
        <ele>609.61</ele>
        <time>2016-01-15T11:27:46Z</time>
      </trkpt>
      <trkpt lat="43.95062" lon="5.18121">
        <ele>605.29</ele>
        <time>2016-01-15T11:27:53Z</time>
      </trkpt>
      <trkpt lat="43.95061" lon="5.18121">
        <ele>612.02</ele>
        <time>2016-01-15T11:27:54Z</time>
      </trkpt>
      <trkpt lat="43.95058" lon="5.18121">
        <ele>610.09</ele>
        <time>2016-01-15T11:27:57Z</time>
      </trkpt>
      <trkpt lat="43.95051" lon="5.18121">
        <ele>609.61</ele>
        <time>2016-01-15T11:28:04Z</time>
      </trkpt>
      <trkpt lat="43.95045" lon="5.18119">
        <ele>609.13</ele>
        <time>2016-01-15T11:28:12Z</time>
      </trkpt>
      <trkpt lat="43.95039" lon="5.18116">
        <ele>609.13</ele>
        <time>2016-01-15T11:28:18Z</time>
      </trkpt>
      <trkpt lat="43.95036" lon="5.18115">
        <ele>609.13</ele>
        <time>2016-01-15T11:28:22Z</time>
      </trkpt>
      <trkpt lat="43.95028" lon="5.18113">
        <ele>610.57</ele>
        <time>2016-01-15T11:28:29Z</time>
      </trkpt>
      <trkpt lat="43.95021" lon="5.18115">
        <ele>608.65</ele>
        <time>2016-01-15T11:28:37Z</time>
      </trkpt>
      <trkpt lat="43.95013" lon="5.18118">
        <ele>608.65</ele>
        <time>2016-01-15T11:28:44Z</time>
      </trkpt>
      <trkpt lat="43.95011" lon="5.18118">
        <ele>608.65</ele>
        <time>2016-01-15T11:28:46Z</time>
      </trkpt>
      <trkpt lat="43.95006" lon="5.18118">
        <ele>608.17</ele>
        <time>2016-01-15T11:28:52Z</time>
      </trkpt>
      <trkpt lat="43.95001" lon="5.18115">
        <ele>607.69</ele>
        <time>2016-01-15T11:28:59Z</time>
      </trkpt>
      <trkpt lat="43.94992" lon="5.18116">
        <ele>608.17</ele>
        <time>2016-01-15T11:29:06Z</time>
      </trkpt>
      <trkpt lat="43.94984" lon="5.18115">
        <ele>607.69</ele>
        <time>2016-01-15T11:29:15Z</time>
      </trkpt>
      <trkpt lat="43.94981" lon="5.18113">
        <ele>607.69</ele>
        <time>2016-01-15T11:29:17Z</time>
      </trkpt>
      <trkpt lat="43.94978" lon="5.1811">
        <ele>607.69</ele>
        <time>2016-01-15T11:29:19Z</time>
      </trkpt>
      <trkpt lat="43.94969" lon="5.18112">
        <ele>607.21</ele>
        <time>2016-01-15T11:29:26Z</time>
      </trkpt>
      <trkpt lat="43.9496" lon="5.18111">
        <ele>607.21</ele>
        <time>2016-01-15T11:29:34Z</time>
      </trkpt>
      <trkpt lat="43.94959" lon="5.18111">
        <ele>607.21</ele>
        <time>2016-01-15T11:29:35Z</time>
      </trkpt>
      <trkpt lat="43.94951" lon="5.1811">
        <ele>606.73</ele>
        <time>2016-01-15T11:29:39Z</time>
      </trkpt>
      <trkpt lat="43.9494" lon="5.18106">
        <ele>606.73</ele>
        <time>2016-01-15T11:29:46Z</time>
      </trkpt>
      <trkpt lat="43.94939" lon="5.18106">
        <ele>606.73</ele>
        <time>2016-01-15T11:29:47Z</time>
      </trkpt>
      <trkpt lat="43.94929" lon="5.181">
        <ele>606.73</ele>
        <time>2016-01-15T11:29:55Z</time>
      </trkpt>
      <trkpt lat="43.94924" lon="5.18098">
        <ele>606.25</ele>
        <time>2016-01-15T11:29:58Z</time>
      </trkpt>
      <trkpt lat="43.94913" lon="5.18095">
        <ele>606.25</ele>
        <time>2016-01-15T11:30:05Z</time>
      </trkpt>
      <trkpt lat="43.94907" lon="5.18095">
        <ele>606.25</ele>
        <time>2016-01-15T11:30:10Z</time>
      </trkpt>
      <trkpt lat="43.94898" lon="5.18095">
        <ele>606.25</ele>
        <time>2016-01-15T11:30:18Z</time>
      </trkpt>
      <trkpt lat="43.94897" lon="5.18095">
        <ele>606.25</ele>
        <time>2016-01-15T11:30:19Z</time>
      </trkpt>
      <trkpt lat="43.9489" lon="5.18094">
        <ele>605.77</ele>
        <time>2016-01-15T11:30:26Z</time>
      </trkpt>
      <trkpt lat="43.94882" lon="5.18092">
        <ele>605.77</ele>
        <time>2016-01-15T11:30:34Z</time>
      </trkpt>
      <trkpt lat="43.94876" lon="5.18088">
        <ele>605.77</ele>
        <time>2016-01-15T11:30:41Z</time>
      </trkpt>
      <trkpt lat="43.94868" lon="5.18085">
        <ele>605.77</ele>
        <time>2016-01-15T11:30:47Z</time>
      </trkpt>
      <trkpt lat="43.94859" lon="5.18079">
        <ele>605.77</ele>
        <time>2016-01-15T11:30:54Z</time>
      </trkpt>
      <trkpt lat="43.94858" lon="5.18079">
        <ele>605.77</ele>
        <time>2016-01-15T11:30:55Z</time>
      </trkpt>
      <trkpt lat="43.94856" lon="5.18077">
        <ele>605.77</ele>
        <time>2016-01-15T11:30:57Z</time>
      </trkpt>
      <trkpt lat="43.9485" lon="5.18071">
        <ele>605.29</ele>
        <time>2016-01-15T11:31:07Z</time>
      </trkpt>
      <trkpt lat="43.94847" lon="5.18066">
        <ele>605.29</ele>
        <time>2016-01-15T11:31:11Z</time>
      </trkpt>
      <trkpt lat="43.94846" lon="5.18063">
        <ele>605.29</ele>
        <time>2016-01-15T11:31:14Z</time>
      </trkpt>
      <trkpt lat="43.94849" lon="5.1806">
        <ele>605.29</ele>
        <time>2016-01-15T11:31:21Z</time>
      </trkpt>
      <trkpt lat="43.94849" lon="5.18061">
        <ele>606.25</ele>
        <time>2016-01-15T11:31:29Z</time>
      </trkpt>
      <trkpt lat="43.9485" lon="5.18058">
        <ele>605.29</ele>
        <time>2016-01-15T11:31:38Z</time>
      </trkpt>
      <trkpt lat="43.94851" lon="5.18058">
        <ele>605.77</ele>
        <time>2016-01-15T11:31:48Z</time>
      </trkpt>
      <trkpt lat="43.94853" lon="5.18061">
        <ele>605.77</ele>
        <time>2016-01-15T11:31:58Z</time>
      </trkpt>
      <trkpt lat="43.94853" lon="5.18061">
        <ele>605.29</ele>
        <time>2016-01-15T11:32:14Z</time>
      </trkpt>
      <trkpt lat="43.94852" lon="5.18062">
        <ele>605.77</ele>
        <time>2016-01-15T11:32:26Z</time>
      </trkpt>
      <trkpt lat="43.94853" lon="5.18061">
        <ele>606.73</ele>
        <time>2016-01-15T11:32:43Z</time>
      </trkpt>
      <trkpt lat="43.94852" lon="5.18062">
        <ele>605.77</ele>
        <time>2016-01-15T11:32:54Z</time>
      </trkpt>
      <trkpt lat="43.94854" lon="5.18062">
        <ele>605.77</ele>
        <time>2016-01-15T11:33:07Z</time>
      </trkpt>
      <trkpt lat="43.94855" lon="5.18062">
        <ele>605.29</ele>
        <time>2016-01-15T11:33:20Z</time>
      </trkpt>
      <trkpt lat="43.94856" lon="5.18063">
        <ele>605.29</ele>
        <time>2016-01-15T11:33:35Z</time>
      </trkpt>
      <trkpt lat="43.94857" lon="5.18064">
        <ele>605.77</ele>
        <time>2016-01-15T11:33:49Z</time>
      </trkpt>
      <trkpt lat="43.94857" lon="5.18063">
        <ele>605.29</ele>
        <time>2016-01-15T11:34:02Z</time>
      </trkpt>
      <trkpt lat="43.94856" lon="5.18064">
        <ele>605.29</ele>
        <time>2016-01-15T11:34:14Z</time>
      </trkpt>
      <trkpt lat="43.94857" lon="5.18064">
        <ele>605.29</ele>
        <time>2016-01-15T11:34:27Z</time>
      </trkpt>
      <trkpt lat="43.94856" lon="5.18063">
        <ele>605.29</ele>
        <time>2016-01-15T11:34:40Z</time>
      </trkpt>
      <trkpt lat="43.94857" lon="5.18065">
        <ele>604.81</ele>
        <time>2016-01-15T11:34:54Z</time>
      </trkpt>
      <trkpt lat="43.94856" lon="5.18066">
        <ele>604.81</ele>
        <time>2016-01-15T11:35:05Z</time>
      </trkpt>
      <trkpt lat="43.94853" lon="5.18067">
        <ele>605.29</ele>
        <time>2016-01-15T11:35:16Z</time>
      </trkpt>
      <trkpt lat="43.94852" lon="5.18067">
        <ele>604.81</ele>
        <time>2016-01-15T11:35:29Z</time>
      </trkpt>
      <trkpt lat="43.94852" lon="5.18066">
        <ele>604.81</ele>
        <time>2016-01-15T11:35:43Z</time>
      </trkpt>
      <trkpt lat="43.94852" lon="5.18066">
        <ele>605.29</ele>
        <time>2016-01-15T11:35:56Z</time>
      </trkpt>
      <trkpt lat="43.94851" lon="5.18066">
        <ele>605.29</ele>
        <time>2016-01-15T11:36:10Z</time>
      </trkpt>
      <trkpt lat="43.94851" lon="5.18066">
        <ele>605.29</ele>
        <time>2016-01-15T11:36:25Z</time>
      </trkpt>
      <trkpt lat="43.94851" lon="5.18066">
        <ele>605.29</ele>
        <time>2016-01-15T11:36:37Z</time>
      </trkpt>
      <trkpt lat="43.9485" lon="5.18068">
        <ele>604.81</ele>
        <time>2016-01-15T11:36:47Z</time>
      </trkpt>
      <trkpt lat="43.9485" lon="5.18068">
        <ele>604.81</ele>
        <time>2016-01-15T11:37:02Z</time>
      </trkpt>
      <trkpt lat="43.9485" lon="5.18068">
        <ele>605.29</ele>
        <time>2016-01-15T11:37:18Z</time>
      </trkpt>
      <trkpt lat="43.9485" lon="5.18068">
        <ele>604.81</ele>
        <time>2016-01-15T11:37:31Z</time>
      </trkpt>
      <trkpt lat="43.9485" lon="5.18068">
        <ele>605.29</ele>
        <time>2016-01-15T11:37:43Z</time>
      </trkpt>
      <trkpt lat="43.9485" lon="5.18068">
        <ele>605.29</ele>
        <time>2016-01-15T11:37:59Z</time>
      </trkpt>
      <trkpt lat="43.9485" lon="5.18068">
        <ele>605.29</ele>
        <time>2016-01-15T11:38:11Z</time>
      </trkpt>
      <trkpt lat="43.9485" lon="5.18068">
        <ele>605.29</ele>
        <time>2016-01-15T11:38:25Z</time>
      </trkpt>
      <trkpt lat="43.9485" lon="5.18069">
        <ele>605.29</ele>
        <time>2016-01-15T11:38:40Z</time>
      </trkpt>
      <trkpt lat="43.9485" lon="5.18069">
        <ele>605.29</ele>
        <time>2016-01-15T11:38:56Z</time>
      </trkpt>
      <trkpt lat="43.9485" lon="5.18069">
        <ele>605.29</ele>
        <time>2016-01-15T11:39:09Z</time>
      </trkpt>
      <trkpt lat="43.9485" lon="5.1807">
        <ele>605.29</ele>
        <time>2016-01-15T11:39:22Z</time>
      </trkpt>
      <trkpt lat="43.94849" lon="5.18068">
        <ele>604.81</ele>
        <time>2016-01-15T11:39:36Z</time>
      </trkpt>
      <trkpt lat="43.94849" lon="5.18068">
        <ele>605.29</ele>
        <time>2016-01-15T11:39:47Z</time>
      </trkpt>
      <trkpt lat="43.94849" lon="5.18067">
        <ele>605.29</ele>
        <time>2016-01-15T11:40:04Z</time>
      </trkpt>
      <trkpt lat="43.94849" lon="5.18067">
        <ele>604.81</ele>
        <time>2016-01-15T11:40:20Z</time>
      </trkpt>
      <trkpt lat="43.94849" lon="5.18067">
        <ele>604.81</ele>
        <time>2016-01-15T11:40:32Z</time>
      </trkpt>
      <trkpt lat="43.94849" lon="5.18066">
        <ele>605.29</ele>
        <time>2016-01-15T11:40:46Z</time>
      </trkpt>
      <trkpt lat="43.94849" lon="5.18066">
        <ele>605.29</ele>
        <time>2016-01-15T11:41:00Z</time>
      </trkpt>
      <trkpt lat="43.94849" lon="5.18066">
        <ele>605.29</ele>
        <time>2016-01-15T11:41:15Z</time>
      </trkpt>
      <trkpt lat="43.94849" lon="5.18066">
        <ele>604.81</ele>
        <time>2016-01-15T11:41:27Z</time>
      </trkpt>
      <trkpt lat="43.94849" lon="5.18066">
        <ele>603.85</ele>
        <time>2016-01-15T11:41:29Z</time>
      </trkpt>
      <trkpt lat="43.94849" lon="5.18067">
        <ele>605.29</ele>
        <time>2016-01-15T11:41:32Z</time>
      </trkpt>
      <trkpt lat="43.94849" lon="5.18067">
        <ele>605.29</ele>
        <time>2016-01-15T11:41:46Z</time>
      </trkpt>
      <trkpt lat="43.9485" lon="5.18067">
        <ele>606.25</ele>
        <time>2016-01-15T11:41:58Z</time>
      </trkpt>
      <trkpt lat="43.9485" lon="5.18067">
        <ele>605.29</ele>
        <time>2016-01-15T11:42:11Z</time>
      </trkpt>
      <trkpt lat="43.9485" lon="5.18067">
        <ele>605.29</ele>
        <time>2016-01-15T11:42:22Z</time>
      </trkpt>
      <trkpt lat="43.9485" lon="5.18067">
        <ele>605.29</ele>
        <time>2016-01-15T11:42:32Z</time>
      </trkpt>
      <trkpt lat="43.9485" lon="5.18068">
        <ele>605.29</ele>
        <time>2016-01-15T11:42:45Z</time>
      </trkpt>
      <trkpt lat="43.9485" lon="5.18068">
        <ele>606.25</ele>
        <time>2016-01-15T11:42:59Z</time>
      </trkpt>
      <trkpt lat="43.94849" lon="5.18069">
        <ele>605.77</ele>
        <time>2016-01-15T11:43:13Z</time>
      </trkpt>
      <trkpt lat="43.94849" lon="5.1807">
        <ele>605.29</ele>
        <time>2016-01-15T11:43:24Z</time>
      </trkpt>
      <trkpt lat="43.94849" lon="5.1807">
        <ele>605.77</ele>
        <time>2016-01-15T11:43:39Z</time>
      </trkpt>
      <trkpt lat="43.94849" lon="5.1807">
        <ele>605.77</ele>
        <time>2016-01-15T11:43:53Z</time>
      </trkpt>
      <trkpt lat="43.94849" lon="5.18069">
        <ele>605.77</ele>
        <time>2016-01-15T11:44:05Z</time>
      </trkpt>
      <trkpt lat="43.94849" lon="5.18069">
        <ele>605.77</ele>
        <time>2016-01-15T11:44:19Z</time>
      </trkpt>
      <trkpt lat="43.94849" lon="5.18069">
        <ele>605.77</ele>
        <time>2016-01-15T11:44:32Z</time>
      </trkpt>
      <trkpt lat="43.94847" lon="5.18069">
        <ele>605.77</ele>
        <time>2016-01-15T11:44:41Z</time>
      </trkpt>
      <trkpt lat="43.94847" lon="5.18069">
        <ele>605.77</ele>
        <time>2016-01-15T11:44:52Z</time>
      </trkpt>
      <trkpt lat="43.94848" lon="5.18069">
        <ele>606.25</ele>
        <time>2016-01-15T11:45:04Z</time>
      </trkpt>
      <trkpt lat="43.94849" lon="5.1807">
        <ele>605.77</ele>
        <time>2016-01-15T11:45:17Z</time>
      </trkpt>
      <trkpt lat="43.9485" lon="5.18069">
        <ele>605.77</ele>
        <time>2016-01-15T11:45:28Z</time>
      </trkpt>
      <trkpt lat="43.9485" lon="5.18068">
        <ele>605.77</ele>
        <time>2016-01-15T11:45:42Z</time>
      </trkpt>
      <trkpt lat="43.94851" lon="5.18068">
        <ele>605.29</ele>
        <time>2016-01-15T11:45:55Z</time>
      </trkpt>
      <trkpt lat="43.94851" lon="5.18068">
        <ele>605.77</ele>
        <time>2016-01-15T11:46:08Z</time>
      </trkpt>
      <trkpt lat="43.94852" lon="5.18068">
        <ele>606.25</ele>
        <time>2016-01-15T11:46:18Z</time>
      </trkpt>
      <trkpt lat="43.94851" lon="5.18068">
        <ele>605.29</ele>
        <time>2016-01-15T11:46:33Z</time>
      </trkpt>
      <trkpt lat="43.94853" lon="5.18066">
        <ele>605.77</ele>
        <time>2016-01-15T11:46:46Z</time>
      </trkpt>
      <trkpt lat="43.94853" lon="5.18065">
        <ele>606.25</ele>
        <time>2016-01-15T11:47:00Z</time>
      </trkpt>
      <trkpt lat="43.94853" lon="5.18065">
        <ele>605.77</ele>
        <time>2016-01-15T11:47:16Z</time>
      </trkpt>
      <trkpt lat="43.94858" lon="5.18066">
        <ele>604.81</ele>
        <time>2016-01-15T11:47:25Z</time>
      </trkpt>
      <trkpt lat="43.94858" lon="5.18065">
        <ele>606.25</ele>
        <time>2016-01-15T11:47:40Z</time>
      </trkpt>
      <trkpt lat="43.94857" lon="5.18064">
        <ele>605.29</ele>
        <time>2016-01-15T11:47:53Z</time>
      </trkpt>
      <trkpt lat="43.94858" lon="5.18064">
        <ele>605.77</ele>
        <time>2016-01-15T11:48:07Z</time>
      </trkpt>
      <trkpt lat="43.94859" lon="5.18064">
        <ele>605.77</ele>
        <time>2016-01-15T11:48:22Z</time>
      </trkpt>
      <trkpt lat="43.94859" lon="5.18065">
        <ele>605.77</ele>
        <time>2016-01-15T11:48:37Z</time>
      </trkpt>
      <trkpt lat="43.94859" lon="5.18063">
        <ele>605.77</ele>
        <time>2016-01-15T11:48:47Z</time>
      </trkpt>
      <trkpt lat="43.94858" lon="5.18062">
        <ele>606.25</ele>
        <time>2016-01-15T11:49:01Z</time>
      </trkpt>
      <trkpt lat="43.94857" lon="5.18063">
        <ele>605.29</ele>
        <time>2016-01-15T11:49:18Z</time>
      </trkpt>
      <trkpt lat="43.94857" lon="5.18063">
        <ele>606.73</ele>
        <time>2016-01-15T11:49:23Z</time>
      </trkpt>
      <trkpt lat="43.94857" lon="5.18064">
        <ele>605.29</ele>
        <time>2016-01-15T11:49:35Z</time>
      </trkpt>
      <trkpt lat="43.94856" lon="5.18064">
        <ele>605.29</ele>
        <time>2016-01-15T11:49:52Z</time>
      </trkpt>
      <trkpt lat="43.94855" lon="5.18064">
        <ele>605.29</ele>
        <time>2016-01-15T11:50:05Z</time>
      </trkpt>
      <trkpt lat="43.94854" lon="5.18064">
        <ele>605.29</ele>
        <time>2016-01-15T11:50:22Z</time>
      </trkpt>
      <trkpt lat="43.94853" lon="5.18066">
        <ele>605.29</ele>
        <time>2016-01-15T11:50:36Z</time>
      </trkpt>
      <trkpt lat="43.94853" lon="5.18066">
        <ele>605.29</ele>
        <time>2016-01-15T11:50:51Z</time>
      </trkpt>
      <trkpt lat="43.94853" lon="5.18067">
        <ele>605.77</ele>
        <time>2016-01-15T11:51:01Z</time>
      </trkpt>
      <trkpt lat="43.9485" lon="5.18067">
        <ele>604.81</ele>
        <time>2016-01-15T11:51:08Z</time>
      </trkpt>
      <trkpt lat="43.9485" lon="5.18064">
        <ele>604.81</ele>
        <time>2016-01-15T11:51:10Z</time>
      </trkpt>
      <trkpt lat="43.94852" lon="5.18049">
        <ele>605.29</ele>
        <time>2016-01-15T11:51:23Z</time>
      </trkpt>
      <trkpt lat="43.94855" lon="5.18051">
        <ele>604.81</ele>
        <time>2016-01-15T11:51:34Z</time>
      </trkpt>
      <trkpt lat="43.9485" lon="5.18045">
        <ele>604.81</ele>
        <time>2016-01-15T11:51:48Z</time>
      </trkpt>
      <trkpt lat="43.9485" lon="5.18063">
        <ele>605.29</ele>
        <time>2016-01-15T11:51:58Z</time>
      </trkpt>
      <trkpt lat="43.94851" lon="5.18067">
        <ele>604.33</ele>
        <time>2016-01-15T11:52:10Z</time>
      </trkpt>
      <trkpt lat="43.94853" lon="5.18065">
        <ele>603.85</ele>
        <time>2016-01-15T11:52:21Z</time>
      </trkpt>
      <trkpt lat="43.94853" lon="5.18066">
        <ele>604.33</ele>
        <time>2016-01-15T11:52:35Z</time>
      </trkpt>
      <trkpt lat="43.94851" lon="5.18067">
        <ele>604.33</ele>
        <time>2016-01-15T11:52:46Z</time>
      </trkpt>
      <trkpt lat="43.94851" lon="5.18067">
        <ele>604.33</ele>
        <time>2016-01-15T11:52:57Z</time>
      </trkpt>
      <trkpt lat="43.9485" lon="5.18068">
        <ele>604.33</ele>
        <time>2016-01-15T11:53:11Z</time>
      </trkpt>
      <trkpt lat="43.94851" lon="5.18069">
        <ele>603.85</ele>
        <time>2016-01-15T11:53:27Z</time>
      </trkpt>
      <trkpt lat="43.94851" lon="5.18068">
        <ele>604.81</ele>
        <time>2016-01-15T11:53:36Z</time>
      </trkpt>
      <trkpt lat="43.94851" lon="5.18068">
        <ele>604.33</ele>
        <time>2016-01-15T11:53:45Z</time>
      </trkpt>
      <trkpt lat="43.9485" lon="5.18068">
        <ele>603.85</ele>
        <time>2016-01-15T11:53:58Z</time>
      </trkpt>
      <trkpt lat="43.9485" lon="5.18068">
        <ele>604.33</ele>
        <time>2016-01-15T11:54:15Z</time>
      </trkpt>
      <trkpt lat="43.9485" lon="5.18068">
        <ele>604.33</ele>
        <time>2016-01-15T11:54:31Z</time>
      </trkpt>
      <trkpt lat="43.9485" lon="5.18068">
        <ele>603.85</ele>
        <time>2016-01-15T11:54:44Z</time>
      </trkpt>
      <trkpt lat="43.9485" lon="5.18067">
        <ele>603.85</ele>
        <time>2016-01-15T11:55:01Z</time>
      </trkpt>
      <trkpt lat="43.94851" lon="5.18067">
        <ele>603.85</ele>
        <time>2016-01-15T11:55:16Z</time>
      </trkpt>
      <trkpt lat="43.94852" lon="5.18066">
        <ele>603.85</ele>
        <time>2016-01-15T11:55:23Z</time>
      </trkpt>
      <trkpt lat="43.94851" lon="5.18065">
        <ele>603.85</ele>
        <time>2016-01-15T11:55:40Z</time>
      </trkpt>
      <trkpt lat="43.94851" lon="5.18065">
        <ele>603.85</ele>
        <time>2016-01-15T11:55:56Z</time>
      </trkpt>
      <trkpt lat="43.9485" lon="5.18064">
        <ele>603.85</ele>
        <time>2016-01-15T11:56:15Z</time>
      </trkpt>
      <trkpt lat="43.94849" lon="5.18062">
        <ele>603.85</ele>
        <time>2016-01-15T11:56:36Z</time>
      </trkpt>
      <trkpt lat="43.94849" lon="5.18061">
        <ele>603.85</ele>
        <time>2016-01-15T11:56:53Z</time>
      </trkpt>
      <trkpt lat="43.94849" lon="5.18061">
        <ele>603.85</ele>
        <time>2016-01-15T11:57:10Z</time>
      </trkpt>
      <trkpt lat="43.94849" lon="5.18062">
        <ele>603.85</ele>
        <time>2016-01-15T11:57:24Z</time>
      </trkpt>
      <trkpt lat="43.9485" lon="5.18062">
        <ele>602.88</ele>
        <time>2016-01-15T11:57:41Z</time>
      </trkpt>
      <trkpt lat="43.9485" lon="5.18063">
        <ele>604.33</ele>
        <time>2016-01-15T11:57:54Z</time>
      </trkpt>
      <trkpt lat="43.9485" lon="5.18063">
        <ele>602.88</ele>
        <time>2016-01-15T11:58:09Z</time>
      </trkpt>
      <trkpt lat="43.94849" lon="5.18062">
        <ele>603.36</ele>
        <time>2016-01-15T11:58:23Z</time>
      </trkpt>
      <trkpt lat="43.94849" lon="5.18062">
        <ele>603.36</ele>
        <time>2016-01-15T11:58:37Z</time>
      </trkpt>
      <trkpt lat="43.94849" lon="5.18062">
        <ele>603.36</ele>
        <time>2016-01-15T11:58:51Z</time>
      </trkpt>
      <trkpt lat="43.94849" lon="5.18062">
        <ele>603.36</ele>
        <time>2016-01-15T11:59:03Z</time>
      </trkpt>
      <trkpt lat="43.9485" lon="5.18062">
        <ele>603.36</ele>
        <time>2016-01-15T11:59:18Z</time>
      </trkpt>
      <trkpt lat="43.9485" lon="5.18062">
        <ele>602.88</ele>
        <time>2016-01-15T11:59:32Z</time>
      </trkpt>
      <trkpt lat="43.9485" lon="5.18062">
        <ele>602.4</ele>
        <time>2016-01-15T11:59:44Z</time>
      </trkpt>
      <trkpt lat="43.94851" lon="5.18061">
        <ele>602.88</ele>
        <time>2016-01-15T12:00:03Z</time>
      </trkpt>
      <trkpt lat="43.94851" lon="5.18061">
        <ele>603.85</ele>
        <time>2016-01-15T12:00:17Z</time>
      </trkpt>
      <trkpt lat="43.94856" lon="5.18056">
        <ele>602.88</ele>
        <time>2016-01-15T12:00:28Z</time>
      </trkpt>
      <trkpt lat="43.94856" lon="5.18055">
        <ele>602.88</ele>
        <time>2016-01-15T12:00:29Z</time>
      </trkpt>
      <trkpt lat="43.94856" lon="5.18049">
        <ele>603.36</ele>
        <time>2016-01-15T12:00:41Z</time>
      </trkpt>
      <trkpt lat="43.94855" lon="5.18051">
        <ele>602.88</ele>
        <time>2016-01-15T12:00:57Z</time>
      </trkpt>
      <trkpt lat="43.94854" lon="5.18052">
        <ele>602.4</ele>
        <time>2016-01-15T12:01:11Z</time>
      </trkpt>
      <trkpt lat="43.94853" lon="5.18055">
        <ele>602.4</ele>
        <time>2016-01-15T12:01:22Z</time>
      </trkpt>
      <trkpt lat="43.94852" lon="5.18057">
        <ele>602.4</ele>
        <time>2016-01-15T12:01:37Z</time>
      </trkpt>
      <trkpt lat="43.94852" lon="5.18058">
        <ele>602.4</ele>
        <time>2016-01-15T12:01:52Z</time>
      </trkpt>
      <trkpt lat="43.94852" lon="5.18058">
        <ele>602.4</ele>
        <time>2016-01-15T12:02:04Z</time>
      </trkpt>
      <trkpt lat="43.94851" lon="5.18059">
        <ele>602.4</ele>
        <time>2016-01-15T12:02:18Z</time>
      </trkpt>
      <trkpt lat="43.94851" lon="5.18059">
        <ele>602.4</ele>
        <time>2016-01-15T12:02:27Z</time>
      </trkpt>
      <trkpt lat="43.94851" lon="5.18058">
        <ele>602.4</ele>
        <time>2016-01-15T12:02:40Z</time>
      </trkpt>
      <trkpt lat="43.9485" lon="5.18059">
        <ele>601.92</ele>
        <time>2016-01-15T12:02:55Z</time>
      </trkpt>
      <trkpt lat="43.9485" lon="5.18059">
        <ele>601.92</ele>
        <time>2016-01-15T12:03:08Z</time>
      </trkpt>
      <trkpt lat="43.9485" lon="5.1806">
        <ele>602.4</ele>
        <time>2016-01-15T12:03:22Z</time>
      </trkpt>
      <trkpt lat="43.9485" lon="5.18061">
        <ele>601.92</ele>
        <time>2016-01-15T12:03:36Z</time>
      </trkpt>
      <trkpt lat="43.9485" lon="5.18061">
        <ele>601.92</ele>
        <time>2016-01-15T12:03:52Z</time>
      </trkpt>
      <trkpt lat="43.94851" lon="5.18062">
        <ele>601.92</ele>
        <time>2016-01-15T12:04:05Z</time>
      </trkpt>
      <trkpt lat="43.94851" lon="5.18063">
        <ele>601.92</ele>
        <time>2016-01-15T12:04:19Z</time>
      </trkpt>
      <trkpt lat="43.94851" lon="5.18064">
        <ele>601.92</ele>
        <time>2016-01-15T12:04:33Z</time>
      </trkpt>
      <trkpt lat="43.94851" lon="5.18065">
        <ele>601.92</ele>
        <time>2016-01-15T12:04:47Z</time>
      </trkpt>
      <trkpt lat="43.94851" lon="5.18065">
        <ele>600.96</ele>
        <time>2016-01-15T12:05:00Z</time>
      </trkpt>
      <trkpt lat="43.94852" lon="5.18065">
        <ele>600.96</ele>
        <time>2016-01-15T12:05:13Z</time>
      </trkpt>
      <trkpt lat="43.94852" lon="5.18068">
        <ele>601.44</ele>
        <time>2016-01-15T12:05:24Z</time>
      </trkpt>
      <trkpt lat="43.94852" lon="5.18067">
        <ele>601.44</ele>
        <time>2016-01-15T12:05:37Z</time>
      </trkpt>
      <trkpt lat="43.94854" lon="5.18068">
        <ele>601.44</ele>
        <time>2016-01-15T12:05:48Z</time>
      </trkpt>
      <trkpt lat="43.94853" lon="5.18069">
        <ele>601.92</ele>
        <time>2016-01-15T12:05:58Z</time>
      </trkpt>
      <trkpt lat="43.94852" lon="5.18069">
        <ele>601.44</ele>
        <time>2016-01-15T12:06:10Z</time>
      </trkpt>
      <trkpt lat="43.94852" lon="5.1807">
        <ele>601.92</ele>
        <time>2016-01-15T12:06:22Z</time>
      </trkpt>
      <trkpt lat="43.94851" lon="5.18071">
        <ele>601.44</ele>
        <time>2016-01-15T12:06:35Z</time>
      </trkpt>
      <trkpt lat="43.94851" lon="5.18071">
        <ele>600.96</ele>
        <time>2016-01-15T12:06:49Z</time>
      </trkpt>
      <trkpt lat="43.94851" lon="5.18071">
        <ele>601.44</ele>
        <time>2016-01-15T12:07:04Z</time>
      </trkpt>
      <trkpt lat="43.9485" lon="5.18071">
        <ele>601.44</ele>
        <time>2016-01-15T12:07:18Z</time>
      </trkpt>
      <trkpt lat="43.9485" lon="5.18072">
        <ele>601.92</ele>
        <time>2016-01-15T12:07:30Z</time>
      </trkpt>
      <trkpt lat="43.94849" lon="5.18071">
        <ele>601.92</ele>
        <time>2016-01-15T12:07:42Z</time>
      </trkpt>
      <trkpt lat="43.94849" lon="5.1807">
        <ele>601.44</ele>
        <time>2016-01-15T12:07:56Z</time>
      </trkpt>
      <trkpt lat="43.94849" lon="5.1807">
        <ele>601.92</ele>
        <time>2016-01-15T12:08:09Z</time>
      </trkpt>
      <trkpt lat="43.94849" lon="5.1807">
        <ele>602.4</ele>
        <time>2016-01-15T12:08:24Z</time>
      </trkpt>
      <trkpt lat="43.94849" lon="5.18071">
        <ele>601.92</ele>
        <time>2016-01-15T12:08:39Z</time>
      </trkpt>
      <trkpt lat="43.9485" lon="5.1807">
        <ele>601.92</ele>
        <time>2016-01-15T12:08:49Z</time>
      </trkpt>
      <trkpt lat="43.9485" lon="5.1807">
        <ele>601.92</ele>
        <time>2016-01-15T12:08:53Z</time>
      </trkpt>
      <trkpt lat="43.94851" lon="5.18068">
        <ele>601.92</ele>
        <time>2016-01-15T12:09:02Z</time>
      </trkpt>
      <trkpt lat="43.94851" lon="5.18068">
        <ele>601.92</ele>
        <time>2016-01-15T12:09:15Z</time>
      </trkpt>
      <trkpt lat="43.9485" lon="5.18066">
        <ele>602.4</ele>
        <time>2016-01-15T12:09:24Z</time>
      </trkpt>
      <trkpt lat="43.9485" lon="5.18065">
        <ele>601.92</ele>
        <time>2016-01-15T12:09:32Z</time>
      </trkpt>
      <trkpt lat="43.9485" lon="5.18066">
        <ele>602.4</ele>
        <time>2016-01-15T12:09:41Z</time>
      </trkpt>
      <trkpt lat="43.94852" lon="5.18064">
        <ele>602.4</ele>
        <time>2016-01-15T12:09:50Z</time>
      </trkpt>
      <trkpt lat="43.94852" lon="5.18065">
        <ele>602.4</ele>
        <time>2016-01-15T12:09:57Z</time>
      </trkpt>
      <trkpt lat="43.94852" lon="5.18065">
        <ele>602.4</ele>
        <time>2016-01-15T12:10:07Z</time>
      </trkpt>
      <trkpt lat="43.94852" lon="5.18064">
        <ele>602.4</ele>
        <time>2016-01-15T12:10:21Z</time>
      </trkpt>
      <trkpt lat="43.94852" lon="5.18064">
        <ele>602.4</ele>
        <time>2016-01-15T12:10:34Z</time>
      </trkpt>
      <trkpt lat="43.94852" lon="5.18064">
        <ele>601.92</ele>
        <time>2016-01-15T12:10:44Z</time>
      </trkpt>
      <trkpt lat="43.94852" lon="5.18064">
        <ele>601.92</ele>
        <time>2016-01-15T12:10:55Z</time>
      </trkpt>
      <trkpt lat="43.94852" lon="5.18065">
        <ele>602.4</ele>
        <time>2016-01-15T12:11:08Z</time>
      </trkpt>
      <trkpt lat="43.94852" lon="5.18066">
        <ele>602.4</ele>
        <time>2016-01-15T12:11:24Z</time>
      </trkpt>
      <trkpt lat="43.94852" lon="5.18066">
        <ele>602.4</ele>
        <time>2016-01-15T12:11:40Z</time>
      </trkpt>
      <trkpt lat="43.94853" lon="5.18065">
        <ele>601.92</ele>
        <time>2016-01-15T12:11:55Z</time>
      </trkpt>
      <trkpt lat="43.94854" lon="5.18065">
        <ele>602.4</ele>
        <time>2016-01-15T12:12:11Z</time>
      </trkpt>
      <trkpt lat="43.94853" lon="5.18065">
        <ele>601.92</ele>
        <time>2016-01-15T12:12:26Z</time>
      </trkpt>
      <trkpt lat="43.94852" lon="5.18065">
        <ele>601.92</ele>
        <time>2016-01-15T12:12:38Z</time>
      </trkpt>
      <trkpt lat="43.94851" lon="5.18062">
        <ele>602.4</ele>
        <time>2016-01-15T12:12:51Z</time>
      </trkpt>
      <trkpt lat="43.9485" lon="5.18061">
        <ele>601.92</ele>
        <time>2016-01-15T12:13:00Z</time>
      </trkpt>
      <trkpt lat="43.94846" lon="5.18058">
        <ele>601.92</ele>
        <time>2016-01-15T12:13:08Z</time>
      </trkpt>
      <trkpt lat="43.94848" lon="5.18054">
        <ele>602.4</ele>
        <time>2016-01-15T12:13:10Z</time>
      </trkpt>
      <trkpt lat="43.94853" lon="5.18044">
        <ele>603.36</ele>
        <time>2016-01-15T12:13:17Z</time>
      </trkpt>
      <trkpt lat="43.94854" lon="5.18042">
        <ele>602.4</ele>
        <time>2016-01-15T12:13:30Z</time>
      </trkpt>
      <trkpt lat="43.94853" lon="5.18041">
        <ele>602.88</ele>
        <time>2016-01-15T12:13:47Z</time>
      </trkpt>
      <trkpt lat="43.94852" lon="5.18043">
        <ele>601.92</ele>
        <time>2016-01-15T12:13:55Z</time>
      </trkpt>
      <trkpt lat="43.94852" lon="5.18049">
        <ele>601.92</ele>
        <time>2016-01-15T12:13:59Z</time>
      </trkpt>
      <trkpt lat="43.94851" lon="5.18055">
        <ele>601.92</ele>
        <time>2016-01-15T12:14:06Z</time>
      </trkpt>
      <trkpt lat="43.9485" lon="5.18056">
        <ele>601.92</ele>
        <time>2016-01-15T12:14:18Z</time>
      </trkpt>
      <trkpt lat="43.94851" lon="5.18058">
        <ele>601.44</ele>
        <time>2016-01-15T12:14:32Z</time>
      </trkpt>
      <trkpt lat="43.94851" lon="5.1806">
        <ele>601.44</ele>
        <time>2016-01-15T12:14:49Z</time>
      </trkpt>
      <trkpt lat="43.94853" lon="5.18061">
        <ele>601.44</ele>
        <time>2016-01-15T12:14:59Z</time>
      </trkpt>
      <trkpt lat="43.94853" lon="5.18061">
        <ele>601.92</ele>
        <time>2016-01-15T12:15:13Z</time>
      </trkpt>
      <trkpt lat="43.94853" lon="5.18061">
        <ele>601.44</ele>
        <time>2016-01-15T12:15:25Z</time>
      </trkpt>
      <trkpt lat="43.94853" lon="5.18061">
        <ele>601.44</ele>
        <time>2016-01-15T12:15:37Z</time>
      </trkpt>
      <trkpt lat="43.94853" lon="5.18061">
        <ele>600.96</ele>
        <time>2016-01-15T12:15:52Z</time>
      </trkpt>
      <trkpt lat="43.94853" lon="5.18061">
        <ele>601.92</ele>
        <time>2016-01-15T12:16:06Z</time>
      </trkpt>
      <trkpt lat="43.94854" lon="5.18061">
        <ele>601.92</ele>
        <time>2016-01-15T12:16:20Z</time>
      </trkpt>
      <trkpt lat="43.94854" lon="5.18061">
        <ele>601.44</ele>
        <time>2016-01-15T12:16:32Z</time>
      </trkpt>
      <trkpt lat="43.94854" lon="5.18061">
        <ele>600.96</ele>
        <time>2016-01-15T12:16:46Z</time>
      </trkpt>
      <trkpt lat="43.94854" lon="5.18061">
        <ele>601.44</ele>
        <time>2016-01-15T12:17:02Z</time>
      </trkpt>
      <trkpt lat="43.94855" lon="5.18062">
        <ele>601.44</ele>
        <time>2016-01-15T12:17:17Z</time>
      </trkpt>
      <trkpt lat="43.94856" lon="5.18062">
        <ele>601.44</ele>
        <time>2016-01-15T12:17:32Z</time>
      </trkpt>
      <trkpt lat="43.94855" lon="5.18061">
        <ele>601.44</ele>
        <time>2016-01-15T12:17:45Z</time>
      </trkpt>
      <trkpt lat="43.94854" lon="5.1806">
        <ele>601.44</ele>
        <time>2016-01-15T12:17:57Z</time>
      </trkpt>
      <trkpt lat="43.94855" lon="5.18062">
        <ele>600.96</ele>
        <time>2016-01-15T12:18:10Z</time>
      </trkpt>
      <trkpt lat="43.94855" lon="5.18058">
        <ele>600.96</ele>
        <time>2016-01-15T12:18:20Z</time>
      </trkpt>
      <trkpt lat="43.94855" lon="5.18058">
        <ele>600.96</ele>
        <time>2016-01-15T12:18:32Z</time>
      </trkpt>
      <trkpt lat="43.94851" lon="5.18052">
        <ele>600.96</ele>
        <time>2016-01-15T12:18:42Z</time>
      </trkpt>
      <trkpt lat="43.94852" lon="5.18053">
        <ele>601.44</ele>
        <time>2016-01-15T12:18:52Z</time>
      </trkpt>
      <trkpt lat="43.94851" lon="5.18055">
        <ele>600.48</ele>
        <time>2016-01-15T12:19:02Z</time>
      </trkpt>
      <trkpt lat="43.94851" lon="5.18054">
        <ele>600.96</ele>
        <time>2016-01-15T12:19:13Z</time>
      </trkpt>
      <trkpt lat="43.94852" lon="5.18059">
        <ele>600.96</ele>
        <time>2016-01-15T12:19:23Z</time>
      </trkpt>
      <trkpt lat="43.94852" lon="5.18061">
        <ele>600.96</ele>
        <time>2016-01-15T12:19:25Z</time>
      </trkpt>
      <trkpt lat="43.94858" lon="5.18059">
        <ele>600.96</ele>
        <time>2016-01-15T12:19:36Z</time>
      </trkpt>
      <trkpt lat="43.94857" lon="5.18059">
        <ele>601.44</ele>
        <time>2016-01-15T12:19:51Z</time>
      </trkpt>
      <trkpt lat="43.94852" lon="5.18053">
        <ele>600.96</ele>
        <time>2016-01-15T12:20:00Z</time>
      </trkpt>
      <trkpt lat="43.94853" lon="5.18053">
        <ele>600.48</ele>
        <time>2016-01-15T12:20:13Z</time>
      </trkpt>
      <trkpt lat="43.94853" lon="5.18054">
        <ele>600.96</ele>
        <time>2016-01-15T12:20:28Z</time>
      </trkpt>
      <trkpt lat="43.94853" lon="5.18054">
        <ele>600.96</ele>
        <time>2016-01-15T12:20:41Z</time>
      </trkpt>
      <trkpt lat="43.94854" lon="5.18054">
        <ele>600.96</ele>
        <time>2016-01-15T12:20:53Z</time>
      </trkpt>
      <trkpt lat="43.94854" lon="5.18054">
        <ele>600.96</ele>
        <time>2016-01-15T12:21:05Z</time>
      </trkpt>
      <trkpt lat="43.94854" lon="5.18055">
        <ele>600.48</ele>
        <time>2016-01-15T12:21:16Z</time>
      </trkpt>
      <trkpt lat="43.94855" lon="5.18057">
        <ele>600.96</ele>
        <time>2016-01-15T12:21:28Z</time>
      </trkpt>
      <trkpt lat="43.94855" lon="5.18058">
        <ele>600.48</ele>
        <time>2016-01-15T12:21:43Z</time>
      </trkpt>
      <trkpt lat="43.94852" lon="5.18063">
        <ele>600.48</ele>
        <time>2016-01-15T12:21:55Z</time>
      </trkpt>
      <trkpt lat="43.94851" lon="5.1807">
        <ele>600.48</ele>
        <time>2016-01-15T12:22:12Z</time>
      </trkpt>
      <trkpt lat="43.94851" lon="5.18058">
        <ele>600.48</ele>
        <time>2016-01-15T12:22:25Z</time>
      </trkpt>
      <trkpt lat="43.94853" lon="5.18059">
        <ele>600.48</ele>
        <time>2016-01-15T12:22:34Z</time>
      </trkpt>
      <trkpt lat="43.94853" lon="5.18061">
        <ele>600.96</ele>
        <time>2016-01-15T12:22:48Z</time>
      </trkpt>
      <trkpt lat="43.94852" lon="5.18061">
        <ele>600.48</ele>
        <time>2016-01-15T12:23:01Z</time>
      </trkpt>
      <trkpt lat="43.94851" lon="5.18063">
        <ele>600.48</ele>
        <time>2016-01-15T12:23:15Z</time>
      </trkpt>
      <trkpt lat="43.94853" lon="5.1806">
        <ele>600.48</ele>
        <time>2016-01-15T12:23:23Z</time>
      </trkpt>
      <trkpt lat="43.94861" lon="5.18056">
        <ele>600</ele>
        <time>2016-01-15T12:23:38Z</time>
      </trkpt>
      <trkpt lat="43.94858" lon="5.18062">
        <ele>600</ele>
        <time>2016-01-15T12:23:51Z</time>
      </trkpt>
      <trkpt lat="43.94857" lon="5.18065">
        <ele>600.48</ele>
        <time>2016-01-15T12:24:05Z</time>
      </trkpt>
      <trkpt lat="43.94856" lon="5.18065">
        <ele>600.48</ele>
        <time>2016-01-15T12:24:18Z</time>
      </trkpt>
      <trkpt lat="43.94855" lon="5.18064">
        <ele>600.48</ele>
        <time>2016-01-15T12:24:31Z</time>
      </trkpt>
      <trkpt lat="43.94854" lon="5.18065">
        <ele>600.48</ele>
        <time>2016-01-15T12:24:42Z</time>
      </trkpt>
      <trkpt lat="43.94854" lon="5.18066">
        <ele>601.44</ele>
        <time>2016-01-15T12:24:58Z</time>
      </trkpt>
      <trkpt lat="43.94854" lon="5.18068">
        <ele>600.48</ele>
        <time>2016-01-15T12:25:08Z</time>
      </trkpt>
      <trkpt lat="43.94855" lon="5.18065">
        <ele>600.48</ele>
        <time>2016-01-15T12:25:21Z</time>
      </trkpt>
      <trkpt lat="43.94855" lon="5.18064">
        <ele>600.96</ele>
        <time>2016-01-15T12:25:31Z</time>
      </trkpt>
      <trkpt lat="43.94855" lon="5.18064">
        <ele>600.96</ele>
        <time>2016-01-15T12:25:46Z</time>
      </trkpt>
      <trkpt lat="43.94855" lon="5.18064">
        <ele>600.48</ele>
        <time>2016-01-15T12:26:00Z</time>
      </trkpt>
      <trkpt lat="43.94855" lon="5.18064">
        <ele>600.48</ele>
        <time>2016-01-15T12:26:14Z</time>
      </trkpt>
      <trkpt lat="43.94853" lon="5.1806">
        <ele>600.96</ele>
        <time>2016-01-15T12:26:27Z</time>
      </trkpt>
      <trkpt lat="43.94853" lon="5.1806">
        <ele>600.48</ele>
        <time>2016-01-15T12:26:36Z</time>
      </trkpt>
      <trkpt lat="43.94854" lon="5.18061">
        <ele>600.48</ele>
        <time>2016-01-15T12:26:48Z</time>
      </trkpt>
      <trkpt lat="43.94854" lon="5.18063">
        <ele>600.48</ele>
        <time>2016-01-15T12:27:01Z</time>
      </trkpt>
      <trkpt lat="43.94856" lon="5.18063">
        <ele>600.48</ele>
        <time>2016-01-15T12:27:13Z</time>
      </trkpt>
      <trkpt lat="43.94857" lon="5.18062">
        <ele>600.48</ele>
        <time>2016-01-15T12:27:25Z</time>
      </trkpt>
      <trkpt lat="43.94857" lon="5.18062">
        <ele>600.48</ele>
        <time>2016-01-15T12:27:39Z</time>
      </trkpt>
      <trkpt lat="43.94855" lon="5.18062">
        <ele>600.48</ele>
        <time>2016-01-15T12:27:49Z</time>
      </trkpt>
      <trkpt lat="43.94851" lon="5.18063">
        <ele>600.48</ele>
        <time>2016-01-15T12:28:01Z</time>
      </trkpt>
      <trkpt lat="43.94852" lon="5.18062">
        <ele>600.48</ele>
        <time>2016-01-15T12:28:12Z</time>
      </trkpt>
      <trkpt lat="43.9485" lon="5.18058">
        <ele>600.48</ele>
        <time>2016-01-15T12:28:22Z</time>
      </trkpt>
      <trkpt lat="43.9485" lon="5.18055">
        <ele>600</ele>
        <time>2016-01-15T12:28:36Z</time>
      </trkpt>
      <trkpt lat="43.9485" lon="5.18055">
        <ele>601.44</ele>
        <time>2016-01-15T12:28:41Z</time>
      </trkpt>
      <trkpt lat="43.94851" lon="5.18055">
        <ele>600.96</ele>
        <time>2016-01-15T12:28:52Z</time>
      </trkpt>
      <trkpt lat="43.9485" lon="5.18056">
        <ele>600.96</ele>
        <time>2016-01-15T12:29:05Z</time>
      </trkpt>
      <trkpt lat="43.94851" lon="5.18055">
        <ele>600.96</ele>
        <time>2016-01-15T12:29:19Z</time>
      </trkpt>
      <trkpt lat="43.94851" lon="5.18056">
        <ele>600.48</ele>
        <time>2016-01-15T12:29:33Z</time>
      </trkpt>
      <trkpt lat="43.94852" lon="5.18057">
        <ele>600.96</ele>
        <time>2016-01-15T12:29:50Z</time>
      </trkpt>
      <trkpt lat="43.94852" lon="5.18057">
        <ele>601.92</ele>
        <time>2016-01-15T12:30:05Z</time>
      </trkpt>
      <trkpt lat="43.94852" lon="5.18057">
        <ele>600.96</ele>
        <time>2016-01-15T12:30:19Z</time>
      </trkpt>
      <trkpt lat="43.94851" lon="5.18055">
        <ele>600.96</ele>
        <time>2016-01-15T12:30:32Z</time>
      </trkpt>
      <trkpt lat="43.94852" lon="5.18055">
        <ele>600.96</ele>
        <time>2016-01-15T12:30:48Z</time>
      </trkpt>
      <trkpt lat="43.94857" lon="5.18054">
        <ele>600.96</ele>
        <time>2016-01-15T12:30:58Z</time>
      </trkpt>
      <trkpt lat="43.94858" lon="5.18054">
        <ele>598.08</ele>
        <time>2016-01-15T12:31:12Z</time>
      </trkpt>
      <trkpt lat="43.94858" lon="5.18054">
        <ele>603.36</ele>
        <time>2016-01-15T12:31:13Z</time>
      </trkpt>
      <trkpt lat="43.94856" lon="5.18054">
        <ele>601.44</ele>
        <time>2016-01-15T12:31:24Z</time>
      </trkpt>
      <trkpt lat="43.94854" lon="5.18057">
        <ele>601.44</ele>
        <time>2016-01-15T12:31:36Z</time>
      </trkpt>
      <trkpt lat="43.94853" lon="5.18062">
        <ele>600.96</ele>
        <time>2016-01-15T12:31:47Z</time>
      </trkpt>
      <trkpt lat="43.94853" lon="5.1806">
        <ele>605.29</ele>
        <time>2016-01-15T12:31:58Z</time>
      </trkpt>
      <trkpt lat="43.94853" lon="5.18052">
        <ele>603.85</ele>
        <time>2016-01-15T12:32:03Z</time>
      </trkpt>
      <trkpt lat="43.94854" lon="5.1805">
        <ele>602.4</ele>
        <time>2016-01-15T12:32:04Z</time>
      </trkpt>
      <trkpt lat="43.94853" lon="5.18056">
        <ele>601.44</ele>
        <time>2016-01-15T12:32:13Z</time>
      </trkpt>
      <trkpt lat="43.94852" lon="5.18057">
        <ele>601.44</ele>
        <time>2016-01-15T12:32:27Z</time>
      </trkpt>
      <trkpt lat="43.94852" lon="5.18058">
        <ele>601.44</ele>
        <time>2016-01-15T12:32:38Z</time>
      </trkpt>
      <trkpt lat="43.94852" lon="5.18058">
        <ele>601.44</ele>
        <time>2016-01-15T12:32:50Z</time>
      </trkpt>
      <trkpt lat="43.94853" lon="5.1806">
        <ele>600.96</ele>
        <time>2016-01-15T12:33:01Z</time>
      </trkpt>
      <trkpt lat="43.94853" lon="5.18062">
        <ele>600.96</ele>
        <time>2016-01-15T12:33:14Z</time>
      </trkpt>
      <trkpt lat="43.94854" lon="5.18062">
        <ele>600.96</ele>
        <time>2016-01-15T12:33:31Z</time>
      </trkpt>
      <trkpt lat="43.94854" lon="5.18062">
        <ele>600.96</ele>
        <time>2016-01-15T12:33:32Z</time>
      </trkpt>
      <trkpt lat="43.94853" lon="5.18062">
        <ele>601.92</ele>
        <time>2016-01-15T12:33:43Z</time>
      </trkpt>
      <trkpt lat="43.94853" lon="5.18061">
        <ele>601.44</ele>
        <time>2016-01-15T12:33:53Z</time>
      </trkpt>
      <trkpt lat="43.94854" lon="5.18056">
        <ele>601.44</ele>
        <time>2016-01-15T12:34:02Z</time>
      </trkpt>
      <trkpt lat="43.94859" lon="5.18057">
        <ele>601.92</ele>
        <time>2016-01-15T12:34:13Z</time>
      </trkpt>
      <trkpt lat="43.94856" lon="5.18062">
        <ele>601.44</ele>
        <time>2016-01-15T12:34:25Z</time>
      </trkpt>
      <trkpt lat="43.94857" lon="5.18062">
        <ele>601.44</ele>
        <time>2016-01-15T12:34:35Z</time>
      </trkpt>
      <trkpt lat="43.9486" lon="5.18056">
        <ele>601.92</ele>
        <time>2016-01-15T12:34:45Z</time>
      </trkpt>
      <trkpt lat="43.94859" lon="5.18055">
        <ele>601.44</ele>
        <time>2016-01-15T12:34:57Z</time>
      </trkpt>
      <trkpt lat="43.94857" lon="5.18055">
        <ele>601.92</ele>
        <time>2016-01-15T12:35:08Z</time>
      </trkpt>
      <trkpt lat="43.94857" lon="5.18055">
        <ele>601.92</ele>
        <time>2016-01-15T12:35:19Z</time>
      </trkpt>
      <trkpt lat="43.94853" lon="5.18062">
        <ele>601.92</ele>
        <time>2016-01-15T12:35:31Z</time>
      </trkpt>
      <trkpt lat="43.94855" lon="5.18057">
        <ele>602.4</ele>
        <time>2016-01-15T12:35:42Z</time>
      </trkpt>
      <trkpt lat="43.94856" lon="5.18055">
        <ele>602.4</ele>
        <time>2016-01-15T12:35:52Z</time>
      </trkpt>
      <trkpt lat="43.94858" lon="5.18047">
        <ele>602.4</ele>
        <time>2016-01-15T12:36:05Z</time>
      </trkpt>
      <trkpt lat="43.94862" lon="5.18031">
        <ele>602.4</ele>
        <time>2016-01-15T12:36:23Z</time>
      </trkpt>
      <trkpt lat="43.94858" lon="5.18039">
        <ele>602.4</ele>
        <time>2016-01-15T12:36:33Z</time>
      </trkpt>
      <trkpt lat="43.94856" lon="5.18044">
        <ele>602.4</ele>
        <time>2016-01-15T12:36:37Z</time>
      </trkpt>
      <trkpt lat="43.94854" lon="5.18067">
        <ele>602.88</ele>
        <time>2016-01-15T12:36:49Z</time>
      </trkpt>
      <trkpt lat="43.94856" lon="5.18066">
        <ele>601.92</ele>
        <time>2016-01-15T12:37:00Z</time>
      </trkpt>
      <trkpt lat="43.94856" lon="5.18061">
        <ele>601.92</ele>
        <time>2016-01-15T12:37:11Z</time>
      </trkpt>
      <trkpt lat="43.94856" lon="5.18059">
        <ele>602.4</ele>
        <time>2016-01-15T12:37:26Z</time>
      </trkpt>
      <trkpt lat="43.94854" lon="5.18057">
        <ele>602.4</ele>
        <time>2016-01-15T12:37:38Z</time>
      </trkpt>
      <trkpt lat="43.94854" lon="5.1805">
        <ele>602.4</ele>
        <time>2016-01-15T12:38:02Z</time>
      </trkpt>
      <trkpt lat="43.94857" lon="5.18048">
        <ele>602.88</ele>
        <time>2016-01-15T12:38:19Z</time>
      </trkpt>
      <trkpt lat="43.94847" lon="5.1805">
        <ele>602.4</ele>
        <time>2016-01-15T12:38:31Z</time>
      </trkpt>
      <trkpt lat="43.94847" lon="5.18049">
        <ele>602.4</ele>
        <time>2016-01-15T12:38:44Z</time>
      </trkpt>
      <trkpt lat="43.94848" lon="5.1805">
        <ele>602.4</ele>
        <time>2016-01-15T12:38:55Z</time>
      </trkpt>
      <trkpt lat="43.94851" lon="5.18055">
        <ele>602.4</ele>
        <time>2016-01-15T12:39:11Z</time>
      </trkpt>
      <trkpt lat="43.94851" lon="5.18055">
        <ele>602.4</ele>
        <time>2016-01-15T12:39:26Z</time>
      </trkpt>
      <trkpt lat="43.94851" lon="5.18054">
        <ele>602.88</ele>
        <time>2016-01-15T12:39:41Z</time>
      </trkpt>
      <trkpt lat="43.94851" lon="5.18054">
        <ele>602.88</ele>
        <time>2016-01-15T12:39:59Z</time>
      </trkpt>
      <trkpt lat="43.94851" lon="5.18054">
        <ele>602.88</ele>
        <time>2016-01-15T12:40:23Z</time>
      </trkpt>
      <trkpt lat="43.9485" lon="5.18055">
        <ele>602.88</ele>
        <time>2016-01-15T12:40:36Z</time>
      </trkpt>
      <trkpt lat="43.94852" lon="5.18057">
        <ele>602.88</ele>
        <time>2016-01-15T12:40:45Z</time>
      </trkpt>
      <trkpt lat="43.9486" lon="5.18071">
        <ele>603.36</ele>
        <time>2016-01-15T12:40:57Z</time>
      </trkpt>
      <trkpt lat="43.9486" lon="5.18075">
        <ele>603.36</ele>
        <time>2016-01-15T12:41:00Z</time>
      </trkpt>
      <trkpt lat="43.9485" lon="5.18065">
        <ele>603.36</ele>
        <time>2016-01-15T12:41:20Z</time>
      </trkpt>
      <trkpt lat="43.94849" lon="5.18058">
        <ele>603.36</ele>
        <time>2016-01-15T12:41:28Z</time>
      </trkpt>
      <trkpt lat="43.94843" lon="5.18057">
        <ele>603.36</ele>
        <time>2016-01-15T12:41:33Z</time>
      </trkpt>
      <trkpt lat="43.94828" lon="5.18066">
        <ele>602.88</ele>
        <time>2016-01-15T12:41:45Z</time>
      </trkpt>
      <trkpt lat="43.94842" lon="5.18069">
        <ele>602.88</ele>
        <time>2016-01-15T12:42:07Z</time>
      </trkpt>
      <trkpt lat="43.9485" lon="5.18064">
        <ele>603.85</ele>
        <time>2016-01-15T12:42:21Z</time>
      </trkpt>
      <trkpt lat="43.9485" lon="5.18062">
        <ele>603.36</ele>
        <time>2016-01-15T12:42:34Z</time>
      </trkpt>
      <trkpt lat="43.94851" lon="5.18061">
        <ele>603.36</ele>
        <time>2016-01-15T12:42:46Z</time>
      </trkpt>
      <trkpt lat="43.94852" lon="5.18061">
        <ele>603.85</ele>
        <time>2016-01-15T12:42:59Z</time>
      </trkpt>
      <trkpt lat="43.94852" lon="5.18059">
        <ele>603.36</ele>
        <time>2016-01-15T12:43:10Z</time>
      </trkpt>
      <trkpt lat="43.94852" lon="5.18059">
        <ele>602.4</ele>
        <time>2016-01-15T12:43:22Z</time>
      </trkpt>
      <trkpt lat="43.94854" lon="5.18057">
        <ele>603.36</ele>
        <time>2016-01-15T12:43:35Z</time>
      </trkpt>
      <trkpt lat="43.94852" lon="5.1805">
        <ele>602.88</ele>
        <time>2016-01-15T12:43:44Z</time>
      </trkpt>
      <trkpt lat="43.94852" lon="5.18052">
        <ele>603.36</ele>
        <time>2016-01-15T12:43:55Z</time>
      </trkpt>
      <trkpt lat="43.94855" lon="5.18058">
        <ele>603.36</ele>
        <time>2016-01-15T12:44:04Z</time>
      </trkpt>
      <trkpt lat="43.94854" lon="5.18056">
        <ele>602.88</ele>
        <time>2016-01-15T12:44:29Z</time>
      </trkpt>
      <trkpt lat="43.94846" lon="5.18057">
        <ele>602.88</ele>
        <time>2016-01-15T12:44:40Z</time>
      </trkpt>
      <trkpt lat="43.94839" lon="5.18058">
        <ele>603.36</ele>
        <time>2016-01-15T12:44:52Z</time>
      </trkpt>
      <trkpt lat="43.94836" lon="5.18042">
        <ele>602.4</ele>
        <time>2016-01-15T12:45:27Z</time>
      </trkpt>
      <trkpt lat="43.94847" lon="5.18056">
        <ele>602.88</ele>
        <time>2016-01-15T12:45:38Z</time>
      </trkpt>
      <trkpt lat="43.94851" lon="5.18056">
        <ele>602.88</ele>
        <time>2016-01-15T12:45:51Z</time>
      </trkpt>
      <trkpt lat="43.94852" lon="5.18054">
        <ele>603.36</ele>
        <time>2016-01-15T12:46:03Z</time>
      </trkpt>
      <trkpt lat="43.94827" lon="5.18098">
        <ele>616.34</ele>
        <time>2016-01-15T13:16:14Z</time>
      </trkpt>
      <trkpt lat="43.94829" lon="5.18097">
        <ele>616.34</ele>
        <time>2016-01-15T13:16:15Z</time>
      </trkpt>
      <trkpt lat="43.94842" lon="5.18094">
        <ele>616.82</ele>
        <time>2016-01-15T13:16:27Z</time>
      </trkpt>
      <trkpt lat="43.94844" lon="5.18092">
        <ele>616.82</ele>
        <time>2016-01-15T13:16:43Z</time>
      </trkpt>
      <trkpt lat="43.94845" lon="5.18084">
        <ele>617.3</ele>
        <time>2016-01-15T13:16:54Z</time>
      </trkpt>
      <trkpt lat="43.94843" lon="5.18083">
        <ele>616.82</ele>
        <time>2016-01-15T13:17:07Z</time>
      </trkpt>
      <trkpt lat="43.94854" lon="5.18066">
        <ele>616.82</ele>
        <time>2016-01-15T13:17:19Z</time>
      </trkpt>
      <trkpt lat="43.94852" lon="5.18055">
        <ele>616.82</ele>
        <time>2016-01-15T13:17:30Z</time>
      </trkpt>
      <trkpt lat="43.94845" lon="5.18058">
        <ele>616.82</ele>
        <time>2016-01-15T13:17:41Z</time>
      </trkpt>
      <trkpt lat="43.94847" lon="5.18059">
        <ele>616.82</ele>
        <time>2016-01-15T13:17:50Z</time>
      </trkpt>
      <trkpt lat="43.9485" lon="5.18057">
        <ele>617.78</ele>
        <time>2016-01-15T13:18:01Z</time>
      </trkpt>
      <trkpt lat="43.9485" lon="5.18057">
        <ele>616.82</ele>
        <time>2016-01-15T13:18:11Z</time>
      </trkpt>
      <trkpt lat="43.9485" lon="5.18059">
        <ele>616.34</ele>
        <time>2016-01-15T13:18:22Z</time>
      </trkpt>
      <trkpt lat="43.9485" lon="5.18056">
        <ele>616.34</ele>
        <time>2016-01-15T13:18:34Z</time>
      </trkpt>
      <trkpt lat="43.94851" lon="5.18054">
        <ele>616.82</ele>
        <time>2016-01-15T13:18:41Z</time>
      </trkpt>
      <trkpt lat="43.94851" lon="5.18054">
        <ele>621.63</ele>
        <time>2016-01-15T13:18:45Z</time>
      </trkpt>
      <trkpt lat="43.94851" lon="5.18054">
        <ele>616.34</ele>
        <time>2016-01-15T13:18:46Z</time>
      </trkpt>
      <trkpt lat="43.94851" lon="5.18053">
        <ele>615.86</ele>
        <time>2016-01-15T13:18:56Z</time>
      </trkpt>
      <trkpt lat="43.94851" lon="5.18053">
        <ele>616.34</ele>
        <time>2016-01-15T13:19:04Z</time>
      </trkpt>
      <trkpt lat="43.94852" lon="5.18052">
        <ele>615.86</ele>
        <time>2016-01-15T13:19:16Z</time>
      </trkpt>
      <trkpt lat="43.94853" lon="5.18052">
        <ele>615.86</ele>
        <time>2016-01-15T13:19:29Z</time>
      </trkpt>
      <trkpt lat="43.94855" lon="5.18054">
        <ele>616.34</ele>
        <time>2016-01-15T13:19:40Z</time>
      </trkpt>
      <trkpt lat="43.94854" lon="5.18054">
        <ele>616.34</ele>
        <time>2016-01-15T13:19:52Z</time>
      </trkpt>
      <trkpt lat="43.94852" lon="5.18054">
        <ele>615.38</ele>
        <time>2016-01-15T13:20:05Z</time>
      </trkpt>
      <trkpt lat="43.94853" lon="5.18056">
        <ele>615.38</ele>
        <time>2016-01-15T13:20:15Z</time>
      </trkpt>
      <trkpt lat="43.94855" lon="5.18058">
        <ele>614.9</ele>
        <time>2016-01-15T13:20:26Z</time>
      </trkpt>
      <trkpt lat="43.94855" lon="5.18061">
        <ele>614.42</ele>
        <time>2016-01-15T13:20:40Z</time>
      </trkpt>
      <trkpt lat="43.94854" lon="5.18062">
        <ele>614.9</ele>
        <time>2016-01-15T13:20:56Z</time>
      </trkpt>
      <trkpt lat="43.94854" lon="5.18063">
        <ele>615.38</ele>
        <time>2016-01-15T13:21:11Z</time>
      </trkpt>
      <trkpt lat="43.94854" lon="5.18063">
        <ele>615.38</ele>
        <time>2016-01-15T13:21:24Z</time>
      </trkpt>
      <trkpt lat="43.94854" lon="5.18063">
        <ele>614.9</ele>
        <time>2016-01-15T13:21:38Z</time>
      </trkpt>
      <trkpt lat="43.94854" lon="5.18064">
        <ele>614.9</ele>
        <time>2016-01-15T13:21:50Z</time>
      </trkpt>
      <trkpt lat="43.94853" lon="5.18063">
        <ele>613.94</ele>
        <time>2016-01-15T13:22:04Z</time>
      </trkpt>
      <trkpt lat="43.94851" lon="5.1806">
        <ele>614.9</ele>
        <time>2016-01-15T13:22:15Z</time>
      </trkpt>
      <trkpt lat="43.94848" lon="5.18058">
        <ele>614.9</ele>
        <time>2016-01-15T13:22:22Z</time>
      </trkpt>
      <trkpt lat="43.94846" lon="5.18058">
        <ele>614.42</ele>
        <time>2016-01-15T13:22:32Z</time>
      </trkpt>
      <trkpt lat="43.94846" lon="5.18057">
        <ele>614.42</ele>
        <time>2016-01-15T13:22:42Z</time>
      </trkpt>
      <trkpt lat="43.94845" lon="5.18057">
        <ele>614.42</ele>
        <time>2016-01-15T13:22:52Z</time>
      </trkpt>
      <trkpt lat="43.94845" lon="5.18055">
        <ele>613.94</ele>
        <time>2016-01-15T13:23:03Z</time>
      </trkpt>
      <trkpt lat="43.94845" lon="5.18056">
        <ele>613.94</ele>
        <time>2016-01-15T13:23:10Z</time>
      </trkpt>
      <trkpt lat="43.94846" lon="5.18056">
        <ele>613.94</ele>
        <time>2016-01-15T13:23:18Z</time>
      </trkpt>
      <trkpt lat="43.94847" lon="5.18056">
        <ele>613.94</ele>
        <time>2016-01-15T13:23:27Z</time>
      </trkpt>
      <trkpt lat="43.94847" lon="5.18056">
        <ele>613.94</ele>
        <time>2016-01-15T13:23:34Z</time>
      </trkpt>
      <trkpt lat="43.94846" lon="5.18057">
        <ele>612.98</ele>
        <time>2016-01-15T13:23:46Z</time>
      </trkpt>
      <trkpt lat="43.94846" lon="5.18057">
        <ele>613.46</ele>
        <time>2016-01-15T13:23:53Z</time>
      </trkpt>
      <trkpt lat="43.94846" lon="5.18057">
        <ele>612.5</ele>
        <time>2016-01-15T13:24:09Z</time>
      </trkpt>
      <trkpt lat="43.94847" lon="5.18057">
        <ele>612.5</ele>
        <time>2016-01-15T13:24:24Z</time>
      </trkpt>
      <trkpt lat="43.94846" lon="5.18058">
        <ele>612.98</ele>
        <time>2016-01-15T13:24:28Z</time>
      </trkpt>
      <trkpt lat="43.94845" lon="5.18057">
        <ele>612.02</ele>
        <time>2016-01-15T13:24:35Z</time>
      </trkpt>
      <trkpt lat="43.94843" lon="5.1806">
        <ele>612.98</ele>
        <time>2016-01-15T13:24:44Z</time>
      </trkpt>
      <trkpt lat="43.94841" lon="5.18062">
        <ele>612.02</ele>
        <time>2016-01-15T13:24:55Z</time>
      </trkpt>
      <trkpt lat="43.94837" lon="5.18065">
        <ele>612.5</ele>
        <time>2016-01-15T13:25:03Z</time>
      </trkpt>
      <trkpt lat="43.94836" lon="5.1807">
        <ele>612.98</ele>
        <time>2016-01-15T13:25:11Z</time>
      </trkpt>
      <trkpt lat="43.94833" lon="5.18071">
        <ele>612.98</ele>
        <time>2016-01-15T13:25:20Z</time>
      </trkpt>
      <trkpt lat="43.94824" lon="5.18076">
        <ele>612.98</ele>
        <time>2016-01-15T13:25:27Z</time>
      </trkpt>
      <trkpt lat="43.94816" lon="5.18076">
        <ele>613.46</ele>
        <time>2016-01-15T13:25:32Z</time>
      </trkpt>
      <trkpt lat="43.94806" lon="5.18074">
        <ele>612.98</ele>
        <time>2016-01-15T13:25:39Z</time>
      </trkpt>
      <trkpt lat="43.94803" lon="5.18077">
        <ele>613.46</ele>
        <time>2016-01-15T13:25:45Z</time>
      </trkpt>
      <trkpt lat="43.94803" lon="5.18077">
        <ele>613.46</ele>
        <time>2016-01-15T13:25:46Z</time>
      </trkpt>
      <trkpt lat="43.94798" lon="5.18078">
        <ele>612.98</ele>
        <time>2016-01-15T13:25:50Z</time>
      </trkpt>
      <trkpt lat="43.94795" lon="5.18082">
        <ele>612.5</ele>
        <time>2016-01-15T13:25:56Z</time>
      </trkpt>
      <trkpt lat="43.94791" lon="5.18084">
        <ele>613.46</ele>
        <time>2016-01-15T13:26:01Z</time>
      </trkpt>
      <trkpt lat="43.94785" lon="5.18087">
        <ele>612.98</ele>
        <time>2016-01-15T13:26:08Z</time>
      </trkpt>
      <trkpt lat="43.94782" lon="5.18089">
        <ele>612.5</ele>
        <time>2016-01-15T13:26:15Z</time>
      </trkpt>
      <trkpt lat="43.94775" lon="5.18091">
        <ele>612.98</ele>
        <time>2016-01-15T13:26:22Z</time>
      </trkpt>
      <trkpt lat="43.94772" lon="5.18091">
        <ele>612.5</ele>
        <time>2016-01-15T13:26:25Z</time>
      </trkpt>
      <trkpt lat="43.94766" lon="5.18091">
        <ele>612.02</ele>
        <time>2016-01-15T13:26:32Z</time>
      </trkpt>
      <trkpt lat="43.94755" lon="5.18095">
        <ele>612.02</ele>
        <time>2016-01-15T13:26:41Z</time>
      </trkpt>
      <trkpt lat="43.94746" lon="5.18097">
        <ele>611.06</ele>
        <time>2016-01-15T13:26:49Z</time>
      </trkpt>
      <trkpt lat="43.9474" lon="5.18096">
        <ele>611.06</ele>
        <time>2016-01-15T13:26:54Z</time>
      </trkpt>
      <trkpt lat="43.94733" lon="5.18099">
        <ele>610.57</ele>
        <time>2016-01-15T13:27:01Z</time>
      </trkpt>
      <trkpt lat="43.94727" lon="5.18101">
        <ele>611.06</ele>
        <time>2016-01-15T13:27:07Z</time>
      </trkpt>
      <trkpt lat="43.94724" lon="5.181">
        <ele>611.06</ele>
        <time>2016-01-15T13:27:09Z</time>
      </trkpt>
      <trkpt lat="43.94717" lon="5.181">
        <ele>610.57</ele>
        <time>2016-01-15T13:27:16Z</time>
      </trkpt>
      <trkpt lat="43.94716" lon="5.18099">
        <ele>610.57</ele>
        <time>2016-01-15T13:27:18Z</time>
      </trkpt>
      <trkpt lat="43.94705" lon="5.18101">
        <ele>610.09</ele>
        <time>2016-01-15T13:27:26Z</time>
      </trkpt>
      <trkpt lat="43.947" lon="5.18102">
        <ele>609.61</ele>
        <time>2016-01-15T13:27:31Z</time>
      </trkpt>
      <trkpt lat="43.94694" lon="5.18101">
        <ele>609.61</ele>
        <time>2016-01-15T13:27:37Z</time>
      </trkpt>
      <trkpt lat="43.94688" lon="5.18099">
        <ele>609.61</ele>
        <time>2016-01-15T13:27:42Z</time>
      </trkpt>
      <trkpt lat="43.94676" lon="5.18097">
        <ele>608.65</ele>
        <time>2016-01-15T13:27:51Z</time>
      </trkpt>
      <trkpt lat="43.94673" lon="5.18097">
        <ele>609.13</ele>
        <time>2016-01-15T13:27:54Z</time>
      </trkpt>
      <trkpt lat="43.94668" lon="5.18097">
        <ele>609.13</ele>
        <time>2016-01-15T13:27:58Z</time>
      </trkpt>
      <trkpt lat="43.94661" lon="5.18098">
        <ele>609.61</ele>
        <time>2016-01-15T13:28:02Z</time>
      </trkpt>
      <trkpt lat="43.94651" lon="5.18098">
        <ele>608.65</ele>
        <time>2016-01-15T13:28:10Z</time>
      </trkpt>
      <trkpt lat="43.94641" lon="5.18096">
        <ele>607.69</ele>
        <time>2016-01-15T13:28:18Z</time>
      </trkpt>
      <trkpt lat="43.94635" lon="5.18097">
        <ele>608.17</ele>
        <time>2016-01-15T13:28:23Z</time>
      </trkpt>
      <trkpt lat="43.94632" lon="5.18097">
        <ele>608.17</ele>
        <time>2016-01-15T13:28:25Z</time>
      </trkpt>
      <trkpt lat="43.94628" lon="5.18095">
        <ele>608.65</ele>
        <time>2016-01-15T13:28:29Z</time>
      </trkpt>
      <trkpt lat="43.9462" lon="5.18094">
        <ele>608.65</ele>
        <time>2016-01-15T13:28:37Z</time>
      </trkpt>
      <trkpt lat="43.94612" lon="5.18095">
        <ele>607.69</ele>
        <time>2016-01-15T13:28:42Z</time>
      </trkpt>
      <trkpt lat="43.94605" lon="5.18094">
        <ele>607.21</ele>
        <time>2016-01-15T13:28:47Z</time>
      </trkpt>
      <trkpt lat="43.94597" lon="5.18092">
        <ele>606.73</ele>
        <time>2016-01-15T13:28:54Z</time>
      </trkpt>
      <trkpt lat="43.94587" lon="5.18093">
        <ele>606.73</ele>
        <time>2016-01-15T13:29:01Z</time>
      </trkpt>
      <trkpt lat="43.94581" lon="5.18095">
        <ele>606.73</ele>
        <time>2016-01-15T13:29:06Z</time>
      </trkpt>
      <trkpt lat="43.94573" lon="5.18094">
        <ele>606.25</ele>
        <time>2016-01-15T13:29:13Z</time>
      </trkpt>
      <trkpt lat="43.94565" lon="5.18093">
        <ele>606.25</ele>
        <time>2016-01-15T13:29:20Z</time>
      </trkpt>
      <trkpt lat="43.94559" lon="5.18095">
        <ele>605.77</ele>
        <time>2016-01-15T13:29:25Z</time>
      </trkpt>
      <trkpt lat="43.9455" lon="5.18093">
        <ele>605.29</ele>
        <time>2016-01-15T13:29:31Z</time>
      </trkpt>
      <trkpt lat="43.94547" lon="5.18093">
        <ele>604.81</ele>
        <time>2016-01-15T13:29:33Z</time>
      </trkpt>
      <trkpt lat="43.94543" lon="5.18093">
        <ele>604.81</ele>
        <time>2016-01-15T13:29:36Z</time>
      </trkpt>
      <trkpt lat="43.94532" lon="5.18096">
        <ele>604.81</ele>
        <time>2016-01-15T13:29:44Z</time>
      </trkpt>
      <trkpt lat="43.94521" lon="5.18098">
        <ele>604.33</ele>
        <time>2016-01-15T13:29:53Z</time>
      </trkpt>
      <trkpt lat="43.9451" lon="5.18099">
        <ele>604.33</ele>
        <time>2016-01-15T13:30:01Z</time>
      </trkpt>
      <trkpt lat="43.94508" lon="5.181">
        <ele>605.29</ele>
        <time>2016-01-15T13:30:03Z</time>
      </trkpt>
      <trkpt lat="43.94502" lon="5.18103">
        <ele>604.81</ele>
        <time>2016-01-15T13:30:09Z</time>
      </trkpt>
      <trkpt lat="43.94498" lon="5.18103">
        <ele>604.33</ele>
        <time>2016-01-15T13:30:14Z</time>
      </trkpt>
      <trkpt lat="43.94492" lon="5.18103">
        <ele>604.33</ele>
        <time>2016-01-15T13:30:20Z</time>
      </trkpt>
      <trkpt lat="43.94485" lon="5.18106">
        <ele>604.33</ele>
        <time>2016-01-15T13:30:26Z</time>
      </trkpt>
      <trkpt lat="43.94479" lon="5.18107">
        <ele>604.81</ele>
        <time>2016-01-15T13:30:32Z</time>
      </trkpt>
      <trkpt lat="43.94473" lon="5.18107">
        <ele>604.33</ele>
        <time>2016-01-15T13:30:37Z</time>
      </trkpt>
      <trkpt lat="43.94465" lon="5.18105">
        <ele>604.33</ele>
        <time>2016-01-15T13:30:43Z</time>
      </trkpt>
      <trkpt lat="43.94462" lon="5.18104">
        <ele>604.81</ele>
        <time>2016-01-15T13:30:48Z</time>
      </trkpt>
      <trkpt lat="43.94466" lon="5.18106">
        <ele>605.29</ele>
        <time>2016-01-15T13:30:54Z</time>
      </trkpt>
      <trkpt lat="43.9447" lon="5.1811">
        <ele>605.29</ele>
        <time>2016-01-15T13:30:58Z</time>
      </trkpt>
      <trkpt lat="43.94467" lon="5.18112">
        <ele>607.69</ele>
        <time>2016-01-15T13:31:01Z</time>
      </trkpt>
      <trkpt lat="43.94465" lon="5.18114">
        <ele>605.29</ele>
        <time>2016-01-15T13:31:05Z</time>
      </trkpt>
      <trkpt lat="43.94461" lon="5.18119">
        <ele>604.33</ele>
        <time>2016-01-15T13:31:13Z</time>
      </trkpt>
      <trkpt lat="43.9446" lon="5.1812">
        <ele>604.81</ele>
        <time>2016-01-15T13:31:19Z</time>
      </trkpt>
      <trkpt lat="43.94451" lon="5.18126">
        <ele>604.81</ele>
        <time>2016-01-15T13:31:27Z</time>
      </trkpt>
      <trkpt lat="43.94447" lon="5.18132">
        <ele>603.85</ele>
        <time>2016-01-15T13:31:34Z</time>
      </trkpt>
      <trkpt lat="43.94445" lon="5.18134">
        <ele>604.33</ele>
        <time>2016-01-15T13:31:36Z</time>
      </trkpt>
      <trkpt lat="43.94439" lon="5.18143">
        <ele>603.85</ele>
        <time>2016-01-15T13:31:44Z</time>
      </trkpt>
      <trkpt lat="43.94436" lon="5.18149">
        <ele>602.88</ele>
        <time>2016-01-15T13:31:51Z</time>
      </trkpt>
      <trkpt lat="43.94434" lon="5.18148">
        <ele>601.92</ele>
        <time>2016-01-15T13:32:01Z</time>
      </trkpt>
      <trkpt lat="43.94428" lon="5.1815">
        <ele>601.44</ele>
        <time>2016-01-15T13:32:08Z</time>
      </trkpt>
      <trkpt lat="43.94418" lon="5.18157">
        <ele>600.96</ele>
        <time>2016-01-15T13:32:14Z</time>
      </trkpt>
      <trkpt lat="43.94407" lon="5.18162">
        <ele>600</ele>
        <time>2016-01-15T13:32:22Z</time>
      </trkpt>
      <trkpt lat="43.94402" lon="5.18164">
        <ele>599.52</ele>
        <time>2016-01-15T13:32:25Z</time>
      </trkpt>
      <trkpt lat="43.94393" lon="5.18169">
        <ele>599.04</ele>
        <time>2016-01-15T13:32:32Z</time>
      </trkpt>
      <trkpt lat="43.94388" lon="5.18173">
        <ele>598.56</ele>
        <time>2016-01-15T13:32:39Z</time>
      </trkpt>
      <trkpt lat="43.94379" lon="5.18177">
        <ele>597.6</ele>
        <time>2016-01-15T13:32:48Z</time>
      </trkpt>
      <trkpt lat="43.94369" lon="5.1818">
        <ele>597.12</ele>
        <time>2016-01-15T13:32:56Z</time>
      </trkpt>
      <trkpt lat="43.94368" lon="5.1818">
        <ele>596.64</ele>
        <time>2016-01-15T13:32:57Z</time>
      </trkpt>
      <trkpt lat="43.94363" lon="5.18181">
        <ele>596.15</ele>
        <time>2016-01-15T13:33:00Z</time>
      </trkpt>
      <trkpt lat="43.94359" lon="5.18182">
        <ele>596.15</ele>
        <time>2016-01-15T13:33:03Z</time>
      </trkpt>
      <trkpt lat="43.94355" lon="5.18182">
        <ele>595.67</ele>
        <time>2016-01-15T13:33:08Z</time>
      </trkpt>
      <trkpt lat="43.94348" lon="5.18182">
        <ele>595.19</ele>
        <time>2016-01-15T13:33:16Z</time>
      </trkpt>
      <trkpt lat="43.94341" lon="5.18182">
        <ele>594.71</ele>
        <time>2016-01-15T13:33:23Z</time>
      </trkpt>
      <trkpt lat="43.94336" lon="5.18186">
        <ele>593.75</ele>
        <time>2016-01-15T13:33:32Z</time>
      </trkpt>
      <trkpt lat="43.94327" lon="5.18186">
        <ele>592.31</ele>
        <time>2016-01-15T13:33:42Z</time>
      </trkpt>
      <trkpt lat="43.94323" lon="5.18187">
        <ele>591.83</ele>
        <time>2016-01-15T13:33:46Z</time>
      </trkpt>
      <trkpt lat="43.94313" lon="5.18189">
        <ele>590.39</ele>
        <time>2016-01-15T13:33:56Z</time>
      </trkpt>
      <trkpt lat="43.94307" lon="5.18194">
        <ele>589.43</ele>
        <time>2016-01-15T13:34:04Z</time>
      </trkpt>
      <trkpt lat="43.94301" lon="5.18198">
        <ele>587.5</ele>
        <time>2016-01-15T13:34:12Z</time>
      </trkpt>
      <trkpt lat="43.94292" lon="5.18203">
        <ele>587.98</ele>
        <time>2016-01-15T13:34:20Z</time>
      </trkpt>
      <trkpt lat="43.94286" lon="5.18204">
        <ele>587.02</ele>
        <time>2016-01-15T13:34:27Z</time>
      </trkpt>
      <trkpt lat="43.94278" lon="5.1821">
        <ele>586.54</ele>
        <time>2016-01-15T13:34:35Z</time>
      </trkpt>
      <trkpt lat="43.94272" lon="5.18214">
        <ele>585.1</ele>
        <time>2016-01-15T13:34:43Z</time>
      </trkpt>
      <trkpt lat="43.94265" lon="5.18217">
        <ele>583.66</ele>
        <time>2016-01-15T13:34:51Z</time>
      </trkpt>
      <trkpt lat="43.94258" lon="5.18221">
        <ele>583.18</ele>
        <time>2016-01-15T13:34:59Z</time>
      </trkpt>
      <trkpt lat="43.94249" lon="5.18222">
        <ele>581.73</ele>
        <time>2016-01-15T13:35:06Z</time>
      </trkpt>
      <trkpt lat="43.94242" lon="5.18225">
        <ele>580.77</ele>
        <time>2016-01-15T13:35:14Z</time>
      </trkpt>
      <trkpt lat="43.94234" lon="5.1823">
        <ele>578.85</ele>
        <time>2016-01-15T13:35:23Z</time>
      </trkpt>
      <trkpt lat="43.94227" lon="5.18231">
        <ele>579.33</ele>
        <time>2016-01-15T13:35:31Z</time>
      </trkpt>
      <trkpt lat="43.9422" lon="5.18232">
        <ele>577.89</ele>
        <time>2016-01-15T13:35:39Z</time>
      </trkpt>
      <trkpt lat="43.94213" lon="5.18232">
        <ele>577.41</ele>
        <time>2016-01-15T13:35:45Z</time>
      </trkpt>
      <trkpt lat="43.94209" lon="5.18231">
        <ele>576.45</ele>
        <time>2016-01-15T13:35:49Z</time>
      </trkpt>
      <trkpt lat="43.94198" lon="5.18231">
        <ele>575.97</ele>
        <time>2016-01-15T13:35:57Z</time>
      </trkpt>
      <trkpt lat="43.94191" lon="5.18234">
        <ele>575.01</ele>
        <time>2016-01-15T13:36:05Z</time>
      </trkpt>
      <trkpt lat="43.94187" lon="5.18236">
        <ele>574.53</ele>
        <time>2016-01-15T13:36:13Z</time>
      </trkpt>
      <trkpt lat="43.94179" lon="5.1824">
        <ele>573.56</ele>
        <time>2016-01-15T13:36:21Z</time>
      </trkpt>
      <trkpt lat="43.94175" lon="5.1824">
        <ele>573.56</ele>
        <time>2016-01-15T13:36:25Z</time>
      </trkpt>
      <trkpt lat="43.94164" lon="5.18239">
        <ele>572.6</ele>
        <time>2016-01-15T13:36:35Z</time>
      </trkpt>
      <trkpt lat="43.94157" lon="5.18239">
        <ele>572.12</ele>
        <time>2016-01-15T13:36:42Z</time>
      </trkpt>
      <trkpt lat="43.9415" lon="5.18237">
        <ele>572.6</ele>
        <time>2016-01-15T13:36:49Z</time>
      </trkpt>
      <trkpt lat="43.94144" lon="5.18239">
        <ele>572.6</ele>
        <time>2016-01-15T13:36:56Z</time>
      </trkpt>
      <trkpt lat="43.94137" lon="5.18239">
        <ele>571.64</ele>
        <time>2016-01-15T13:37:03Z</time>
      </trkpt>
      <trkpt lat="43.9413" lon="5.18241">
        <ele>570.2</ele>
        <time>2016-01-15T13:37:12Z</time>
      </trkpt>
      <trkpt lat="43.94125" lon="5.18242">
        <ele>569.24</ele>
        <time>2016-01-15T13:37:19Z</time>
      </trkpt>
      <trkpt lat="43.94121" lon="5.18242">
        <ele>568.76</ele>
        <time>2016-01-15T13:37:27Z</time>
      </trkpt>
      <trkpt lat="43.94116" lon="5.18244">
        <ele>567.32</ele>
        <time>2016-01-15T13:37:34Z</time>
      </trkpt>
      <trkpt lat="43.94107" lon="5.18244">
        <ele>566.83</ele>
        <time>2016-01-15T13:37:41Z</time>
      </trkpt>
      <trkpt lat="43.94101" lon="5.18238">
        <ele>565.87</ele>
        <time>2016-01-15T13:37:50Z</time>
      </trkpt>
      <trkpt lat="43.94089" lon="5.18239">
        <ele>564.91</ele>
        <time>2016-01-15T13:37:58Z</time>
      </trkpt>
      <trkpt lat="43.94084" lon="5.18239">
        <ele>564.91</ele>
        <time>2016-01-15T13:38:06Z</time>
      </trkpt>
      <trkpt lat="43.94083" lon="5.18239">
        <ele>564.91</ele>
        <time>2016-01-15T13:38:08Z</time>
      </trkpt>
      <trkpt lat="43.94075" lon="5.18237">
        <ele>563.95</ele>
        <time>2016-01-15T13:38:16Z</time>
      </trkpt>
      <trkpt lat="43.94068" lon="5.18236">
        <ele>562.51</ele>
        <time>2016-01-15T13:38:23Z</time>
      </trkpt>
      <trkpt lat="43.94059" lon="5.18237">
        <ele>562.03</ele>
        <time>2016-01-15T13:38:30Z</time>
      </trkpt>
      <trkpt lat="43.94049" lon="5.18239">
        <ele>561.55</ele>
        <time>2016-01-15T13:38:39Z</time>
      </trkpt>
      <trkpt lat="43.94041" lon="5.18243">
        <ele>561.55</ele>
        <time>2016-01-15T13:38:46Z</time>
      </trkpt>
      <trkpt lat="43.94031" lon="5.18248">
        <ele>561.07</ele>
        <time>2016-01-15T13:38:54Z</time>
      </trkpt>
      <trkpt lat="43.94022" lon="5.18253">
        <ele>560.59</ele>
        <time>2016-01-15T13:39:02Z</time>
      </trkpt>
      <trkpt lat="43.94013" lon="5.18255">
        <ele>560.11</ele>
        <time>2016-01-15T13:39:09Z</time>
      </trkpt>
      <trkpt lat="43.94007" lon="5.18257">
        <ele>560.59</ele>
        <time>2016-01-15T13:39:15Z</time>
      </trkpt>
      <trkpt lat="43.94" lon="5.18253">
        <ele>561.55</ele>
        <time>2016-01-15T13:39:24Z</time>
      </trkpt>
      <trkpt lat="43.93999" lon="5.18252">
        <ele>562.03</ele>
        <time>2016-01-15T13:39:30Z</time>
      </trkpt>
      <trkpt lat="43.93996" lon="5.18253">
        <ele>562.03</ele>
        <time>2016-01-15T13:39:35Z</time>
      </trkpt>
      <trkpt lat="43.93992" lon="5.18257">
        <ele>561.07</ele>
        <time>2016-01-15T13:39:41Z</time>
      </trkpt>
      <trkpt lat="43.93984" lon="5.18258">
        <ele>561.55</ele>
        <time>2016-01-15T13:39:49Z</time>
      </trkpt>
      <trkpt lat="43.93977" lon="5.18258">
        <ele>561.55</ele>
        <time>2016-01-15T13:39:55Z</time>
      </trkpt>
      <trkpt lat="43.9397" lon="5.18257">
        <ele>562.99</ele>
        <time>2016-01-15T13:40:05Z</time>
      </trkpt>
      <trkpt lat="43.93966" lon="5.18258">
        <ele>563.47</ele>
        <time>2016-01-15T13:40:09Z</time>
      </trkpt>
      <trkpt lat="43.93959" lon="5.18261">
        <ele>564.43</ele>
        <time>2016-01-15T13:40:17Z</time>
      </trkpt>
      <trkpt lat="43.9395" lon="5.1826">
        <ele>565.87</ele>
        <time>2016-01-15T13:40:25Z</time>
      </trkpt>
      <trkpt lat="43.93946" lon="5.18258">
        <ele>566.83</ele>
        <time>2016-01-15T13:40:32Z</time>
      </trkpt>
      <trkpt lat="43.93939" lon="5.18259">
        <ele>567.32</ele>
        <time>2016-01-15T13:40:40Z</time>
      </trkpt>
      <trkpt lat="43.93933" lon="5.18261">
        <ele>567.32</ele>
        <time>2016-01-15T13:40:44Z</time>
      </trkpt>
      <trkpt lat="43.93926" lon="5.18261">
        <ele>566.83</ele>
        <time>2016-01-15T13:40:52Z</time>
      </trkpt>
      <trkpt lat="43.93923" lon="5.18259">
        <ele>568.28</ele>
        <time>2016-01-15T13:40:58Z</time>
      </trkpt>
      <trkpt lat="43.93916" lon="5.1826">
        <ele>566.83</ele>
        <time>2016-01-15T13:41:04Z</time>
      </trkpt>
      <trkpt lat="43.93911" lon="5.18261">
        <ele>567.32</ele>
        <time>2016-01-15T13:41:07Z</time>
      </trkpt>
      <trkpt lat="43.93901" lon="5.18264">
        <ele>566.83</ele>
        <time>2016-01-15T13:41:16Z</time>
      </trkpt>
      <trkpt lat="43.93895" lon="5.18263">
        <ele>566.83</ele>
        <time>2016-01-15T13:41:23Z</time>
      </trkpt>
      <trkpt lat="43.93889" lon="5.18258">
        <ele>565.87</ele>
        <time>2016-01-15T13:41:30Z</time>
      </trkpt>
      <trkpt lat="43.93881" lon="5.18256">
        <ele>565.39</ele>
        <time>2016-01-15T13:41:39Z</time>
      </trkpt>
      <trkpt lat="43.93872" lon="5.18255">
        <ele>564.91</ele>
        <time>2016-01-15T13:41:47Z</time>
      </trkpt>
      <trkpt lat="43.93867" lon="5.18252">
        <ele>564.91</ele>
        <time>2016-01-15T13:41:52Z</time>
      </trkpt>
      <trkpt lat="43.93858" lon="5.18247">
        <ele>563.47</ele>
        <time>2016-01-15T13:42:01Z</time>
      </trkpt>
      <trkpt lat="43.93853" lon="5.18243">
        <ele>562.99</ele>
        <time>2016-01-15T13:42:08Z</time>
      </trkpt>
      <trkpt lat="43.93847" lon="5.18239">
        <ele>561.55</ele>
        <time>2016-01-15T13:42:15Z</time>
      </trkpt>
      <trkpt lat="43.93839" lon="5.18236">
        <ele>560.11</ele>
        <time>2016-01-15T13:42:24Z</time>
      </trkpt>
      <trkpt lat="43.93833" lon="5.18232">
        <ele>558.66</ele>
        <time>2016-01-15T13:42:33Z</time>
      </trkpt>
      <trkpt lat="43.93824" lon="5.1823">
        <ele>558.66</ele>
        <time>2016-01-15T13:42:40Z</time>
      </trkpt>
      <trkpt lat="43.93818" lon="5.18231">
        <ele>557.7</ele>
        <time>2016-01-15T13:42:47Z</time>
      </trkpt>
      <trkpt lat="43.93816" lon="5.18231">
        <ele>557.22</ele>
        <time>2016-01-15T13:42:48Z</time>
      </trkpt>
      <trkpt lat="43.93806" lon="5.18233">
        <ele>556.26</ele>
        <time>2016-01-15T13:42:56Z</time>
      </trkpt>
      <trkpt lat="43.93798" lon="5.18232">
        <ele>555.78</ele>
        <time>2016-01-15T13:43:05Z</time>
      </trkpt>
      <trkpt lat="43.93792" lon="5.18231">
        <ele>554.34</ele>
        <time>2016-01-15T13:43:12Z</time>
      </trkpt>
      <trkpt lat="43.93787" lon="5.18229">
        <ele>554.82</ele>
        <time>2016-01-15T13:43:19Z</time>
      </trkpt>
      <trkpt lat="43.93779" lon="5.18228">
        <ele>553.86</ele>
        <time>2016-01-15T13:43:27Z</time>
      </trkpt>
      <trkpt lat="43.93766" lon="5.18226">
        <ele>553.86</ele>
        <time>2016-01-15T13:43:37Z</time>
      </trkpt>
      <trkpt lat="43.93757" lon="5.18223">
        <ele>552.9</ele>
        <time>2016-01-15T13:43:45Z</time>
      </trkpt>
      <trkpt lat="43.93748" lon="5.18218">
        <ele>552.41</ele>
        <time>2016-01-15T13:43:54Z</time>
      </trkpt>
      <trkpt lat="43.93741" lon="5.18216">
        <ele>551.93</ele>
        <time>2016-01-15T13:44:02Z</time>
      </trkpt>
      <trkpt lat="43.93738" lon="5.18215">
        <ele>551.45</ele>
        <time>2016-01-15T13:44:13Z</time>
      </trkpt>
      <trkpt lat="43.93734" lon="5.18214">
        <ele>550.97</ele>
        <time>2016-01-15T13:44:21Z</time>
      </trkpt>
      <trkpt lat="43.93725" lon="5.18214">
        <ele>550.01</ele>
        <time>2016-01-15T13:44:29Z</time>
      </trkpt>
      <trkpt lat="43.93717" lon="5.18212">
        <ele>548.57</ele>
        <time>2016-01-15T13:44:36Z</time>
      </trkpt>
      <trkpt lat="43.93711" lon="5.1821">
        <ele>547.61</ele>
        <time>2016-01-15T13:44:44Z</time>
      </trkpt>
      <trkpt lat="43.93704" lon="5.18212">
        <ele>546.65</ele>
        <time>2016-01-15T13:44:51Z</time>
      </trkpt>
      <trkpt lat="43.93693" lon="5.18213">
        <ele>545.69</ele>
        <time>2016-01-15T13:44:58Z</time>
      </trkpt>
      <trkpt lat="43.9368" lon="5.18212">
        <ele>544.24</ele>
        <time>2016-01-15T13:45:08Z</time>
      </trkpt>
      <trkpt lat="43.93677" lon="5.18212">
        <ele>543.76</ele>
        <time>2016-01-15T13:45:10Z</time>
      </trkpt>
      <trkpt lat="43.93668" lon="5.18211">
        <ele>542.8</ele>
        <time>2016-01-15T13:45:18Z</time>
      </trkpt>
      <trkpt lat="43.93657" lon="5.1821">
        <ele>542.32</ele>
        <time>2016-01-15T13:45:28Z</time>
      </trkpt>
      <trkpt lat="43.93648" lon="5.18209">
        <ele>541.84</ele>
        <time>2016-01-15T13:45:36Z</time>
      </trkpt>
      <trkpt lat="43.93646" lon="5.18208">
        <ele>540.88</ele>
        <time>2016-01-15T13:45:39Z</time>
      </trkpt>
      <trkpt lat="43.93638" lon="5.18205">
        <ele>539.92</ele>
        <time>2016-01-15T13:45:47Z</time>
      </trkpt>
      <trkpt lat="43.93633" lon="5.18203">
        <ele>538.48</ele>
        <time>2016-01-15T13:45:55Z</time>
      </trkpt>
      <trkpt lat="43.93627" lon="5.18201">
        <ele>536.55</ele>
        <time>2016-01-15T13:46:02Z</time>
      </trkpt>
      <trkpt lat="43.93618" lon="5.18196">
        <ele>536.07</ele>
        <time>2016-01-15T13:46:12Z</time>
      </trkpt>
      <trkpt lat="43.93609" lon="5.18194">
        <ele>535.11</ele>
        <time>2016-01-15T13:46:20Z</time>
      </trkpt>
      <trkpt lat="43.93601" lon="5.18193">
        <ele>534.15</ele>
        <time>2016-01-15T13:46:28Z</time>
      </trkpt>
      <trkpt lat="43.93596" lon="5.1819">
        <ele>533.19</ele>
        <time>2016-01-15T13:46:35Z</time>
      </trkpt>
      <trkpt lat="43.93589" lon="5.1819">
        <ele>532.23</ele>
        <time>2016-01-15T13:46:41Z</time>
      </trkpt>
      <trkpt lat="43.93584" lon="5.18188">
        <ele>532.71</ele>
        <time>2016-01-15T13:46:48Z</time>
      </trkpt>
      <trkpt lat="43.93577" lon="5.18185">
        <ele>531.27</ele>
        <time>2016-01-15T13:46:56Z</time>
      </trkpt>
      <trkpt lat="43.93571" lon="5.18183">
        <ele>529.34</ele>
        <time>2016-01-15T13:47:04Z</time>
      </trkpt>
      <trkpt lat="43.93564" lon="5.18182">
        <ele>528.38</ele>
        <time>2016-01-15T13:47:12Z</time>
      </trkpt>
      <trkpt lat="43.93555" lon="5.18184">
        <ele>527.42</ele>
        <time>2016-01-15T13:47:20Z</time>
      </trkpt>
      <trkpt lat="43.93551" lon="5.1818">
        <ele>526.46</ele>
        <time>2016-01-15T13:47:25Z</time>
      </trkpt>
      <trkpt lat="43.93554" lon="5.1817">
        <ele>527.42</ele>
        <time>2016-01-15T13:47:32Z</time>
      </trkpt>
      <trkpt lat="43.93554" lon="5.18167">
        <ele>526.94</ele>
        <time>2016-01-15T13:47:34Z</time>
      </trkpt>
      <trkpt lat="43.93553" lon="5.18162">
        <ele>526.94</ele>
        <time>2016-01-15T13:47:38Z</time>
      </trkpt>
      <trkpt lat="43.93549" lon="5.18154">
        <ele>526.94</ele>
        <time>2016-01-15T13:47:46Z</time>
      </trkpt>
      <trkpt lat="43.93546" lon="5.18141">
        <ele>526.46</ele>
        <time>2016-01-15T13:47:56Z</time>
      </trkpt>
      <trkpt lat="43.9354" lon="5.18129">
        <ele>525.98</ele>
        <time>2016-01-15T13:48:05Z</time>
      </trkpt>
      <trkpt lat="43.93539" lon="5.18125">
        <ele>525.5</ele>
        <time>2016-01-15T13:48:08Z</time>
      </trkpt>
      <trkpt lat="43.93535" lon="5.18116">
        <ele>525.98</ele>
        <time>2016-01-15T13:48:15Z</time>
      </trkpt>
      <trkpt lat="43.93535" lon="5.18115">
        <ele>525.5</ele>
        <time>2016-01-15T13:48:16Z</time>
      </trkpt>
      <trkpt lat="43.9353" lon="5.1811">
        <ele>525.5</ele>
        <time>2016-01-15T13:48:21Z</time>
      </trkpt>
      <trkpt lat="43.93529" lon="5.18101">
        <ele>525.02</ele>
        <time>2016-01-15T13:48:28Z</time>
      </trkpt>
      <trkpt lat="43.93532" lon="5.18093">
        <ele>525.5</ele>
        <time>2016-01-15T13:48:36Z</time>
      </trkpt>
      <trkpt lat="43.93525" lon="5.18088">
        <ele>525.02</ele>
        <time>2016-01-15T13:48:44Z</time>
      </trkpt>
      <trkpt lat="43.93518" lon="5.18084">
        <ele>525.02</ele>
        <time>2016-01-15T13:48:52Z</time>
      </trkpt>
      <trkpt lat="43.93514" lon="5.18082">
        <ele>524.54</ele>
        <time>2016-01-15T13:48:56Z</time>
      </trkpt>
      <trkpt lat="43.93513" lon="5.1808">
        <ele>525.02</ele>
        <time>2016-01-15T13:48:58Z</time>
      </trkpt>
      <trkpt lat="43.93512" lon="5.18072">
        <ele>525.02</ele>
        <time>2016-01-15T13:49:05Z</time>
      </trkpt>
      <trkpt lat="43.93509" lon="5.1807">
        <ele>525.02</ele>
        <time>2016-01-15T13:49:11Z</time>
      </trkpt>
      <trkpt lat="43.93503" lon="5.18068">
        <ele>524.54</ele>
        <time>2016-01-15T13:49:17Z</time>
      </trkpt>
      <trkpt lat="43.93498" lon="5.18069">
        <ele>524.54</ele>
        <time>2016-01-15T13:49:21Z</time>
      </trkpt>
      <trkpt lat="43.9349" lon="5.18065">
        <ele>524.54</ele>
        <time>2016-01-15T13:49:30Z</time>
      </trkpt>
      <trkpt lat="43.93486" lon="5.18058">
        <ele>524.06</ele>
        <time>2016-01-15T13:49:37Z</time>
      </trkpt>
      <trkpt lat="43.93485" lon="5.18057">
        <ele>524.06</ele>
        <time>2016-01-15T13:49:38Z</time>
      </trkpt>
      <trkpt lat="43.93477" lon="5.18048">
        <ele>523.09</ele>
        <time>2016-01-15T13:49:46Z</time>
      </trkpt>
      <trkpt lat="43.93471" lon="5.18042">
        <ele>523.58</ele>
        <time>2016-01-15T13:49:53Z</time>
      </trkpt>
      <trkpt lat="43.9347" lon="5.18042">
        <ele>523.58</ele>
        <time>2016-01-15T13:49:54Z</time>
      </trkpt>
      <trkpt lat="43.93462" lon="5.18035">
        <ele>522.61</ele>
        <time>2016-01-15T13:50:03Z</time>
      </trkpt>
      <trkpt lat="43.93457" lon="5.18028">
        <ele>522.13</ele>
        <time>2016-01-15T13:50:11Z</time>
      </trkpt>
      <trkpt lat="43.93454" lon="5.18024">
        <ele>520.69</ele>
        <time>2016-01-15T13:50:14Z</time>
      </trkpt>
      <trkpt lat="43.93448" lon="5.18017">
        <ele>520.69</ele>
        <time>2016-01-15T13:50:21Z</time>
      </trkpt>
      <trkpt lat="43.93441" lon="5.18015">
        <ele>519.25</ele>
        <time>2016-01-15T13:50:28Z</time>
      </trkpt>
      <trkpt lat="43.93435" lon="5.18015">
        <ele>519.73</ele>
        <time>2016-01-15T13:50:35Z</time>
      </trkpt>
      <trkpt lat="43.93432" lon="5.18021">
        <ele>518.29</ele>
        <time>2016-01-15T13:50:42Z</time>
      </trkpt>
      <trkpt lat="43.9343" lon="5.18025">
        <ele>517.81</ele>
        <time>2016-01-15T13:50:46Z</time>
      </trkpt>
      <trkpt lat="43.93424" lon="5.18031">
        <ele>517.81</ele>
        <time>2016-01-15T13:50:54Z</time>
      </trkpt>
      <trkpt lat="43.93421" lon="5.18037">
        <ele>517.81</ele>
        <time>2016-01-15T13:51:00Z</time>
      </trkpt>
      <trkpt lat="43.93415" lon="5.18048">
        <ele>516.37</ele>
        <time>2016-01-15T13:51:09Z</time>
      </trkpt>
      <trkpt lat="43.9341" lon="5.18053">
        <ele>515.4</ele>
        <time>2016-01-15T13:51:16Z</time>
      </trkpt>
      <trkpt lat="43.93403" lon="5.18058">
        <ele>514.92</ele>
        <time>2016-01-15T13:51:24Z</time>
      </trkpt>
      <trkpt lat="43.93398" lon="5.18061">
        <ele>513.96</ele>
        <time>2016-01-15T13:51:30Z</time>
      </trkpt>
      <trkpt lat="43.93394" lon="5.18065">
        <ele>513</ele>
        <time>2016-01-15T13:51:35Z</time>
      </trkpt>
      <trkpt lat="43.93387" lon="5.18073">
        <ele>511.56</ele>
        <time>2016-01-15T13:51:43Z</time>
      </trkpt>
      <trkpt lat="43.9338" lon="5.18076">
        <ele>510.6</ele>
        <time>2016-01-15T13:51:51Z</time>
      </trkpt>
      <trkpt lat="43.93377" lon="5.18078">
        <ele>509.16</ele>
        <time>2016-01-15T13:51:57Z</time>
      </trkpt>
      <trkpt lat="43.93369" lon="5.18086">
        <ele>509.16</ele>
        <time>2016-01-15T13:52:04Z</time>
      </trkpt>
      <trkpt lat="43.93363" lon="5.18092">
        <ele>508.67</ele>
        <time>2016-01-15T13:52:10Z</time>
      </trkpt>
      <trkpt lat="43.93358" lon="5.18099">
        <ele>507.71</ele>
        <time>2016-01-15T13:52:16Z</time>
      </trkpt>
      <trkpt lat="43.93351" lon="5.18105">
        <ele>506.75</ele>
        <time>2016-01-15T13:52:24Z</time>
      </trkpt>
      <trkpt lat="43.93343" lon="5.18106">
        <ele>505.79</ele>
        <time>2016-01-15T13:52:32Z</time>
      </trkpt>
      <trkpt lat="43.93338" lon="5.18108">
        <ele>506.27</ele>
        <time>2016-01-15T13:52:38Z</time>
      </trkpt>
      <trkpt lat="43.93332" lon="5.18106">
        <ele>505.31</ele>
        <time>2016-01-15T13:52:44Z</time>
      </trkpt>
      <trkpt lat="43.93324" lon="5.18104">
        <ele>505.31</ele>
        <time>2016-01-15T13:52:50Z</time>
      </trkpt>
      <trkpt lat="43.93318" lon="5.181">
        <ele>504.35</ele>
        <time>2016-01-15T13:52:57Z</time>
      </trkpt>
      <trkpt lat="43.93316" lon="5.18098">
        <ele>504.83</ele>
        <time>2016-01-15T13:53:01Z</time>
      </trkpt>
      <trkpt lat="43.93305" lon="5.18098">
        <ele>504.35</ele>
        <time>2016-01-15T13:53:10Z</time>
      </trkpt>
      <trkpt lat="43.93304" lon="5.18098">
        <ele>504.35</ele>
        <time>2016-01-15T13:53:11Z</time>
      </trkpt>
      <trkpt lat="43.93295" lon="5.18104">
        <ele>504.35</ele>
        <time>2016-01-15T13:53:20Z</time>
      </trkpt>
      <trkpt lat="43.93287" lon="5.18112">
        <ele>505.31</ele>
        <time>2016-01-15T13:53:29Z</time>
      </trkpt>
      <trkpt lat="43.93283" lon="5.18116">
        <ele>505.79</ele>
        <time>2016-01-15T13:53:35Z</time>
      </trkpt>
      <trkpt lat="43.93281" lon="5.18125">
        <ele>505.31</ele>
        <time>2016-01-15T13:53:41Z</time>
      </trkpt>
      <trkpt lat="43.93275" lon="5.18131">
        <ele>505.31</ele>
        <time>2016-01-15T13:53:48Z</time>
      </trkpt>
      <trkpt lat="43.93268" lon="5.18137">
        <ele>503.87</ele>
        <time>2016-01-15T13:53:54Z</time>
      </trkpt>
      <trkpt lat="43.93263" lon="5.18146">
        <ele>504.35</ele>
        <time>2016-01-15T13:54:02Z</time>
      </trkpt>
      <trkpt lat="43.93255" lon="5.1815">
        <ele>505.79</ele>
        <time>2016-01-15T13:54:09Z</time>
      </trkpt>
      <trkpt lat="43.9325" lon="5.18154">
        <ele>502.91</ele>
        <time>2016-01-15T13:54:16Z</time>
      </trkpt>
      <trkpt lat="43.93243" lon="5.18162">
        <ele>502.91</ele>
        <time>2016-01-15T13:54:24Z</time>
      </trkpt>
      <trkpt lat="43.93235" lon="5.1817">
        <ele>500.5</ele>
        <time>2016-01-15T13:54:33Z</time>
      </trkpt>
      <trkpt lat="43.9323" lon="5.18175">
        <ele>499.54</ele>
        <time>2016-01-15T13:54:42Z</time>
      </trkpt>
      <trkpt lat="43.93224" lon="5.18183">
        <ele>499.06</ele>
        <time>2016-01-15T13:54:50Z</time>
      </trkpt>
      <trkpt lat="43.93217" lon="5.18189">
        <ele>498.58</ele>
        <time>2016-01-15T13:54:59Z</time>
      </trkpt>
      <trkpt lat="43.93214" lon="5.18193">
        <ele>497.14</ele>
        <time>2016-01-15T13:55:06Z</time>
      </trkpt>
      <trkpt lat="43.93205" lon="5.18201">
        <ele>496.66</ele>
        <time>2016-01-15T13:55:16Z</time>
      </trkpt>
      <trkpt lat="43.93197" lon="5.18207">
        <ele>494.26</ele>
        <time>2016-01-15T13:55:26Z</time>
      </trkpt>
      <trkpt lat="43.93191" lon="5.18215">
        <ele>493.77</ele>
        <time>2016-01-15T13:55:33Z</time>
      </trkpt>
      <trkpt lat="43.93185" lon="5.18219">
        <ele>493.29</ele>
        <time>2016-01-15T13:55:41Z</time>
      </trkpt>
      <trkpt lat="43.9318" lon="5.18222">
        <ele>492.33</ele>
        <time>2016-01-15T13:55:48Z</time>
      </trkpt>
      <trkpt lat="43.93174" lon="5.18225">
        <ele>491.37</ele>
        <time>2016-01-15T13:55:56Z</time>
      </trkpt>
      <trkpt lat="43.9317" lon="5.18227">
        <ele>490.89</ele>
        <time>2016-01-15T13:56:01Z</time>
      </trkpt>
      <trkpt lat="43.93164" lon="5.18228">
        <ele>490.89</ele>
        <time>2016-01-15T13:56:08Z</time>
      </trkpt>
      <trkpt lat="43.93158" lon="5.18231">
        <ele>490.41</ele>
        <time>2016-01-15T13:56:14Z</time>
      </trkpt>
      <trkpt lat="43.93155" lon="5.18232">
        <ele>489.93</ele>
        <time>2016-01-15T13:56:18Z</time>
      </trkpt>
      <trkpt lat="43.93147" lon="5.18233">
        <ele>488.97</ele>
        <time>2016-01-15T13:56:27Z</time>
      </trkpt>
      <trkpt lat="43.93145" lon="5.18234">
        <ele>488.49</ele>
        <time>2016-01-15T13:56:34Z</time>
      </trkpt>
      <trkpt lat="43.93145" lon="5.18233">
        <ele>488.49</ele>
        <time>2016-01-15T13:56:52Z</time>
      </trkpt>
      <trkpt lat="43.93144" lon="5.18234">
        <ele>488.49</ele>
        <time>2016-01-15T13:57:06Z</time>
      </trkpt>
      <trkpt lat="43.93145" lon="5.18233">
        <ele>488.49</ele>
        <time>2016-01-15T13:57:16Z</time>
      </trkpt>
      <trkpt lat="43.93141" lon="5.18231">
        <ele>488.49</ele>
        <time>2016-01-15T13:57:22Z</time>
      </trkpt>
      <trkpt lat="43.9313" lon="5.18229">
        <ele>487.53</ele>
        <time>2016-01-15T13:57:29Z</time>
      </trkpt>
      <trkpt lat="43.93128" lon="5.18228">
        <ele>488.01</ele>
        <time>2016-01-15T13:57:31Z</time>
      </trkpt>
      <trkpt lat="43.93117" lon="5.18225">
        <ele>487.05</ele>
        <time>2016-01-15T13:57:39Z</time>
      </trkpt>
      <trkpt lat="43.93116" lon="5.18225">
        <ele>487.05</ele>
        <time>2016-01-15T13:57:40Z</time>
      </trkpt>
      <trkpt lat="43.93106" lon="5.18224">
        <ele>485.6</ele>
        <time>2016-01-15T13:57:48Z</time>
      </trkpt>
      <trkpt lat="43.931" lon="5.18222">
        <ele>485.12</ele>
        <time>2016-01-15T13:57:53Z</time>
      </trkpt>
      <trkpt lat="43.93096" lon="5.18222">
        <ele>484.16</ele>
        <time>2016-01-15T13:57:56Z</time>
      </trkpt>
      <trkpt lat="43.9309" lon="5.18219">
        <ele>483.2</ele>
        <time>2016-01-15T13:58:03Z</time>
      </trkpt>
      <trkpt lat="43.93083" lon="5.18215">
        <ele>483.2</ele>
        <time>2016-01-15T13:58:10Z</time>
      </trkpt>
      <trkpt lat="43.93082" lon="5.18215">
        <ele>482.72</ele>
        <time>2016-01-15T13:58:11Z</time>
      </trkpt>
      <trkpt lat="43.93069" lon="5.18213">
        <ele>481.76</ele>
        <time>2016-01-15T13:58:20Z</time>
      </trkpt>
      <trkpt lat="43.93065" lon="5.18214">
        <ele>481.28</ele>
        <time>2016-01-15T13:58:24Z</time>
      </trkpt>
      <trkpt lat="43.93057" lon="5.18214">
        <ele>479.84</ele>
        <time>2016-01-15T13:58:32Z</time>
      </trkpt>
      <trkpt lat="43.93052" lon="5.18213">
        <ele>479.35</ele>
        <time>2016-01-15T13:58:39Z</time>
      </trkpt>
      <trkpt lat="43.9305" lon="5.18213">
        <ele>478.87</ele>
        <time>2016-01-15T13:58:41Z</time>
      </trkpt>
      <trkpt lat="43.93044" lon="5.18214">
        <ele>477.91</ele>
        <time>2016-01-15T13:58:46Z</time>
      </trkpt>
      <trkpt lat="43.93037" lon="5.18215">
        <ele>476.47</ele>
        <time>2016-01-15T13:58:54Z</time>
      </trkpt>
      <trkpt lat="43.93034" lon="5.18216">
        <ele>475.03</ele>
        <time>2016-01-15T13:59:03Z</time>
      </trkpt>
      <trkpt lat="43.93032" lon="5.18217">
        <ele>474.55</ele>
        <time>2016-01-15T13:59:12Z</time>
      </trkpt>
      <trkpt lat="43.9303" lon="5.18217">
        <ele>474.07</ele>
        <time>2016-01-15T13:59:19Z</time>
      </trkpt>
      <trkpt lat="43.93025" lon="5.18219">
        <ele>472.14</ele>
        <time>2016-01-15T13:59:27Z</time>
      </trkpt>
      <trkpt lat="43.93023" lon="5.1822">
        <ele>471.66</ele>
        <time>2016-01-15T13:59:30Z</time>
      </trkpt>
      <trkpt lat="43.93014" lon="5.18221">
        <ele>470.22</ele>
        <time>2016-01-15T13:59:39Z</time>
      </trkpt>
      <trkpt lat="43.9301" lon="5.18221">
        <ele>469.26</ele>
        <time>2016-01-15T13:59:44Z</time>
      </trkpt>
      <trkpt lat="43.93004" lon="5.1822">
        <ele>468.3</ele>
        <time>2016-01-15T13:59:52Z</time>
      </trkpt>
      <trkpt lat="43.92995" lon="5.18221">
        <ele>467.34</ele>
        <time>2016-01-15T14:00:00Z</time>
      </trkpt>
      <trkpt lat="43.92987" lon="5.18218">
        <ele>466.38</ele>
        <time>2016-01-15T14:00:09Z</time>
      </trkpt>
      <trkpt lat="43.92985" lon="5.18218">
        <ele>466.38</ele>
        <time>2016-01-15T14:00:11Z</time>
      </trkpt>
      <trkpt lat="43.92977" lon="5.18216">
        <ele>464.93</ele>
        <time>2016-01-15T14:00:19Z</time>
      </trkpt>
      <trkpt lat="43.9297" lon="5.18214">
        <ele>465.42</ele>
        <time>2016-01-15T14:00:25Z</time>
      </trkpt>
      <trkpt lat="43.92962" lon="5.18209">
        <ele>465.42</ele>
        <time>2016-01-15T14:00:33Z</time>
      </trkpt>
      <trkpt lat="43.92957" lon="5.18205">
        <ele>466.38</ele>
        <time>2016-01-15T14:00:40Z</time>
      </trkpt>
      <trkpt lat="43.92956" lon="5.18204">
        <ele>466.38</ele>
        <time>2016-01-15T14:00:41Z</time>
      </trkpt>
      <trkpt lat="43.92948" lon="5.18196">
        <ele>466.38</ele>
        <time>2016-01-15T14:00:49Z</time>
      </trkpt>
      <trkpt lat="43.92947" lon="5.18195">
        <ele>466.38</ele>
        <time>2016-01-15T14:00:50Z</time>
      </trkpt>
      <trkpt lat="43.92937" lon="5.18185">
        <ele>465.42</ele>
        <time>2016-01-15T14:01:00Z</time>
      </trkpt>
      <trkpt lat="43.92935" lon="5.18184">
        <ele>466.38</ele>
        <time>2016-01-15T14:01:02Z</time>
      </trkpt>
      <trkpt lat="43.92932" lon="5.1818">
        <ele>464.93</ele>
        <time>2016-01-15T14:01:07Z</time>
      </trkpt>
      <trkpt lat="43.92927" lon="5.18175">
        <ele>463.97</ele>
        <time>2016-01-15T14:01:14Z</time>
      </trkpt>
      <trkpt lat="43.92923" lon="5.18166">
        <ele>462.53</ele>
        <time>2016-01-15T14:01:21Z</time>
      </trkpt>
      <trkpt lat="43.92922" lon="5.18165">
        <ele>462.53</ele>
        <time>2016-01-15T14:01:23Z</time>
      </trkpt>
      <trkpt lat="43.92916" lon="5.18158">
        <ele>461.57</ele>
        <time>2016-01-15T14:01:30Z</time>
      </trkpt>
      <trkpt lat="43.92915" lon="5.18155">
        <ele>461.09</ele>
        <time>2016-01-15T14:01:33Z</time>
      </trkpt>
      <trkpt lat="43.92912" lon="5.18149">
        <ele>460.61</ele>
        <time>2016-01-15T14:01:38Z</time>
      </trkpt>
      <trkpt lat="43.92902" lon="5.18142">
        <ele>458.69</ele>
        <time>2016-01-15T14:01:47Z</time>
      </trkpt>
      <trkpt lat="43.929" lon="5.1814">
        <ele>458.21</ele>
        <time>2016-01-15T14:01:51Z</time>
      </trkpt>
      <trkpt lat="43.92895" lon="5.18136">
        <ele>457.72</ele>
        <time>2016-01-15T14:01:55Z</time>
      </trkpt>
      <trkpt lat="43.92888" lon="5.18132">
        <ele>457.24</ele>
        <time>2016-01-15T14:02:05Z</time>
      </trkpt>
      <trkpt lat="43.92886" lon="5.18131">
        <ele>457.72</ele>
        <time>2016-01-15T14:02:10Z</time>
      </trkpt>
      <trkpt lat="43.92881" lon="5.18132">
        <ele>457.24</ele>
        <time>2016-01-15T14:02:17Z</time>
      </trkpt>
      <trkpt lat="43.92871" lon="5.1813">
        <ele>457.72</ele>
        <time>2016-01-15T14:02:26Z</time>
      </trkpt>
      <trkpt lat="43.92864" lon="5.18127">
        <ele>457.72</ele>
        <time>2016-01-15T14:02:34Z</time>
      </trkpt>
      <trkpt lat="43.92861" lon="5.18124">
        <ele>458.69</ele>
        <time>2016-01-15T14:02:44Z</time>
      </trkpt>
      <trkpt lat="43.92854" lon="5.1812">
        <ele>459.17</ele>
        <time>2016-01-15T14:02:52Z</time>
      </trkpt>
      <trkpt lat="43.92852" lon="5.18119">
        <ele>458.69</ele>
        <time>2016-01-15T14:03:02Z</time>
      </trkpt>
      <trkpt lat="43.9285" lon="5.18119">
        <ele>458.69</ele>
        <time>2016-01-15T14:03:12Z</time>
      </trkpt>
      <trkpt lat="43.9285" lon="5.18119">
        <ele>458.69</ele>
        <time>2016-01-15T14:03:29Z</time>
      </trkpt>
      <trkpt lat="43.92849" lon="5.1812">
        <ele>458.21</ele>
        <time>2016-01-15T14:03:48Z</time>
      </trkpt>
      <trkpt lat="43.92849" lon="5.1812">
        <ele>458.69</ele>
        <time>2016-01-15T14:04:07Z</time>
      </trkpt>
      <trkpt lat="43.92848" lon="5.18119">
        <ele>458.69</ele>
        <time>2016-01-15T14:04:24Z</time>
      </trkpt>
      <trkpt lat="43.92848" lon="5.18119">
        <ele>458.69</ele>
        <time>2016-01-15T14:04:38Z</time>
      </trkpt>
      <trkpt lat="43.92848" lon="5.18118">
        <ele>459.17</ele>
        <time>2016-01-15T14:04:54Z</time>
      </trkpt>
      <trkpt lat="43.92848" lon="5.18117">
        <ele>458.69</ele>
        <time>2016-01-15T14:05:08Z</time>
      </trkpt>
      <trkpt lat="43.92846" lon="5.18116">
        <ele>459.17</ele>
        <time>2016-01-15T14:05:20Z</time>
      </trkpt>
      <trkpt lat="43.9284" lon="5.18114">
        <ele>459.17</ele>
        <time>2016-01-15T14:05:28Z</time>
      </trkpt>
      <trkpt lat="43.92838" lon="5.18114">
        <ele>458.21</ele>
        <time>2016-01-15T14:05:30Z</time>
      </trkpt>
      <trkpt lat="43.92835" lon="5.18113">
        <ele>458.21</ele>
        <time>2016-01-15T14:05:34Z</time>
      </trkpt>
      <trkpt lat="43.92827" lon="5.18109">
        <ele>458.69</ele>
        <time>2016-01-15T14:05:42Z</time>
      </trkpt>
      <trkpt lat="43.9282" lon="5.18107">
        <ele>458.21</ele>
        <time>2016-01-15T14:05:49Z</time>
      </trkpt>
      <trkpt lat="43.92817" lon="5.18106">
        <ele>457.72</ele>
        <time>2016-01-15T14:05:52Z</time>
      </trkpt>
      <trkpt lat="43.92811" lon="5.18104">
        <ele>457.72</ele>
        <time>2016-01-15T14:05:57Z</time>
      </trkpt>
      <trkpt lat="43.92805" lon="5.18097">
        <ele>458.21</ele>
        <time>2016-01-15T14:06:05Z</time>
      </trkpt>
      <trkpt lat="43.92797" lon="5.18094">
        <ele>457.72</ele>
        <time>2016-01-15T14:06:13Z</time>
      </trkpt>
      <trkpt lat="43.92796" lon="5.18095">
        <ele>457.24</ele>
        <time>2016-01-15T14:06:14Z</time>
      </trkpt>
      <trkpt lat="43.92789" lon="5.18088">
        <ele>457.72</ele>
        <time>2016-01-15T14:06:23Z</time>
      </trkpt>
      <trkpt lat="43.92786" lon="5.18086">
        <ele>457.72</ele>
        <time>2016-01-15T14:06:26Z</time>
      </trkpt>
      <trkpt lat="43.9278" lon="5.18081">
        <ele>456.76</ele>
        <time>2016-01-15T14:06:32Z</time>
      </trkpt>
      <trkpt lat="43.92772" lon="5.18076">
        <ele>457.24</ele>
        <time>2016-01-15T14:06:40Z</time>
      </trkpt>
      <trkpt lat="43.92764" lon="5.18071">
        <ele>456.76</ele>
        <time>2016-01-15T14:06:48Z</time>
      </trkpt>
      <trkpt lat="43.9276" lon="5.18069">
        <ele>457.24</ele>
        <time>2016-01-15T14:06:51Z</time>
      </trkpt>
      <trkpt lat="43.92753" lon="5.18065">
        <ele>456.76</ele>
        <time>2016-01-15T14:06:59Z</time>
      </trkpt>
      <trkpt lat="43.92752" lon="5.18064">
        <ele>456.76</ele>
        <time>2016-01-15T14:07:00Z</time>
      </trkpt>
      <trkpt lat="43.92745" lon="5.18058">
        <ele>456.28</ele>
        <time>2016-01-15T14:07:08Z</time>
      </trkpt>
      <trkpt lat="43.92737" lon="5.18052">
        <ele>456.28</ele>
        <time>2016-01-15T14:07:16Z</time>
      </trkpt>
      <trkpt lat="43.92729" lon="5.1805">
        <ele>456.28</ele>
        <time>2016-01-15T14:07:23Z</time>
      </trkpt>
      <trkpt lat="43.92722" lon="5.18047">
        <ele>455.8</ele>
        <time>2016-01-15T14:07:29Z</time>
      </trkpt>
      <trkpt lat="43.92715" lon="5.18037">
        <ele>455.32</ele>
        <time>2016-01-15T14:07:38Z</time>
      </trkpt>
      <trkpt lat="43.92708" lon="5.18032">
        <ele>455.32</ele>
        <time>2016-01-15T14:07:46Z</time>
      </trkpt>
      <trkpt lat="43.92701" lon="5.18027">
        <ele>454.84</ele>
        <time>2016-01-15T14:07:53Z</time>
      </trkpt>
      <trkpt lat="43.92697" lon="5.18022">
        <ele>454.84</ele>
        <time>2016-01-15T14:07:58Z</time>
      </trkpt>
      <trkpt lat="43.92687" lon="5.18015">
        <ele>453.88</ele>
        <time>2016-01-15T14:08:08Z</time>
      </trkpt>
      <trkpt lat="43.9268" lon="5.18009">
        <ele>453.4</ele>
        <time>2016-01-15T14:08:16Z</time>
      </trkpt>
      <trkpt lat="43.92671" lon="5.18003">
        <ele>452.92</ele>
        <time>2016-01-15T14:08:25Z</time>
      </trkpt>
      <trkpt lat="43.92665" lon="5.17995">
        <ele>452.92</ele>
        <time>2016-01-15T14:08:33Z</time>
      </trkpt>
      <trkpt lat="43.92662" lon="5.17994">
        <ele>452.44</ele>
        <time>2016-01-15T14:08:36Z</time>
      </trkpt>
      <trkpt lat="43.92653" lon="5.17988">
        <ele>451.48</ele>
        <time>2016-01-15T14:08:45Z</time>
      </trkpt>
      <trkpt lat="43.92647" lon="5.17982">
        <ele>451</ele>
        <time>2016-01-15T14:08:51Z</time>
      </trkpt>
      <trkpt lat="43.92644" lon="5.17975">
        <ele>451.48</ele>
        <time>2016-01-15T14:08:56Z</time>
      </trkpt>
      <trkpt lat="43.92638" lon="5.17968">
        <ele>450.52</ele>
        <time>2016-01-15T14:09:04Z</time>
      </trkpt>
      <trkpt lat="43.92634" lon="5.17964">
        <ele>450.03</ele>
        <time>2016-01-15T14:09:08Z</time>
      </trkpt>
      <trkpt lat="43.9263" lon="5.17959">
        <ele>450.52</ele>
        <time>2016-01-15T14:09:13Z</time>
      </trkpt>
      <trkpt lat="43.92627" lon="5.17953">
        <ele>450.03</ele>
        <time>2016-01-15T14:09:20Z</time>
      </trkpt>
      <trkpt lat="43.92625" lon="5.17946">
        <ele>449.55</ele>
        <time>2016-01-15T14:09:28Z</time>
      </trkpt>
      <trkpt lat="43.92621" lon="5.17944">
        <ele>448.59</ele>
        <time>2016-01-15T14:09:36Z</time>
      </trkpt>
      <trkpt lat="43.92617" lon="5.17942">
        <ele>447.15</ele>
        <time>2016-01-15T14:09:41Z</time>
      </trkpt>
      <trkpt lat="43.92609" lon="5.17944">
        <ele>446.19</ele>
        <time>2016-01-15T14:09:50Z</time>
      </trkpt>
      <trkpt lat="43.92602" lon="5.17945">
        <ele>444.75</ele>
        <time>2016-01-15T14:09:59Z</time>
      </trkpt>
      <trkpt lat="43.92601" lon="5.17943">
        <ele>444.75</ele>
        <time>2016-01-15T14:10:02Z</time>
      </trkpt>
      <trkpt lat="43.92596" lon="5.17937">
        <ele>443.79</ele>
        <time>2016-01-15T14:10:09Z</time>
      </trkpt>
      <trkpt lat="43.92594" lon="5.17933">
        <ele>443.31</ele>
        <time>2016-01-15T14:10:16Z</time>
      </trkpt>
      <trkpt lat="43.92588" lon="5.17927">
        <ele>442.34</ele>
        <time>2016-01-15T14:10:24Z</time>
      </trkpt>
      <trkpt lat="43.92584" lon="5.17922">
        <ele>441.38</ele>
        <time>2016-01-15T14:10:30Z</time>
      </trkpt>
      <trkpt lat="43.9258" lon="5.17919">
        <ele>440.42</ele>
        <time>2016-01-15T14:10:37Z</time>
      </trkpt>
      <trkpt lat="43.92579" lon="5.17918">
        <ele>439.94</ele>
        <time>2016-01-15T14:10:38Z</time>
      </trkpt>
      <trkpt lat="43.92575" lon="5.17911">
        <ele>439.46</ele>
        <time>2016-01-15T14:10:45Z</time>
      </trkpt>
      <trkpt lat="43.9257" lon="5.17902">
        <ele>438.5</ele>
        <time>2016-01-15T14:10:53Z</time>
      </trkpt>
      <trkpt lat="43.92565" lon="5.17895">
        <ele>437.54</ele>
        <time>2016-01-15T14:11:00Z</time>
      </trkpt>
      <trkpt lat="43.92564" lon="5.17889">
        <ele>436.58</ele>
        <time>2016-01-15T14:11:07Z</time>
      </trkpt>
      <trkpt lat="43.92559" lon="5.17887">
        <ele>435.61</ele>
        <time>2016-01-15T14:11:15Z</time>
      </trkpt>
      <trkpt lat="43.92556" lon="5.17883">
        <ele>435.13</ele>
        <time>2016-01-15T14:11:19Z</time>
      </trkpt>
      <trkpt lat="43.92551" lon="5.1788">
        <ele>433.69</ele>
        <time>2016-01-15T14:11:26Z</time>
      </trkpt>
      <trkpt lat="43.92545" lon="5.17881">
        <ele>433.21</ele>
        <time>2016-01-15T14:11:33Z</time>
      </trkpt>
      <trkpt lat="43.92536" lon="5.17884">
        <ele>433.21</ele>
        <time>2016-01-15T14:11:43Z</time>
      </trkpt>
      <trkpt lat="43.92527" lon="5.17886">
        <ele>431.77</ele>
        <time>2016-01-15T14:11:52Z</time>
      </trkpt>
      <trkpt lat="43.9252" lon="5.17889">
        <ele>431.29</ele>
        <time>2016-01-15T14:12:00Z</time>
      </trkpt>
      <trkpt lat="43.92518" lon="5.17889">
        <ele>431.29</ele>
        <time>2016-01-15T14:12:01Z</time>
      </trkpt>
      <trkpt lat="43.92511" lon="5.17893">
        <ele>429.85</ele>
        <time>2016-01-15T14:12:09Z</time>
      </trkpt>
      <trkpt lat="43.92505" lon="5.179">
        <ele>428.89</ele>
        <time>2016-01-15T14:12:19Z</time>
      </trkpt>
      <trkpt lat="43.92497" lon="5.17899">
        <ele>428.4</ele>
        <time>2016-01-15T14:12:27Z</time>
      </trkpt>
      <trkpt lat="43.92488" lon="5.17899">
        <ele>427.44</ele>
        <time>2016-01-15T14:12:37Z</time>
      </trkpt>
      <trkpt lat="43.92482" lon="5.17899">
        <ele>426.96</ele>
        <time>2016-01-15T14:12:45Z</time>
      </trkpt>
      <trkpt lat="43.92472" lon="5.17896">
        <ele>425.04</ele>
        <time>2016-01-15T14:12:56Z</time>
      </trkpt>
      <trkpt lat="43.92464" lon="5.17892">
        <ele>424.08</ele>
        <time>2016-01-15T14:13:05Z</time>
      </trkpt>
      <trkpt lat="43.92454" lon="5.1789">
        <ele>422.64</ele>
        <time>2016-01-15T14:13:14Z</time>
      </trkpt>
      <trkpt lat="43.9245" lon="5.17891">
        <ele>423.6</ele>
        <time>2016-01-15T14:13:18Z</time>
      </trkpt>
      <trkpt lat="43.92442" lon="5.1789">
        <ele>422.16</ele>
        <time>2016-01-15T14:13:25Z</time>
      </trkpt>
      <trkpt lat="43.92435" lon="5.17888">
        <ele>420.71</ele>
        <time>2016-01-15T14:13:33Z</time>
      </trkpt>
      <trkpt lat="43.9243" lon="5.17888">
        <ele>420.23</ele>
        <time>2016-01-15T14:13:41Z</time>
      </trkpt>
      <trkpt lat="43.92423" lon="5.17887">
        <ele>419.75</ele>
        <time>2016-01-15T14:13:48Z</time>
      </trkpt>
      <trkpt lat="43.92417" lon="5.17889">
        <ele>418.79</ele>
        <time>2016-01-15T14:13:54Z</time>
      </trkpt>
      <trkpt lat="43.92407" lon="5.17887">
        <ele>417.83</ele>
        <time>2016-01-15T14:14:03Z</time>
      </trkpt>
      <trkpt lat="43.92397" lon="5.17886">
        <ele>416.87</ele>
        <time>2016-01-15T14:14:12Z</time>
      </trkpt>
      <trkpt lat="43.9239" lon="5.17884">
        <ele>415.43</ele>
        <time>2016-01-15T14:14:22Z</time>
      </trkpt>
      <trkpt lat="43.92381" lon="5.17883">
        <ele>415.43</ele>
        <time>2016-01-15T14:14:29Z</time>
      </trkpt>
      <trkpt lat="43.92373" lon="5.17881">
        <ele>414.47</ele>
        <time>2016-01-15T14:14:36Z</time>
      </trkpt>
      <trkpt lat="43.92367" lon="5.17882">
        <ele>413.5</ele>
        <time>2016-01-15T14:14:43Z</time>
      </trkpt>
      <trkpt lat="43.92361" lon="5.17884">
        <ele>412.06</ele>
        <time>2016-01-15T14:14:52Z</time>
      </trkpt>
      <trkpt lat="43.92355" lon="5.17887">
        <ele>411.58</ele>
        <time>2016-01-15T14:15:00Z</time>
      </trkpt>
      <trkpt lat="43.92349" lon="5.1789">
        <ele>410.62</ele>
        <time>2016-01-15T14:15:05Z</time>
      </trkpt>
      <trkpt lat="43.92341" lon="5.17892">
        <ele>408.7</ele>
        <time>2016-01-15T14:15:14Z</time>
      </trkpt>
      <trkpt lat="43.92338" lon="5.17898">
        <ele>408.22</ele>
        <time>2016-01-15T14:15:22Z</time>
      </trkpt>
      <trkpt lat="43.92335" lon="5.17906">
        <ele>407.74</ele>
        <time>2016-01-15T14:15:29Z</time>
      </trkpt>
      <trkpt lat="43.92334" lon="5.17911">
        <ele>407.74</ele>
        <time>2016-01-15T14:15:37Z</time>
      </trkpt>
      <trkpt lat="43.92334" lon="5.17913">
        <ele>408.22</ele>
        <time>2016-01-15T14:15:52Z</time>
      </trkpt>
      <trkpt lat="43.92334" lon="5.17912">
        <ele>407.74</ele>
        <time>2016-01-15T14:16:05Z</time>
      </trkpt>
      <trkpt lat="43.92335" lon="5.17915">
        <ele>408.22</ele>
        <time>2016-01-15T14:16:12Z</time>
      </trkpt>
      <trkpt lat="43.92336" lon="5.17916">
        <ele>407.74</ele>
        <time>2016-01-15T14:16:13Z</time>
      </trkpt>
      <trkpt lat="43.92335" lon="5.1792">
        <ele>407.26</ele>
        <time>2016-01-15T14:16:22Z</time>
      </trkpt>
      <trkpt lat="43.92336" lon="5.17922">
        <ele>408.22</ele>
        <time>2016-01-15T14:16:29Z</time>
      </trkpt>
      <trkpt lat="43.92339" lon="5.17924">
        <ele>407.74</ele>
        <time>2016-01-15T14:16:36Z</time>
      </trkpt>
      <trkpt lat="43.92339" lon="5.17924">
        <ele>407.26</ele>
        <time>2016-01-15T14:16:49Z</time>
      </trkpt>
      <trkpt lat="43.92339" lon="5.17924">
        <ele>406.77</ele>
        <time>2016-01-15T14:17:03Z</time>
      </trkpt>
      <trkpt lat="43.92339" lon="5.17924">
        <ele>407.74</ele>
        <time>2016-01-15T14:17:17Z</time>
      </trkpt>
      <trkpt lat="43.92338" lon="5.17926">
        <ele>406.77</ele>
        <time>2016-01-15T14:17:28Z</time>
      </trkpt>
      <trkpt lat="43.92339" lon="5.17926">
        <ele>407.26</ele>
        <time>2016-01-15T14:17:40Z</time>
      </trkpt>
      <trkpt lat="43.92339" lon="5.17927">
        <ele>407.74</ele>
        <time>2016-01-15T14:17:47Z</time>
      </trkpt>
      <trkpt lat="43.92339" lon="5.17927">
        <ele>407.26</ele>
        <time>2016-01-15T14:18:02Z</time>
      </trkpt>
      <trkpt lat="43.92338" lon="5.17926">
        <ele>406.77</ele>
        <time>2016-01-15T14:18:18Z</time>
      </trkpt>
      <trkpt lat="43.92338" lon="5.17926">
        <ele>407.26</ele>
        <time>2016-01-15T14:18:30Z</time>
      </trkpt>
      <trkpt lat="43.92339" lon="5.17927">
        <ele>408.22</ele>
        <time>2016-01-15T14:18:38Z</time>
      </trkpt>
      <trkpt lat="43.92339" lon="5.17928">
        <ele>407.74</ele>
        <time>2016-01-15T14:18:48Z</time>
      </trkpt>
      <trkpt lat="43.92341" lon="5.1793">
        <ele>407.74</ele>
        <time>2016-01-15T14:18:54Z</time>
      </trkpt>
      <trkpt lat="43.92341" lon="5.1793">
        <ele>407.74</ele>
        <time>2016-01-15T14:19:01Z</time>
      </trkpt>
      <trkpt lat="43.92341" lon="5.1793">
        <ele>406.77</ele>
        <time>2016-01-15T14:19:15Z</time>
      </trkpt>
      <trkpt lat="43.92341" lon="5.1793">
        <ele>406.77</ele>
        <time>2016-01-15T14:19:28Z</time>
      </trkpt>
      <trkpt lat="43.92341" lon="5.17931">
        <ele>407.26</ele>
        <time>2016-01-15T14:19:45Z</time>
      </trkpt>
      <trkpt lat="43.92342" lon="5.17931">
        <ele>406.77</ele>
        <time>2016-01-15T14:20:05Z</time>
      </trkpt>
      <trkpt lat="43.92342" lon="5.17931">
        <ele>406.77</ele>
        <time>2016-01-15T14:20:24Z</time>
      </trkpt>
      <trkpt lat="43.92342" lon="5.17931">
        <ele>406.29</ele>
        <time>2016-01-15T14:20:39Z</time>
      </trkpt>
      <trkpt lat="43.92342" lon="5.17932">
        <ele>409.18</ele>
        <time>2016-01-15T14:20:52Z</time>
      </trkpt>
      <trkpt lat="43.92341" lon="5.17933">
        <ele>406.29</ele>
        <time>2016-01-15T14:20:57Z</time>
      </trkpt>
      <trkpt lat="43.92341" lon="5.17936">
        <ele>406.77</ele>
        <time>2016-01-15T14:21:04Z</time>
      </trkpt>
      <trkpt lat="43.92341" lon="5.17939">
        <ele>404.85</ele>
        <time>2016-01-15T14:21:09Z</time>
      </trkpt>
      <trkpt lat="43.92341" lon="5.1794">
        <ele>408.7</ele>
        <time>2016-01-15T14:21:10Z</time>
      </trkpt>
      <trkpt lat="43.92343" lon="5.17945">
        <ele>406.77</ele>
        <time>2016-01-15T14:21:15Z</time>
      </trkpt>
      <trkpt lat="43.92342" lon="5.17951">
        <ele>405.81</ele>
        <time>2016-01-15T14:21:21Z</time>
      </trkpt>
      <trkpt lat="43.92343" lon="5.17953">
        <ele>407.74</ele>
        <time>2016-01-15T14:21:23Z</time>
      </trkpt>
      <trkpt lat="43.92345" lon="5.17962">
        <ele>406.29</ele>
        <time>2016-01-15T14:21:30Z</time>
      </trkpt>
      <trkpt lat="43.92346" lon="5.17969">
        <ele>406.29</ele>
        <time>2016-01-15T14:21:36Z</time>
      </trkpt>
      <trkpt lat="43.92346" lon="5.17974">
        <ele>404.85</ele>
        <time>2016-01-15T14:21:39Z</time>
      </trkpt>
      <trkpt lat="43.92348" lon="5.17979">
        <ele>405.33</ele>
        <time>2016-01-15T14:21:43Z</time>
      </trkpt>
      <trkpt lat="43.92353" lon="5.17988">
        <ele>404.85</ele>
        <time>2016-01-15T14:21:50Z</time>
      </trkpt>
      <trkpt lat="43.92357" lon="5.17995">
        <ele>404.85</ele>
        <time>2016-01-15T14:21:56Z</time>
      </trkpt>
      <trkpt lat="43.92357" lon="5.17995">
        <ele>404.85</ele>
        <time>2016-01-15T14:21:58Z</time>
      </trkpt>
      <trkpt lat="43.92362" lon="5.18005">
        <ele>404.37</ele>
        <time>2016-01-15T14:22:05Z</time>
      </trkpt>
      <trkpt lat="43.92362" lon="5.18007">
        <ele>404.85</ele>
        <time>2016-01-15T14:22:07Z</time>
      </trkpt>
      <trkpt lat="43.92363" lon="5.1801">
        <ele>404.85</ele>
        <time>2016-01-15T14:22:11Z</time>
      </trkpt>
      <trkpt lat="43.92365" lon="5.18013">
        <ele>404.85</ele>
        <time>2016-01-15T14:22:17Z</time>
      </trkpt>
      <trkpt lat="43.92367" lon="5.1802">
        <ele>405.81</ele>
        <time>2016-01-15T14:22:22Z</time>
      </trkpt>
      <trkpt lat="43.92369" lon="5.18024">
        <ele>403.41</ele>
        <time>2016-01-15T14:22:27Z</time>
      </trkpt>
      <trkpt lat="43.92373" lon="5.1803">
        <ele>405.81</ele>
        <time>2016-01-15T14:22:35Z</time>
      </trkpt>
      <trkpt lat="43.92379" lon="5.18038">
        <ele>405.33</ele>
        <time>2016-01-15T14:22:40Z</time>
      </trkpt>
      <trkpt lat="43.92381" lon="5.18047">
        <ele>404.37</ele>
        <time>2016-01-15T14:22:47Z</time>
      </trkpt>
      <trkpt lat="43.92382" lon="5.18055">
        <ele>405.81</ele>
        <time>2016-01-15T14:22:53Z</time>
      </trkpt>
      <trkpt lat="43.92383" lon="5.18058">
        <ele>406.77</ele>
        <time>2016-01-15T14:22:55Z</time>
      </trkpt>
      <trkpt lat="43.92383" lon="5.18063">
        <ele>404.85</ele>
        <time>2016-01-15T14:22:58Z</time>
      </trkpt>
      <trkpt lat="43.92386" lon="5.18072">
        <ele>406.29</ele>
        <time>2016-01-15T14:23:03Z</time>
      </trkpt>
      <trkpt lat="43.92389" lon="5.1808">
        <ele>405.81</ele>
        <time>2016-01-15T14:23:09Z</time>
      </trkpt>
      <trkpt lat="43.92392" lon="5.18093">
        <ele>406.29</ele>
        <time>2016-01-15T14:23:18Z</time>
      </trkpt>
      <trkpt lat="43.92395" lon="5.18101">
        <ele>404.37</ele>
        <time>2016-01-15T14:23:23Z</time>
      </trkpt>
      <trkpt lat="43.924" lon="5.18112">
        <ele>405.81</ele>
        <time>2016-01-15T14:23:30Z</time>
      </trkpt>
      <trkpt lat="43.92403" lon="5.18115">
        <ele>406.77</ele>
        <time>2016-01-15T14:23:33Z</time>
      </trkpt>
      <trkpt lat="43.92405" lon="5.18119">
        <ele>403.89</ele>
        <time>2016-01-15T14:23:36Z</time>
      </trkpt>
      <trkpt lat="43.92405" lon="5.18122">
        <ele>405.33</ele>
        <time>2016-01-15T14:23:38Z</time>
      </trkpt>
      <trkpt lat="43.92408" lon="5.18127">
        <ele>405.81</ele>
        <time>2016-01-15T14:23:42Z</time>
      </trkpt>
      <trkpt lat="43.92411" lon="5.18135">
        <ele>405.33</ele>
        <time>2016-01-15T14:23:47Z</time>
      </trkpt>
      <trkpt lat="43.92414" lon="5.18141">
        <ele>404.85</ele>
        <time>2016-01-15T14:23:51Z</time>
      </trkpt>
      <trkpt lat="43.92418" lon="5.18144">
        <ele>403.89</ele>
        <time>2016-01-15T14:23:56Z</time>
      </trkpt>
      <trkpt lat="43.92424" lon="5.1815">
        <ele>404.37</ele>
        <time>2016-01-15T14:24:02Z</time>
      </trkpt>
      <trkpt lat="43.92426" lon="5.18151">
        <ele>403.41</ele>
        <time>2016-01-15T14:24:03Z</time>
      </trkpt>
      <trkpt lat="43.92431" lon="5.18157">
        <ele>403.89</ele>
        <time>2016-01-15T14:24:10Z</time>
      </trkpt>
      <trkpt lat="43.92435" lon="5.1816">
        <ele>404.37</ele>
        <time>2016-01-15T14:24:14Z</time>
      </trkpt>
      <trkpt lat="43.92442" lon="5.18166">
        <ele>402.93</ele>
        <time>2016-01-15T14:24:20Z</time>
      </trkpt>
      <trkpt lat="43.92445" lon="5.18167">
        <ele>403.41</ele>
        <time>2016-01-15T14:24:22Z</time>
      </trkpt>
      <trkpt lat="43.92447" lon="5.18168">
        <ele>401.97</ele>
        <time>2016-01-15T14:24:24Z</time>
      </trkpt>
      <trkpt lat="43.92448" lon="5.18169">
        <ele>402.45</ele>
        <time>2016-01-15T14:24:25Z</time>
      </trkpt>
      <trkpt lat="43.92453" lon="5.18171">
        <ele>404.37</ele>
        <time>2016-01-15T14:24:29Z</time>
      </trkpt>
      <trkpt lat="43.92458" lon="5.18174">
        <ele>401.49</ele>
        <time>2016-01-15T14:24:35Z</time>
      </trkpt>
      <trkpt lat="43.92459" lon="5.18175">
        <ele>403.41</ele>
        <time>2016-01-15T14:24:37Z</time>
      </trkpt>
      <trkpt lat="43.92466" lon="5.18175">
        <ele>403.89</ele>
        <time>2016-01-15T14:24:43Z</time>
      </trkpt>
      <trkpt lat="43.92469" lon="5.18174">
        <ele>403.41</ele>
        <time>2016-01-15T14:24:47Z</time>
      </trkpt>
      <trkpt lat="43.92474" lon="5.18172">
        <ele>406.29</ele>
        <time>2016-01-15T14:24:53Z</time>
      </trkpt>
      <trkpt lat="43.92478" lon="5.1817">
        <ele>406.77</ele>
        <time>2016-01-15T14:24:59Z</time>
      </trkpt>
      <trkpt lat="43.92481" lon="5.18168">
        <ele>408.7</ele>
        <time>2016-01-15T14:25:05Z</time>
      </trkpt>
      <trkpt lat="43.92484" lon="5.18166">
        <ele>409.18</ele>
        <time>2016-01-15T14:25:10Z</time>
      </trkpt>
      <trkpt lat="43.92489" lon="5.18164">
        <ele>408.22</ele>
        <time>2016-01-15T14:25:16Z</time>
      </trkpt>
      <trkpt lat="43.92493" lon="5.18163">
        <ele>412.06</ele>
        <time>2016-01-15T14:25:20Z</time>
      </trkpt>
      <trkpt lat="43.92494" lon="5.18163">
        <ele>412.06</ele>
        <time>2016-01-15T14:25:21Z</time>
      </trkpt>
      <trkpt lat="43.92499" lon="5.18161">
        <ele>411.58</ele>
        <time>2016-01-15T14:25:26Z</time>
      </trkpt>
      <trkpt lat="43.92501" lon="5.18161">
        <ele>413.02</ele>
        <time>2016-01-15T14:25:28Z</time>
      </trkpt>
      <trkpt lat="43.92506" lon="5.18161">
        <ele>413.5</ele>
        <time>2016-01-15T14:25:32Z</time>
      </trkpt>
      <trkpt lat="43.9251" lon="5.18164">
        <ele>413.02</ele>
        <time>2016-01-15T14:25:36Z</time>
      </trkpt>
      <trkpt lat="43.92517" lon="5.18165">
        <ele>415.43</ele>
        <time>2016-01-15T14:25:42Z</time>
      </trkpt>
      <trkpt lat="43.92524" lon="5.18169">
        <ele>416.87</ele>
        <time>2016-01-15T14:25:48Z</time>
      </trkpt>
      <trkpt lat="43.92527" lon="5.18169">
        <ele>415.91</ele>
        <time>2016-01-15T14:25:52Z</time>
      </trkpt>
      <trkpt lat="43.92531" lon="5.18171">
        <ele>416.87</ele>
        <time>2016-01-15T14:25:55Z</time>
      </trkpt>
      <trkpt lat="43.92537" lon="5.18176">
        <ele>416.87</ele>
        <time>2016-01-15T14:26:00Z</time>
      </trkpt>
      <trkpt lat="43.92542" lon="5.18179">
        <ele>416.87</ele>
        <time>2016-01-15T14:26:04Z</time>
      </trkpt>
      <trkpt lat="43.92549" lon="5.18186">
        <ele>416.87</ele>
        <time>2016-01-15T14:26:12Z</time>
      </trkpt>
      <trkpt lat="43.92554" lon="5.1819">
        <ele>417.83</ele>
        <time>2016-01-15T14:26:18Z</time>
      </trkpt>
      <trkpt lat="43.92558" lon="5.18192">
        <ele>417.35</ele>
        <time>2016-01-15T14:26:22Z</time>
      </trkpt>
      <trkpt lat="43.92561" lon="5.18195">
        <ele>417.83</ele>
        <time>2016-01-15T14:26:25Z</time>
      </trkpt>
      <trkpt lat="43.92565" lon="5.18201">
        <ele>417.83</ele>
        <time>2016-01-15T14:26:31Z</time>
      </trkpt>
      <trkpt lat="43.92568" lon="5.18209">
        <ele>415.91</ele>
        <time>2016-01-15T14:26:38Z</time>
      </trkpt>
      <trkpt lat="43.92569" lon="5.18213">
        <ele>414.47</ele>
        <time>2016-01-15T14:26:41Z</time>
      </trkpt>
      <trkpt lat="43.92573" lon="5.18218">
        <ele>414.95</ele>
        <time>2016-01-15T14:26:45Z</time>
      </trkpt>
      <trkpt lat="43.92574" lon="5.18225">
        <ele>414.95</ele>
        <time>2016-01-15T14:26:49Z</time>
      </trkpt>
      <trkpt lat="43.92581" lon="5.18231">
        <ele>413.02</ele>
        <time>2016-01-15T14:26:55Z</time>
      </trkpt>
      <trkpt lat="43.92588" lon="5.18234">
        <ele>413.02</ele>
        <time>2016-01-15T14:27:00Z</time>
      </trkpt>
      <trkpt lat="43.92593" lon="5.18237">
        <ele>413.98</ele>
        <time>2016-01-15T14:27:06Z</time>
      </trkpt>
      <trkpt lat="43.92595" lon="5.18238">
        <ele>413.5</ele>
        <time>2016-01-15T14:27:08Z</time>
      </trkpt>
      <trkpt lat="43.92602" lon="5.18243">
        <ele>413.5</ele>
        <time>2016-01-15T14:27:15Z</time>
      </trkpt>
      <trkpt lat="43.92608" lon="5.18249">
        <ele>413.98</ele>
        <time>2016-01-15T14:27:21Z</time>
      </trkpt>
      <trkpt lat="43.92608" lon="5.18249">
        <ele>413.98</ele>
        <time>2016-01-15T14:27:22Z</time>
      </trkpt>
      <trkpt lat="43.9261" lon="5.18251">
        <ele>414.95</ele>
        <time>2016-01-15T14:27:24Z</time>
      </trkpt>
      <trkpt lat="43.92617" lon="5.18258">
        <ele>412.54</ele>
        <time>2016-01-15T14:27:31Z</time>
      </trkpt>
      <trkpt lat="43.9262" lon="5.18261">
        <ele>411.1</ele>
        <time>2016-01-15T14:27:34Z</time>
      </trkpt>
      <trkpt lat="43.92625" lon="5.18268">
        <ele>411.1</ele>
        <time>2016-01-15T14:27:40Z</time>
      </trkpt>
      <trkpt lat="43.9263" lon="5.18274">
        <ele>409.18</ele>
        <time>2016-01-15T14:27:47Z</time>
      </trkpt>
      <trkpt lat="43.92638" lon="5.18279">
        <ele>408.22</ele>
        <time>2016-01-15T14:27:54Z</time>
      </trkpt>
      <trkpt lat="43.92641" lon="5.18282">
        <ele>407.74</ele>
        <time>2016-01-15T14:27:58Z</time>
      </trkpt>
      <trkpt lat="43.92649" lon="5.18291">
        <ele>406.29</ele>
        <time>2016-01-15T14:28:06Z</time>
      </trkpt>
      <trkpt lat="43.92656" lon="5.18297">
        <ele>404.37</ele>
        <time>2016-01-15T14:28:12Z</time>
      </trkpt>
      <trkpt lat="43.92662" lon="5.18304">
        <ele>404.85</ele>
        <time>2016-01-15T14:28:19Z</time>
      </trkpt>
      <trkpt lat="43.92668" lon="5.18311">
        <ele>405.81</ele>
        <time>2016-01-15T14:28:25Z</time>
      </trkpt>
      <trkpt lat="43.92675" lon="5.18315">
        <ele>406.29</ele>
        <time>2016-01-15T14:28:32Z</time>
      </trkpt>
      <trkpt lat="43.92684" lon="5.18316">
        <ele>405.81</ele>
        <time>2016-01-15T14:28:40Z</time>
      </trkpt>
      <trkpt lat="43.92691" lon="5.18318">
        <ele>406.29</ele>
        <time>2016-01-15T14:28:47Z</time>
      </trkpt>
      <trkpt lat="43.92697" lon="5.18317">
        <ele>406.29</ele>
        <time>2016-01-15T14:28:52Z</time>
      </trkpt>
      <trkpt lat="43.92702" lon="5.18319">
        <ele>405.81</ele>
        <time>2016-01-15T14:28:56Z</time>
      </trkpt>
      <trkpt lat="43.92713" lon="5.18322">
        <ele>405.81</ele>
        <time>2016-01-15T14:29:03Z</time>
      </trkpt>
      <trkpt lat="43.92719" lon="5.18325">
        <ele>407.26</ele>
        <time>2016-01-15T14:29:09Z</time>
      </trkpt>
      <trkpt lat="43.92723" lon="5.18327">
        <ele>406.77</ele>
        <time>2016-01-15T14:29:12Z</time>
      </trkpt>
      <trkpt lat="43.92728" lon="5.18329">
        <ele>407.26</ele>
        <time>2016-01-15T14:29:15Z</time>
      </trkpt>
      <trkpt lat="43.92733" lon="5.18331">
        <ele>408.7</ele>
        <time>2016-01-15T14:29:21Z</time>
      </trkpt>
      <trkpt lat="43.92734" lon="5.18332">
        <ele>407.74</ele>
        <time>2016-01-15T14:29:22Z</time>
      </trkpt>
      <trkpt lat="43.92739" lon="5.18333">
        <ele>407.26</ele>
        <time>2016-01-15T14:29:26Z</time>
      </trkpt>
      <trkpt lat="43.92744" lon="5.18338">
        <ele>410.14</ele>
        <time>2016-01-15T14:29:33Z</time>
      </trkpt>
      <trkpt lat="43.92747" lon="5.18339">
        <ele>409.66</ele>
        <time>2016-01-15T14:29:36Z</time>
      </trkpt>
      <trkpt lat="43.92754" lon="5.18342">
        <ele>411.1</ele>
        <time>2016-01-15T14:29:43Z</time>
      </trkpt>
      <trkpt lat="43.92761" lon="5.18345">
        <ele>409.66</ele>
        <time>2016-01-15T14:29:49Z</time>
      </trkpt>
      <trkpt lat="43.92769" lon="5.18351">
        <ele>410.14</ele>
        <time>2016-01-15T14:29:57Z</time>
      </trkpt>
      <trkpt lat="43.92773" lon="5.18354">
        <ele>411.1</ele>
        <time>2016-01-15T14:30:01Z</time>
      </trkpt>
      <trkpt lat="43.92777" lon="5.18356">
        <ele>411.1</ele>
        <time>2016-01-15T14:30:04Z</time>
      </trkpt>
      <trkpt lat="43.92783" lon="5.18365">
        <ele>410.62</ele>
        <time>2016-01-15T14:30:11Z</time>
      </trkpt>
      <trkpt lat="43.9279" lon="5.18371">
        <ele>409.18</ele>
        <time>2016-01-15T14:30:17Z</time>
      </trkpt>
      <trkpt lat="43.92795" lon="5.18377">
        <ele>412.06</ele>
        <time>2016-01-15T14:30:23Z</time>
      </trkpt>
      <trkpt lat="43.92798" lon="5.18379">
        <ele>410.62</ele>
        <time>2016-01-15T14:30:25Z</time>
      </trkpt>
      <trkpt lat="43.928" lon="5.18381">
        <ele>409.66</ele>
        <time>2016-01-15T14:30:27Z</time>
      </trkpt>
      <trkpt lat="43.92808" lon="5.18382">
        <ele>412.06</ele>
        <time>2016-01-15T14:30:33Z</time>
      </trkpt>
      <trkpt lat="43.92813" lon="5.18384">
        <ele>411.58</ele>
        <time>2016-01-15T14:30:39Z</time>
      </trkpt>
      <trkpt lat="43.92815" lon="5.18384">
        <ele>412.54</ele>
        <time>2016-01-15T14:30:41Z</time>
      </trkpt>
      <trkpt lat="43.92816" lon="5.18384">
        <ele>411.58</ele>
        <time>2016-01-15T14:30:42Z</time>
      </trkpt>
      <trkpt lat="43.92826" lon="5.18387">
        <ele>412.06</ele>
        <time>2016-01-15T14:30:50Z</time>
      </trkpt>
      <trkpt lat="43.92827" lon="5.18388">
        <ele>411.58</ele>
        <time>2016-01-15T14:30:51Z</time>
      </trkpt>
      <trkpt lat="43.92837" lon="5.18394">
        <ele>411.1</ele>
        <time>2016-01-15T14:30:59Z</time>
      </trkpt>
      <trkpt lat="43.92841" lon="5.18398">
        <ele>414.47</ele>
        <time>2016-01-15T14:31:03Z</time>
      </trkpt>
      <trkpt lat="43.92845" lon="5.184">
        <ele>414.47</ele>
        <time>2016-01-15T14:31:07Z</time>
      </trkpt>
      <trkpt lat="43.92847" lon="5.18402">
        <ele>413.5</ele>
        <time>2016-01-15T14:31:09Z</time>
      </trkpt>
      <trkpt lat="43.92856" lon="5.18404">
        <ele>413.02</ele>
        <time>2016-01-15T14:31:16Z</time>
      </trkpt>
      <trkpt lat="43.92862" lon="5.18409">
        <ele>413.98</ele>
        <time>2016-01-15T14:31:23Z</time>
      </trkpt>
      <trkpt lat="43.92869" lon="5.1841">
        <ele>413.98</ele>
        <time>2016-01-15T14:31:28Z</time>
      </trkpt>
      <trkpt lat="43.92879" lon="5.18416">
        <ele>413.5</ele>
        <time>2016-01-15T14:31:36Z</time>
      </trkpt>
      <trkpt lat="43.92885" lon="5.18419">
        <ele>413.5</ele>
        <time>2016-01-15T14:31:42Z</time>
      </trkpt>
      <trkpt lat="43.92892" lon="5.18423">
        <ele>413.5</ele>
        <time>2016-01-15T14:31:48Z</time>
      </trkpt>
      <trkpt lat="43.92899" lon="5.18429">
        <ele>413.02</ele>
        <time>2016-01-15T14:31:54Z</time>
      </trkpt>
      <trkpt lat="43.92902" lon="5.18433">
        <ele>413.5</ele>
        <time>2016-01-15T14:31:58Z</time>
      </trkpt>
      <trkpt lat="43.92909" lon="5.1844">
        <ele>413.98</ele>
        <time>2016-01-15T14:32:05Z</time>
      </trkpt>
      <trkpt lat="43.92911" lon="5.18442">
        <ele>413.98</ele>
        <time>2016-01-15T14:32:08Z</time>
      </trkpt>
      <trkpt lat="43.92916" lon="5.18443">
        <ele>413.5</ele>
        <time>2016-01-15T14:32:13Z</time>
      </trkpt>
      <trkpt lat="43.92921" lon="5.18446">
        <ele>413.98</ele>
        <time>2016-01-15T14:32:17Z</time>
      </trkpt>
      <trkpt lat="43.92931" lon="5.18447">
        <ele>416.39</ele>
        <time>2016-01-15T14:32:25Z</time>
      </trkpt>
      <trkpt lat="43.92938" lon="5.18448">
        <ele>414.47</ele>
        <time>2016-01-15T14:32:31Z</time>
      </trkpt>
      <trkpt lat="43.92941" lon="5.18448">
        <ele>416.39</ele>
        <time>2016-01-15T14:32:37Z</time>
      </trkpt>
      <trkpt lat="43.92946" lon="5.18449">
        <ele>415.91</ele>
        <time>2016-01-15T14:32:42Z</time>
      </trkpt>
      <trkpt lat="43.9295" lon="5.18448">
        <ele>415.91</ele>
        <time>2016-01-15T14:32:46Z</time>
      </trkpt>
      <trkpt lat="43.92959" lon="5.18447">
        <ele>417.35</ele>
        <time>2016-01-15T14:32:53Z</time>
      </trkpt>
      <trkpt lat="43.92965" lon="5.18447">
        <ele>416.87</ele>
        <time>2016-01-15T14:32:59Z</time>
      </trkpt>
      <trkpt lat="43.9297" lon="5.18449">
        <ele>418.31</ele>
        <time>2016-01-15T14:33:04Z</time>
      </trkpt>
      <trkpt lat="43.92971" lon="5.18448">
        <ele>417.83</ele>
        <time>2016-01-15T14:33:06Z</time>
      </trkpt>
      <trkpt lat="43.92975" lon="5.18448">
        <ele>416.39</ele>
        <time>2016-01-15T14:33:10Z</time>
      </trkpt>
      <trkpt lat="43.92981" lon="5.18448">
        <ele>416.39</ele>
        <time>2016-01-15T14:33:14Z</time>
      </trkpt>
      <trkpt lat="43.92987" lon="5.18448">
        <ele>416.87</ele>
        <time>2016-01-15T14:33:18Z</time>
      </trkpt>
      <trkpt lat="43.9299" lon="5.18448">
        <ele>414.95</ele>
        <time>2016-01-15T14:33:23Z</time>
      </trkpt>
      <trkpt lat="43.9299" lon="5.18448">
        <ele>420.71</ele>
        <time>2016-01-15T14:33:24Z</time>
      </trkpt>
      <trkpt lat="43.9299" lon="5.18448">
        <ele>417.83</ele>
        <time>2016-01-15T14:33:26Z</time>
      </trkpt>
      <trkpt lat="43.92991" lon="5.18447">
        <ele>417.83</ele>
        <time>2016-01-15T14:33:27Z</time>
      </trkpt>
      <trkpt lat="43.92994" lon="5.18447">
        <ele>418.79</ele>
        <time>2016-01-15T14:33:30Z</time>
      </trkpt>
      <trkpt lat="43.93001" lon="5.18447">
        <ele>417.83</ele>
        <time>2016-01-15T14:33:36Z</time>
      </trkpt>
      <trkpt lat="43.93004" lon="5.18449">
        <ele>418.31</ele>
        <time>2016-01-15T14:33:39Z</time>
      </trkpt>
      <trkpt lat="43.93008" lon="5.18449">
        <ele>419.75</ele>
        <time>2016-01-15T14:33:42Z</time>
      </trkpt>
      <trkpt lat="43.93011" lon="5.18449">
        <ele>419.75</ele>
        <time>2016-01-15T14:33:44Z</time>
      </trkpt>
      <trkpt lat="43.93016" lon="5.18449">
        <ele>420.23</ele>
        <time>2016-01-15T14:33:50Z</time>
      </trkpt>
      <trkpt lat="43.9302" lon="5.18449">
        <ele>420.71</ele>
        <time>2016-01-15T14:33:54Z</time>
      </trkpt>
      <trkpt lat="43.93021" lon="5.18449">
        <ele>420.71</ele>
        <time>2016-01-15T14:33:55Z</time>
      </trkpt>
      <trkpt lat="43.93031" lon="5.1845">
        <ele>418.79</ele>
        <time>2016-01-15T14:34:03Z</time>
      </trkpt>
      <trkpt lat="43.93038" lon="5.18451">
        <ele>420.71</ele>
        <time>2016-01-15T14:34:08Z</time>
      </trkpt>
      <trkpt lat="43.93045" lon="5.18454">
        <ele>421.19</ele>
        <time>2016-01-15T14:34:14Z</time>
      </trkpt>
      <trkpt lat="43.93046" lon="5.18455">
        <ele>420.71</ele>
        <time>2016-01-15T14:34:15Z</time>
      </trkpt>
      <trkpt lat="43.93049" lon="5.18457">
        <ele>421.68</ele>
        <time>2016-01-15T14:34:18Z</time>
      </trkpt>
      <trkpt lat="43.93055" lon="5.18458">
        <ele>421.68</ele>
        <time>2016-01-15T14:34:22Z</time>
      </trkpt>
      <trkpt lat="43.93065" lon="5.1846">
        <ele>421.19</ele>
        <time>2016-01-15T14:34:29Z</time>
      </trkpt>
      <trkpt lat="43.93069" lon="5.1846">
        <ele>420.23</ele>
        <time>2016-01-15T14:34:33Z</time>
      </trkpt>
      <trkpt lat="43.93071" lon="5.18461">
        <ele>420.71</ele>
        <time>2016-01-15T14:34:35Z</time>
      </trkpt>
      <trkpt lat="43.9308" lon="5.18464">
        <ele>420.23</ele>
        <time>2016-01-15T14:34:41Z</time>
      </trkpt>
      <trkpt lat="43.93086" lon="5.18467">
        <ele>420.71</ele>
        <time>2016-01-15T14:34:47Z</time>
      </trkpt>
      <trkpt lat="43.93092" lon="5.1847">
        <ele>419.75</ele>
        <time>2016-01-15T14:34:52Z</time>
      </trkpt>
      <trkpt lat="43.93095" lon="5.18472">
        <ele>421.19</ele>
        <time>2016-01-15T14:34:55Z</time>
      </trkpt>
      <trkpt lat="43.93099" lon="5.18474">
        <ele>421.68</ele>
        <time>2016-01-15T14:34:58Z</time>
      </trkpt>
      <trkpt lat="43.93102" lon="5.18475">
        <ele>420.71</ele>
        <time>2016-01-15T14:35:02Z</time>
      </trkpt>
      <trkpt lat="43.93105" lon="5.18476">
        <ele>421.19</ele>
        <time>2016-01-15T14:35:06Z</time>
      </trkpt>
      <trkpt lat="43.93109" lon="5.18474">
        <ele>421.19</ele>
        <time>2016-01-15T14:35:11Z</time>
      </trkpt>
      <trkpt lat="43.93116" lon="5.1847">
        <ele>420.23</ele>
        <time>2016-01-15T14:35:19Z</time>
      </trkpt>
      <trkpt lat="43.9312" lon="5.18464">
        <ele>422.16</ele>
        <time>2016-01-15T14:35:25Z</time>
      </trkpt>
      <trkpt lat="43.93124" lon="5.18458">
        <ele>422.16</ele>
        <time>2016-01-15T14:35:31Z</time>
      </trkpt>
      <trkpt lat="43.93125" lon="5.18454">
        <ele>423.6</ele>
        <time>2016-01-15T14:35:33Z</time>
      </trkpt>
      <trkpt lat="43.9313" lon="5.18448">
        <ele>421.68</ele>
        <time>2016-01-15T14:35:38Z</time>
      </trkpt>
      <trkpt lat="43.93132" lon="5.18444">
        <ele>424.08</ele>
        <time>2016-01-15T14:35:40Z</time>
      </trkpt>
      <trkpt lat="43.93136" lon="5.18439">
        <ele>419.75</ele>
        <time>2016-01-15T14:35:44Z</time>
      </trkpt>
      <trkpt lat="43.93138" lon="5.18433">
        <ele>422.64</ele>
        <time>2016-01-15T14:35:47Z</time>
      </trkpt>
      <trkpt lat="43.93142" lon="5.18428">
        <ele>422.64</ele>
        <time>2016-01-15T14:35:51Z</time>
      </trkpt>
      <trkpt lat="43.93148" lon="5.1843">
        <ele>422.64</ele>
        <time>2016-01-15T14:35:56Z</time>
      </trkpt>
      <trkpt lat="43.93155" lon="5.18434">
        <ele>422.16</ele>
        <time>2016-01-15T14:36:01Z</time>
      </trkpt>
      <trkpt lat="43.9316" lon="5.18439">
        <ele>424.08</ele>
        <time>2016-01-15T14:36:05Z</time>
      </trkpt>
      <trkpt lat="43.93161" lon="5.18441">
        <ele>423.12</ele>
        <time>2016-01-15T14:36:08Z</time>
      </trkpt>
      <trkpt lat="43.93167" lon="5.18447">
        <ele>425.52</ele>
        <time>2016-01-15T14:36:14Z</time>
      </trkpt>
      <trkpt lat="43.93173" lon="5.18453">
        <ele>424.56</ele>
        <time>2016-01-15T14:36:19Z</time>
      </trkpt>
      <trkpt lat="43.93178" lon="5.18461">
        <ele>423.6</ele>
        <time>2016-01-15T14:36:25Z</time>
      </trkpt>
      <trkpt lat="43.93179" lon="5.18464">
        <ele>425.04</ele>
        <time>2016-01-15T14:36:27Z</time>
      </trkpt>
      <trkpt lat="43.93185" lon="5.1847">
        <ele>424.56</ele>
        <time>2016-01-15T14:36:34Z</time>
      </trkpt>
      <trkpt lat="43.93189" lon="5.18476">
        <ele>424.56</ele>
        <time>2016-01-15T14:36:40Z</time>
      </trkpt>
      <trkpt lat="43.93194" lon="5.1848">
        <ele>424.08</ele>
        <time>2016-01-15T14:36:48Z</time>
      </trkpt>
      <trkpt lat="43.932" lon="5.18483">
        <ele>423.12</ele>
        <time>2016-01-15T14:36:53Z</time>
      </trkpt>
      <trkpt lat="43.93207" lon="5.18488">
        <ele>422.64</ele>
        <time>2016-01-15T14:36:59Z</time>
      </trkpt>
      <trkpt lat="43.93207" lon="5.18489">
        <ele>422.16</ele>
        <time>2016-01-15T14:37:01Z</time>
      </trkpt>
      <trkpt lat="43.93212" lon="5.18493">
        <ele>420.23</ele>
        <time>2016-01-15T14:37:06Z</time>
      </trkpt>
      <trkpt lat="43.93218" lon="5.18499">
        <ele>420.71</ele>
        <time>2016-01-15T14:37:12Z</time>
      </trkpt>
      <trkpt lat="43.93219" lon="5.18507">
        <ele>420.71</ele>
        <time>2016-01-15T14:37:18Z</time>
      </trkpt>
      <trkpt lat="43.93219" lon="5.18511">
        <ele>420.71</ele>
        <time>2016-01-15T14:37:20Z</time>
      </trkpt>
      <trkpt lat="43.9322" lon="5.18517">
        <ele>420.23</ele>
        <time>2016-01-15T14:37:24Z</time>
      </trkpt>
      <trkpt lat="43.93219" lon="5.18521">
        <ele>420.23</ele>
        <time>2016-01-15T14:37:26Z</time>
      </trkpt>
      <trkpt lat="43.93219" lon="5.18524">
        <ele>420.71</ele>
        <time>2016-01-15T14:37:28Z</time>
      </trkpt>
      <trkpt lat="43.9322" lon="5.18533">
        <ele>419.27</ele>
        <time>2016-01-15T14:37:33Z</time>
      </trkpt>
      <trkpt lat="43.93222" lon="5.18544">
        <ele>418.79</ele>
        <time>2016-01-15T14:37:40Z</time>
      </trkpt>
      <trkpt lat="43.93222" lon="5.18551">
        <ele>418.31</ele>
        <time>2016-01-15T14:37:44Z</time>
      </trkpt>
      <trkpt lat="43.93223" lon="5.18554">
        <ele>418.79</ele>
        <time>2016-01-15T14:37:47Z</time>
      </trkpt>
      <trkpt lat="43.93226" lon="5.18566">
        <ele>416.87</ele>
        <time>2016-01-15T14:37:54Z</time>
      </trkpt>
      <trkpt lat="43.93226" lon="5.18567">
        <ele>417.35</ele>
        <time>2016-01-15T14:37:55Z</time>
      </trkpt>
      <trkpt lat="43.93229" lon="5.18572">
        <ele>417.83</ele>
        <time>2016-01-15T14:37:59Z</time>
      </trkpt>
      <trkpt lat="43.93232" lon="5.18578">
        <ele>418.31</ele>
        <time>2016-01-15T14:38:03Z</time>
      </trkpt>
      <trkpt lat="43.93234" lon="5.18584">
        <ele>416.87</ele>
        <time>2016-01-15T14:38:07Z</time>
      </trkpt>
      <trkpt lat="43.93239" lon="5.18594">
        <ele>416.87</ele>
        <time>2016-01-15T14:38:14Z</time>
      </trkpt>
      <trkpt lat="43.93245" lon="5.18599">
        <ele>416.87</ele>
        <time>2016-01-15T14:38:20Z</time>
      </trkpt>
      <trkpt lat="43.93255" lon="5.18602">
        <ele>416.87</ele>
        <time>2016-01-15T14:38:28Z</time>
      </trkpt>
      <trkpt lat="43.93261" lon="5.18605">
        <ele>416.87</ele>
        <time>2016-01-15T14:38:34Z</time>
      </trkpt>
      <trkpt lat="43.93266" lon="5.18605">
        <ele>417.35</ele>
        <time>2016-01-15T14:38:37Z</time>
      </trkpt>
      <trkpt lat="43.93277" lon="5.1861">
        <ele>417.35</ele>
        <time>2016-01-15T14:38:46Z</time>
      </trkpt>
      <trkpt lat="43.93281" lon="5.18612">
        <ele>417.35</ele>
        <time>2016-01-15T14:38:50Z</time>
      </trkpt>
      <trkpt lat="43.93284" lon="5.18617">
        <ele>417.35</ele>
        <time>2016-01-15T14:38:54Z</time>
      </trkpt>
      <trkpt lat="43.93285" lon="5.18622">
        <ele>416.39</ele>
        <time>2016-01-15T14:38:57Z</time>
      </trkpt>
      <trkpt lat="43.93287" lon="5.18631">
        <ele>415.43</ele>
        <time>2016-01-15T14:39:03Z</time>
      </trkpt>
      <trkpt lat="43.93291" lon="5.18638">
        <ele>413.98</ele>
        <time>2016-01-15T14:39:10Z</time>
      </trkpt>
      <trkpt lat="43.933" lon="5.18645">
        <ele>413.98</ele>
        <time>2016-01-15T14:39:18Z</time>
      </trkpt>
      <trkpt lat="43.93303" lon="5.1865">
        <ele>413.02</ele>
        <time>2016-01-15T14:39:24Z</time>
      </trkpt>
      <trkpt lat="43.93317" lon="5.18656">
        <ele>413.5</ele>
        <time>2016-01-15T14:39:34Z</time>
      </trkpt>
      <trkpt lat="43.93327" lon="5.18661">
        <ele>414.47</ele>
        <time>2016-01-15T14:39:44Z</time>
      </trkpt>
      <trkpt lat="43.93338" lon="5.1867">
        <ele>414.47</ele>
        <time>2016-01-15T14:39:52Z</time>
      </trkpt>
      <trkpt lat="43.93345" lon="5.18676">
        <ele>414.47</ele>
        <time>2016-01-15T14:39:59Z</time>
      </trkpt>
      <trkpt lat="43.93353" lon="5.18684">
        <ele>413.98</ele>
        <time>2016-01-15T14:40:06Z</time>
      </trkpt>
      <trkpt lat="43.93359" lon="5.1869">
        <ele>413.5</ele>
        <time>2016-01-15T14:40:12Z</time>
      </trkpt>
      <trkpt lat="43.93366" lon="5.18698">
        <ele>413.02</ele>
        <time>2016-01-15T14:40:19Z</time>
      </trkpt>
      <trkpt lat="43.93371" lon="5.18708">
        <ele>412.54</ele>
        <time>2016-01-15T14:40:27Z</time>
      </trkpt>
      <trkpt lat="43.93377" lon="5.18715">
        <ele>411.1</ele>
        <time>2016-01-15T14:40:35Z</time>
      </trkpt>
      <trkpt lat="43.9338" lon="5.18724">
        <ele>409.18</ele>
        <time>2016-01-15T14:40:43Z</time>
      </trkpt>
      <trkpt lat="43.93381" lon="5.18739">
        <ele>406.77</ele>
        <time>2016-01-15T14:40:53Z</time>
      </trkpt>
      <trkpt lat="43.93382" lon="5.1875">
        <ele>405.81</ele>
        <time>2016-01-15T14:41:02Z</time>
      </trkpt>
      <trkpt lat="43.93378" lon="5.18758">
        <ele>403.89</ele>
        <time>2016-01-15T14:41:10Z</time>
      </trkpt>
      <trkpt lat="43.93368" lon="5.18763">
        <ele>401.49</ele>
        <time>2016-01-15T14:41:22Z</time>
      </trkpt>
      <trkpt lat="43.93359" lon="5.18763">
        <ele>399.57</ele>
        <time>2016-01-15T14:41:33Z</time>
      </trkpt>
      <trkpt lat="43.93357" lon="5.18763">
        <ele>399.08</ele>
        <time>2016-01-15T14:41:35Z</time>
      </trkpt>
      <trkpt lat="43.93349" lon="5.1877">
        <ele>398.12</ele>
        <time>2016-01-15T14:41:44Z</time>
      </trkpt>
      <trkpt lat="43.93344" lon="5.18765">
        <ele>397.64</ele>
        <time>2016-01-15T14:41:52Z</time>
      </trkpt>
      <trkpt lat="43.93344" lon="5.18764">
        <ele>397.64</ele>
        <time>2016-01-15T14:41:59Z</time>
      </trkpt>
      <trkpt lat="43.93343" lon="5.18763">
        <ele>397.64</ele>
        <time>2016-01-15T14:42:08Z</time>
      </trkpt>
      <trkpt lat="43.9334" lon="5.18764">
        <ele>395.72</ele>
        <time>2016-01-15T14:42:16Z</time>
      </trkpt>
      <trkpt lat="43.93333" lon="5.18764">
        <ele>393.32</ele>
        <time>2016-01-15T14:42:26Z</time>
      </trkpt>
      <trkpt lat="43.93328" lon="5.1877">
        <ele>391.39</ele>
        <time>2016-01-15T14:42:34Z</time>
      </trkpt>
      <trkpt lat="43.9333" lon="5.18777">
        <ele>389.95</ele>
        <time>2016-01-15T14:42:43Z</time>
      </trkpt>
      <trkpt lat="43.93331" lon="5.18784">
        <ele>388.03</ele>
        <time>2016-01-15T14:42:51Z</time>
      </trkpt>
      <trkpt lat="43.93337" lon="5.18796">
        <ele>387.07</ele>
        <time>2016-01-15T14:43:01Z</time>
      </trkpt>
      <trkpt lat="43.93341" lon="5.18799">
        <ele>387.07</ele>
        <time>2016-01-15T14:43:05Z</time>
      </trkpt>
      <trkpt lat="43.93349" lon="5.18809">
        <ele>386.59</ele>
        <time>2016-01-15T14:43:14Z</time>
      </trkpt>
      <trkpt lat="43.93353" lon="5.18813">
        <ele>386.59</ele>
        <time>2016-01-15T14:43:19Z</time>
      </trkpt>
      <trkpt lat="43.93359" lon="5.18821">
        <ele>386.11</ele>
        <time>2016-01-15T14:43:26Z</time>
      </trkpt>
      <trkpt lat="43.93364" lon="5.18833">
        <ele>385.63</ele>
        <time>2016-01-15T14:43:33Z</time>
      </trkpt>
      <trkpt lat="43.93369" lon="5.18839">
        <ele>385.15</ele>
        <time>2016-01-15T14:43:39Z</time>
      </trkpt>
      <trkpt lat="43.9337" lon="5.1884">
        <ele>385.63</ele>
        <time>2016-01-15T14:43:40Z</time>
      </trkpt>
      <trkpt lat="43.93378" lon="5.18845">
        <ele>386.59</ele>
        <time>2016-01-15T14:43:47Z</time>
      </trkpt>
      <trkpt lat="43.93382" lon="5.18848">
        <ele>386.11</ele>
        <time>2016-01-15T14:43:51Z</time>
      </trkpt>
      <trkpt lat="43.93388" lon="5.18852">
        <ele>386.11</ele>
        <time>2016-01-15T14:43:56Z</time>
      </trkpt>
      <trkpt lat="43.93396" lon="5.18857">
        <ele>385.15</ele>
        <time>2016-01-15T14:44:03Z</time>
      </trkpt>
      <trkpt lat="43.934" lon="5.18864">
        <ele>385.15</ele>
        <time>2016-01-15T14:44:08Z</time>
      </trkpt>
      <trkpt lat="43.934" lon="5.18872">
        <ele>384.66</ele>
        <time>2016-01-15T14:44:12Z</time>
      </trkpt>
      <trkpt lat="43.93393" lon="5.18876">
        <ele>383.7</ele>
        <time>2016-01-15T14:44:18Z</time>
      </trkpt>
      <trkpt lat="43.93384" lon="5.18875">
        <ele>382.74</ele>
        <time>2016-01-15T14:44:25Z</time>
      </trkpt>
      <trkpt lat="43.9338" lon="5.18875">
        <ele>381.78</ele>
        <time>2016-01-15T14:44:28Z</time>
      </trkpt>
      <trkpt lat="43.93371" lon="5.18873">
        <ele>380.82</ele>
        <time>2016-01-15T14:44:36Z</time>
      </trkpt>
      <trkpt lat="43.93364" lon="5.18873">
        <ele>380.82</ele>
        <time>2016-01-15T14:44:43Z</time>
      </trkpt>
      <trkpt lat="43.93355" lon="5.18874">
        <ele>380.82</ele>
        <time>2016-01-15T14:44:50Z</time>
      </trkpt>
      <trkpt lat="43.9335" lon="5.18876">
        <ele>380.34</ele>
        <time>2016-01-15T14:44:54Z</time>
      </trkpt>
      <trkpt lat="43.93342" lon="5.18878">
        <ele>379.38</ele>
        <time>2016-01-15T14:45:01Z</time>
      </trkpt>
      <trkpt lat="43.93334" lon="5.18883">
        <ele>378.42</ele>
        <time>2016-01-15T14:45:09Z</time>
      </trkpt>
      <trkpt lat="43.93327" lon="5.18887">
        <ele>377.45</ele>
        <time>2016-01-15T14:45:16Z</time>
      </trkpt>
      <trkpt lat="43.93326" lon="5.18887">
        <ele>377.45</ele>
        <time>2016-01-15T14:45:17Z</time>
      </trkpt>
      <trkpt lat="43.93324" lon="5.18889">
        <ele>376.97</ele>
        <time>2016-01-15T14:45:19Z</time>
      </trkpt>
      <trkpt lat="43.93312" lon="5.18893">
        <ele>376.49</ele>
        <time>2016-01-15T14:45:27Z</time>
      </trkpt>
      <trkpt lat="43.93311" lon="5.18894">
        <ele>376.49</ele>
        <time>2016-01-15T14:45:28Z</time>
      </trkpt>
      <trkpt lat="43.93301" lon="5.18896">
        <ele>375.53</ele>
        <time>2016-01-15T14:45:37Z</time>
      </trkpt>
      <trkpt lat="43.93299" lon="5.18898">
        <ele>375.05</ele>
        <time>2016-01-15T14:45:39Z</time>
      </trkpt>
      <trkpt lat="43.93287" lon="5.18901">
        <ele>374.09</ele>
        <time>2016-01-15T14:45:47Z</time>
      </trkpt>
      <trkpt lat="43.93277" lon="5.18905">
        <ele>373.61</ele>
        <time>2016-01-15T14:45:55Z</time>
      </trkpt>
      <trkpt lat="43.93267" lon="5.18908">
        <ele>372.65</ele>
        <time>2016-01-15T14:46:03Z</time>
      </trkpt>
      <trkpt lat="43.93257" lon="5.18914">
        <ele>372.65</ele>
        <time>2016-01-15T14:46:13Z</time>
      </trkpt>
      <trkpt lat="43.93246" lon="5.18916">
        <ele>372.65</ele>
        <time>2016-01-15T14:46:21Z</time>
      </trkpt>
      <trkpt lat="43.93237" lon="5.18917">
        <ele>372.17</ele>
        <time>2016-01-15T14:46:29Z</time>
      </trkpt>
      <trkpt lat="43.93222" lon="5.18919">
        <ele>372.65</ele>
        <time>2016-01-15T14:46:40Z</time>
      </trkpt>
      <trkpt lat="43.93209" lon="5.18919">
        <ele>373.61</ele>
        <time>2016-01-15T14:46:51Z</time>
      </trkpt>
      <trkpt lat="43.93197" lon="5.18916">
        <ele>373.61</ele>
        <time>2016-01-15T14:46:58Z</time>
      </trkpt>
      <trkpt lat="43.93187" lon="5.18913">
        <ele>373.61</ele>
        <time>2016-01-15T14:47:05Z</time>
      </trkpt>
      <trkpt lat="43.93178" lon="5.18912">
        <ele>373.61</ele>
        <time>2016-01-15T14:47:13Z</time>
      </trkpt>
      <trkpt lat="43.93171" lon="5.1891">
        <ele>372.65</ele>
        <time>2016-01-15T14:47:21Z</time>
      </trkpt>
      <trkpt lat="43.9316" lon="5.18908">
        <ele>373.13</ele>
        <time>2016-01-15T14:47:31Z</time>
      </trkpt>
      <trkpt lat="43.93152" lon="5.18906">
        <ele>372.65</ele>
        <time>2016-01-15T14:47:38Z</time>
      </trkpt>
      <trkpt lat="43.93143" lon="5.18906">
        <ele>372.17</ele>
        <time>2016-01-15T14:47:46Z</time>
      </trkpt>
      <trkpt lat="43.93142" lon="5.18905">
        <ele>373.13</ele>
        <time>2016-01-15T14:47:47Z</time>
      </trkpt>
      <trkpt lat="43.93138" lon="5.18905">
        <ele>372.65</ele>
        <time>2016-01-15T14:47:51Z</time>
      </trkpt>
      <trkpt lat="43.93125" lon="5.18905">
        <ele>372.65</ele>
        <time>2016-01-15T14:48:00Z</time>
      </trkpt>
      <trkpt lat="43.93117" lon="5.18906">
        <ele>372.65</ele>
        <time>2016-01-15T14:48:07Z</time>
      </trkpt>
      <trkpt lat="43.9311" lon="5.1891">
        <ele>372.65</ele>
        <time>2016-01-15T14:48:13Z</time>
      </trkpt>
      <trkpt lat="43.93107" lon="5.18913">
        <ele>372.17</ele>
        <time>2016-01-15T14:48:16Z</time>
      </trkpt>
      <trkpt lat="43.93098" lon="5.18916">
        <ele>371.69</ele>
        <time>2016-01-15T14:48:24Z</time>
      </trkpt>
      <trkpt lat="43.93096" lon="5.18916">
        <ele>371.69</ele>
        <time>2016-01-15T14:48:26Z</time>
      </trkpt>
      <trkpt lat="43.93088" lon="5.18918">
        <ele>371.21</ele>
        <time>2016-01-15T14:48:34Z</time>
      </trkpt>
      <trkpt lat="43.93083" lon="5.18915">
        <ele>370.73</ele>
        <time>2016-01-15T14:48:41Z</time>
      </trkpt>
      <trkpt lat="43.93081" lon="5.18914">
        <ele>370.73</ele>
        <time>2016-01-15T14:48:49Z</time>
      </trkpt>
      <trkpt lat="43.93079" lon="5.18916">
        <ele>370.24</ele>
        <time>2016-01-15T14:48:56Z</time>
      </trkpt>
      <trkpt lat="43.93078" lon="5.18912">
        <ele>371.21</ele>
        <time>2016-01-15T14:49:03Z</time>
      </trkpt>
      <trkpt lat="43.93079" lon="5.18911">
        <ele>371.21</ele>
        <time>2016-01-15T14:49:17Z</time>
      </trkpt>
    </trkseg>
  </trk>
</gpx>